﻿<?xml version="1.0" encoding="utf-8"?><gpx creator="Garmin Desktop App" version="1.1" xsi:schemaLocation="http://www.topografix.com/GPX/1/1 http://www.topografix.com/GPX/1/1/gpx.xsd http://www.garmin.com/xmlschemas/WaypointExtension/v1 http://www8.garmin.com/xmlschemas/WaypointExtensionv1.xsd http://www.garmin.com/xmlschemas/TrackPointExtension/v1 http://www.garmin.com/xmlschemas/TrackPointExtensionv1.xsd http://www.garmin.com/xmlschemas/GpxExtensions/v3 http://www8.garmin.com/xmlschemas/GpxExtensionsv3.xsd http://www.garmin.com/xmlschemas/ActivityExtension/v1 http://www8.garmin.com/xmlschemas/ActivityExtensionv1.xsd http://www.garmin.com/xmlschemas/AdventuresExtensions/v1 http://www8.garmin.com/xmlschemas/AdventuresExtensionv1.xsd http://www.garmin.com/xmlschemas/PressureExtension/v1 http://www.garmin.com/xmlschemas/PressureExtensionv1.xsd http://www.garmin.com/xmlschemas/TripExtensions/v1 http://www.garmin.com/xmlschemas/TripExtensionsv1.xsd http://www.garmin.com/xmlschemas/TripMetaDataExtensions/v1 http://www.garmin.com/xmlschemas/TripMetaDataExtensionsv1.xsd http://www.garmin.com/xmlschemas/ViaPointTransportationModeExtensions/v1 http://www.garmin.com/xmlschemas/ViaPointTransportationModeExtensionsv1.xsd http://www.garmin.com/xmlschemas/CreationTimeExtension/v1 http://www.garmin.com/xmlschemas/CreationTimeExtensionsv1.xsd http://www.garmin.com/xmlschemas/AccelerationExtension/v1 http://www.garmin.com/xmlschemas/AccelerationExtensionv1.xsd http://www.garmin.com/xmlschemas/PowerExtension/v1 http://www.garmin.com/xmlschemas/PowerExtensionv1.xsd http://www.garmin.com/xmlschemas/VideoExtension/v1 http://www.garmin.com/xmlschemas/VideoExtensionv1.xsd" xmlns="http://www.topografix.com/GPX/1/1" xmlns:xsi="http://www.w3.org/2001/XMLSchema-instance" xmlns:wptx1="http://www.garmin.com/xmlschemas/WaypointExtension/v1" xmlns:gpxtrx="http://www.garmin.com/xmlschemas/GpxExtensions/v3" xmlns:gpxtpx="http://www.garmin.com/xmlschemas/TrackPointExtension/v1" xmlns:gpxx="http://www.garmin.com/xmlschemas/GpxExtensions/v3" xmlns:trp="http://www.garmin.com/xmlschemas/TripExtensions/v1" xmlns:adv="http://www.garmin.com/xmlschemas/AdventuresExtensions/v1" xmlns:prs="http://www.garmin.com/xmlschemas/PressureExtension/v1" xmlns:tmd="http://www.garmin.com/xmlschemas/TripMetaDataExtensions/v1" xmlns:vptm="http://www.garmin.com/xmlschemas/ViaPointTransportationModeExtensions/v1" xmlns:ctx="http://www.garmin.com/xmlschemas/CreationTimeExtension/v1" xmlns:gpxacc="http://www.garmin.com/xmlschemas/AccelerationExtension/v1" xmlns:gpxpx="http://www.garmin.com/xmlschemas/PowerExtension/v1" xmlns:vidx1="http://www.garmin.com/xmlschemas/VideoExtension/v1">

  <metadata>
    <link href="http://www.garmin.com">
      <text>Garmin International</text>
    </link>
    <time>2019-09-03T17:46:15Z</time>
    <bounds maxlat="58.591983038932085" maxlon="-3.525048019364476" minlat="57.735948991030455" minlon="-5.221213968470693" />
  </metadata>

  <trk>
    <name>Track vom: 2019-09-03 09:22</name>
    <extensions>
      <gpxx:TrackExtension>
        <gpxx:DisplayColor>DarkGray</gpxx:DisplayColor>
      </gpxx:TrackExtension>
    </extensions>
    <trkseg>
      <trkpt lat="58.591728983446956" lon="-3.525138963013887">
        <ele>24.649999999999999</ele>
        <time>2019-09-03T08:22:47Z</time>
      </trkpt>
      <trkpt lat="58.591528991237283" lon="-3.525575995445252">
        <ele>22.73</ele>
        <time>2019-09-03T08:23:49Z</time>
      </trkpt>
      <trkpt lat="58.591549023985863" lon="-3.525520004332066">
        <ele>18.879999999999999</ele>
        <time>2019-09-03T08:24:19Z</time>
      </trkpt>
      <trkpt lat="58.59154500067234" lon="-3.525510029867292">
        <ele>20.32</ele>
        <time>2019-09-03T08:24:30Z</time>
      </trkpt>
      <trkpt lat="58.59156503342092" lon="-3.525302996858954">
        <ele>20.32</ele>
        <time>2019-09-03T08:24:39Z</time>
      </trkpt>
      <trkpt lat="58.59156503342092" lon="-3.525302996858954">
        <ele>20.32</ele>
        <time>2019-09-03T08:25:18Z</time>
      </trkpt>
      <trkpt lat="58.59156696125865" lon="-3.525302996858954">
        <ele>20.32</ele>
        <time>2019-09-03T08:25:56Z</time>
      </trkpt>
      <trkpt lat="58.591568972915411" lon="-3.525302996858954">
        <ele>19.84</ele>
        <time>2019-09-03T08:26:31Z</time>
      </trkpt>
      <trkpt lat="58.591778017580509" lon="-3.52514298632741">
        <ele>18.879999999999999</ele>
        <time>2019-09-03T08:26:46Z</time>
      </trkpt>
      <trkpt lat="58.591836020350456" lon="-3.525076014921069">
        <ele>20.32</ele>
        <time>2019-09-03T08:26:57Z</time>
      </trkpt>
      <trkpt lat="58.591886982321739" lon="-3.525048019364476">
        <ele>20.32</ele>
        <time>2019-09-03T08:26:59Z</time>
      </trkpt>
      <trkpt lat="58.59190902672708" lon="-3.525103004649282">
        <ele>20.32</ele>
        <time>2019-09-03T08:27:00Z</time>
      </trkpt>
      <trkpt lat="58.591935010626912" lon="-3.525168970227242">
        <ele>20.32</ele>
        <time>2019-09-03T08:27:01Z</time>
      </trkpt>
      <trkpt lat="58.59195495955646" lon="-3.525223033502698">
        <ele>20.32</ele>
        <time>2019-09-03T08:27:02Z</time>
      </trkpt>
      <trkpt lat="58.59197499230504" lon="-3.52527198381722">
        <ele>19.84</ele>
        <time>2019-09-03T08:27:10Z</time>
      </trkpt>
      <trkpt lat="58.591983038932085" lon="-3.525425037369132">
        <ele>19.359999999999999</ele>
        <time>2019-09-03T08:27:12Z</time>
      </trkpt>
      <trkpt lat="58.59195495955646" lon="-3.525453032925725">
        <ele>19.84</ele>
        <time>2019-09-03T08:27:13Z</time>
      </trkpt>
      <trkpt lat="58.591944985091686" lon="-3.525468036532402">
        <ele>19.84</ele>
        <time>2019-09-03T08:27:14Z</time>
      </trkpt>
      <trkpt lat="58.59154399484396" lon="-3.526060972362757">
        <ele>18.879999999999999</ele>
        <time>2019-09-03T08:27:21Z</time>
      </trkpt>
      <trkpt lat="58.591005960479379" lon="-3.52681702002883">
        <ele>19.359999999999999</ele>
        <time>2019-09-03T08:27:31Z</time>
      </trkpt>
      <trkpt lat="58.590545961633325" lon="-3.527944972738624">
        <ele>22.25</ele>
        <time>2019-09-03T08:27:39Z</time>
      </trkpt>
      <trkpt lat="58.590511009097099" lon="-3.528078999370337">
        <ele>23.210000000000001</ele>
        <time>2019-09-03T08:27:40Z</time>
      </trkpt>
      <trkpt lat="58.590446971356869" lon="-3.528347974643111">
        <ele>24.649999999999999</ele>
        <time>2019-09-03T08:27:42Z</time>
      </trkpt>
      <trkpt lat="58.590409001335502" lon="-3.528469009324908">
        <ele>25.129999999999999</ele>
        <time>2019-09-03T08:27:43Z</time>
      </trkpt>
      <trkpt lat="58.590361978858709" lon="-3.528579985722899">
        <ele>25.609999999999999</ele>
        <time>2019-09-03T08:27:44Z</time>
      </trkpt>
      <trkpt lat="58.590315962210298" lon="-3.528692973777652">
        <ele>26.57</ele>
        <time>2019-09-03T08:27:45Z</time>
      </trkpt>
      <trkpt lat="58.590268017724156" lon="-3.528806967660785">
        <ele>27.050000000000001</ele>
        <time>2019-09-03T08:27:46Z</time>
      </trkpt>
      <trkpt lat="58.590216971933842" lon="-3.528929008170962">
        <ele>27.530000000000001</ele>
        <time>2019-09-03T08:27:47Z</time>
      </trkpt>
      <trkpt lat="58.590155029669404" lon="-3.529033027589321">
        <ele>28.02</ele>
        <time>2019-09-03T08:27:48Z</time>
      </trkpt>
      <trkpt lat="58.590091997757554" lon="-3.529138974845409">
        <ele>28.98</ele>
        <time>2019-09-03T08:27:49Z</time>
      </trkpt>
      <trkpt lat="58.589282976463437" lon="-3.530500028282404">
        <ele>30.899999999999999</ele>
        <time>2019-09-03T08:28:01Z</time>
      </trkpt>
      <trkpt lat="58.588498011231422" lon="-3.531829984858632">
        <ele>40.990000000000002</ele>
        <time>2019-09-03T08:28:12Z</time>
      </trkpt>
      <trkpt lat="58.587639033794403" lon="-3.533224985003471">
        <ele>47.719999999999999</ele>
        <time>2019-09-03T08:28:24Z</time>
      </trkpt>
      <trkpt lat="58.587188003584743" lon="-3.533892016857863">
        <ele>47.240000000000002</ele>
        <time>2019-09-03T08:28:32Z</time>
      </trkpt>
      <trkpt lat="58.586653992533684" lon="-3.534633982926607">
        <ele>47.240000000000002</ele>
        <time>2019-09-03T08:28:41Z</time>
      </trkpt>
      <trkpt lat="58.585422020405531" lon="-3.536140965297818">
        <ele>48.68</ele>
        <time>2019-09-03T08:28:56Z</time>
      </trkpt>
      <trkpt lat="58.58406700193882" lon="-3.537289034575224">
        <ele>49.649999999999999</ele>
        <time>2019-09-03T08:29:09Z</time>
      </trkpt>
      <trkpt lat="58.582803010940552" lon="-3.538298970088363">
        <ele>48.200000000000003</ele>
        <time>2019-09-03T08:29:20Z</time>
      </trkpt>
      <trkpt lat="58.581603979691863" lon="-3.539116960018873">
        <ele>50.609999999999999</ele>
        <time>2019-09-03T08:29:30Z</time>
      </trkpt>
      <trkpt lat="58.580507040023804" lon="-3.540373994037509">
        <ele>53.490000000000002</ele>
        <time>2019-09-03T08:29:39Z</time>
      </trkpt>
      <trkpt lat="58.578924033790827" lon="-3.542556976899505">
        <ele>56.859999999999999</ele>
        <time>2019-09-03T08:29:51Z</time>
      </trkpt>
      <trkpt lat="58.577585024759173" lon="-3.544956967234612">
        <ele>56.859999999999999</ele>
        <time>2019-09-03T08:30:02Z</time>
      </trkpt>
      <trkpt lat="58.576296977698803" lon="-3.547300966456533">
        <ele>60.219999999999999</ele>
        <time>2019-09-03T08:30:14Z</time>
      </trkpt>
      <trkpt lat="58.575613014400005" lon="-3.549820985645056">
        <ele>62.619999999999997</ele>
        <time>2019-09-03T08:30:23Z</time>
      </trkpt>
      <trkpt lat="58.574429992586374" lon="-3.554575033485889">
        <ele>69.349999999999994</ele>
        <time>2019-09-03T08:30:39Z</time>
      </trkpt>
      <trkpt lat="58.573254011571407" lon="-3.559219026938081">
        <ele>70.310000000000002</ele>
        <time>2019-09-03T08:30:54Z</time>
      </trkpt>
      <trkpt lat="58.571909973397851" lon="-3.56338600628078">
        <ele>66.469999999999999</ele>
        <time>2019-09-03T08:31:07Z</time>
      </trkpt>
      <trkpt lat="58.570546992123127" lon="-3.567452989518642">
        <ele>65.030000000000001</ele>
        <time>2019-09-03T08:31:20Z</time>
      </trkpt>
      <trkpt lat="58.569390960037708" lon="-3.570894012227655">
        <ele>69.829999999999998</ele>
        <time>2019-09-03T08:31:33Z</time>
      </trkpt>
      <trkpt lat="58.568959040567279" lon="-3.571813004091382">
        <ele>71.269999999999996</ele>
        <time>2019-09-03T08:31:37Z</time>
      </trkpt>
      <trkpt lat="58.568819984793663" lon="-3.571982989087701">
        <ele>71.269999999999996</ele>
        <time>2019-09-03T08:31:38Z</time>
      </trkpt>
      <trkpt lat="58.567178975790739" lon="-3.573959022760391">
        <ele>73.200000000000003</ele>
        <time>2019-09-03T08:31:49Z</time>
      </trkpt>
      <trkpt lat="58.564533982425928" lon="-3.577366014942527">
        <ele>73.680000000000007</ele>
        <time>2019-09-03T08:32:07Z</time>
      </trkpt>
      <trkpt lat="58.563827974721789" lon="-3.579324027523398">
        <ele>72.239999999999995</ele>
        <time>2019-09-03T08:32:14Z</time>
      </trkpt>
      <trkpt lat="58.563405023887753" lon="-3.582403035834432">
        <ele>70.790000000000006</ele>
        <time>2019-09-03T08:32:23Z</time>
      </trkpt>
      <trkpt lat="58.562805969268084" lon="-3.587160017341375">
        <ele>66.469999999999999</ele>
        <time>2019-09-03T08:32:36Z</time>
      </trkpt>
      <trkpt lat="58.562027039006352" lon="-3.593347035348415">
        <ele>63.579999999999998</ele>
        <time>2019-09-03T08:32:52Z</time>
      </trkpt>
      <trkpt lat="58.561395965516567" lon="-3.598353965207934">
        <ele>62.619999999999997</ele>
        <time>2019-09-03T08:33:05Z</time>
      </trkpt>
      <trkpt lat="58.56064897030592" lon="-3.603755012154579">
        <ele>59.259999999999998</ele>
        <time>2019-09-03T08:33:19Z</time>
      </trkpt>
      <trkpt lat="58.559888983145356" lon="-3.606490027159452">
        <ele>56.859999999999999</ele>
        <time>2019-09-03T08:33:27Z</time>
      </trkpt>
      <trkpt lat="58.55858601629734" lon="-3.609079029411078">
        <ele>57.340000000000003</ele>
        <time>2019-09-03T08:33:36Z</time>
      </trkpt>
      <trkpt lat="58.557066963985562" lon="-3.611967014148831">
        <ele>58.780000000000001</ele>
        <time>2019-09-03T08:33:47Z</time>
      </trkpt>
      <trkpt lat="58.555676992982626" lon="-3.614652995020151">
        <ele>58.780000000000001</ele>
        <time>2019-09-03T08:33:58Z</time>
      </trkpt>
      <trkpt lat="58.555370969697833" lon="-3.615400996059179">
        <ele>58.780000000000001</ele>
        <time>2019-09-03T08:34:01Z</time>
      </trkpt>
      <trkpt lat="58.555311961099505" lon="-3.615685980767012">
        <ele>58.299999999999997</ele>
        <time>2019-09-03T08:34:02Z</time>
      </trkpt>
      <trkpt lat="58.555251024663448" lon="-3.615984041243792">
        <ele>57.82</ele>
        <time>2019-09-03T08:34:03Z</time>
      </trkpt>
      <trkpt lat="58.555196039378643" lon="-3.616267014294863">
        <ele>57.340000000000003</ele>
        <time>2019-09-03T08:34:04Z</time>
      </trkpt>
      <trkpt lat="58.555167960003018" lon="-3.616574965417385">
        <ele>56.859999999999999</ele>
        <time>2019-09-03T08:34:05Z</time>
      </trkpt>
      <trkpt lat="58.555139964446425" lon="-3.616886017844081">
        <ele>55.890000000000001</ele>
        <time>2019-09-03T08:34:06Z</time>
      </trkpt>
      <trkpt lat="58.555141976103187" lon="-3.617192963138223">
        <ele>55.409999999999997</ele>
        <time>2019-09-03T08:34:07Z</time>
      </trkpt>
      <trkpt lat="58.555151028558612" lon="-3.617503009736538">
        <ele>54.93</ele>
        <time>2019-09-03T08:34:08Z</time>
      </trkpt>
      <trkpt lat="58.555391002446413" lon="-3.621292971074581">
        <ele>47.240000000000002</ele>
        <time>2019-09-03T08:34:20Z</time>
      </trkpt>
      <trkpt lat="58.555801967158914" lon="-3.623766973614693">
        <ele>41.950000000000003</ele>
        <time>2019-09-03T08:34:29Z</time>
      </trkpt>
      <trkpt lat="58.555818982422352" lon="-3.623983981087804">
        <ele>40.990000000000002</ele>
        <time>2019-09-03T08:34:30Z</time>
      </trkpt>
      <trkpt lat="58.55579299852252" lon="-3.624165030196309">
        <ele>40.509999999999998</ele>
        <time>2019-09-03T08:34:31Z</time>
      </trkpt>
      <trkpt lat="58.555761985480785" lon="-3.62433803267777">
        <ele>40.030000000000001</ele>
        <time>2019-09-03T08:34:32Z</time>
      </trkpt>
      <trkpt lat="58.555699037387967" lon="-3.62446803599596">
        <ele>39.549999999999997</ele>
        <time>2019-09-03T08:34:33Z</time>
      </trkpt>
      <trkpt lat="58.555626031011343" lon="-3.624588986858726">
        <ele>39.07</ele>
        <time>2019-09-03T08:34:34Z</time>
      </trkpt>
      <trkpt lat="58.555551012977958" lon="-3.624709015712142">
        <ele>38.590000000000003</ele>
        <time>2019-09-03T08:34:35Z</time>
      </trkpt>
      <trkpt lat="58.555458979681134" lon="-3.624815968796611">
        <ele>38.590000000000003</ele>
        <time>2019-09-03T08:34:36Z</time>
      </trkpt>
      <trkpt lat="58.554391041398048" lon="-3.625857001170516">
        <ele>38.590000000000003</ele>
        <time>2019-09-03T08:34:45Z</time>
      </trkpt>
      <trkpt lat="58.554246034473181" lon="-3.625892959535122">
        <ele>39.07</ele>
        <time>2019-09-03T08:34:46Z</time>
      </trkpt>
      <trkpt lat="58.554099015891552" lon="-3.625912992283702">
        <ele>39.07</ele>
        <time>2019-09-03T08:34:47Z</time>
      </trkpt>
      <trkpt lat="58.55394403450191" lon="-3.625895977020264">
        <ele>39.549999999999997</ele>
        <time>2019-09-03T08:34:48Z</time>
      </trkpt>
      <trkpt lat="58.553786035627127" lon="-3.625879967585206">
        <ele>40.509999999999998</ele>
        <time>2019-09-03T08:34:49Z</time>
      </trkpt>
      <trkpt lat="58.552660010755062" lon="-3.625837974250317">
        <ele>45.32</ele>
        <time>2019-09-03T08:34:56Z</time>
      </trkpt>
      <trkpt lat="58.552503017708659" lon="-3.625922966748476">
        <ele>46.280000000000001</ele>
        <time>2019-09-03T08:34:57Z</time>
      </trkpt>
      <trkpt lat="58.55235499329865" lon="-3.626055987551808">
        <ele>46.759999999999998</ele>
        <time>2019-09-03T08:34:58Z</time>
      </trkpt>
      <trkpt lat="58.55220596306026" lon="-3.626190014183521">
        <ele>47.240000000000002</ele>
        <time>2019-09-03T08:34:59Z</time>
      </trkpt>
      <trkpt lat="58.55207797139883" lon="-3.62635899335146">
        <ele>47.719999999999999</ele>
        <time>2019-09-03T08:35:00Z</time>
      </trkpt>
      <trkpt lat="58.551964983344078" lon="-3.626545993611217">
        <ele>48.200000000000003</ele>
        <time>2019-09-03T08:35:01Z</time>
      </trkpt>
      <trkpt lat="58.551850989460945" lon="-3.626732993870974">
        <ele>49.159999999999997</ele>
        <time>2019-09-03T08:35:02Z</time>
      </trkpt>
      <trkpt lat="58.551764991134405" lon="-3.626967016607523">
        <ele>49.649999999999999</ele>
        <time>2019-09-03T08:35:03Z</time>
      </trkpt>
      <trkpt lat="58.551691984757781" lon="-3.627242026850581">
        <ele>50.130000000000003</ele>
        <time>2019-09-03T08:35:04Z</time>
      </trkpt>
      <trkpt lat="58.551664995029569" lon="-3.627560036256909">
        <ele>50.609999999999999</ele>
        <time>2019-09-03T08:35:05Z</time>
      </trkpt>
      <trkpt lat="58.551635993644595" lon="-3.627891959622502">
        <ele>51.57</ele>
        <time>2019-09-03T08:35:06Z</time>
      </trkpt>
      <trkpt lat="58.551644962280989" lon="-3.628273000940681">
        <ele>52.049999999999997</ele>
        <time>2019-09-03T08:35:07Z</time>
      </trkpt>
      <trkpt lat="58.551653008908033" lon="-3.628666028380394">
        <ele>52.530000000000001</ele>
        <time>2019-09-03T08:35:08Z</time>
      </trkpt>
      <trkpt lat="58.551781000569463" lon="-3.633284037932754">
        <ele>56.859999999999999</ele>
        <time>2019-09-03T08:35:19Z</time>
      </trkpt>
      <trkpt lat="58.551943022757769" lon="-3.636934021487832">
        <ele>61.659999999999997</ele>
        <time>2019-09-03T08:35:29Z</time>
      </trkpt>
      <trkpt lat="58.55237795971334" lon="-3.640412008389831">
        <ele>65.030000000000001</ele>
        <time>2019-09-03T08:35:40Z</time>
      </trkpt>
      <trkpt lat="58.553327964618802" lon="-3.644530959427357">
        <ele>64.069999999999993</ele>
        <time>2019-09-03T08:35:53Z</time>
      </trkpt>
      <trkpt lat="58.554622968658805" lon="-3.64990602247417">
        <ele>65.989999999999995</ele>
        <time>2019-09-03T08:36:09Z</time>
      </trkpt>
      <trkpt lat="58.555415980517864" lon="-3.654136033728719">
        <ele>67.430000000000007</ele>
        <time>2019-09-03T08:36:20Z</time>
      </trkpt>
      <trkpt lat="58.555555958300829" lon="-3.657801020890474">
        <ele>69.349999999999994</ele>
        <time>2019-09-03T08:36:29Z</time>
      </trkpt>
      <trkpt lat="58.555258987471461" lon="-3.660989999771118">
        <ele>71.760000000000005</ele>
        <time>2019-09-03T08:36:37Z</time>
      </trkpt>
      <trkpt lat="58.554478967562318" lon="-3.666663039475679">
        <ele>73.680000000000007</ele>
        <time>2019-09-03T08:36:52Z</time>
      </trkpt>
      <trkpt lat="58.553556958213449" lon="-3.673365963622928">
        <ele>78</ele>
        <time>2019-09-03T08:37:08Z</time>
      </trkpt>
      <trkpt lat="58.553180024027824" lon="-3.676481014117599">
        <ele>80.890000000000001</ele>
        <time>2019-09-03T08:37:16Z</time>
      </trkpt>
      <trkpt lat="58.552922029048204" lon="-3.680570963770151">
        <ele>81.370000000000005</ele>
        <time>2019-09-03T08:37:27Z</time>
      </trkpt>
      <trkpt lat="58.552552973851562" lon="-3.686433015391231">
        <ele>81.849999999999994</ele>
        <time>2019-09-03T08:37:43Z</time>
      </trkpt>
      <trkpt lat="58.552258014678955" lon="-3.691146997734904">
        <ele>84.25</ele>
        <time>2019-09-03T08:37:56Z</time>
      </trkpt>
      <trkpt lat="58.55228902772069" lon="-3.694628002122045">
        <ele>85.689999999999998</ele>
        <time>2019-09-03T08:38:06Z</time>
      </trkpt>
      <trkpt lat="58.55263402685523" lon="-3.699182979762554">
        <ele>80.890000000000001</ele>
        <time>2019-09-03T08:38:17Z</time>
      </trkpt>
      <trkpt lat="58.552846005186439" lon="-3.704097960144281">
        <ele>74.159999999999997</ele>
        <time>2019-09-03T08:38:29Z</time>
      </trkpt>
      <trkpt lat="58.552898978814483" lon="-3.704438013955951">
        <ele>73.680000000000007</ele>
        <time>2019-09-03T08:38:30Z</time>
      </trkpt>
      <trkpt lat="58.552973996847868" lon="-3.704773038625717">
        <ele>73.200000000000003</ele>
        <time>2019-09-03T08:38:31Z</time>
      </trkpt>
      <trkpt lat="58.553702970966697" lon="-3.707313006743789">
        <ele>66.950000000000003</ele>
        <time>2019-09-03T08:38:39Z</time>
      </trkpt>
      <trkpt lat="58.554663034155965" lon="-3.709044959396124">
        <ele>63.100000000000001</ele>
        <time>2019-09-03T08:38:46Z</time>
      </trkpt>
      <trkpt lat="58.555325036868453" lon="-3.711189972236753">
        <ele>58.780000000000001</ele>
        <time>2019-09-03T08:38:53Z</time>
      </trkpt>
      <trkpt lat="58.556582992896438" lon="-3.717104997485876">
        <ele>53.969999999999999</ele>
        <time>2019-09-03T08:39:09Z</time>
      </trkpt>
      <trkpt lat="58.557719998061657" lon="-3.72252699919045">
        <ele>50.609999999999999</ele>
        <time>2019-09-03T08:39:22Z</time>
      </trkpt>
      <trkpt lat="58.558288039639592" lon="-3.725235024467111">
        <ele>51.090000000000003</ele>
        <time>2019-09-03T08:39:30Z</time>
      </trkpt>
      <trkpt lat="58.559049032628536" lon="-3.728862963616848">
        <ele>48.68</ele>
        <time>2019-09-03T08:39:43Z</time>
      </trkpt>
      <trkpt lat="58.559714974835515" lon="-3.732040962204337">
        <ele>46.759999999999998</ele>
        <time>2019-09-03T08:39:52Z</time>
      </trkpt>
      <trkpt lat="58.560016974806786" lon="-3.733522966504097">
        <ele>45.32</ele>
        <time>2019-09-03T08:39:56Z</time>
      </trkpt>
      <trkpt lat="58.560052011162043" lon="-3.733895961195231">
        <ele>44.840000000000003</ele>
        <time>2019-09-03T08:39:57Z</time>
      </trkpt>
      <trkpt lat="58.5600680205971" lon="-3.734281025826931">
        <ele>44.359999999999999</ele>
        <time>2019-09-03T08:39:58Z</time>
      </trkpt>
      <trkpt lat="58.560274969786406" lon="-3.739352999255061">
        <ele>36.189999999999998</ele>
        <time>2019-09-03T08:40:11Z</time>
      </trkpt>
      <trkpt lat="58.560484014451504" lon="-3.744482975453138">
        <ele>36.670000000000002</ele>
        <time>2019-09-03T08:40:25Z</time>
      </trkpt>
      <trkpt lat="58.560657016932964" lon="-3.748748023062944">
        <ele>39.07</ele>
        <time>2019-09-03T08:40:37Z</time>
      </trkpt>
      <trkpt lat="58.560788026079535" lon="-3.752014031633735">
        <ele>36.189999999999998</ele>
        <time>2019-09-03T08:40:46Z</time>
      </trkpt>
      <trkpt lat="58.561183987185359" lon="-3.756439005956054">
        <ele>27.530000000000001</ele>
        <time>2019-09-03T08:40:58Z</time>
      </trkpt>
      <trkpt lat="58.561468971893191" lon="-3.759518014267087">
        <ele>24.649999999999999</ele>
        <time>2019-09-03T08:41:08Z</time>
      </trkpt>
      <trkpt lat="58.561533009633422" lon="-3.76027699559927">
        <ele>22.73</ele>
        <time>2019-09-03T08:41:14Z</time>
      </trkpt>
      <trkpt lat="58.561440976336598" lon="-3.760850988328457">
        <ele>21.77</ele>
        <time>2019-09-03T08:41:23Z</time>
      </trkpt>
      <trkpt lat="58.56131399050355" lon="-3.760959031060338">
        <ele>22.25</ele>
        <time>2019-09-03T08:41:25Z</time>
      </trkpt>
      <trkpt lat="58.561132019385695" lon="-3.761116024106741">
        <ele>22.73</ele>
        <time>2019-09-03T08:41:27Z</time>
      </trkpt>
      <trkpt lat="58.561044009402394" lon="-3.761254996061325">
        <ele>22.25</ele>
        <time>2019-09-03T08:41:28Z</time>
      </trkpt>
      <trkpt lat="58.560963962227106" lon="-3.76141500659287">
        <ele>22.25</ele>
        <time>2019-09-03T08:41:29Z</time>
      </trkpt>
      <trkpt lat="58.560893973335624" lon="-3.761614998802543">
        <ele>22.25</ele>
        <time>2019-09-03T08:41:30Z</time>
      </trkpt>
      <trkpt lat="58.560862960293889" lon="-3.761866958811879">
        <ele>21.77</ele>
        <time>2019-09-03T08:41:31Z</time>
      </trkpt>
      <trkpt lat="58.560862960293889" lon="-3.762140041217208">
        <ele>21.77</ele>
        <time>2019-09-03T08:41:32Z</time>
      </trkpt>
      <trkpt lat="58.560862960293889" lon="-3.762426031753421">
        <ele>21.77</ele>
        <time>2019-09-03T08:41:33Z</time>
      </trkpt>
      <trkpt lat="58.560934960842133" lon="-3.76470398157835">
        <ele>23.690000000000001</ele>
        <time>2019-09-03T08:41:42Z</time>
      </trkpt>
      <trkpt lat="58.560915011912584" lon="-3.767449976876378">
        <ele>25.609999999999999</ele>
        <time>2019-09-03T08:41:54Z</time>
      </trkpt>
      <trkpt lat="58.56062700971961" lon="-3.769937977194786">
        <ele>22.25</ele>
        <time>2019-09-03T08:42:03Z</time>
      </trkpt>
      <trkpt lat="58.560112025588751" lon="-3.771979976445437">
        <ele>15.52</ele>
        <time>2019-09-03T08:42:12Z</time>
      </trkpt>
      <trkpt lat="58.560026027262211" lon="-3.772163959220052">
        <ele>15.039999999999999</ele>
        <time>2019-09-03T08:42:13Z</time>
      </trkpt>
      <trkpt lat="58.559202002361417" lon="-3.77409297041595">
        <ele>14.08</ele>
        <time>2019-09-03T08:42:23Z</time>
      </trkpt>
      <trkpt lat="58.55912497267127" lon="-3.774319030344486">
        <ele>14.56</ele>
        <time>2019-09-03T08:42:24Z</time>
      </trkpt>
      <trkpt lat="58.559083985164762" lon="-3.774556992575526">
        <ele>14.56</ele>
        <time>2019-09-03T08:42:25Z</time>
      </trkpt>
      <trkpt lat="58.55903897434473" lon="-3.774816999211907">
        <ele>14.56</ele>
        <time>2019-09-03T08:42:26Z</time>
      </trkpt>
      <trkpt lat="58.559021959081292" lon="-3.775105001404882">
        <ele>15.039999999999999</ele>
        <time>2019-09-03T08:42:27Z</time>
      </trkpt>
      <trkpt lat="58.559005027636886" lon="-3.775412030518055">
        <ele>15.52</ele>
        <time>2019-09-03T08:42:28Z</time>
      </trkpt>
      <trkpt lat="58.558987006545067" lon="-3.775727022439241">
        <ele>15.52</ele>
        <time>2019-09-03T08:42:29Z</time>
      </trkpt>
      <trkpt lat="58.55903796851635" lon="-3.776609972119331">
        <ele>17.440000000000001</ele>
        <time>2019-09-03T08:42:32Z</time>
      </trkpt>
      <trkpt lat="58.559064958244562" lon="-3.776896968483925">
        <ele>17.920000000000002</ele>
        <time>2019-09-03T08:42:33Z</time>
      </trkpt>
      <trkpt lat="58.55921097099781" lon="-3.779196040704846">
        <ele>18.879999999999999</ele>
        <time>2019-09-03T08:42:40Z</time>
      </trkpt>
      <trkpt lat="58.559093959629536" lon="-3.78234202042222">
        <ele>16.960000000000001</ele>
        <time>2019-09-03T08:42:49Z</time>
      </trkpt>
      <trkpt lat="58.558567995205522" lon="-3.785670977085829">
        <ele>16</ele>
        <time>2019-09-03T08:43:00Z</time>
      </trkpt>
      <trkpt lat="58.558088969439268" lon="-3.788518980145454">
        <ele>17.440000000000001</ele>
        <time>2019-09-03T08:43:09Z</time>
      </trkpt>
      <trkpt lat="58.557673981413245" lon="-3.790959035977721">
        <ele>16</ele>
        <time>2019-09-03T08:43:18Z</time>
      </trkpt>
      <trkpt lat="58.557079033926129" lon="-3.793583996593952">
        <ele>17.920000000000002</ele>
        <time>2019-09-03T08:43:28Z</time>
      </trkpt>
      <trkpt lat="58.556789020076394" lon="-3.794535007327795">
        <ele>17.920000000000002</ele>
        <time>2019-09-03T08:43:32Z</time>
      </trkpt>
      <trkpt lat="58.55675901286304" lon="-3.794809011742473">
        <ele>17.920000000000002</ele>
        <time>2019-09-03T08:43:33Z</time>
      </trkpt>
      <trkpt lat="58.556729005649686" lon="-3.795084021985531">
        <ele>17.920000000000002</ele>
        <time>2019-09-03T08:43:34Z</time>
      </trkpt>
      <trkpt lat="58.556522978469729" lon="-3.797594988718629">
        <ele>18.399999999999999</ele>
        <time>2019-09-03T08:43:44Z</time>
      </trkpt>
      <trkpt lat="58.556530019268394" lon="-3.799893977120519">
        <ele>18.399999999999999</ele>
        <time>2019-09-03T08:43:52Z</time>
      </trkpt>
      <trkpt lat="58.55669598095119" lon="-3.803858030587435">
        <ele>24.170000000000002</ele>
        <time>2019-09-03T08:44:03Z</time>
      </trkpt>
      <trkpt lat="58.556823972612619" lon="-3.806958999484778">
        <ele>28.02</ele>
        <time>2019-09-03T08:44:12Z</time>
      </trkpt>
      <trkpt lat="58.556873006746173" lon="-3.809978999197483">
        <ele>30.899999999999999</ele>
        <time>2019-09-03T08:44:22Z</time>
      </trkpt>
      <trkpt lat="58.556825984269381" lon="-3.81027203053236">
        <ele>31.379999999999999</ele>
        <time>2019-09-03T08:44:23Z</time>
      </trkpt>
      <trkpt lat="58.556762030348182" lon="-3.81055198609829">
        <ele>32.340000000000003</ele>
        <time>2019-09-03T08:44:24Z</time>
      </trkpt>
      <trkpt lat="58.556338995695114" lon="-3.812852986156941">
        <ele>39.549999999999997</ele>
        <time>2019-09-03T08:44:32Z</time>
      </trkpt>
      <trkpt lat="58.556342013180256" lon="-3.813156997784972">
        <ele>40.030000000000001</ele>
        <time>2019-09-03T08:44:33Z</time>
      </trkpt>
      <trkpt lat="58.556416025385261" lon="-3.816655017435551">
        <ele>48.200000000000003</ele>
        <time>2019-09-03T08:44:43Z</time>
      </trkpt>
      <trkpt lat="58.556198012083769" lon="-3.819345021620393">
        <ele>51.090000000000003</ele>
        <time>2019-09-03T08:44:50Z</time>
      </trkpt>
      <trkpt lat="58.555694008246064" lon="-3.823564974591136">
        <ele>55.409999999999997</ele>
        <time>2019-09-03T08:45:01Z</time>
      </trkpt>
      <trkpt lat="58.555022031068802" lon="-3.828821014612913">
        <ele>65.030000000000001</ele>
        <time>2019-09-03T08:45:14Z</time>
      </trkpt>
      <trkpt lat="58.554543005302548" lon="-3.832277040928602">
        <ele>78</ele>
        <time>2019-09-03T08:45:23Z</time>
      </trkpt>
      <trkpt lat="58.554590027779341" lon="-3.834098009392619">
        <ele>82.329999999999998</ele>
        <time>2019-09-03T08:45:28Z</time>
      </trkpt>
      <trkpt lat="58.554635038599372" lon="-3.834425993263722">
        <ele>82.810000000000002</ele>
        <time>2019-09-03T08:45:29Z</time>
      </trkpt>
      <trkpt lat="58.554703015834093" lon="-3.834741991013289">
        <ele>83.769999999999996</ele>
        <time>2019-09-03T08:45:30Z</time>
      </trkpt>
      <trkpt lat="58.55480301193893" lon="-3.835014989599586">
        <ele>84.25</ele>
        <time>2019-09-03T08:45:31Z</time>
      </trkpt>
      <trkpt lat="58.554919017478824" lon="-3.835263010114431">
        <ele>84.730000000000004</ele>
        <time>2019-09-03T08:45:32Z</time>
      </trkpt>
      <trkpt lat="58.55503804050386" lon="-3.835515975952148">
        <ele>85.209999999999994</ele>
        <time>2019-09-03T08:45:33Z</time>
      </trkpt>
      <trkpt lat="58.555182041600347" lon="-3.83571102283895">
        <ele>86.180000000000007</ele>
        <time>2019-09-03T08:45:34Z</time>
      </trkpt>
      <trkpt lat="58.555336017161608" lon="-3.835869021713734">
        <ele>86.659999999999997</ele>
        <time>2019-09-03T08:45:35Z</time>
      </trkpt>
      <trkpt lat="58.555502984672785" lon="-3.835988966748118">
        <ele>87.140000000000001</ele>
        <time>2019-09-03T08:45:36Z</time>
      </trkpt>
      <trkpt lat="58.555671041831374" lon="-3.836110001429915">
        <ele>88.099999999999994</ele>
        <time>2019-09-03T08:45:37Z</time>
      </trkpt>
      <trkpt lat="58.556000031530857" lon="-3.836383000016213">
        <ele>89.540000000000006</ele>
        <time>2019-09-03T08:45:39Z</time>
      </trkpt>
      <trkpt lat="58.55613699182868" lon="-3.836580980569124">
        <ele>90.019999999999996</ele>
        <time>2019-09-03T08:45:40Z</time>
      </trkpt>
      <trkpt lat="58.556257020682096" lon="-3.836799999698997">
        <ele>90.980000000000004</ele>
        <time>2019-09-03T08:45:41Z</time>
      </trkpt>
      <trkpt lat="58.556380989030004" lon="-3.837028993293643">
        <ele>91.939999999999998</ele>
        <time>2019-09-03T08:45:42Z</time>
      </trkpt>
      <trkpt lat="58.556473022326827" lon="-3.837310960516334">
        <ele>92.420000000000002</ele>
        <time>2019-09-03T08:45:43Z</time>
      </trkpt>
      <trkpt lat="58.556548962369561" lon="-3.837613966315985">
        <ele>93.390000000000001</ele>
        <time>2019-09-03T08:45:44Z</time>
      </trkpt>
      <trkpt lat="58.556611994281411" lon="-3.837919989600778">
        <ele>94.349999999999994</ele>
        <time>2019-09-03T08:45:45Z</time>
      </trkpt>
      <trkpt lat="58.556660022586584" lon="-3.838239004835486">
        <ele>95.310000000000002</ele>
        <time>2019-09-03T08:45:46Z</time>
      </trkpt>
      <trkpt lat="58.556669997051358" lon="-3.838562965393066">
        <ele>96.269999999999996</ele>
        <time>2019-09-03T08:45:47Z</time>
      </trkpt>
      <trkpt lat="58.556654993444681" lon="-3.838893966749311">
        <ele>96.75</ele>
        <time>2019-09-03T08:45:48Z</time>
      </trkpt>
      <trkpt lat="58.556639989838004" lon="-3.839233014732599">
        <ele>97.709999999999994</ele>
        <time>2019-09-03T08:45:49Z</time>
      </trkpt>
      <trkpt lat="58.556595984846354" lon="-3.839559992775321">
        <ele>98.189999999999998</ele>
        <time>2019-09-03T08:45:50Z</time>
      </trkpt>
      <trkpt lat="58.55654401704669" lon="-3.839875990524888">
        <ele>98.670000000000002</ele>
        <time>2019-09-03T08:45:51Z</time>
      </trkpt>
      <trkpt lat="58.555979998782277" lon="-3.843034040182829">
        <ele>100.11</ele>
        <time>2019-09-03T08:46:00Z</time>
      </trkpt>
      <trkpt lat="58.555329982191324" lon="-3.845447022467852">
        <ele>101.56</ele>
        <time>2019-09-03T08:46:07Z</time>
      </trkpt>
      <trkpt lat="58.554444015026093" lon="-3.848527958616614">
        <ele>100.11</ele>
        <time>2019-09-03T08:46:16Z</time>
      </trkpt>
      <trkpt lat="58.554276041686535" lon="-3.849573014304042">
        <ele>99.150000000000006</ele>
        <time>2019-09-03T08:46:19Z</time>
      </trkpt>
      <trkpt lat="58.554250979796052" lon="-3.849938968196511">
        <ele>98.670000000000002</ele>
        <time>2019-09-03T08:46:20Z</time>
      </trkpt>
      <trkpt lat="58.554241005331278" lon="-3.850315986201167">
        <ele>98.189999999999998</ele>
        <time>2019-09-03T08:46:21Z</time>
      </trkpt>
      <trkpt lat="58.554270006716251" lon="-3.850686969235539">
        <ele>97.709999999999994</ele>
        <time>2019-09-03T08:46:22Z</time>
      </trkpt>
      <trkpt lat="58.554303031414747" lon="-3.851065998896956">
        <ele>97.230000000000004</ele>
        <time>2019-09-03T08:46:23Z</time>
      </trkpt>
      <trkpt lat="58.554362962022424" lon="-3.851432036608458">
        <ele>97.230000000000004</ele>
        <time>2019-09-03T08:46:24Z</time>
      </trkpt>
      <trkpt lat="58.554423982277513" lon="-3.851806959137321">
        <ele>96.75</ele>
        <time>2019-09-03T08:46:25Z</time>
      </trkpt>
      <trkpt lat="58.554784990847111" lon="-3.85476803407073">
        <ele>95.310000000000002</ele>
        <time>2019-09-03T08:46:33Z</time>
      </trkpt>
      <trkpt lat="58.554900996387005" lon="-3.858389016240835">
        <ele>95.310000000000002</ele>
        <time>2019-09-03T08:46:43Z</time>
      </trkpt>
      <trkpt lat="58.554639983922243" lon="-3.862347034737468">
        <ele>92.900000000000006</ele>
        <time>2019-09-03T08:46:54Z</time>
      </trkpt>
      <trkpt lat="58.554699998348951" lon="-3.865588987246156">
        <ele>86.180000000000007</ele>
        <time>2019-09-03T08:47:03Z</time>
      </trkpt>
      <trkpt lat="58.554664039984345" lon="-3.867773981764913">
        <ele>81.370000000000005</ele>
        <time>2019-09-03T08:47:10Z</time>
      </trkpt>
      <trkpt lat="58.554627997800708" lon="-3.86808997951448">
        <ele>80.890000000000001</ele>
        <time>2019-09-03T08:47:11Z</time>
      </trkpt>
      <trkpt lat="58.554549962282181" lon="-3.86836901307106">
        <ele>80.890000000000001</ele>
        <time>2019-09-03T08:47:12Z</time>
      </trkpt>
      <trkpt lat="58.554471004754305" lon="-3.868652991950512">
        <ele>79.930000000000007</ele>
        <time>2019-09-03T08:47:13Z</time>
      </trkpt>
      <trkpt lat="58.554392969235778" lon="-3.868934037163854">
        <ele>79.930000000000007</ele>
        <time>2019-09-03T08:47:14Z</time>
      </trkpt>
      <trkpt lat="58.554273024201393" lon="-3.869150960817933">
        <ele>79.450000000000003</ele>
        <time>2019-09-03T08:47:15Z</time>
      </trkpt>
      <trkpt lat="58.554141009226441" lon="-3.869369979947805">
        <ele>79.450000000000003</ele>
        <time>2019-09-03T08:47:16Z</time>
      </trkpt>
      <trkpt lat="58.554005976766348" lon="-3.869594028219581">
        <ele>78.969999999999999</ele>
        <time>2019-09-03T08:47:17Z</time>
      </trkpt>
      <trkpt lat="58.553394014015794" lon="-3.870712006464601">
        <ele>75.599999999999994</ele>
        <time>2019-09-03T08:47:22Z</time>
      </trkpt>
      <trkpt lat="58.553292006254196" lon="-3.870976958423853">
        <ele>74.640000000000001</ele>
        <time>2019-09-03T08:47:23Z</time>
      </trkpt>
      <trkpt lat="58.553188992664218" lon="-3.871244005858898">
        <ele>73.680000000000007</ele>
        <time>2019-09-03T08:47:24Z</time>
      </trkpt>
      <trkpt lat="58.553135013207793" lon="-3.871545000001788">
        <ele>72.719999999999999</ele>
        <time>2019-09-03T08:47:25Z</time>
      </trkpt>
      <trkpt lat="58.553083967417479" lon="-3.871846999973059">
        <ele>71.760000000000005</ele>
        <time>2019-09-03T08:47:26Z</time>
      </trkpt>
      <trkpt lat="58.553034011274576" lon="-3.872145982459188">
        <ele>70.790000000000006</ele>
        <time>2019-09-03T08:47:27Z</time>
      </trkpt>
      <trkpt lat="58.553030993789434" lon="-3.872463991865516">
        <ele>69.829999999999998</ele>
        <time>2019-09-03T08:47:28Z</time>
      </trkpt>
      <trkpt lat="58.553030993789434" lon="-3.872791975736618">
        <ele>68.870000000000005</ele>
        <time>2019-09-03T08:47:29Z</time>
      </trkpt>
      <trkpt lat="58.553030993789434" lon="-3.873120965436101">
        <ele>67.909999999999997</ele>
        <time>2019-09-03T08:47:30Z</time>
      </trkpt>
      <trkpt lat="58.553002998232841" lon="-3.873438974842429">
        <ele>66.950000000000003</ele>
        <time>2019-09-03T08:47:31Z</time>
      </trkpt>
      <trkpt lat="58.552969973534346" lon="-3.873754972591996">
        <ele>65.989999999999995</ele>
        <time>2019-09-03T08:47:32Z</time>
      </trkpt>
      <trkpt lat="58.552924962714314" lon="-3.874068036675453">
        <ele>65.030000000000001</ele>
        <time>2019-09-03T08:47:33Z</time>
      </trkpt>
      <trkpt lat="58.5528480168432" lon="-3.874370958656073">
        <ele>64.069999999999993</ele>
        <time>2019-09-03T08:47:34Z</time>
      </trkpt>
      <trkpt lat="58.552768975496292" lon="-3.874681005254388">
        <ele>63.100000000000001</ele>
        <time>2019-09-03T08:47:35Z</time>
      </trkpt>
      <trkpt lat="58.552688006311655" lon="-3.875000020489097">
        <ele>61.659999999999997</ele>
        <time>2019-09-03T08:47:36Z</time>
      </trkpt>
      <trkpt lat="58.551917038857937" lon="-3.877325998619199">
        <ele>54.93</ele>
        <time>2019-09-03T08:47:44Z</time>
      </trkpt>
      <trkpt lat="58.551857024431229" lon="-3.877659011632204">
        <ele>54.450000000000003</ele>
        <time>2019-09-03T08:47:45Z</time>
      </trkpt>
      <trkpt lat="58.551825005561113" lon="-3.878007028251886">
        <ele>53.969999999999999</ele>
        <time>2019-09-03T08:47:46Z</time>
      </trkpt>
      <trkpt lat="58.551816958934069" lon="-3.878352027386427">
        <ele>53.490000000000002</ele>
        <time>2019-09-03T08:47:47Z</time>
      </trkpt>
      <trkpt lat="58.551808996126056" lon="-3.878695014864206">
        <ele>53.009999999999998</ele>
        <time>2019-09-03T08:47:48Z</time>
      </trkpt>
      <trkpt lat="58.551827017217875" lon="-3.879043031483889">
        <ele>52.530000000000001</ele>
        <time>2019-09-03T08:47:49Z</time>
      </trkpt>
      <trkpt lat="58.551850989460945" lon="-3.879403034225106">
        <ele>52.049999999999997</ele>
        <time>2019-09-03T08:47:50Z</time>
      </trkpt>
      <trkpt lat="58.551884014159441" lon="-3.882300993427634">
        <ele>50.609999999999999</ele>
        <time>2019-09-03T08:47:58Z</time>
      </trkpt>
      <trkpt lat="58.551584025844932" lon="-3.885166011750698">
        <ele>49.649999999999999</ele>
        <time>2019-09-03T08:48:07Z</time>
      </trkpt>
      <trkpt lat="58.551343968138099" lon="-3.88633000664413">
        <ele>48.68</ele>
        <time>2019-09-03T08:48:11Z</time>
      </trkpt>
      <trkpt lat="58.551150010898709" lon="-3.886853959411383">
        <ele>47.240000000000002</ele>
        <time>2019-09-03T08:48:13Z</time>
      </trkpt>
      <trkpt lat="58.551051020622253" lon="-3.887123018503189">
        <ele>46.280000000000001</ele>
        <time>2019-09-03T08:48:14Z</time>
      </trkpt>
      <trkpt lat="58.550927974283695" lon="-3.887357963249087">
        <ele>45.799999999999997</ele>
        <time>2019-09-03T08:48:15Z</time>
      </trkpt>
      <trkpt lat="58.550821021199226" lon="-3.887550998479128">
        <ele>44.840000000000003</ele>
        <time>2019-09-03T08:48:16Z</time>
      </trkpt>
      <trkpt lat="58.550650030374527" lon="-3.887729030102491">
        <ele>44.359999999999999</ele>
        <time>2019-09-03T08:48:17Z</time>
      </trkpt>
      <trkpt lat="58.550493959337473" lon="-3.887893985956907">
        <ele>43.880000000000003</ele>
        <time>2019-09-03T08:48:18Z</time>
      </trkpt>
      <trkpt lat="58.550327997654676" lon="-3.888051984831691">
        <ele>42.920000000000002</ele>
        <time>2019-09-03T08:48:19Z</time>
      </trkpt>
      <trkpt lat="58.548322962597013" lon="-3.889560978859663">
        <ele>38.590000000000003</ele>
        <time>2019-09-03T08:48:30Z</time>
      </trkpt>
      <trkpt lat="58.546380959451199" lon="-3.891113977879286">
        <ele>33.299999999999997</ele>
        <time>2019-09-03T08:48:41Z</time>
      </trkpt>
      <trkpt lat="58.544512968510389" lon="-3.892381992191076">
        <ele>28.5</ele>
        <time>2019-09-03T08:48:52Z</time>
      </trkpt>
      <trkpt lat="58.543444024398923" lon="-3.893789984285832">
        <ele>20.809999999999999</ele>
        <time>2019-09-03T08:49:01Z</time>
      </trkpt>
      <trkpt lat="58.54255797341466" lon="-3.895882023498416">
        <ele>14.08</ele>
        <time>2019-09-03T08:49:10Z</time>
      </trkpt>
      <trkpt lat="58.542052041739225" lon="-3.898531962186098">
        <ele>8.310000000000001</ele>
        <time>2019-09-03T08:49:19Z</time>
      </trkpt>
      <trkpt lat="58.542037960141897" lon="-3.90134803019464">
        <ele>4.94</ele>
        <time>2019-09-03T08:49:27Z</time>
      </trkpt>
      <trkpt lat="58.542298972606659" lon="-3.903091968968511">
        <ele>3.98</ele>
        <time>2019-09-03T08:49:33Z</time>
      </trkpt>
      <trkpt lat="58.542832983657718" lon="-3.904950991272926">
        <ele>8.310000000000001</ele>
        <time>2019-09-03T08:49:41Z</time>
      </trkpt>
      <trkpt lat="58.543245960026979" lon="-3.905962016433477">
        <ele>14.56</ele>
        <time>2019-09-03T08:49:47Z</time>
      </trkpt>
      <trkpt lat="58.543446036055684" lon="-3.906278014183044">
        <ele>17.440000000000001</ele>
        <time>2019-09-03T08:49:50Z</time>
      </trkpt>
      <trkpt lat="58.544275006279349" lon="-3.907303959131241">
        <ele>22.73</ele>
        <time>2019-09-03T08:49:59Z</time>
      </trkpt>
      <trkpt lat="58.545537991449237" lon="-3.908349014818668">
        <ele>24.649999999999999</ele>
        <time>2019-09-03T08:50:07Z</time>
      </trkpt>
      <trkpt lat="58.54769297875464" lon="-3.909961022436619">
        <ele>25.129999999999999</ele>
        <time>2019-09-03T08:50:19Z</time>
      </trkpt>
      <trkpt lat="58.548885975033045" lon="-3.910954026505351">
        <ele>24.649999999999999</ele>
        <time>2019-09-03T08:50:27Z</time>
      </trkpt>
      <trkpt lat="58.549774037674069" lon="-3.912508031353355">
        <ele>27.530000000000001</ele>
        <time>2019-09-03T08:50:36Z</time>
      </trkpt>
      <trkpt lat="58.550821021199226" lon="-3.914913972839713">
        <ele>30.899999999999999</ele>
        <time>2019-09-03T08:50:49Z</time>
      </trkpt>
      <trkpt lat="58.552004965022206" lon="-3.916343003511429">
        <ele>35.710000000000001</ele>
        <time>2019-09-03T08:50:59Z</time>
      </trkpt>
      <trkpt lat="58.553351014852524" lon="-3.917906982824206">
        <ele>38.109999999999999</ele>
        <time>2019-09-03T08:51:10Z</time>
      </trkpt>
      <trkpt lat="58.554554991424084" lon="-3.919154964387417">
        <ele>41.950000000000003</ele>
        <time>2019-09-03T08:51:21Z</time>
      </trkpt>
      <trkpt lat="58.554992023855448" lon="-3.919870024546981">
        <ele>44.840000000000003</ele>
        <time>2019-09-03T08:51:25Z</time>
      </trkpt>
      <trkpt lat="58.55508397333324" lon="-3.920076973736286">
        <ele>45.799999999999997</ele>
        <time>2019-09-03T08:51:26Z</time>
      </trkpt>
      <trkpt lat="58.55517097748816" lon="-3.920301022008061">
        <ele>46.280000000000001</ele>
        <time>2019-09-03T08:51:27Z</time>
      </trkpt>
      <trkpt lat="58.556269006803632" lon="-3.923401990905404">
        <ele>55.409999999999997</ele>
        <time>2019-09-03T08:51:40Z</time>
      </trkpt>
      <trkpt lat="58.556836964562535" lon="-3.925809022039175">
        <ele>58.780000000000001</ele>
        <time>2019-09-03T08:51:50Z</time>
      </trkpt>
      <trkpt lat="58.557331999763846" lon="-3.928619977086783">
        <ele>62.140000000000001</ele>
        <time>2019-09-03T08:52:01Z</time>
      </trkpt>
      <trkpt lat="58.557789986953139" lon="-3.930385038256645">
        <ele>65.510000000000005</ele>
        <time>2019-09-03T08:52:09Z</time>
      </trkpt>
      <trkpt lat="58.55787799693644" lon="-3.930575978010893">
        <ele>65.989999999999995</ele>
        <time>2019-09-03T08:52:10Z</time>
      </trkpt>
      <trkpt lat="58.558653993532062" lon="-3.93164299428463">
        <ele>67.909999999999997</ele>
        <time>2019-09-03T08:52:18Z</time>
      </trkpt>
      <trkpt lat="58.559344997629523" lon="-3.932424020022154">
        <ele>68.870000000000005</ele>
        <time>2019-09-03T08:52:25Z</time>
      </trkpt>
      <trkpt lat="58.559416998177767" lon="-3.932591993361712">
        <ele>69.349999999999994</ele>
        <time>2019-09-03T08:52:26Z</time>
      </trkpt>
      <trkpt lat="58.559482963755727" lon="-3.932745968922973">
        <ele>69.829999999999998</ele>
        <time>2019-09-03T08:52:27Z</time>
      </trkpt>
      <trkpt lat="58.559524035081267" lon="-3.932919977232814">
        <ele>70.310000000000002</ele>
        <time>2019-09-03T08:52:28Z</time>
      </trkpt>
      <trkpt lat="58.559563010931015" lon="-3.93310303799808">
        <ele>71.269999999999996</ele>
        <time>2019-09-03T08:52:29Z</time>
      </trkpt>
      <trkpt lat="58.559602992609143" lon="-3.933290038257837">
        <ele>71.760000000000005</ele>
        <time>2019-09-03T08:52:30Z</time>
      </trkpt>
      <trkpt lat="58.559643980115652" lon="-3.933478966355324">
        <ele>72.239999999999995</ele>
        <time>2019-09-03T08:52:31Z</time>
      </trkpt>
      <trkpt lat="58.55968396179378" lon="-3.933676024898887">
        <ele>72.719999999999999</ele>
        <time>2019-09-03T08:52:32Z</time>
      </trkpt>
      <trkpt lat="58.559899041429162" lon="-3.936158996075392">
        <ele>78.480000000000004</ele>
        <time>2019-09-03T08:52:42Z</time>
      </trkpt>
      <trkpt lat="58.559827962890267" lon="-3.938943967223167">
        <ele>83.290000000000006</ele>
        <time>2019-09-03T08:52:50Z</time>
      </trkpt>
      <trkpt lat="58.55946603231132" lon="-3.942484986037016">
        <ele>79.450000000000003</ele>
        <time>2019-09-03T08:52:59Z</time>
      </trkpt>
      <trkpt lat="58.559652026742697" lon="-3.944992013275623">
        <ele>78</ele>
        <time>2019-09-03T08:53:05Z</time>
      </trkpt>
      <trkpt lat="58.560545034706593" lon="-3.948884988203645">
        <ele>76.079999999999998</ele>
        <time>2019-09-03T08:53:14Z</time>
      </trkpt>
      <trkpt lat="58.561548013240099" lon="-3.953054985031486">
        <ele>76.079999999999998</ele>
        <time>2019-09-03T08:53:24Z</time>
      </trkpt>
      <trkpt lat="58.562105996534228" lon="-3.955486994236708">
        <ele>81.849999999999994</ele>
        <time>2019-09-03T08:53:32Z</time>
      </trkpt>
      <trkpt lat="58.562268018722534" lon="-3.957323972135782">
        <ele>86.659999999999997</ele>
        <time>2019-09-03T08:53:39Z</time>
      </trkpt>
      <trkpt lat="58.562239017337561" lon="-3.957964014261961">
        <ele>89.060000000000002</ele>
        <time>2019-09-03T08:53:44Z</time>
      </trkpt>
      <trkpt lat="58.562310012057424" lon="-3.958417978137732">
        <ele>90.980000000000004</ele>
        <time>2019-09-03T08:53:53Z</time>
      </trkpt>
      <trkpt lat="58.562339013442397" lon="-3.958427030593157">
        <ele>90.980000000000004</ele>
        <time>2019-09-03T08:53:54Z</time>
      </trkpt>
      <trkpt lat="58.562364997342229" lon="-3.95843499340117">
        <ele>90.980000000000004</ele>
        <time>2019-09-03T08:53:55Z</time>
      </trkpt>
      <trkpt lat="58.562387963756919" lon="-3.958442034199834">
        <ele>90.980000000000004</ele>
        <time>2019-09-03T08:53:56Z</time>
      </trkpt>
      <trkpt lat="58.562409002333879" lon="-3.958448991179466">
        <ele>91.459999999999994</ele>
        <time>2019-09-03T08:53:57Z</time>
      </trkpt>
      <trkpt lat="58.562428029254079" lon="-3.95845502614975">
        <ele>91.459999999999994</ele>
        <time>2019-09-03T08:53:58Z</time>
      </trkpt>
      <trkpt lat="58.56247304007411" lon="-3.958468018099666">
        <ele>92.420000000000002</ele>
        <time>2019-09-03T08:54:02Z</time>
      </trkpt>
      <trkpt lat="58.56247304007411" lon="-3.958468018099666">
        <ele>92.420000000000002</ele>
        <time>2019-09-03T08:54:03Z</time>
      </trkpt>
      <trkpt lat="58.56247304007411" lon="-3.958468018099666">
        <ele>92.900000000000006</ele>
        <time>2019-09-03T08:54:04Z</time>
      </trkpt>
      <trkpt lat="58.56247304007411" lon="-3.958468018099666">
        <ele>92.900000000000006</ele>
        <time>2019-09-03T08:54:05Z</time>
      </trkpt>
      <trkpt lat="58.562532970681787" lon="-3.958550998941064">
        <ele>92.420000000000002</ele>
        <time>2019-09-03T08:54:19Z</time>
      </trkpt>
      <trkpt lat="58.562487037852407" lon="-3.958613025024533">
        <ele>90.980000000000004</ele>
        <time>2019-09-03T08:54:33Z</time>
      </trkpt>
      <trkpt lat="58.562484020367265" lon="-3.958616964519024">
        <ele>90.5</ele>
        <time>2019-09-03T08:55:27Z</time>
      </trkpt>
      <trkpt lat="58.562484020367265" lon="-3.958617970347405">
        <ele>90.5</ele>
        <time>2019-09-03T08:56:10Z</time>
      </trkpt>
      <trkpt lat="58.562483014538884" lon="-3.958617970347405">
        <ele>90.5</ele>
        <time>2019-09-03T08:57:05Z</time>
      </trkpt>
      <trkpt lat="58.562483014538884" lon="-3.958617970347405">
        <ele>90.019999999999996</ele>
        <time>2019-09-03T08:57:54Z</time>
      </trkpt>
      <trkpt lat="58.562483014538884" lon="-3.958619982004166">
        <ele>90.019999999999996</ele>
        <time>2019-09-03T08:58:35Z</time>
      </trkpt>
      <trkpt lat="58.562481002882123" lon="-3.958619982004166">
        <ele>89.540000000000006</ele>
        <time>2019-09-03T08:59:21Z</time>
      </trkpt>
      <trkpt lat="58.562479997053742" lon="-3.958619982004166">
        <ele>89.540000000000006</ele>
        <time>2019-09-03T09:00:11Z</time>
      </trkpt>
      <trkpt lat="58.562481002882123" lon="-3.958619982004166">
        <ele>89.540000000000006</ele>
        <time>2019-09-03T09:00:53Z</time>
      </trkpt>
      <trkpt lat="58.562481002882123" lon="-3.958617970347405">
        <ele>89.540000000000006</ele>
        <time>2019-09-03T09:01:37Z</time>
      </trkpt>
      <trkpt lat="58.56247304007411" lon="-3.958615036681294">
        <ele>89.540000000000006</ele>
        <time>2019-09-03T09:02:14Z</time>
      </trkpt>
      <trkpt lat="58.56247304007411" lon="-3.958615036681294">
        <ele>89.540000000000006</ele>
        <time>2019-09-03T09:02:17Z</time>
      </trkpt>
      <trkpt lat="58.562409002333879" lon="-3.95847899839282">
        <ele>89.060000000000002</ele>
        <time>2019-09-03T09:02:32Z</time>
      </trkpt>
      <trkpt lat="58.562263995409012" lon="-3.958403980359435">
        <ele>88.579999999999998</ele>
        <time>2019-09-03T09:02:38Z</time>
      </trkpt>
      <trkpt lat="58.562181014567614" lon="-3.958445973694325">
        <ele>88.579999999999998</ele>
        <time>2019-09-03T09:02:39Z</time>
      </trkpt>
      <trkpt lat="58.562154024839401" lon="-3.958581006154418">
        <ele>88.099999999999994</ele>
        <time>2019-09-03T09:02:40Z</time>
      </trkpt>
      <trkpt lat="58.561760997399688" lon="-3.960008025169373">
        <ele>87.620000000000005</ele>
        <time>2019-09-03T09:02:48Z</time>
      </trkpt>
      <trkpt lat="58.56101400218904" lon="-3.96157200448215">
        <ele>86.180000000000007</ele>
        <time>2019-09-03T09:02:56Z</time>
      </trkpt>
      <trkpt lat="58.560155024752021" lon="-3.963615009561181">
        <ele>84.25</ele>
        <time>2019-09-03T09:03:03Z</time>
      </trkpt>
      <trkpt lat="58.559621013700962" lon="-3.966068979352713">
        <ele>81.849999999999994</ele>
        <time>2019-09-03T09:03:10Z</time>
      </trkpt>
      <trkpt lat="58.559443987905979" lon="-3.969903029501438">
        <ele>79.930000000000007</ele>
        <time>2019-09-03T09:03:20Z</time>
      </trkpt>
      <trkpt lat="58.559242989867926" lon="-3.976350976154208">
        <ele>83.769999999999996</ele>
        <time>2019-09-03T09:03:35Z</time>
      </trkpt>
      <trkpt lat="58.559114998206496" lon="-3.981610033661127">
        <ele>78.969999999999999</ele>
        <time>2019-09-03T09:03:47Z</time>
      </trkpt>
      <trkpt lat="58.559419009834528" lon="-3.984726006165147">
        <ele>69.349999999999994</ele>
        <time>2019-09-03T09:03:54Z</time>
      </trkpt>
      <trkpt lat="58.559727966785431" lon="-3.986802035942674">
        <ele>64.549999999999997</ele>
        <time>2019-09-03T09:04:00Z</time>
      </trkpt>
      <trkpt lat="58.559830980375409" lon="-3.988733980804682">
        <ele>61.18</ele>
        <time>2019-09-03T09:04:07Z</time>
      </trkpt>
      <trkpt lat="58.559794016182423" lon="-3.989377040416002">
        <ele>59.740000000000002</ele>
        <time>2019-09-03T09:04:10Z</time>
      </trkpt>
      <trkpt lat="58.559752022847533" lon="-3.98956798017025">
        <ele>59.259999999999998</ele>
        <time>2019-09-03T09:04:11Z</time>
      </trkpt>
      <trkpt lat="58.559697037562728" lon="-3.989768978208304">
        <ele>58.780000000000001</ele>
        <time>2019-09-03T09:04:12Z</time>
      </trkpt>
      <trkpt lat="58.559639034792781" lon="-3.989978022873402">
        <ele>57.82</ele>
        <time>2019-09-03T09:04:13Z</time>
      </trkpt>
      <trkpt lat="58.559576002880931" lon="-3.990203998982906">
        <ele>57.340000000000003</ele>
        <time>2019-09-03T09:04:14Z</time>
      </trkpt>
      <trkpt lat="58.559478018432856" lon="-3.990351017564535">
        <ele>56.369999999999997</ele>
        <time>2019-09-03T09:04:15Z</time>
      </trkpt>
      <trkpt lat="58.559369975700974" lon="-3.990513039752841">
        <ele>55.890000000000001</ele>
        <time>2019-09-03T09:04:16Z</time>
      </trkpt>
      <trkpt lat="58.559255981817842" lon="-3.99068302474916">
        <ele>55.409999999999997</ele>
        <time>2019-09-03T09:04:17Z</time>
      </trkpt>
      <trkpt lat="58.558883992955089" lon="-3.991131037473679">
        <ele>53.969999999999999</ele>
        <time>2019-09-03T09:04:20Z</time>
      </trkpt>
      <trkpt lat="58.558759018778801" lon="-3.991240002214909">
        <ele>53.009999999999998</ele>
        <time>2019-09-03T09:04:21Z</time>
      </trkpt>
      <trkpt lat="58.558336989954114" lon="-3.991648033261299">
        <ele>49.649999999999999</ele>
        <time>2019-09-03T09:04:25Z</time>
      </trkpt>
      <trkpt lat="58.55826398357749" lon="-3.991783987730742">
        <ele>48.68</ele>
        <time>2019-09-03T09:04:26Z</time>
      </trkpt>
      <trkpt lat="58.558196006342769" lon="-3.991921031847596">
        <ele>47.719999999999999</ele>
        <time>2019-09-03T09:04:27Z</time>
      </trkpt>
      <trkpt lat="58.558144038543105" lon="-3.992091016843915">
        <ele>46.759999999999998</ele>
        <time>2019-09-03T09:04:28Z</time>
      </trkpt>
      <trkpt lat="58.558087963610888" lon="-3.992270976305008">
        <ele>45.32</ele>
        <time>2019-09-03T09:04:29Z</time>
      </trkpt>
      <trkpt lat="58.558029038831592" lon="-3.992464011535049">
        <ele>44.359999999999999</ele>
        <time>2019-09-03T09:04:30Z</time>
      </trkpt>
      <trkpt lat="58.557644980028272" lon="-3.99440199136734">
        <ele>34.740000000000002</ele>
        <time>2019-09-03T09:04:37Z</time>
      </trkpt>
      <trkpt lat="58.557462003082037" lon="-3.995601022616029">
        <ele>29.940000000000001</ele>
        <time>2019-09-03T09:04:41Z</time>
      </trkpt>
      <trkpt lat="58.557452028617263" lon="-3.995894975960255">
        <ele>28.98</ele>
        <time>2019-09-03T09:04:42Z</time>
      </trkpt>
      <trkpt lat="58.55746996589005" lon="-3.996178032830358">
        <ele>28.02</ele>
        <time>2019-09-03T09:04:43Z</time>
      </trkpt>
      <trkpt lat="58.55749100446701" lon="-3.996466035023332">
        <ele>26.57</ele>
        <time>2019-09-03T09:04:44Z</time>
      </trkpt>
      <trkpt lat="58.557552024722099" lon="-3.996736016124487">
        <ele>25.609999999999999</ele>
        <time>2019-09-03T09:04:45Z</time>
      </trkpt>
      <trkpt lat="58.557626958936453" lon="-3.9970220066607">
        <ele>24.170000000000002</ele>
        <time>2019-09-03T09:04:46Z</time>
      </trkpt>
      <trkpt lat="58.55770499445498" lon="-3.997321994975209">
        <ele>22.73</ele>
        <time>2019-09-03T09:04:47Z</time>
      </trkpt>
      <trkpt lat="58.558700010180473" lon="-4.000799981877208">
        <ele>9.27</ele>
        <time>2019-09-03T09:04:59Z</time>
      </trkpt>
      <trkpt lat="58.560019992291927" lon="-4.00400698184967">
        <ele>12.630000000000001</ele>
        <time>2019-09-03T09:05:12Z</time>
      </trkpt>
      <trkpt lat="58.561107963323593" lon="-4.005744969472289">
        <ele>20.809999999999999</ele>
        <time>2019-09-03T09:05:20Z</time>
      </trkpt>
      <trkpt lat="58.561524040997028" lon="-4.006303958594799">
        <ele>25.609999999999999</ele>
        <time>2019-09-03T09:05:23Z</time>
      </trkpt>
      <trkpt lat="58.561633005738258" lon="-4.006514009088278">
        <ele>27.050000000000001</ele>
        <time>2019-09-03T09:05:24Z</time>
      </trkpt>
      <trkpt lat="58.561726966872811" lon="-4.00675599463284">
        <ele>28.5</ele>
        <time>2019-09-03T09:05:25Z</time>
      </trkpt>
      <trkpt lat="58.561783041805029" lon="-4.007019018754363">
        <ele>29.940000000000001</ele>
        <time>2019-09-03T09:05:26Z</time>
      </trkpt>
      <trkpt lat="58.561831992119551" lon="-4.0072709787637">
        <ele>31.859999999999999</ele>
        <time>2019-09-03T09:05:27Z</time>
      </trkpt>
      <trkpt lat="58.561879014596343" lon="-4.007522016763687">
        <ele>33.299999999999997</ele>
        <time>2019-09-03T09:05:28Z</time>
      </trkpt>
      <trkpt lat="58.562211021780968" lon="-4.010103978216648">
        <ele>47.719999999999999</ele>
        <time>2019-09-03T09:05:38Z</time>
      </trkpt>
      <trkpt lat="58.562156958505511" lon="-4.012504974380136">
        <ele>57.82</ele>
        <time>2019-09-03T09:05:47Z</time>
      </trkpt>
      <trkpt lat="58.561661001294851" lon="-4.01530503295362">
        <ele>70.790000000000006</ele>
        <time>2019-09-03T09:06:00Z</time>
      </trkpt>
      <trkpt lat="58.560934960842133" lon="-4.017247036099434">
        <ele>76.560000000000002</ele>
        <time>2019-09-03T09:06:07Z</time>
      </trkpt>
      <trkpt lat="58.559482963755727" lon="-4.020152958109975">
        <ele>89.060000000000002</ele>
        <time>2019-09-03T09:06:18Z</time>
      </trkpt>
      <trkpt lat="58.558926992118359" lon="-4.021712997928262">
        <ele>96.75</ele>
        <time>2019-09-03T09:06:25Z</time>
      </trkpt>
      <trkpt lat="58.55824202299118" lon="-4.024593019858003">
        <ele>98.670000000000002</ele>
        <time>2019-09-03T09:06:34Z</time>
      </trkpt>
      <trkpt lat="58.557378016412258" lon="-4.026722023263574">
        <ele>99.150000000000006</ele>
        <time>2019-09-03T09:06:41Z</time>
      </trkpt>
      <trkpt lat="58.556529013440013" lon="-4.029077002778649">
        <ele>95.790000000000006</ele>
        <time>2019-09-03T09:06:48Z</time>
      </trkpt>
      <trkpt lat="58.55628602206707" lon="-4.031471963971853">
        <ele>94.349999999999994</ele>
        <time>2019-09-03T09:06:54Z</time>
      </trkpt>
      <trkpt lat="58.556202035397291" lon="-4.036049991846085">
        <ele>95.310000000000002</ele>
        <time>2019-09-03T09:07:06Z</time>
      </trkpt>
      <trkpt lat="58.555905986577272" lon="-4.041424971073866">
        <ele>96.269999999999996</ele>
        <time>2019-09-03T09:07:21Z</time>
      </trkpt>
      <trkpt lat="58.555022031068802" lon="-4.0458819642663">
        <ele>88.099999999999994</ele>
        <time>2019-09-03T09:07:33Z</time>
      </trkpt>
      <trkpt lat="58.553863987326622" lon="-4.051419971510768">
        <ele>91.939999999999998</ele>
        <time>2019-09-03T09:07:48Z</time>
      </trkpt>
      <trkpt lat="58.553022025153041" lon="-4.055645959451795">
        <ele>101.56</ele>
        <time>2019-09-03T09:08:01Z</time>
      </trkpt>
      <trkpt lat="58.552396986633539" lon="-4.059163006022573">
        <ele>100.11</ele>
        <time>2019-09-03T09:08:11Z</time>
      </trkpt>
      <trkpt lat="58.55164797976613" lon="-4.060879033058882">
        <ele>95.310000000000002</ele>
        <time>2019-09-03T09:08:17Z</time>
      </trkpt>
      <trkpt lat="58.550585992634296" lon="-4.061996005475521">
        <ele>85.689999999999998</ele>
        <time>2019-09-03T09:08:24Z</time>
      </trkpt>
      <trkpt lat="58.548217015340924" lon="-4.06377799808979">
        <ele>67.909999999999997</ele>
        <time>2019-09-03T09:08:38Z</time>
      </trkpt>
      <trkpt lat="58.547281008213758" lon="-4.065106026828289">
        <ele>58.780000000000001</ele>
        <time>2019-09-03T09:08:45Z</time>
      </trkpt>
      <trkpt lat="58.546716989949346" lon="-4.067135034129024">
        <ele>49.649999999999999</ele>
        <time>2019-09-03T09:08:52Z</time>
      </trkpt>
      <trkpt lat="58.546674996614456" lon="-4.067482966929674">
        <ele>47.719999999999999</ele>
        <time>2019-09-03T09:08:53Z</time>
      </trkpt>
      <trkpt lat="58.546657981351018" lon="-4.067841041833162">
        <ele>46.280000000000001</ele>
        <time>2019-09-03T09:08:54Z</time>
      </trkpt>
      <trkpt lat="58.54664197191596" lon="-4.068201966583729">
        <ele>44.359999999999999</ele>
        <time>2019-09-03T09:08:55Z</time>
      </trkpt>
      <trkpt lat="58.546624034643173" lon="-4.068570015951991">
        <ele>42.439999999999998</ele>
        <time>2019-09-03T09:08:56Z</time>
      </trkpt>
      <trkpt lat="58.546633003279567" lon="-4.068939993157983">
        <ele>40.509999999999998</ele>
        <time>2019-09-03T09:08:57Z</time>
      </trkpt>
      <trkpt lat="58.546668039634824" lon="-4.069301001727581">
        <ele>38.590000000000003</ele>
        <time>2019-09-03T09:08:58Z</time>
      </trkpt>
      <trkpt lat="58.54670399799943" lon="-4.069662010297179">
        <ele>36.670000000000002</ele>
        <time>2019-09-03T09:08:59Z</time>
      </trkpt>
      <trkpt lat="58.546740040183067" lon="-4.070026036351919">
        <ele>35.229999999999997</ele>
        <time>2019-09-03T09:09:00Z</time>
      </trkpt>
      <trkpt lat="58.54681396856904" lon="-4.070376986637712">
        <ele>33.299999999999997</ele>
        <time>2019-09-03T09:09:01Z</time>
      </trkpt>
      <trkpt lat="58.547368012368679" lon="-4.073021980002523">
        <ele>23.690000000000001</ele>
        <time>2019-09-03T09:09:09Z</time>
      </trkpt>
      <trkpt lat="58.547398019582033" lon="-4.073365973308682">
        <ele>22.73</ele>
        <time>2019-09-03T09:09:10Z</time>
      </trkpt>
      <trkpt lat="58.54741302318871" lon="-4.073723964393139">
        <ele>22.73</ele>
        <time>2019-09-03T09:09:11Z</time>
      </trkpt>
      <trkpt lat="58.547429032623768" lon="-4.074080027639866">
        <ele>22.25</ele>
        <time>2019-09-03T09:09:12Z</time>
      </trkpt>
      <trkpt lat="58.547416962683201" lon="-4.074427038431168">
        <ele>22.25</ele>
        <time>2019-09-03T09:09:13Z</time>
      </trkpt>
      <trkpt lat="58.54730598628521" lon="-4.076838009059429">
        <ele>24.170000000000002</ele>
        <time>2019-09-03T09:09:21Z</time>
      </trkpt>
      <trkpt lat="58.547261981293559" lon="-4.077074965462089">
        <ele>25.129999999999999</ele>
        <time>2019-09-03T09:09:22Z</time>
      </trkpt>
      <trkpt lat="58.547186041250825" lon="-4.077261965721846">
        <ele>25.609999999999999</ele>
        <time>2019-09-03T09:09:23Z</time>
      </trkpt>
      <trkpt lat="58.54709099046886" lon="-4.077424993738532">
        <ele>26.09</ele>
        <time>2019-09-03T09:09:24Z</time>
      </trkpt>
      <trkpt lat="58.546989988535643" lon="-4.07759296707809">
        <ele>27.050000000000001</ele>
        <time>2019-09-03T09:09:25Z</time>
      </trkpt>
      <trkpt lat="58.546864008530974" lon="-4.077727999538183">
        <ele>27.530000000000001</ele>
        <time>2019-09-03T09:09:26Z</time>
      </trkpt>
      <trkpt lat="58.546731993556023" lon="-4.07787099480629">
        <ele>28.5</ele>
        <time>2019-09-03T09:09:27Z</time>
      </trkpt>
      <trkpt lat="58.544932985678315" lon="-4.079811992123723">
        <ele>32.340000000000003</ele>
        <time>2019-09-03T09:09:40Z</time>
      </trkpt>
      <trkpt lat="58.544818991795182" lon="-4.079944007098675">
        <ele>32.82</ele>
        <time>2019-09-03T09:09:41Z</time>
      </trkpt>
      <trkpt lat="58.544716984033585" lon="-4.080113992094994">
        <ele>32.82</ele>
        <time>2019-09-03T09:09:42Z</time>
      </trkpt>
      <trkpt lat="58.544626040384173" lon="-4.080289006233215">
        <ele>32.340000000000003</ele>
        <time>2019-09-03T09:09:43Z</time>
      </trkpt>
      <trkpt lat="58.544563008472323" lon="-4.080494027584791">
        <ele>31.859999999999999</ele>
        <time>2019-09-03T09:09:44Z</time>
      </trkpt>
      <trkpt lat="58.544539036229253" lon="-4.080714974552393">
        <ele>31.379999999999999</ele>
        <time>2019-09-03T09:09:45Z</time>
      </trkpt>
      <trkpt lat="58.544550016522408" lon="-4.080956960096955">
        <ele>30.899999999999999</ele>
        <time>2019-09-03T09:09:46Z</time>
      </trkpt>
      <trkpt lat="58.544574994593859" lon="-4.081233981996775">
        <ele>29.940000000000001</ele>
        <time>2019-09-03T09:09:47Z</time>
      </trkpt>
      <trkpt lat="58.544603995978832" lon="-4.08154402859509">
        <ele>28.5</ele>
        <time>2019-09-03T09:09:48Z</time>
      </trkpt>
      <trkpt lat="58.544763000681996" lon="-4.083562977612019">
        <ele>25.609999999999999</ele>
        <time>2019-09-03T09:09:54Z</time>
      </trkpt>
      <trkpt lat="58.544751014560461" lon="-4.083877969533205">
        <ele>26.09</ele>
        <time>2019-09-03T09:09:55Z</time>
      </trkpt>
      <trkpt lat="58.544700974598527" lon="-4.084163960069418">
        <ele>27.050000000000001</ele>
        <time>2019-09-03T09:09:56Z</time>
      </trkpt>
      <trkpt lat="58.544637020677328" lon="-4.08444601111114">
        <ele>28.5</ele>
        <time>2019-09-03T09:09:57Z</time>
      </trkpt>
      <trkpt lat="58.544549010694027" lon="-4.08470400609076">
        <ele>29.460000000000001</ele>
        <time>2019-09-03T09:09:58Z</time>
      </trkpt>
      <trkpt lat="58.544424958527088" lon="-4.084916990250349">
        <ele>30.899999999999999</ele>
        <time>2019-09-03T09:09:59Z</time>
      </trkpt>
      <trkpt lat="58.544309036806226" lon="-4.085115976631641">
        <ele>32.340000000000003</ele>
        <time>2019-09-03T09:10:00Z</time>
      </trkpt>
      <trkpt lat="58.544199988245964" lon="-4.085298031568527">
        <ele>33.780000000000001</ele>
        <time>2019-09-03T09:10:01Z</time>
      </trkpt>
      <trkpt lat="58.542958041653037" lon="-4.086612984538078">
        <ele>46.280000000000001</ele>
        <time>2019-09-03T09:10:10Z</time>
      </trkpt>
      <trkpt lat="58.541862023994327" lon="-4.087232993915677">
        <ele>56.859999999999999</ele>
        <time>2019-09-03T09:10:17Z</time>
      </trkpt>
      <trkpt lat="58.541735038161278" lon="-4.087325027212501">
        <ele>58.299999999999997</ele>
        <time>2019-09-03T09:10:18Z</time>
      </trkpt>
      <trkpt lat="58.541610985994339" lon="-4.087440026924014">
        <ele>59.259999999999998</ele>
        <time>2019-09-03T09:10:19Z</time>
      </trkpt>
      <trkpt lat="58.541499003767967" lon="-4.087580004706979">
        <ele>60.219999999999999</ele>
        <time>2019-09-03T09:10:20Z</time>
      </trkpt>
      <trkpt lat="58.541405964642763" lon="-4.087773961946368">
        <ele>61.18</ele>
        <time>2019-09-03T09:10:21Z</time>
      </trkpt>
      <trkpt lat="58.541313009336591" lon="-4.08796900883317">
        <ele>62.140000000000001</ele>
        <time>2019-09-03T09:10:22Z</time>
      </trkpt>
      <trkpt lat="58.541241008788347" lon="-4.0882040373981">
        <ele>63.100000000000001</ele>
        <time>2019-09-03T09:10:23Z</time>
      </trkpt>
      <trkpt lat="58.541173031553626" lon="-4.088454991579056">
        <ele>64.069999999999993</ele>
        <time>2019-09-03T09:10:24Z</time>
      </trkpt>
      <trkpt lat="58.541059959679842" lon="-4.088975004851818">
        <ele>65.989999999999995</ele>
        <time>2019-09-03T09:10:26Z</time>
      </trkpt>
      <trkpt lat="58.541037999093533" lon="-4.089241968467832">
        <ele>66.469999999999999</ele>
        <time>2019-09-03T09:10:27Z</time>
      </trkpt>
      <trkpt lat="58.541048979386687" lon="-4.089518990367651">
        <ele>67.430000000000007</ele>
        <time>2019-09-03T09:10:28Z</time>
      </trkpt>
      <trkpt lat="58.541077980771661" lon="-4.089785031974316">
        <ele>68.390000000000001</ele>
        <time>2019-09-03T09:10:29Z</time>
      </trkpt>
      <trkpt lat="58.541160961613059" lon="-4.090026011690497">
        <ele>69.349999999999994</ele>
        <time>2019-09-03T09:10:30Z</time>
      </trkpt>
      <trkpt lat="58.541246959939599" lon="-4.090278977528215">
        <ele>70.790000000000006</ele>
        <time>2019-09-03T09:10:31Z</time>
      </trkpt>
      <trkpt lat="58.541336981579661" lon="-4.090542001649737">
        <ele>72.239999999999995</ele>
        <time>2019-09-03T09:10:32Z</time>
      </trkpt>
      <trkpt lat="58.542415983974934" lon="-4.093242986127734">
        <ele>88.579999999999998</ele>
        <time>2019-09-03T09:10:42Z</time>
      </trkpt>
      <trkpt lat="58.543313015252352" lon="-4.094817023724318">
        <ele>97.230000000000004</ele>
        <time>2019-09-03T09:10:49Z</time>
      </trkpt>
      <trkpt lat="58.544382965192199" lon="-4.095871970057488">
        <ele>103</ele>
        <time>2019-09-03T09:10:56Z</time>
      </trkpt>
      <trkpt lat="58.544523026794195" lon="-4.09602896310389">
        <ele>103.48</ele>
        <time>2019-09-03T09:10:57Z</time>
      </trkpt>
      <trkpt lat="58.544655963778496" lon="-4.096232978627086">
        <ele>103.95999999999999</ele>
        <time>2019-09-03T09:10:58Z</time>
      </trkpt>
      <trkpt lat="58.54479300789535" lon="-4.096446968615055">
        <ele>104.44</ele>
        <time>2019-09-03T09:10:59Z</time>
      </trkpt>
      <trkpt lat="58.544897027313709" lon="-4.096738994121552">
        <ele>104.92</ele>
        <time>2019-09-03T09:11:00Z</time>
      </trkpt>
      <trkpt lat="58.545002974569798" lon="-4.097040994092822">
        <ele>105.40000000000001</ele>
        <time>2019-09-03T09:11:01Z</time>
      </trkpt>
      <trkpt lat="58.545753993093967" lon="-4.09965799190104">
        <ele>112.61</ele>
        <time>2019-09-03T09:11:09Z</time>
      </trkpt>
      <trkpt lat="58.545777965337038" lon="-4.099965021014214">
        <ele>114.05</ele>
        <time>2019-09-03T09:11:10Z</time>
      </trkpt>
      <trkpt lat="58.545777965337038" lon="-4.100261991843581">
        <ele>115.5</ele>
        <time>2019-09-03T09:11:11Z</time>
      </trkpt>
      <trkpt lat="58.545746030285954" lon="-4.100530967116356">
        <ele>117.42</ele>
        <time>2019-09-03T09:11:12Z</time>
      </trkpt>
      <trkpt lat="58.545684004202485" lon="-4.100803965702653">
        <ele>118.86</ele>
        <time>2019-09-03T09:11:13Z</time>
      </trkpt>
      <trkpt lat="58.545621978119016" lon="-4.101075958460569">
        <ele>120.3</ele>
        <time>2019-09-03T09:11:14Z</time>
      </trkpt>
      <trkpt lat="58.545512007549405" lon="-4.101281985640526">
        <ele>121.26000000000001</ele>
        <time>2019-09-03T09:11:15Z</time>
      </trkpt>
      <trkpt lat="58.545388039201498" lon="-4.101465968415141">
        <ele>122.22</ele>
        <time>2019-09-03T09:11:16Z</time>
      </trkpt>
      <trkpt lat="58.54524303227663" lon="-4.101591026410461">
        <ele>122.70999999999999</ele>
        <time>2019-09-03T09:11:17Z</time>
      </trkpt>
      <trkpt lat="58.545082015916705" lon="-4.101627990603447">
        <ele>123.67</ele>
        <time>2019-09-03T09:11:18Z</time>
      </trkpt>
      <trkpt lat="58.544916976243258" lon="-4.101665038615465">
        <ele>124.15000000000001</ele>
        <time>2019-09-03T09:11:19Z</time>
      </trkpt>
      <trkpt lat="58.5447490029037" lon="-4.101704014465213">
        <ele>124.15000000000001</ele>
        <time>2019-09-03T09:11:20Z</time>
      </trkpt>
      <trkpt lat="58.543260963633657" lon="-4.102268032729626">
        <ele>121.26000000000001</ele>
        <time>2019-09-03T09:11:28Z</time>
      </trkpt>
      <trkpt lat="58.54268797673285" lon="-4.102648990228772">
        <ele>119.81999999999999</ele>
        <time>2019-09-03T09:11:31Z</time>
      </trkpt>
      <trkpt lat="58.542530983686447" lon="-4.102873960509896">
        <ele>119.34</ele>
        <time>2019-09-03T09:11:32Z</time>
      </trkpt>
      <trkpt lat="58.542379019781947" lon="-4.103109994903207">
        <ele>119.34</ele>
        <time>2019-09-03T09:11:33Z</time>
      </trkpt>
      <trkpt lat="58.542226972058415" lon="-4.103344017639756">
        <ele>118.86</ele>
        <time>2019-09-03T09:11:34Z</time>
      </trkpt>
      <trkpt lat="58.542110966518521" lon="-4.103635037317872">
        <ele>119.34</ele>
        <time>2019-09-03T09:11:35Z</time>
      </trkpt>
      <trkpt lat="58.542004013434052" lon="-4.103943994268775">
        <ele>119.34</ele>
        <time>2019-09-03T09:11:36Z</time>
      </trkpt>
      <trkpt lat="58.541897982358932" lon="-4.104250017553568">
        <ele>120.3</ele>
        <time>2019-09-03T09:11:37Z</time>
      </trkpt>
      <trkpt lat="58.54169799014926" lon="-4.104826021939516">
        <ele>121.73999999999999</ele>
        <time>2019-09-03T09:11:39Z</time>
      </trkpt>
      <trkpt lat="58.540679002180696" lon="-4.107767986133695">
        <ele>129.43000000000001</ele>
        <time>2019-09-03T09:11:49Z</time>
      </trkpt>
      <trkpt lat="58.540617981925607" lon="-4.108061017468572">
        <ele>129.91999999999999</ele>
        <time>2019-09-03T09:11:50Z</time>
      </trkpt>
      <trkpt lat="58.540596021339297" lon="-4.108365029096603">
        <ele>130.40000000000001</ele>
        <time>2019-09-03T09:11:51Z</time>
      </trkpt>
      <trkpt lat="58.540594009682536" lon="-4.108672980219126">
        <ele>130.88</ele>
        <time>2019-09-03T09:11:52Z</time>
      </trkpt>
      <trkpt lat="58.540628962218761" lon="-4.108929969370365">
        <ele>131.84</ele>
        <time>2019-09-03T09:11:53Z</time>
      </trkpt>
      <trkpt lat="58.540723007172346" lon="-4.109213026240468">
        <ele>132.31999999999999</ele>
        <time>2019-09-03T09:11:54Z</time>
      </trkpt>
      <trkpt lat="58.540813028812408" lon="-4.109483007341623">
        <ele>133.28</ele>
        <time>2019-09-03T09:11:55Z</time>
      </trkpt>
      <trkpt lat="58.540905984118581" lon="-4.109762962907553">
        <ele>133.75999999999999</ele>
        <time>2019-09-03T09:11:56Z</time>
      </trkpt>
      <trkpt lat="58.541088039055467" lon="-4.110307032242417">
        <ele>134.72</ele>
        <time>2019-09-03T09:11:58Z</time>
      </trkpt>
      <trkpt lat="58.541170014068484" lon="-4.110576007515192">
        <ele>135.19999999999999</ele>
        <time>2019-09-03T09:11:59Z</time>
      </trkpt>
      <trkpt lat="58.541206978261471" lon="-4.110877001658082">
        <ele>135.19999999999999</ele>
        <time>2019-09-03T09:12:00Z</time>
      </trkpt>
      <trkpt lat="58.541195997968316" lon="-4.111189981922507">
        <ele>135.19999999999999</ele>
        <time>2019-09-03T09:12:01Z</time>
      </trkpt>
      <trkpt lat="58.541170014068484" lon="-4.11149499937892">
        <ele>135.19999999999999</ele>
        <time>2019-09-03T09:12:02Z</time>
      </trkpt>
      <trkpt lat="58.541088961064816" lon="-4.111769003793597">
        <ele>134.72</ele>
        <time>2019-09-03T09:12:03Z</time>
      </trkpt>
      <trkpt lat="58.541015032678843" lon="-4.112020041793585">
        <ele>134.72</ele>
        <time>2019-09-03T09:12:04Z</time>
      </trkpt>
      <trkpt lat="58.540875976905227" lon="-4.112219028174877">
        <ele>135.19999999999999</ele>
        <time>2019-09-03T09:12:05Z</time>
      </trkpt>
      <trkpt lat="58.540738010779023" lon="-4.11241801455617">
        <ele>135.68000000000001</ele>
        <time>2019-09-03T09:12:06Z</time>
      </trkpt>
      <trkpt lat="58.540598032996058" lon="-4.112620018422604">
        <ele>135.68000000000001</ele>
        <time>2019-09-03T09:12:07Z</time>
      </trkpt>
      <trkpt lat="58.540478004142642" lon="-4.112792015075684">
        <ele>136.63999999999999</ele>
        <time>2019-09-03T09:12:08Z</time>
      </trkpt>
      <trkpt lat="58.540357975289226" lon="-4.113022014498711">
        <ele>137.13</ele>
        <time>2019-09-03T09:12:09Z</time>
      </trkpt>
      <trkpt lat="58.540253033861518" lon="-4.113223012536764">
        <ele>137.61000000000001</ele>
        <time>2019-09-03T09:12:10Z</time>
      </trkpt>
      <trkpt lat="58.540191007778049" lon="-4.113495005294681">
        <ele>138.09</ele>
        <time>2019-09-03T09:12:11Z</time>
      </trkpt>
      <trkpt lat="58.540131999179721" lon="-4.113783007487655">
        <ele>138.56999999999999</ele>
        <time>2019-09-03T09:12:12Z</time>
      </trkpt>
      <trkpt lat="58.540068967267871" lon="-4.114097999408841">
        <ele>139.05000000000001</ele>
        <time>2019-09-03T09:12:13Z</time>
      </trkpt>
      <trkpt lat="58.540039965882897" lon="-4.114447021856904">
        <ele>139.05000000000001</ele>
        <time>2019-09-03T09:12:14Z</time>
      </trkpt>
      <trkpt lat="58.539882972836494" lon="-4.11632901057601">
        <ele>137.13</ele>
        <time>2019-09-03T09:12:19Z</time>
      </trkpt>
      <trkpt lat="58.53980996645987" lon="-4.116681972518563">
        <ele>137.61000000000001</ele>
        <time>2019-09-03T09:12:20Z</time>
      </trkpt>
      <trkpt lat="58.539730003103614" lon="-4.117021020501852">
        <ele>137.61000000000001</ele>
        <time>2019-09-03T09:12:21Z</time>
      </trkpt>
      <trkpt lat="58.539631012827158" lon="-4.117341041564941">
        <ele>138.09</ele>
        <time>2019-09-03T09:12:22Z</time>
      </trkpt>
      <trkpt lat="58.5395079664886" lon="-4.11764002405107">
        <ele>138.56999999999999</ele>
        <time>2019-09-03T09:12:23Z</time>
      </trkpt>
      <trkpt lat="58.539385003969073" lon="-4.11794001236558">
        <ele>139.05000000000001</ele>
        <time>2019-09-03T09:12:24Z</time>
      </trkpt>
      <trkpt lat="58.53897001594305" lon="-4.119259994477034">
        <ele>141.44999999999999</ele>
        <time>2019-09-03T09:12:28Z</time>
      </trkpt>
      <trkpt lat="58.538887035101652" lon="-4.119623014703393">
        <ele>142.88999999999999</ele>
        <time>2019-09-03T09:12:29Z</time>
      </trkpt>
      <trkpt lat="58.538824003189802" lon="-4.120001038536429">
        <ele>143.84999999999999</ele>
        <time>2019-09-03T09:12:30Z</time>
      </trkpt>
      <trkpt lat="58.538660975173116" lon="-4.121082974597812">
        <ele>147.22</ele>
        <time>2019-09-03T09:12:33Z</time>
      </trkpt>
      <trkpt lat="58.538574976846576" lon="-4.121423028409481">
        <ele>148.18000000000001</ele>
        <time>2019-09-03T09:12:34Z</time>
      </trkpt>
      <trkpt lat="58.538460982963443" lon="-4.121729973703623">
        <ele>149.62</ele>
        <time>2019-09-03T09:12:35Z</time>
      </trkpt>
      <trkpt lat="58.538343971595168" lon="-4.12204597145319">
        <ele>150.58000000000001</ele>
        <time>2019-09-03T09:12:36Z</time>
      </trkpt>
      <trkpt lat="58.5381989646703" lon="-4.12232500500977">
        <ele>151.53999999999999</ele>
        <time>2019-09-03T09:12:37Z</time>
      </trkpt>
      <trkpt lat="58.538034008815885" lon="-4.122567996382713">
        <ele>152.03</ele>
        <time>2019-09-03T09:12:38Z</time>
      </trkpt>
      <trkpt lat="58.537866035476327" lon="-4.12281702272594">
        <ele>152.03</ele>
        <time>2019-09-03T09:12:39Z</time>
      </trkpt>
      <trkpt lat="58.537685992196202" lon="-4.123048027977347">
        <ele>152.03</ele>
        <time>2019-09-03T09:12:40Z</time>
      </trkpt>
      <trkpt lat="58.537491029128432" lon="-4.123233016580343">
        <ele>152.03</ele>
        <time>2019-09-03T09:12:41Z</time>
      </trkpt>
      <trkpt lat="58.537281984463334" lon="-4.123397972434759">
        <ele>152.03</ele>
        <time>2019-09-03T09:12:42Z</time>
      </trkpt>
      <trkpt lat="58.537066988646984" lon="-4.123521018773317">
        <ele>152.03</ele>
        <time>2019-09-03T09:12:43Z</time>
      </trkpt>
      <trkpt lat="58.536851992830634" lon="-4.123626966029406">
        <ele>152.50999999999999</ele>
        <time>2019-09-03T09:12:44Z</time>
      </trkpt>
      <trkpt lat="58.536642026156187" lon="-4.123692009598017">
        <ele>153.47</ele>
        <time>2019-09-03T09:12:45Z</time>
      </trkpt>
      <trkpt lat="58.535911962389946" lon="-4.123919997364283">
        <ele>155.87</ele>
        <time>2019-09-03T09:12:49Z</time>
      </trkpt>
      <trkpt lat="58.535761004313827" lon="-4.124046983197331">
        <ele>156.83000000000001</ele>
        <time>2019-09-03T09:12:50Z</time>
      </trkpt>
      <trkpt lat="58.535611974075437" lon="-4.124187966808677">
        <ele>157.31</ele>
        <time>2019-09-03T09:12:51Z</time>
      </trkpt>
      <trkpt lat="58.535469984635711" lon="-4.124354012310505">
        <ele>157.78999999999999</ele>
        <time>2019-09-03T09:12:52Z</time>
      </trkpt>
      <trkpt lat="58.535349033772945" lon="-4.124594992026687">
        <ele>158.27000000000001</ele>
        <time>2019-09-03T09:12:53Z</time>
      </trkpt>
      <trkpt lat="58.535249959677458" lon="-4.124879976734519">
        <ele>158.75</ele>
        <time>2019-09-03T09:12:54Z</time>
      </trkpt>
      <trkpt lat="58.535149963572621" lon="-4.125187005847693">
        <ele>158.75</ele>
        <time>2019-09-03T09:12:55Z</time>
      </trkpt>
      <trkpt lat="58.535048961639404" lon="-4.125500991940498">
        <ele>158.27000000000001</ele>
        <time>2019-09-03T09:12:56Z</time>
      </trkpt>
      <trkpt lat="58.534128963947296" lon="-4.127976000308991">
        <ele>154.43000000000001</ele>
        <time>2019-09-03T09:13:04Z</time>
      </trkpt>
      <trkpt lat="58.533783964812756" lon="-4.128863979130983">
        <ele>152.03</ele>
        <time>2019-09-03T09:13:07Z</time>
      </trkpt>
      <trkpt lat="58.533721016719937" lon="-4.1292430087924">
        <ele>150.09999999999999</ele>
        <time>2019-09-03T09:13:08Z</time>
      </trkpt>
      <trkpt lat="58.53366301394999" lon="-4.129591025412083">
        <ele>148.66</ele>
        <time>2019-09-03T09:13:09Z</time>
      </trkpt>
      <trkpt lat="58.533633006736636" lon="-4.129952033981681">
        <ele>146.74000000000001</ele>
        <time>2019-09-03T09:13:10Z</time>
      </trkpt>
      <trkpt lat="58.533633006736636" lon="-4.130322011187673">
        <ele>145.30000000000001</ele>
        <time>2019-09-03T09:13:11Z</time>
      </trkpt>
      <trkpt lat="58.533633006736636" lon="-4.130686959251761">
        <ele>143.84999999999999</ele>
        <time>2019-09-03T09:13:12Z</time>
      </trkpt>
      <trkpt lat="58.533593025058508" lon="-4.131731009110808">
        <ele>139.05000000000001</ele>
        <time>2019-09-03T09:13:15Z</time>
      </trkpt>
      <trkpt lat="58.533507026731968" lon="-4.132009958848357">
        <ele>137.13</ele>
        <time>2019-09-03T09:13:16Z</time>
      </trkpt>
      <trkpt lat="58.533417005091906" lon="-4.132280023768544">
        <ele>136.16</ele>
        <time>2019-09-03T09:13:17Z</time>
      </trkpt>
      <trkpt lat="58.533320026472211" lon="-4.132523015141487">
        <ele>135.19999999999999</ele>
        <time>2019-09-03T09:13:18Z</time>
      </trkpt>
      <trkpt lat="58.533194968476892" lon="-4.13272200152278">
        <ele>134.24000000000001</ele>
        <time>2019-09-03T09:13:19Z</time>
      </trkpt>
      <trkpt lat="58.533072005957365" lon="-4.13291696459055">
        <ele>133.75999999999999</ele>
        <time>2019-09-03T09:13:20Z</time>
      </trkpt>
      <trkpt lat="58.532497007399797" lon="-4.133905023336411">
        <ele>131.36000000000001</ele>
        <time>2019-09-03T09:13:25Z</time>
      </trkpt>
      <trkpt lat="58.532400028780103" lon="-4.134147008880973">
        <ele>130.88</ele>
        <time>2019-09-03T09:13:26Z</time>
      </trkpt>
      <trkpt lat="58.532313024625182" lon="-4.13439997471869">
        <ele>130.40000000000001</ele>
        <time>2019-09-03T09:13:27Z</time>
      </trkpt>
      <trkpt lat="58.532259967178106" lon="-4.13469904102385">
        <ele>129.91999999999999</ele>
        <time>2019-09-03T09:13:28Z</time>
      </trkpt>
      <trkpt lat="58.532244963571429" lon="-4.135027024894953">
        <ele>129.43000000000001</ele>
        <time>2019-09-03T09:13:29Z</time>
      </trkpt>
      <trkpt lat="58.532229959964752" lon="-4.135359032079577">
        <ele>128.47</ele>
        <time>2019-09-03T09:13:30Z</time>
      </trkpt>
      <trkpt lat="58.532215040177107" lon="-4.135690033435822">
        <ele>127.51000000000001</ele>
        <time>2019-09-03T09:13:31Z</time>
      </trkpt>
      <trkpt lat="58.532131975516677" lon="-4.136768030002713">
        <ele>123.67</ele>
        <time>2019-09-03T09:13:35Z</time>
      </trkpt>
      <trkpt lat="58.532080007717013" lon="-4.136991994455457">
        <ele>122.22</ele>
        <time>2019-09-03T09:13:36Z</time>
      </trkpt>
      <trkpt lat="58.532023010775447" lon="-4.137236997485161">
        <ele>121.26000000000001</ele>
        <time>2019-09-03T09:13:37Z</time>
      </trkpt>
      <trkpt lat="58.531748000532389" lon="-4.138409039005637">
        <ele>118.38</ele>
        <time>2019-09-03T09:13:41Z</time>
      </trkpt>
      <trkpt lat="58.531697038561106" lon="-4.138726964592934">
        <ele>116.94</ele>
        <time>2019-09-03T09:13:42Z</time>
      </trkpt>
      <trkpt lat="58.531683040782809" lon="-4.139075987040997">
        <ele>115.98</ele>
        <time>2019-09-03T09:13:43Z</time>
      </trkpt>
      <trkpt lat="58.531668959185481" lon="-4.139431966468692">
        <ele>114.53</ele>
        <time>2019-09-03T09:13:44Z</time>
      </trkpt>
      <trkpt lat="58.531671976670623" lon="-4.13979004137218">
        <ele>113.56999999999999</ele>
        <time>2019-09-03T09:13:45Z</time>
      </trkpt>
      <trkpt lat="58.531711036339402" lon="-4.140149960294366">
        <ele>112.13</ele>
        <time>2019-09-03T09:13:46Z</time>
      </trkpt>
      <trkpt lat="58.53175101801753" lon="-4.140510968863964">
        <ele>111.17</ele>
        <time>2019-09-03T09:13:47Z</time>
      </trkpt>
      <trkpt lat="58.531908011063933" lon="-4.142278963699937">
        <ele>109.25</ele>
        <time>2019-09-03T09:13:52Z</time>
      </trkpt>
      <trkpt lat="58.531913040205836" lon="-4.142627986148">
        <ele>109.25</ele>
        <time>2019-09-03T09:13:53Z</time>
      </trkpt>
      <trkpt lat="58.531673988327384" lon="-4.145429972559214">
        <ele>105.40000000000001</ele>
        <time>2019-09-03T09:14:01Z</time>
      </trkpt>
      <trkpt lat="58.531613973900676" lon="-4.145740019157529">
        <ele>104.92</ele>
        <time>2019-09-03T09:14:02Z</time>
      </trkpt>
      <trkpt lat="58.531526969745755" lon="-4.146047970280051">
        <ele>104.92</ele>
        <time>2019-09-03T09:14:03Z</time>
      </trkpt>
      <trkpt lat="58.530819034203887" lon="-4.148346958681941">
        <ele>109.73</ele>
        <time>2019-09-03T09:14:10Z</time>
      </trkpt>
      <trkpt lat="58.530722977593541" lon="-4.14864300750196">
        <ele>111.17</ele>
        <time>2019-09-03T09:14:11Z</time>
      </trkpt>
      <trkpt lat="58.530602026730776" lon="-4.148872001096606">
        <ele>112.61</ele>
        <time>2019-09-03T09:14:12Z</time>
      </trkpt>
      <trkpt lat="58.530474035069346" lon="-4.149063024669886">
        <ele>114.05</ele>
        <time>2019-09-03T09:14:13Z</time>
      </trkpt>
      <trkpt lat="58.530317964032292" lon="-4.149154974147677">
        <ele>115.5</ele>
        <time>2019-09-03T09:14:14Z</time>
      </trkpt>
      <trkpt lat="58.530156025663018" lon="-4.14920199662447">
        <ele>116.94</ele>
        <time>2019-09-03T09:14:15Z</time>
      </trkpt>
      <trkpt lat="58.529985034838319" lon="-4.149220017716289">
        <ele>118.38</ele>
        <time>2019-09-03T09:14:16Z</time>
      </trkpt>
      <trkpt lat="58.529808009043336" lon="-4.149206019937992">
        <ele>119.81999999999999</ele>
        <time>2019-09-03T09:14:17Z</time>
      </trkpt>
      <trkpt lat="58.528320975601673" lon="-4.149151034653187">
        <ele>128.47</ele>
        <time>2019-09-03T09:14:26Z</time>
      </trkpt>
      <trkpt lat="58.528189966455102" lon="-4.149200990796089">
        <ele>128.94999999999999</ele>
        <time>2019-09-03T09:14:27Z</time>
      </trkpt>
      <trkpt lat="58.528083013370633" lon="-4.149325964972377">
        <ele>128.94999999999999</ele>
        <time>2019-09-03T09:14:28Z</time>
      </trkpt>
      <trkpt lat="58.527974970638752" lon="-4.149453034624457">
        <ele>129.43000000000001</ele>
        <time>2019-09-03T09:14:29Z</time>
      </trkpt>
      <trkpt lat="58.527896013110876" lon="-4.149659983813763">
        <ele>129.43000000000001</ele>
        <time>2019-09-03T09:14:30Z</time>
      </trkpt>
      <trkpt lat="58.527828035876155" lon="-4.149894006550312">
        <ele>129.43000000000001</ele>
        <time>2019-09-03T09:14:31Z</time>
      </trkpt>
      <trkpt lat="58.527757963165641" lon="-4.150135992094874">
        <ele>129.43000000000001</ele>
        <time>2019-09-03T09:14:32Z</time>
      </trkpt>
      <trkpt lat="58.527709012851119" lon="-4.150395998731256">
        <ele>129.43000000000001</ele>
        <time>2019-09-03T09:14:33Z</time>
      </trkpt>
      <trkpt lat="58.527589989826083" lon="-4.151202002540231">
        <ele>129.43000000000001</ele>
        <time>2019-09-03T09:14:36Z</time>
      </trkpt>
      <trkpt lat="58.52756098844111" lon="-4.151476006954908">
        <ele>128.94999999999999</ele>
        <time>2019-09-03T09:14:37Z</time>
      </trkpt>
      <trkpt lat="58.527570962905884" lon="-4.151772977784276">
        <ele>127.98999999999999</ele>
        <time>2019-09-03T09:14:38Z</time>
      </trkpt>
      <trkpt lat="58.52758202701807" lon="-4.152084030210972">
        <ele>127.03</ele>
        <time>2019-09-03T09:14:39Z</time>
      </trkpt>
      <trkpt lat="58.527628965675831" lon="-4.152390975505114">
        <ele>126.06999999999999</ele>
        <time>2019-09-03T09:14:40Z</time>
      </trkpt>
      <trkpt lat="58.527680011466146" lon="-4.152702027931809">
        <ele>125.11</ele>
        <time>2019-09-03T09:14:41Z</time>
      </trkpt>
      <trkpt lat="58.527730973437428" lon="-4.153015008196235">
        <ele>123.67</ele>
        <time>2019-09-03T09:14:42Z</time>
      </trkpt>
      <trkpt lat="58.527930965647101" lon="-4.154234994202852">
        <ele>117.90000000000001</ele>
        <time>2019-09-03T09:14:46Z</time>
      </trkpt>
      <trkpt lat="58.527946975082159" lon="-4.154530959203839">
        <ele>116.45999999999999</ele>
        <time>2019-09-03T09:14:47Z</time>
      </trkpt>
      <trkpt lat="58.527939012274146" lon="-4.154824996367097">
        <ele>115.01000000000001</ele>
        <time>2019-09-03T09:14:48Z</time>
      </trkpt>
      <trkpt lat="58.527899030596018" lon="-4.155114004388452">
        <ele>113.56999999999999</ele>
        <time>2019-09-03T09:14:49Z</time>
      </trkpt>
      <trkpt lat="58.527832981199026" lon="-4.155397983267903">
        <ele>111.65000000000001</ele>
        <time>2019-09-03T09:14:50Z</time>
      </trkpt>
      <trkpt lat="58.527746982872486" lon="-4.155681040138006">
        <ele>110.20999999999999</ele>
        <time>2019-09-03T09:14:51Z</time>
      </trkpt>
      <trkpt lat="58.527658972889185" lon="-4.1559680365026">
        <ele>108.77</ele>
        <time>2019-09-03T09:14:52Z</time>
      </trkpt>
      <trkpt lat="58.526884987950325" lon="-4.158658962696791">
        <ele>92.900000000000006</ele>
        <time>2019-09-03T09:15:01Z</time>
      </trkpt>
      <trkpt lat="58.526822961866856" lon="-4.158985018730164">
        <ele>91.459999999999994</ele>
        <time>2019-09-03T09:15:02Z</time>
      </trkpt>
      <trkpt lat="58.52680996991694" lon="-4.159330017864704">
        <ele>90.019999999999996</ele>
        <time>2019-09-03T09:15:03Z</time>
      </trkpt>
      <trkpt lat="58.52680996991694" lon="-4.159679962322116">
        <ele>89.060000000000002</ele>
        <time>2019-09-03T09:15:04Z</time>
      </trkpt>
      <trkpt lat="58.52680996991694" lon="-4.160034013912082">
        <ele>88.099999999999994</ele>
        <time>2019-09-03T09:15:05Z</time>
      </trkpt>
      <trkpt lat="58.52685104124248" lon="-4.160371972247958">
        <ele>87.140000000000001</ele>
        <time>2019-09-03T09:15:06Z</time>
      </trkpt>
      <trkpt lat="58.526897979900241" lon="-4.160724012181163">
        <ele>86.180000000000007</ele>
        <time>2019-09-03T09:15:07Z</time>
      </trkpt>
      <trkpt lat="58.526946008205414" lon="-4.161080997437239">
        <ele>85.689999999999998</ele>
        <time>2019-09-03T09:15:08Z</time>
      </trkpt>
      <trkpt lat="58.52732595987618" lon="-4.164200993254781">
        <ele>82.329999999999998</ele>
        <time>2019-09-03T09:15:16Z</time>
      </trkpt>
      <trkpt lat="58.527349010109901" lon="-4.164621010422707">
        <ele>81.849999999999994</ele>
        <time>2019-09-03T09:15:17Z</time>
      </trkpt>
      <trkpt lat="58.527570962905884" lon="-4.168381970375776">
        <ele>84.25</ele>
        <time>2019-09-03T09:15:26Z</time>
      </trkpt>
      <trkpt lat="58.528053006157279" lon="-4.170436961576343">
        <ele>90.019999999999996</ele>
        <time>2019-09-03T09:15:32Z</time>
      </trkpt>
      <trkpt lat="58.529025977477431" lon="-4.173144986853004">
        <ele>90.019999999999996</ele>
        <time>2019-09-03T09:15:41Z</time>
      </trkpt>
      <trkpt lat="58.529440965503454" lon="-4.175474988296628">
        <ele>88.099999999999994</ele>
        <time>2019-09-03T09:15:47Z</time>
      </trkpt>
      <trkpt lat="58.529707007110119" lon="-4.17818795889616">
        <ele>90.5</ele>
        <time>2019-09-03T09:15:55Z</time>
      </trkpt>
      <trkpt lat="58.529931977391243" lon="-4.180990029126406">
        <ele>90.5</ele>
        <time>2019-09-03T09:16:04Z</time>
      </trkpt>
      <trkpt lat="58.529974976554513" lon="-4.183301003649831">
        <ele>87.140000000000001</ele>
        <time>2019-09-03T09:16:13Z</time>
      </trkpt>
      <trkpt lat="58.52998998016119" lon="-4.185787998139858">
        <ele>82.329999999999998</ele>
        <time>2019-09-03T09:16:22Z</time>
      </trkpt>
      <trkpt lat="58.530023004859686" lon="-4.18798497878015">
        <ele>76.560000000000002</ele>
        <time>2019-09-03T09:16:30Z</time>
      </trkpt>
      <trkpt lat="58.529965002089739" lon="-4.190468033775687">
        <ele>68.870000000000005</ele>
        <time>2019-09-03T09:16:40Z</time>
      </trkpt>
      <trkpt lat="58.529939018189907" lon="-4.190691998228431">
        <ele>68.390000000000001</ele>
        <time>2019-09-03T09:16:41Z</time>
      </trkpt>
      <trkpt lat="58.529908005148172" lon="-4.190917974337935">
        <ele>67.909999999999997</ele>
        <time>2019-09-03T09:16:42Z</time>
      </trkpt>
      <trkpt lat="58.529831981286407" lon="-4.191326005384326">
        <ele>67.430000000000007</ele>
        <time>2019-09-03T09:16:44Z</time>
      </trkpt>
      <trkpt lat="58.529295036569238" lon="-4.19380503706634">
        <ele>62.619999999999997</ele>
        <time>2019-09-03T09:16:56Z</time>
      </trkpt>
      <trkpt lat="58.529194034636021" lon="-4.195842007175088">
        <ele>57.340000000000003</ele>
        <time>2019-09-03T09:17:03Z</time>
      </trkpt>
      <trkpt lat="58.529106024652719" lon="-4.197259973734617">
        <ele>51.090000000000003</ele>
        <time>2019-09-03T09:17:09Z</time>
      </trkpt>
      <trkpt lat="58.529106024652719" lon="-4.197473963722587">
        <ele>50.609999999999999</ele>
        <time>2019-09-03T09:17:10Z</time>
      </trkpt>
      <trkpt lat="58.529106024652719" lon="-4.197635985910893">
        <ele>49.649999999999999</ele>
        <time>2019-09-03T09:17:11Z</time>
      </trkpt>
      <trkpt lat="58.529148017987609" lon="-4.197888029739261">
        <ele>49.159999999999997</ele>
        <time>2019-09-03T09:17:12Z</time>
      </trkpt>
      <trkpt lat="58.529182970523834" lon="-4.198097996413708">
        <ele>48.200000000000003</ele>
        <time>2019-09-03T09:17:13Z</time>
      </trkpt>
      <trkpt lat="58.529224041849375" lon="-4.198311986401677">
        <ele>47.719999999999999</ele>
        <time>2019-09-03T09:17:14Z</time>
      </trkpt>
      <trkpt lat="58.529291013255715" lon="-4.198523964732885">
        <ele>46.759999999999998</ele>
        <time>2019-09-03T09:17:15Z</time>
      </trkpt>
      <trkpt lat="58.529492011293769" lon="-4.199158977717161">
        <ele>43.880000000000003</ele>
        <time>2019-09-03T09:17:18Z</time>
      </trkpt>
      <trkpt lat="58.529505003243685" lon="-4.199409009888768">
        <ele>42.920000000000002</ele>
        <time>2019-09-03T09:17:19Z</time>
      </trkpt>
      <trkpt lat="58.529507014900446" lon="-4.199628029018641">
        <ele>41.469999999999999</ele>
        <time>2019-09-03T09:17:20Z</time>
      </trkpt>
      <trkpt lat="58.529472984373569" lon="-4.199845036491752">
        <ele>40.509999999999998</ele>
        <time>2019-09-03T09:17:21Z</time>
      </trkpt>
      <trkpt lat="58.529427973553538" lon="-4.200046034529805">
        <ele>39.549999999999997</ele>
        <time>2019-09-03T09:17:22Z</time>
      </trkpt>
      <trkpt lat="58.52934499271214" lon="-4.200242003425956">
        <ele>38.590000000000003</ele>
        <time>2019-09-03T09:17:23Z</time>
      </trkpt>
      <trkpt lat="58.52925798855722" lon="-4.200447024777532">
        <ele>37.149999999999999</ele>
        <time>2019-09-03T09:17:24Z</time>
      </trkpt>
      <trkpt lat="58.529113987460732" lon="-4.200836028903723">
        <ele>35.229999999999997</ele>
        <time>2019-09-03T09:17:26Z</time>
      </trkpt>
      <trkpt lat="58.52906302548945" lon="-4.201029986143112">
        <ele>33.780000000000001</ele>
        <time>2019-09-03T09:17:27Z</time>
      </trkpt>
      <trkpt lat="58.529040981084108" lon="-4.201221009716392">
        <ele>32.82</ele>
        <time>2019-09-03T09:17:28Z</time>
      </trkpt>
      <trkpt lat="58.529040981084108" lon="-4.201425025239587">
        <ele>31.859999999999999</ele>
        <time>2019-09-03T09:17:29Z</time>
      </trkpt>
      <trkpt lat="58.529040981084108" lon="-4.201624011620879">
        <ele>30.420000000000002</ele>
        <time>2019-09-03T09:17:30Z</time>
      </trkpt>
      <trkpt lat="58.529040981084108" lon="-4.2018629796803">
        <ele>29.460000000000001</ele>
        <time>2019-09-03T09:17:31Z</time>
      </trkpt>
      <trkpt lat="58.52906696498394" lon="-4.202049979940057">
        <ele>28.5</ele>
        <time>2019-09-03T09:17:32Z</time>
      </trkpt>
      <trkpt lat="58.529223036020994" lon="-4.203883018344641">
        <ele>20.809999999999999</ele>
        <time>2019-09-03T09:17:39Z</time>
      </trkpt>
      <trkpt lat="58.529205014929175" lon="-4.204143024981022">
        <ele>19.84</ele>
        <time>2019-09-03T09:17:40Z</time>
      </trkpt>
      <trkpt lat="58.52917299605906" lon="-4.204403031617403">
        <ele>18.399999999999999</ele>
        <time>2019-09-03T09:17:41Z</time>
      </trkpt>
      <trkpt lat="58.529111975803971" lon="-4.20463596470654">
        <ele>17.440000000000001</ele>
        <time>2019-09-03T09:17:42Z</time>
      </trkpt>
      <trkpt lat="58.529050033539534" lon="-4.204866969957948">
        <ele>16.48</ele>
        <time>2019-09-03T09:17:43Z</time>
      </trkpt>
      <trkpt lat="58.528988007456064" lon="-4.205081965774298">
        <ele>15.52</ele>
        <time>2019-09-03T09:17:44Z</time>
      </trkpt>
      <trkpt lat="58.528644014149904" lon="-4.206271022558212">
        <ele>13.119999999999999</ele>
        <time>2019-09-03T09:17:52Z</time>
      </trkpt>
      <trkpt lat="58.528580982238054" lon="-4.206549972295761">
        <ele>12.630000000000001</ele>
        <time>2019-09-03T09:17:54Z</time>
      </trkpt>
      <trkpt lat="58.528564972802997" lon="-4.206713000312448">
        <ele>12.630000000000001</ele>
        <time>2019-09-03T09:17:55Z</time>
      </trkpt>
      <trkpt lat="58.528459025546908" lon="-4.207795020192862">
        <ele>11.19</ele>
        <time>2019-09-03T09:18:03Z</time>
      </trkpt>
      <trkpt lat="58.528450978919864" lon="-4.207871966063976">
        <ele>10.710000000000001</ele>
        <time>2019-09-03T09:18:04Z</time>
      </trkpt>
      <trkpt lat="58.528444021940231" lon="-4.2079449724406">
        <ele>10.710000000000001</ele>
        <time>2019-09-03T09:18:05Z</time>
      </trkpt>
      <trkpt lat="58.528436981141567" lon="-4.208016972988844">
        <ele>10.710000000000001</ele>
        <time>2019-09-03T09:18:06Z</time>
      </trkpt>
      <trkpt lat="58.528429018333554" lon="-4.208091991022229">
        <ele>10.710000000000001</ele>
        <time>2019-09-03T09:18:07Z</time>
      </trkpt>
      <trkpt lat="58.52842197753489" lon="-4.208170026540756">
        <ele>10.23</ele>
        <time>2019-09-03T09:18:08Z</time>
      </trkpt>
      <trkpt lat="58.52839800529182" lon="-4.208407988771796">
        <ele>10.23</ele>
        <time>2019-09-03T09:18:12Z</time>
      </trkpt>
      <trkpt lat="58.52839800529182" lon="-4.208408994600177">
        <ele>10.23</ele>
        <time>2019-09-03T09:18:14Z</time>
      </trkpt>
      <trkpt lat="58.528402028605342" lon="-4.208373036235571">
        <ele>9.75</ele>
        <time>2019-09-03T09:18:15Z</time>
      </trkpt>
      <trkpt lat="58.528405968099833" lon="-4.208324002102017">
        <ele>9.75</ele>
        <time>2019-09-03T09:18:16Z</time>
      </trkpt>
      <trkpt lat="58.528410997241735" lon="-4.208276979625225">
        <ele>9.27</ele>
        <time>2019-09-03T09:18:17Z</time>
      </trkpt>
      <trkpt lat="58.528415020555258" lon="-4.208242027089">
        <ele>9.27</ele>
        <time>2019-09-03T09:18:18Z</time>
      </trkpt>
      <trkpt lat="58.528417032212019" lon="-4.208212019875646">
        <ele>9.27</ele>
        <time>2019-09-03T09:18:19Z</time>
      </trkpt>
      <trkpt lat="58.528417032212019" lon="-4.208212019875646">
        <ele>9.75</ele>
        <time>2019-09-03T09:18:32Z</time>
      </trkpt>
      <trkpt lat="58.528433041647077" lon="-4.20805100351572">
        <ele>12.15</ele>
        <time>2019-09-03T09:18:48Z</time>
      </trkpt>
      <trkpt lat="58.528451984748244" lon="-4.207867020741105">
        <ele>12.15</ele>
        <time>2019-09-03T09:19:01Z</time>
      </trkpt>
      <trkpt lat="58.528452990576625" lon="-4.207847993820906">
        <ele>12.15</ele>
        <time>2019-09-03T09:19:02Z</time>
      </trkpt>
      <trkpt lat="58.528452990576625" lon="-4.207847993820906">
        <ele>12.15</ele>
        <time>2019-09-03T09:19:04Z</time>
      </trkpt>
      <trkpt lat="58.528649965301156" lon="-4.207927035167813">
        <ele>11.67</ele>
        <time>2019-09-03T09:19:16Z</time>
      </trkpt>
      <trkpt lat="58.528652982786298" lon="-4.207924017682672">
        <ele>11.67</ele>
        <time>2019-09-03T09:20:00Z</time>
      </trkpt>
      <trkpt lat="58.528662035241723" lon="-4.207968022674322">
        <ele>11.19</ele>
        <time>2019-09-03T09:20:16Z</time>
      </trkpt>
      <trkpt lat="58.528662035241723" lon="-4.207968022674322">
        <ele>11.19</ele>
        <time>2019-09-03T09:20:38Z</time>
      </trkpt>
      <trkpt lat="58.529713964089751" lon="-4.206854989752173">
        <ele>11.67</ele>
        <time>2019-09-03T09:59:22Z</time>
      </trkpt>
      <trkpt lat="58.529685968533158" lon="-4.206901006400585">
        <ele>15.52</ele>
        <time>2019-09-03T09:59:51Z</time>
      </trkpt>
      <trkpt lat="58.529668031260371" lon="-4.206918021664023">
        <ele>14.56</ele>
        <time>2019-09-03T10:00:22Z</time>
      </trkpt>
      <trkpt lat="58.529649004340172" lon="-4.206924978643656">
        <ele>18.399999999999999</ele>
        <time>2019-09-03T10:00:58Z</time>
      </trkpt>
      <trkpt lat="58.529642969369888" lon="-4.206936964765191">
        <ele>18.399999999999999</ele>
        <time>2019-09-03T10:01:42Z</time>
      </trkpt>
      <trkpt lat="58.529641963541508" lon="-4.206934031099081">
        <ele>18.399999999999999</ele>
        <time>2019-09-03T10:02:31Z</time>
      </trkpt>
      <trkpt lat="58.529641963541508" lon="-4.206934031099081">
        <ele>18.399999999999999</ele>
        <time>2019-09-03T10:02:35Z</time>
      </trkpt>
      <trkpt lat="58.529583960771561" lon="-4.206873010843992">
        <ele>17.920000000000002</ele>
        <time>2019-09-03T10:02:39Z</time>
      </trkpt>
      <trkpt lat="58.529341975226998" lon="-4.206668995320797">
        <ele>15.52</ele>
        <time>2019-09-03T10:02:51Z</time>
      </trkpt>
      <trkpt lat="58.529276009649038" lon="-4.206114029511809">
        <ele>14.56</ele>
        <time>2019-09-03T10:03:01Z</time>
      </trkpt>
      <trkpt lat="58.529177019372582" lon="-4.205276006832719">
        <ele>13.6</ele>
        <time>2019-09-03T10:03:14Z</time>
      </trkpt>
      <trkpt lat="58.529078029096127" lon="-4.204862024635077">
        <ele>13.6</ele>
        <time>2019-09-03T10:03:24Z</time>
      </trkpt>
      <trkpt lat="58.529041986912489" lon="-4.204894965514541">
        <ele>13.6</ele>
        <time>2019-09-03T10:03:25Z</time>
      </trkpt>
      <trkpt lat="58.529025977477431" lon="-4.204951040446758">
        <ele>13.6</ele>
        <time>2019-09-03T10:03:26Z</time>
      </trkpt>
      <trkpt lat="58.52900099940598" lon="-4.205038966611028">
        <ele>13.119999999999999</ele>
        <time>2019-09-03T10:03:27Z</time>
      </trkpt>
      <trkpt lat="58.528969986364245" lon="-4.205144997686148">
        <ele>13.119999999999999</ele>
        <time>2019-09-03T10:03:28Z</time>
      </trkpt>
      <trkpt lat="58.52893402799964" lon="-4.205268966034055">
        <ele>13.119999999999999</ele>
        <time>2019-09-03T10:03:29Z</time>
      </trkpt>
      <trkpt lat="58.52859104052186" lon="-4.206455005332828">
        <ele>12.15</ele>
        <time>2019-09-03T10:03:36Z</time>
      </trkpt>
      <trkpt lat="58.528568996116519" lon="-4.206680981442332">
        <ele>12.15</ele>
        <time>2019-09-03T10:03:37Z</time>
      </trkpt>
      <trkpt lat="58.528546029701829" lon="-4.206915004178882">
        <ele>12.15</ele>
        <time>2019-09-03T10:03:38Z</time>
      </trkpt>
      <trkpt lat="58.528254004195333" lon="-4.209858980029821">
        <ele>8.310000000000001</ele>
        <time>2019-09-03T10:03:50Z</time>
      </trkpt>
      <trkpt lat="58.528052000328898" lon="-4.212303981184959">
        <ele>9.27</ele>
        <time>2019-09-03T10:03:59Z</time>
      </trkpt>
      <trkpt lat="58.528070021420717" lon="-4.212564993649721">
        <ele>9.27</ele>
        <time>2019-09-03T10:04:00Z</time>
      </trkpt>
      <trkpt lat="58.528137998655438" lon="-4.213523967191577">
        <ele>11.19</ele>
        <time>2019-09-03T10:04:04Z</time>
      </trkpt>
      <trkpt lat="58.528102962300181" lon="-4.213754972442985">
        <ele>11.67</ele>
        <time>2019-09-03T10:04:05Z</time>
      </trkpt>
      <trkpt lat="58.528061974793673" lon="-4.213974997401238">
        <ele>12.630000000000001</ele>
        <time>2019-09-03T10:04:06Z</time>
      </trkpt>
      <trkpt lat="58.528021993115544" lon="-4.214188987389207">
        <ele>13.119999999999999</ele>
        <time>2019-09-03T10:04:07Z</time>
      </trkpt>
      <trkpt lat="58.527946975082159" lon="-4.214359978213906">
        <ele>13.6</ele>
        <time>2019-09-03T10:04:08Z</time>
      </trkpt>
      <trkpt lat="58.527859970927238" lon="-4.21451898291707">
        <ele>14.56</ele>
        <time>2019-09-03T10:04:09Z</time>
      </trkpt>
      <trkpt lat="58.527771960943937" lon="-4.214677987620235">
        <ele>15.039999999999999</ele>
        <time>2019-09-03T10:04:10Z</time>
      </trkpt>
      <trkpt lat="58.526732018217444" lon="-4.216486969962716">
        <ele>27.050000000000001</ele>
        <time>2019-09-03T10:04:20Z</time>
      </trkpt>
      <trkpt lat="58.525959961116314" lon="-4.218499967828393">
        <ele>40.030000000000001</ele>
        <time>2019-09-03T10:04:29Z</time>
      </trkpt>
      <trkpt lat="58.525491999462247" lon="-4.220079034566879">
        <ele>49.649999999999999</ele>
        <time>2019-09-03T10:04:36Z</time>
      </trkpt>
      <trkpt lat="58.52545796893537" lon="-4.220273997634649">
        <ele>50.609999999999999</ele>
        <time>2019-09-03T10:04:37Z</time>
      </trkpt>
      <trkpt lat="58.525444976985455" lon="-4.220477007329464">
        <ele>52.049999999999997</ele>
        <time>2019-09-03T10:04:38Z</time>
      </trkpt>
      <trkpt lat="58.525430979207158" lon="-4.220674987882376">
        <ele>53.009999999999998</ele>
        <time>2019-09-03T10:04:39Z</time>
      </trkpt>
      <trkpt lat="58.525417987257242" lon="-4.220879003405571">
        <ele>54.450000000000003</ele>
        <time>2019-09-03T10:04:40Z</time>
      </trkpt>
      <trkpt lat="58.52534799836576" lon="-4.221492977812886">
        <ele>57.340000000000003</ele>
        <time>2019-09-03T10:04:43Z</time>
      </trkpt>
      <trkpt lat="58.525308016687632" lon="-4.221710991114378">
        <ele>58.299999999999997</ele>
        <time>2019-09-03T10:04:44Z</time>
      </trkpt>
      <trkpt lat="58.524726983159781" lon="-4.22386103309691">
        <ele>65.510000000000005</ele>
        <time>2019-09-03T10:04:55Z</time>
      </trkpt>
      <trkpt lat="58.52466001175344" lon="-4.223994975909591">
        <ele>65.030000000000001</ele>
        <time>2019-09-03T10:04:56Z</time>
      </trkpt>
      <trkpt lat="58.524597985669971" lon="-4.224116010591388">
        <ele>65.030000000000001</ele>
        <time>2019-09-03T10:04:57Z</time>
      </trkpt>
      <trkpt lat="58.523848978802562" lon="-4.224727973341942">
        <ele>58.299999999999997</ele>
        <time>2019-09-03T10:05:04Z</time>
      </trkpt>
      <trkpt lat="58.522876007482409" lon="-4.225292997434735">
        <ele>49.159999999999997</ele>
        <time>2019-09-03T10:05:12Z</time>
      </trkpt>
      <trkpt lat="58.522750027477741" lon="-4.225283022969961">
        <ele>48.200000000000003</ele>
        <time>2019-09-03T10:05:13Z</time>
      </trkpt>
      <trkpt lat="58.522613989189267" lon="-4.225268019363284">
        <ele>47.240000000000002</ele>
        <time>2019-09-03T10:05:14Z</time>
      </trkpt>
      <trkpt lat="58.522091964259744" lon="-4.225004995241761">
        <ele>43.399999999999999</ele>
        <time>2019-09-03T10:05:18Z</time>
      </trkpt>
      <trkpt lat="58.521959027275443" lon="-4.224888989701867">
        <ele>42.439999999999998</ele>
        <time>2019-09-03T10:05:19Z</time>
      </trkpt>
      <trkpt lat="58.520531002432108" lon="-4.223642013967037">
        <ele>37.630000000000003</ele>
        <time>2019-09-03T10:05:29Z</time>
      </trkpt>
      <trkpt lat="58.519488964229822" lon="-4.222178030759096">
        <ele>32.82</ele>
        <time>2019-09-03T10:05:38Z</time>
      </trkpt>
      <trkpt lat="58.519367007538676" lon="-4.222047021612525">
        <ele>32.340000000000003</ele>
        <time>2019-09-03T10:05:39Z</time>
      </trkpt>
      <trkpt lat="58.519243961200118" lon="-4.221915006637573">
        <ele>31.859999999999999</ele>
        <time>2019-09-03T10:05:40Z</time>
      </trkpt>
      <trkpt lat="58.519108006730676" lon="-4.221857003867626">
        <ele>31.379999999999999</ele>
        <time>2019-09-03T10:05:41Z</time>
      </trkpt>
      <trkpt lat="58.51896601729095" lon="-4.221820961683989">
        <ele>30.420000000000002</ele>
        <time>2019-09-03T10:05:42Z</time>
      </trkpt>
      <trkpt lat="58.518821010366082" lon="-4.221785003319383">
        <ele>29.940000000000001</ele>
        <time>2019-09-03T10:05:43Z</time>
      </trkpt>
      <trkpt lat="58.516916977241635" lon="-4.221051000058651">
        <ele>21.289999999999999</ele>
        <time>2019-09-03T10:05:56Z</time>
      </trkpt>
      <trkpt lat="58.516779011115432" lon="-4.220916973426938">
        <ele>21.289999999999999</ele>
        <time>2019-09-03T10:05:57Z</time>
      </trkpt>
      <trkpt lat="58.515101037919521" lon="-4.219228019937873">
        <ele>21.289999999999999</ele>
        <time>2019-09-03T10:06:09Z</time>
      </trkpt>
      <trkpt lat="58.513456005603075" lon="-4.217906026169658">
        <ele>18.399999999999999</ele>
        <time>2019-09-03T10:06:20Z</time>
      </trkpt>
      <trkpt lat="58.512061005458236" lon="-4.21634498052299">
        <ele>15.039999999999999</ele>
        <time>2019-09-03T10:06:30Z</time>
      </trkpt>
      <trkpt lat="58.511140001937747" lon="-4.215095993131399">
        <ele>11.67</ele>
        <time>2019-09-03T10:06:38Z</time>
      </trkpt>
      <trkpt lat="58.511080993339419" lon="-4.215016029775143">
        <ele>11.19</ele>
        <time>2019-09-03T10:06:39Z</time>
      </trkpt>
      <trkpt lat="58.510979991406202" lon="-4.215004965662956">
        <ele>10.710000000000001</ele>
        <time>2019-09-03T10:06:40Z</time>
      </trkpt>
      <trkpt lat="58.510905979201198" lon="-4.214997002854943">
        <ele>10.23</ele>
        <time>2019-09-03T10:06:41Z</time>
      </trkpt>
      <trkpt lat="58.510854011401534" lon="-4.215043019503355">
        <ele>9.27</ele>
        <time>2019-09-03T10:06:42Z</time>
      </trkpt>
      <trkpt lat="58.5108039714396" lon="-4.215113008394837">
        <ele>8.789999999999999</ele>
        <time>2019-09-03T10:06:43Z</time>
      </trkpt>
      <trkpt lat="58.510773964226246" lon="-4.215174028649926">
        <ele>8.310000000000001</ele>
        <time>2019-09-03T10:06:44Z</time>
      </trkpt>
      <trkpt lat="58.510748986154795" lon="-4.215276958420873">
        <ele>7.83</ele>
        <time>2019-09-03T10:06:45Z</time>
      </trkpt>
      <trkpt lat="58.510720990598202" lon="-4.215389024466276">
        <ele>7.35</ele>
        <time>2019-09-03T10:06:46Z</time>
      </trkpt>
      <trkpt lat="58.510365011170506" lon="-4.216823000460863">
        <ele>6.39</ele>
        <time>2019-09-03T10:06:55Z</time>
      </trkpt>
      <trkpt lat="58.51030801422894" lon="-4.216992985457182">
        <ele>6.39</ele>
        <time>2019-09-03T10:06:56Z</time>
      </trkpt>
      <trkpt lat="58.510238025337458" lon="-4.217156013473868">
        <ele>6.39</ele>
        <time>2019-09-03T10:06:57Z</time>
      </trkpt>
      <trkpt lat="58.510154038667679" lon="-4.21726799570024">
        <ele>6.87</ele>
        <time>2019-09-03T10:06:58Z</time>
      </trkpt>
      <trkpt lat="58.510070974007249" lon="-4.217378972098231">
        <ele>7.35</ele>
        <time>2019-09-03T10:06:59Z</time>
      </trkpt>
      <trkpt lat="58.509984975680709" lon="-4.21748299151659">
        <ele>7.83</ele>
        <time>2019-09-03T10:07:00Z</time>
      </trkpt>
      <trkpt lat="58.509894032031298" lon="-4.217564966529608">
        <ele>7.83</ele>
        <time>2019-09-03T10:07:01Z</time>
      </trkpt>
      <trkpt lat="58.509243009611964" lon="-4.218210037797689">
        <ele>11.67</ele>
        <time>2019-09-03T10:07:08Z</time>
      </trkpt>
      <trkpt lat="58.509141001850367" lon="-4.218383962288499">
        <ele>12.15</ele>
        <time>2019-09-03T10:07:09Z</time>
      </trkpt>
      <trkpt lat="58.508272971957922" lon="-4.219801006838679">
        <ele>13.6</ele>
        <time>2019-09-03T10:07:17Z</time>
      </trkpt>
      <trkpt lat="58.508140034973621" lon="-4.219891028478742">
        <ele>14.08</ele>
        <time>2019-09-03T10:07:18Z</time>
      </trkpt>
      <trkpt lat="58.508006008341908" lon="-4.219982977956533">
        <ele>14.08</ele>
        <time>2019-09-03T10:07:19Z</time>
      </trkpt>
      <trkpt lat="58.507863013073802" lon="-4.22008004039526">
        <ele>14.56</ele>
        <time>2019-09-03T10:07:20Z</time>
      </trkpt>
      <trkpt lat="58.507723035290837" lon="-4.220077022910118">
        <ele>14.56</ele>
        <time>2019-09-03T10:07:21Z</time>
      </trkpt>
      <trkpt lat="58.507574005052447" lon="-4.220074005424976">
        <ele>15.039999999999999</ele>
        <time>2019-09-03T10:07:22Z</time>
      </trkpt>
      <trkpt lat="58.507422963157296" lon="-4.220069982111454">
        <ele>15.039999999999999</ele>
        <time>2019-09-03T10:07:23Z</time>
      </trkpt>
      <trkpt lat="58.506083032116294" lon="-4.219671003520489">
        <ele>18.399999999999999</ele>
        <time>2019-09-03T10:07:32Z</time>
      </trkpt>
      <trkpt lat="58.504693983122706" lon="-4.218876985833049">
        <ele>19.359999999999999</ele>
        <time>2019-09-03T10:07:41Z</time>
      </trkpt>
      <trkpt lat="58.503425968810916" lon="-4.218286983668804">
        <ele>17.440000000000001</ele>
        <time>2019-09-03T10:07:49Z</time>
      </trkpt>
      <trkpt lat="58.502371022477746" lon="-4.217514004558325">
        <ele>16</ele>
        <time>2019-09-03T10:07:57Z</time>
      </trkpt>
      <trkpt lat="58.501051040366292" lon="-4.217226002365351">
        <ele>19.359999999999999</ele>
        <time>2019-09-03T10:08:06Z</time>
      </trkpt>
      <trkpt lat="58.499598037451506" lon="-4.217434963211417">
        <ele>25.609999999999999</ele>
        <time>2019-09-03T10:08:16Z</time>
      </trkpt>
      <trkpt lat="58.498104969039559" lon="-4.217329015955329">
        <ele>27.530000000000001</ele>
        <time>2019-09-03T10:08:26Z</time>
      </trkpt>
      <trkpt lat="58.496909039095044" lon="-4.217080995440483">
        <ele>24.649999999999999</ele>
        <time>2019-09-03T10:08:33Z</time>
      </trkpt>
      <trkpt lat="58.495519990101457" lon="-4.216295024380088">
        <ele>17.440000000000001</ele>
        <time>2019-09-03T10:08:41Z</time>
      </trkpt>
      <trkpt lat="58.49413001909852" lon="-4.215294979512692">
        <ele>10.710000000000001</ele>
        <time>2019-09-03T10:08:50Z</time>
      </trkpt>
      <trkpt lat="58.493977971374989" lon="-4.215236976742744">
        <ele>10.23</ele>
        <time>2019-09-03T10:08:51Z</time>
      </trkpt>
      <trkpt lat="58.492371998727322" lon="-4.214620990678668">
        <ele>7.83</ele>
        <time>2019-09-03T10:09:01Z</time>
      </trkpt>
      <trkpt lat="58.492065975442529" lon="-4.214502973482013">
        <ele>7.83</ele>
        <time>2019-09-03T10:09:03Z</time>
      </trkpt>
      <trkpt lat="58.491921974346042" lon="-4.214393002912402">
        <ele>8.310000000000001</ele>
        <time>2019-09-03T10:09:04Z</time>
      </trkpt>
      <trkpt lat="58.491786019876599" lon="-4.214251013472676">
        <ele>8.310000000000001</ele>
        <time>2019-09-03T10:09:05Z</time>
      </trkpt>
      <trkpt lat="58.491650987416506" lon="-4.214112041518092">
        <ele>8.789999999999999</ele>
        <time>2019-09-03T10:09:06Z</time>
      </trkpt>
      <trkpt lat="58.491517966613173" lon="-4.213972985744476">
        <ele>8.789999999999999</ele>
        <time>2019-09-03T10:09:07Z</time>
      </trkpt>
      <trkpt lat="58.490845989435911" lon="-4.213306959718466">
        <ele>10.23</ele>
        <time>2019-09-03T10:09:12Z</time>
      </trkpt>
      <trkpt lat="58.490702994167805" lon="-4.213210986927152">
        <ele>10.23</ele>
        <time>2019-09-03T10:09:13Z</time>
      </trkpt>
      <trkpt lat="58.489445960149169" lon="-4.212579997256398">
        <ele>10.710000000000001</ele>
        <time>2019-09-03T10:09:22Z</time>
      </trkpt>
      <trkpt lat="58.488354971632361" lon="-4.212404983118177">
        <ele>9.27</ele>
        <time>2019-09-03T10:09:30Z</time>
      </trkpt>
      <trkpt lat="58.487536981701851" lon="-4.212706983089447">
        <ele>14.56</ele>
        <time>2019-09-03T10:09:37Z</time>
      </trkpt>
      <trkpt lat="58.487441008910537" lon="-4.212808990851045">
        <ele>15.52</ele>
        <time>2019-09-03T10:09:38Z</time>
      </trkpt>
      <trkpt lat="58.487258031964302" lon="-4.213004037737846">
        <ele>17.920000000000002</ele>
        <time>2019-09-03T10:09:40Z</time>
      </trkpt>
      <trkpt lat="58.487176978960633" lon="-4.213145021349192">
        <ele>18.879999999999999</ele>
        <time>2019-09-03T10:09:41Z</time>
      </trkpt>
      <trkpt lat="58.486541965976357" lon="-4.214348997920752">
        <ele>28.02</ele>
        <time>2019-09-03T10:09:47Z</time>
      </trkpt>
      <trkpt lat="58.485916005447507" lon="-4.215537970885634">
        <ele>39.07</ele>
        <time>2019-09-03T10:09:54Z</time>
      </trkpt>
      <trkpt lat="58.485184013843536" lon="-4.217049982398748">
        <ele>49.649999999999999</ele>
        <time>2019-09-03T10:10:04Z</time>
      </trkpt>
      <trkpt lat="58.485134979709983" lon="-4.217257015407085">
        <ele>50.609999999999999</ele>
        <time>2019-09-03T10:10:05Z</time>
      </trkpt>
      <trkpt lat="58.4850840177387" lon="-4.217474022880197">
        <ele>52.049999999999997</ele>
        <time>2019-09-03T10:10:06Z</time>
      </trkpt>
      <trkpt lat="58.485033977776766" lon="-4.217691030353308">
        <ele>53.009999999999998</ele>
        <time>2019-09-03T10:10:07Z</time>
      </trkpt>
      <trkpt lat="58.485016040503979" lon="-4.217934021726251">
        <ele>54.450000000000003</ele>
        <time>2019-09-03T10:10:08Z</time>
      </trkpt>
      <trkpt lat="58.485000031068921" lon="-4.218177013099194">
        <ele>55.890000000000001</ele>
        <time>2019-09-03T10:10:09Z</time>
      </trkpt>
      <trkpt lat="58.484769025817513" lon="-4.220597958192229">
        <ele>70.790000000000006</ele>
        <time>2019-09-03T10:10:19Z</time>
      </trkpt>
      <trkpt lat="58.484531985595822" lon="-4.222851013764739">
        <ele>82.329999999999998</ele>
        <time>2019-09-03T10:10:29Z</time>
      </trkpt>
      <trkpt lat="58.484474988654256" lon="-4.225674960762262">
        <ele>92.900000000000006</ele>
        <time>2019-09-03T10:10:37Z</time>
      </trkpt>
      <trkpt lat="58.484468031674623" lon="-4.230124996975064">
        <ele>108.29000000000001</ele>
        <time>2019-09-03T10:10:49Z</time>
      </trkpt>
      <trkpt lat="58.484521005302668" lon="-4.232841990888119">
        <ele>121.73999999999999</ele>
        <time>2019-09-03T10:10:57Z</time>
      </trkpt>
      <trkpt lat="58.484558975324035" lon="-4.233963992446661">
        <ele>124.15000000000001</ele>
        <time>2019-09-03T10:11:00Z</time>
      </trkpt>
      <trkpt lat="58.484531985595822" lon="-4.234322989359498">
        <ele>124.63</ele>
        <time>2019-09-03T10:11:01Z</time>
      </trkpt>
      <trkpt lat="58.484426038339734" lon="-4.236544026061893">
        <ele>128.47</ele>
        <time>2019-09-03T10:11:08Z</time>
      </trkpt>
      <trkpt lat="58.484436012804508" lon="-4.236895982176065">
        <ele>128.94999999999999</ele>
        <time>2019-09-03T10:11:09Z</time>
      </trkpt>
      <trkpt lat="58.484473982825875" lon="-4.238272961229086">
        <ele>130.88</ele>
        <time>2019-09-03T10:11:13Z</time>
      </trkpt>
      <trkpt lat="58.484426960349083" lon="-4.238587031140924">
        <ele>131.36000000000001</ele>
        <time>2019-09-03T10:11:14Z</time>
      </trkpt>
      <trkpt lat="58.484378010034561" lon="-4.238913003355265">
        <ele>132.31999999999999</ele>
        <time>2019-09-03T10:11:15Z</time>
      </trkpt>
      <trkpt lat="58.484086990356445" lon="-4.241531006991863">
        <ele>141.93000000000001</ele>
        <time>2019-09-03T10:11:23Z</time>
      </trkpt>
      <trkpt lat="58.483851961791515" lon="-4.244198966771364">
        <ele>151.53999999999999</ele>
        <time>2019-09-03T10:11:32Z</time>
      </trkpt>
      <trkpt lat="58.483847016468644" lon="-4.246384967118502">
        <ele>156.34999999999999</ele>
        <time>2019-09-03T10:11:39Z</time>
      </trkpt>
      <trkpt lat="58.483832012861967" lon="-4.246675986796618">
        <ele>156.83000000000001</ele>
        <time>2019-09-03T10:11:40Z</time>
      </trkpt>
      <trkpt lat="58.483735034242272" lon="-4.248540960252285">
        <ele>156.34999999999999</ele>
        <time>2019-09-03T10:11:47Z</time>
      </trkpt>
      <trkpt lat="58.483781972900033" lon="-4.249379988759756">
        <ele>155.38999999999999</ele>
        <time>2019-09-03T10:11:50Z</time>
      </trkpt>
      <trkpt lat="58.483842993155122" lon="-4.249653993174434">
        <ele>154.91</ele>
        <time>2019-09-03T10:11:51Z</time>
      </trkpt>
      <trkpt lat="58.483894960954785" lon="-4.249884998425841">
        <ele>154.43000000000001</ele>
        <time>2019-09-03T10:11:52Z</time>
      </trkpt>
      <trkpt lat="58.483998980373144" lon="-4.250170988962054">
        <ele>153.94999999999999</ele>
        <time>2019-09-03T10:11:53Z</time>
      </trkpt>
      <trkpt lat="58.484091013669968" lon="-4.250424038618803">
        <ele>153.47</ele>
        <time>2019-09-03T10:11:54Z</time>
      </trkpt>
      <trkpt lat="58.484194027259946" lon="-4.25065403804183">
        <ele>152.99000000000001</ele>
        <time>2019-09-03T10:11:55Z</time>
      </trkpt>
      <trkpt lat="58.484331993386149" lon="-4.250851012766361">
        <ele>152.03</ele>
        <time>2019-09-03T10:11:56Z</time>
      </trkpt>
      <trkpt lat="58.484471971169114" lon="-4.251054022461176">
        <ele>151.53999999999999</ele>
        <time>2019-09-03T10:11:57Z</time>
      </trkpt>
      <trkpt lat="58.48461396060884" lon="-4.251257032155991">
        <ele>150.58000000000001</ele>
        <time>2019-09-03T10:11:58Z</time>
      </trkpt>
      <trkpt lat="58.485332038253546" lon="-4.252456985414028">
        <ele>146.25999999999999</ele>
        <time>2019-09-03T10:12:04Z</time>
      </trkpt>
      <trkpt lat="58.485418036580086" lon="-4.25267499871552">
        <ele>145.78</ele>
        <time>2019-09-03T10:12:05Z</time>
      </trkpt>
      <trkpt lat="58.485480984672904" lon="-4.252998037263751">
        <ele>144.81999999999999</ele>
        <time>2019-09-03T10:12:06Z</time>
      </trkpt>
      <trkpt lat="58.485542004927993" lon="-4.253315040841699">
        <ele>144.34</ele>
        <time>2019-09-03T10:12:07Z</time>
      </trkpt>
      <trkpt lat="58.485588021576405" lon="-4.253669008612633">
        <ele>143.84999999999999</ele>
        <time>2019-09-03T10:12:08Z</time>
      </trkpt>
      <trkpt lat="58.485918017104268" lon="-4.256268991157413">
        <ele>139.05000000000001</ele>
        <time>2019-09-03T10:12:15Z</time>
      </trkpt>
      <trkpt lat="58.485981971025467" lon="-4.256551964208484">
        <ele>139.05000000000001</ele>
        <time>2019-09-03T10:12:16Z</time>
      </trkpt>
      <trkpt lat="58.486059000715613" lon="-4.256809959188104">
        <ele>139.05000000000001</ele>
        <time>2019-09-03T10:12:17Z</time>
      </trkpt>
      <trkpt lat="58.486616984009743" lon="-4.25924900919199">
        <ele>136.16</ele>
        <time>2019-09-03T10:12:25Z</time>
      </trkpt>
      <trkpt lat="58.487293990328908" lon="-4.261822002008557">
        <ele>126.06999999999999</ele>
        <time>2019-09-03T10:12:33Z</time>
      </trkpt>
      <trkpt lat="58.488334016874433" lon="-4.264837978407741">
        <ele>106.84</ele>
        <time>2019-09-03T10:12:43Z</time>
      </trkpt>
      <trkpt lat="58.489388963207603" lon="-4.26640497520566">
        <ele>94.349999999999994</ele>
        <time>2019-09-03T10:12:51Z</time>
      </trkpt>
      <trkpt lat="58.490523034706712" lon="-4.267613980919123">
        <ele>82.329999999999998</ele>
        <time>2019-09-03T10:12:59Z</time>
      </trkpt>
      <trkpt lat="58.492092965170741" lon="-4.269465962424874">
        <ele>63.579999999999998</ele>
        <time>2019-09-03T10:13:10Z</time>
      </trkpt>
      <trkpt lat="58.493696004152298" lon="-4.271245021373034">
        <ele>42.920000000000002</ele>
        <time>2019-09-03T10:13:21Z</time>
      </trkpt>
      <trkpt lat="58.494724966585636" lon="-4.272737000137568">
        <ele>31.859999999999999</ele>
        <time>2019-09-03T10:13:28Z</time>
      </trkpt>
      <trkpt lat="58.494835020974278" lon="-4.27299901843071">
        <ele>30.420000000000002</ele>
        <time>2019-09-03T10:13:29Z</time>
      </trkpt>
      <trkpt lat="58.49492403678596" lon="-4.273291965946555">
        <ele>29.940000000000001</ele>
        <time>2019-09-03T10:13:30Z</time>
      </trkpt>
      <trkpt lat="58.495552008971572" lon="-4.275981970131397">
        <ele>26.57</ele>
        <time>2019-09-03T10:13:39Z</time>
      </trkpt>
      <trkpt lat="58.495969008654356" lon="-4.278074009343982">
        <ele>23.690000000000001</ele>
        <time>2019-09-03T10:13:45Z</time>
      </trkpt>
      <trkpt lat="58.496531015262008" lon="-4.280532002449036">
        <ele>21.289999999999999</ele>
        <time>2019-09-03T10:13:53Z</time>
      </trkpt>
      <trkpt lat="58.496563034132123" lon="-4.28082000464201">
        <ele>21.289999999999999</ele>
        <time>2019-09-03T10:13:54Z</time>
      </trkpt>
      <trkpt lat="58.496595975011587" lon="-4.281112030148506">
        <ele>21.289999999999999</ele>
        <time>2019-09-03T10:13:55Z</time>
      </trkpt>
      <trkpt lat="58.496526991948485" lon="-4.2838079854846">
        <ele>25.129999999999999</ele>
        <time>2019-09-03T10:14:04Z</time>
      </trkpt>
      <trkpt lat="58.496391037479043" lon="-4.287119004875422">
        <ele>28.5</ele>
        <time>2019-09-03T10:14:15Z</time>
      </trkpt>
      <trkpt lat="58.496258016675711" lon="-4.288875013589859">
        <ele>34.259999999999998</ele>
        <time>2019-09-03T10:14:21Z</time>
      </trkpt>
      <trkpt lat="58.496204959228635" lon="-4.289140971377492">
        <ele>35.229999999999997</ele>
        <time>2019-09-03T10:14:22Z</time>
      </trkpt>
      <trkpt lat="58.495744960382581" lon="-4.291041987016797">
        <ele>44.840000000000003</ele>
        <time>2019-09-03T10:14:30Z</time>
      </trkpt>
      <trkpt lat="58.495711013674736" lon="-4.291298976168037">
        <ele>46.280000000000001</ele>
        <time>2019-09-03T10:14:31Z</time>
      </trkpt>
      <trkpt lat="58.495696010068059" lon="-4.291567029431462">
        <ele>47.240000000000002</ele>
        <time>2019-09-03T10:14:32Z</time>
      </trkpt>
      <trkpt lat="58.495696010068059" lon="-4.291834998875856">
        <ele>48.68</ele>
        <time>2019-09-03T10:14:33Z</time>
      </trkpt>
      <trkpt lat="58.495700033381581" lon="-4.292101040482521">
        <ele>50.130000000000003</ele>
        <time>2019-09-03T10:14:34Z</time>
      </trkpt>
      <trkpt lat="58.495721993967891" lon="-4.292370015755296">
        <ele>51.57</ele>
        <time>2019-09-03T10:14:35Z</time>
      </trkpt>
      <trkpt lat="58.495775973424315" lon="-4.293462010100484">
        <ele>56.369999999999997</ele>
        <time>2019-09-03T10:14:39Z</time>
      </trkpt>
      <trkpt lat="58.495772033929825" lon="-4.293741965666413">
        <ele>57.82</ele>
        <time>2019-09-03T10:14:40Z</time>
      </trkpt>
      <trkpt lat="58.495767004787922" lon="-4.294025022536516">
        <ele>59.259999999999998</ele>
        <time>2019-09-03T10:14:41Z</time>
      </trkpt>
      <trkpt lat="58.495761975646019" lon="-4.294315036386251">
        <ele>60.219999999999999</ele>
        <time>2019-09-03T10:14:42Z</time>
      </trkpt>
      <trkpt lat="58.495734985917807" lon="-4.294594991952181">
        <ele>61.18</ele>
        <time>2019-09-03T10:14:43Z</time>
      </trkpt>
      <trkpt lat="58.495693998411298" lon="-4.294891962781549">
        <ele>62.140000000000001</ele>
        <time>2019-09-03T10:14:44Z</time>
      </trkpt>
      <trkpt lat="58.49526702426374" lon="-4.297993015497923">
        <ele>69.349999999999994</ele>
        <time>2019-09-03T10:14:54Z</time>
      </trkpt>
      <trkpt lat="58.495212038978934" lon="-4.300504988059402">
        <ele>77.040000000000006</ele>
        <time>2019-09-03T10:15:01Z</time>
      </trkpt>
      <trkpt lat="58.49520499818027" lon="-4.300854010507464">
        <ele>78</ele>
        <time>2019-09-03T10:15:02Z</time>
      </trkpt>
      <trkpt lat="58.495163004845381" lon="-4.301189035177231">
        <ele>78.969999999999999</ele>
        <time>2019-09-03T10:15:03Z</time>
      </trkpt>
      <trkpt lat="58.494878020137548" lon="-4.303015032783151">
        <ele>85.689999999999998</ele>
        <time>2019-09-03T10:15:09Z</time>
      </trkpt>
      <trkpt lat="58.494838960468769" lon="-4.303322983905673">
        <ele>87.140000000000001</ele>
        <time>2019-09-03T10:15:10Z</time>
      </trkpt>
      <trkpt lat="58.494846001267433" lon="-4.303645016625524">
        <ele>88.099999999999994</ele>
        <time>2019-09-03T10:15:11Z</time>
      </trkpt>
      <trkpt lat="58.494852958247066" lon="-4.303971994668245">
        <ele>89.540000000000006</ele>
        <time>2019-09-03T10:15:12Z</time>
      </trkpt>
      <trkpt lat="58.494865028187633" lon="-4.304296039044857">
        <ele>90.5</ele>
        <time>2019-09-03T10:15:13Z</time>
      </trkpt>
      <trkpt lat="58.494911966845393" lon="-4.304612958803773">
        <ele>91.459999999999994</ele>
        <time>2019-09-03T10:15:14Z</time>
      </trkpt>
      <trkpt lat="58.494972987100482" lon="-4.304921999573708">
        <ele>92.420000000000002</ele>
        <time>2019-09-03T10:15:15Z</time>
      </trkpt>
      <trkpt lat="58.495067032054067" lon="-4.305203966796398">
        <ele>93.870000000000005</ele>
        <time>2019-09-03T10:15:16Z</time>
      </trkpt>
      <trkpt lat="58.495159987360239" lon="-4.305481994524598">
        <ele>95.310000000000002</ele>
        <time>2019-09-03T10:15:17Z</time>
      </trkpt>
      <trkpt lat="58.495276998728514" lon="-4.30574401281774">
        <ele>96.269999999999996</ele>
        <time>2019-09-03T10:15:18Z</time>
      </trkpt>
      <trkpt lat="58.495386969298124" lon="-4.305992033332586">
        <ele>97.709999999999994</ele>
        <time>2019-09-03T10:15:19Z</time>
      </trkpt>
      <trkpt lat="58.496339991688728" lon="-4.308313988149166">
        <ele>105.40000000000001</ele>
        <time>2019-09-03T10:15:29Z</time>
      </trkpt>
      <trkpt lat="58.496649032458663" lon="-4.310624040663242">
        <ele>109.25</ele>
        <time>2019-09-03T10:15:36Z</time>
      </trkpt>
      <trkpt lat="58.497032001614571" lon="-4.313983004540205">
        <ele>112.13</ele>
        <time>2019-09-03T10:15:46Z</time>
      </trkpt>
      <trkpt lat="58.497615968808532" lon="-4.316546022891998">
        <ele>114.53</ele>
        <time>2019-09-03T10:15:54Z</time>
      </trkpt>
      <trkpt lat="58.498347960412502" lon="-4.320595990866423">
        <ele>117.90000000000001</ele>
        <time>2019-09-03T10:16:06Z</time>
      </trkpt>
      <trkpt lat="58.498681979253888" lon="-4.322229037061334">
        <ele>117.42</ele>
        <time>2019-09-03T10:16:11Z</time>
      </trkpt>
      <trkpt lat="58.498764960095286" lon="-4.322519972920418">
        <ele>117.42</ele>
        <time>2019-09-03T10:16:12Z</time>
      </trkpt>
      <trkpt lat="58.498866967856884" lon="-4.322793977335095">
        <ele>116.94</ele>
        <time>2019-09-03T10:16:13Z</time>
      </trkpt>
      <trkpt lat="58.499876987189054" lon="-4.324706979095936">
        <ele>116.45999999999999</ele>
        <time>2019-09-03T10:16:21Z</time>
      </trkpt>
      <trkpt lat="58.500265991315246" lon="-4.3252959754318">
        <ele>115.01000000000001</ele>
        <time>2019-09-03T10:16:24Z</time>
      </trkpt>
      <trkpt lat="58.500367999076843" lon="-4.325537960976362">
        <ele>114.53</ele>
        <time>2019-09-03T10:16:25Z</time>
      </trkpt>
      <trkpt lat="58.500439999625087" lon="-4.325819006189704">
        <ele>113.56999999999999</ele>
        <time>2019-09-03T10:16:26Z</time>
      </trkpt>
      <trkpt lat="58.500515017658472" lon="-4.326109020039439">
        <ele>113.09</ele>
        <time>2019-09-03T10:16:27Z</time>
      </trkpt>
      <trkpt lat="58.500586012378335" lon="-4.326388975605369">
        <ele>112.61</ele>
        <time>2019-09-03T10:16:28Z</time>
      </trkpt>
      <trkpt lat="58.500720961019397" lon="-4.326914018020034">
        <ele>112.13</ele>
        <time>2019-09-03T10:16:30Z</time>
      </trkpt>
      <trkpt lat="58.500803019851446" lon="-4.327153991907835">
        <ele>111.65000000000001</ele>
        <time>2019-09-03T10:16:31Z</time>
      </trkpt>
      <trkpt lat="58.500891029834747" lon="-4.327389020472765">
        <ele>111.65000000000001</ele>
        <time>2019-09-03T10:16:32Z</time>
      </trkpt>
      <trkpt lat="58.500996977090836" lon="-4.327599992975593">
        <ele>111.17</ele>
        <time>2019-09-03T10:16:33Z</time>
      </trkpt>
      <trkpt lat="58.501118011772633" lon="-4.327789004892111">
        <ele>111.17</ele>
        <time>2019-09-03T10:16:34Z</time>
      </trkpt>
      <trkpt lat="58.501240974292159" lon="-4.327982040122151">
        <ele>110.69</ele>
        <time>2019-09-03T10:16:35Z</time>
      </trkpt>
      <trkpt lat="58.502476969733834" lon="-4.329982968047261">
        <ele>108.29000000000001</ele>
        <time>2019-09-03T10:16:45Z</time>
      </trkpt>
      <trkpt lat="58.502577971667051" lon="-4.330220008268952">
        <ele>107.81</ele>
        <time>2019-09-03T10:16:46Z</time>
      </trkpt>
      <trkpt lat="58.502655001357198" lon="-4.330484038218856">
        <ele>107.81</ele>
        <time>2019-09-03T10:16:47Z</time>
      </trkpt>
      <trkpt lat="58.502720966935158" lon="-4.330759970471263">
        <ele>107.31999999999999</ele>
        <time>2019-09-03T10:16:48Z</time>
      </trkpt>
      <trkpt lat="58.502776036038995" lon="-4.331048978492618">
        <ele>107.31999999999999</ele>
        <time>2019-09-03T10:16:49Z</time>
      </trkpt>
      <trkpt lat="58.502818029373884" lon="-4.331347960978746">
        <ele>106.84</ele>
        <time>2019-09-03T10:16:50Z</time>
      </trkpt>
      <trkpt lat="58.502848958596587" lon="-4.331651972606778">
        <ele>106.36</ele>
        <time>2019-09-03T10:16:51Z</time>
      </trkpt>
      <trkpt lat="58.503098990768194" lon="-4.334377013146877">
        <ele>94.829999999999998</ele>
        <time>2019-09-03T10:17:00Z</time>
      </trkpt>
      <trkpt lat="58.503098990768194" lon="-4.334673983976245">
        <ele>93.390000000000001</ele>
        <time>2019-09-03T10:17:01Z</time>
      </trkpt>
      <trkpt lat="58.503098990768194" lon="-4.334965003654361">
        <ele>92.420000000000002</ele>
        <time>2019-09-03T10:17:02Z</time>
      </trkpt>
      <trkpt lat="58.503083987161517" lon="-4.335247976705432">
        <ele>90.980000000000004</ele>
        <time>2019-09-03T10:17:03Z</time>
      </trkpt>
      <trkpt lat="58.503026990219951" lon="-4.335507983341813">
        <ele>90.019999999999996</ele>
        <time>2019-09-03T10:17:04Z</time>
      </trkpt>
      <trkpt lat="58.502969993278384" lon="-4.335766984149814">
        <ele>89.540000000000006</ele>
        <time>2019-09-03T10:17:05Z</time>
      </trkpt>
      <trkpt lat="58.502906039357185" lon="-4.33605900965631">
        <ele>88.579999999999998</ele>
        <time>2019-09-03T10:17:06Z</time>
      </trkpt>
      <trkpt lat="58.502179998904467" lon="-4.338397979736328">
        <ele>78</ele>
        <time>2019-09-03T10:17:15Z</time>
      </trkpt>
      <trkpt lat="58.502134988084435" lon="-4.338712971657515">
        <ele>77.040000000000006</ele>
        <time>2019-09-03T10:17:16Z</time>
      </trkpt>
      <trkpt lat="58.50214496254921" lon="-4.339058976620436">
        <ele>75.599999999999994</ele>
        <time>2019-09-03T10:17:17Z</time>
      </trkpt>
      <trkpt lat="58.502156026661396" lon="-4.339400958269835">
        <ele>74.640000000000001</ele>
        <time>2019-09-03T10:17:18Z</time>
      </trkpt>
      <trkpt lat="58.502167006954551" lon="-4.339731959626079">
        <ele>74.159999999999997</ele>
        <time>2019-09-03T10:17:19Z</time>
      </trkpt>
      <trkpt lat="58.502175975590944" lon="-4.340029014274478">
        <ele>74.159999999999997</ele>
        <time>2019-09-03T10:17:20Z</time>
      </trkpt>
      <trkpt lat="58.502149991691113" lon="-4.340624967589974">
        <ele>75.120000000000005</ele>
        <time>2019-09-03T10:17:22Z</time>
      </trkpt>
      <trkpt lat="58.502138005569577" lon="-4.340897966176271">
        <ele>76.079999999999998</ele>
        <time>2019-09-03T10:17:23Z</time>
      </trkpt>
      <trkpt lat="58.502087965607643" lon="-4.341158978641033">
        <ele>77.519999999999996</ele>
        <time>2019-09-03T10:17:24Z</time>
      </trkpt>
      <trkpt lat="58.502026023343205" lon="-4.341381015256047">
        <ele>78.480000000000004</ele>
        <time>2019-09-03T10:17:25Z</time>
      </trkpt>
      <trkpt lat="58.501899959519506" lon="-4.34158000163734">
        <ele>79.450000000000003</ele>
        <time>2019-09-03T10:17:26Z</time>
      </trkpt>
      <trkpt lat="58.501784959807992" lon="-4.341762978583574">
        <ele>80.890000000000001</ele>
        <time>2019-09-03T10:17:27Z</time>
      </trkpt>
      <trkpt lat="58.501658979803324" lon="-4.341911002993584">
        <ele>82.329999999999998</ele>
        <time>2019-09-03T10:17:28Z</time>
      </trkpt>
      <trkpt lat="58.501539034768939" lon="-4.342044023796916">
        <ele>83.769999999999996</ele>
        <time>2019-09-03T10:17:29Z</time>
      </trkpt>
      <trkpt lat="58.500643009319901" lon="-4.343460984528065">
        <ele>90.019999999999996</ele>
        <time>2019-09-03T10:17:37Z</time>
      </trkpt>
      <trkpt lat="58.499704990535975" lon="-4.345488986000419">
        <ele>94.349999999999994</ele>
        <time>2019-09-03T10:17:46Z</time>
      </trkpt>
      <trkpt lat="58.49909302778542" lon="-4.346812991425395">
        <ele>97.709999999999994</ele>
        <time>2019-09-03T10:17:53Z</time>
      </trkpt>
      <trkpt lat="58.498649038374424" lon="-4.347773976624012">
        <ele>100.11</ele>
        <time>2019-09-03T10:18:02Z</time>
      </trkpt>
      <trkpt lat="58.498216029256582" lon="-4.348818026483059">
        <ele>102.04000000000001</ele>
        <time>2019-09-03T10:18:10Z</time>
      </trkpt>
      <trkpt lat="58.497787965461612" lon="-4.350135996937752">
        <ele>101.56</ele>
        <time>2019-09-03T10:18:17Z</time>
      </trkpt>
      <trkpt lat="58.497734991833568" lon="-4.350371025502682">
        <ele>101.56</ele>
        <time>2019-09-03T10:18:18Z</time>
      </trkpt>
      <trkpt lat="58.497720994055271" lon="-4.350610999390483">
        <ele>101.08</ele>
        <time>2019-09-03T10:18:19Z</time>
      </trkpt>
      <trkpt lat="58.497706996276975" lon="-4.350860025733709">
        <ele>101.08</ele>
        <time>2019-09-03T10:18:20Z</time>
      </trkpt>
      <trkpt lat="58.497692998498678" lon="-4.351111985743046">
        <ele>100.59999999999999</ele>
        <time>2019-09-03T10:18:21Z</time>
      </trkpt>
      <trkpt lat="58.497846974059939" lon="-4.35348498634994">
        <ele>100.59999999999999</ele>
        <time>2019-09-03T10:18:31Z</time>
      </trkpt>
      <trkpt lat="58.497878992930055" lon="-4.35371900908649">
        <ele>100.59999999999999</ele>
        <time>2019-09-03T10:18:32Z</time>
      </trkpt>
      <trkpt lat="58.497920986264944" lon="-4.353955965489149">
        <ele>100.59999999999999</ele>
        <time>2019-09-03T10:18:33Z</time>
      </trkpt>
      <trkpt lat="58.497989969328046" lon="-4.354160986840725">
        <ele>101.08</ele>
        <time>2019-09-03T10:18:34Z</time>
      </trkpt>
      <trkpt lat="58.498102035373449" lon="-4.354311022907496">
        <ele>100.59999999999999</ele>
        <time>2019-09-03T10:18:35Z</time>
      </trkpt>
      <trkpt lat="58.49821200594306" lon="-4.354452006518841">
        <ele>100.59999999999999</ele>
        <time>2019-09-03T10:18:36Z</time>
      </trkpt>
      <trkpt lat="58.498323988169432" lon="-4.354596007615328">
        <ele>100.59999999999999</ele>
        <time>2019-09-03T10:18:37Z</time>
      </trkpt>
      <trkpt lat="58.498443011194468" lon="-4.354748977348208">
        <ele>100.11</ele>
        <time>2019-09-03T10:18:38Z</time>
      </trkpt>
      <trkpt lat="58.498564967885613" lon="-4.354855008423328">
        <ele>99.629999999999995</ele>
        <time>2019-09-03T10:18:39Z</time>
      </trkpt>
      <trkpt lat="58.500237995758653" lon="-4.356321003288031">
        <ele>93.390000000000001</ele>
        <time>2019-09-03T10:18:51Z</time>
      </trkpt>
      <trkpt lat="58.50102698430419" lon="-4.357089959084988">
        <ele>90.5</ele>
        <time>2019-09-03T10:18:57Z</time>
      </trkpt>
      <trkpt lat="58.501151036471128" lon="-4.357258016243577">
        <ele>89.540000000000006</ele>
        <time>2019-09-03T10:18:58Z</time>
      </trkpt>
      <trkpt lat="58.501256983727217" lon="-4.357467982918024">
        <ele>89.060000000000002</ele>
        <time>2019-09-03T10:18:59Z</time>
      </trkpt>
      <trkpt lat="58.501361003145576" lon="-4.357688007876277">
        <ele>88.579999999999998</ele>
        <time>2019-09-03T10:19:00Z</time>
      </trkpt>
      <trkpt lat="58.501407019793987" lon="-4.357981039211154">
        <ele>88.099999999999994</ele>
        <time>2019-09-03T10:19:01Z</time>
      </trkpt>
      <trkpt lat="58.501452030614018" lon="-4.358271975070238">
        <ele>87.620000000000005</ele>
        <time>2019-09-03T10:19:02Z</time>
      </trkpt>
      <trkpt lat="58.501469967886806" lon="-4.358572969213128">
        <ele>86.659999999999997</ele>
        <time>2019-09-03T10:19:03Z</time>
      </trkpt>
      <trkpt lat="58.501472985371947" lon="-4.358885027468205">
        <ele>86.659999999999997</ele>
        <time>2019-09-03T10:19:04Z</time>
      </trkpt>
      <trkpt lat="58.501476002857089" lon="-4.359189039096236">
        <ele>86.180000000000007</ele>
        <time>2019-09-03T10:19:05Z</time>
      </trkpt>
      <trkpt lat="58.50154297426343" lon="-4.36181902885437">
        <ele>82.810000000000002</ele>
        <time>2019-09-03T10:19:14Z</time>
      </trkpt>
      <trkpt lat="58.50188403390348" lon="-4.364045010879636">
        <ele>76.560000000000002</ele>
        <time>2019-09-03T10:19:21Z</time>
      </trkpt>
      <trkpt lat="58.501961985602975" lon="-4.364629983901978">
        <ele>75.120000000000005</ele>
        <time>2019-09-03T10:19:23Z</time>
      </trkpt>
      <trkpt lat="58.501961985602975" lon="-4.364876998588443">
        <ele>74.159999999999997</ele>
        <time>2019-09-03T10:19:24Z</time>
      </trkpt>
      <trkpt lat="58.501938013359904" lon="-4.365115966647863">
        <ele>73.680000000000007</ele>
        <time>2019-09-03T10:19:25Z</time>
      </trkpt>
      <trkpt lat="58.501918986439705" lon="-4.365305984392762">
        <ele>73.200000000000003</ele>
        <time>2019-09-03T10:19:26Z</time>
      </trkpt>
      <trkpt lat="58.501838017255068" lon="-4.365476975217462">
        <ele>72.719999999999999</ele>
        <time>2019-09-03T10:19:27Z</time>
      </trkpt>
      <trkpt lat="58.501761993393302" lon="-4.365634974092245">
        <ele>72.239999999999995</ele>
        <time>2019-09-03T10:19:28Z</time>
      </trkpt>
      <trkpt lat="58.501683035865426" lon="-4.365771012380719">
        <ele>71.760000000000005</ele>
        <time>2019-09-03T10:19:29Z</time>
      </trkpt>
      <trkpt lat="58.501567030325532" lon="-4.365847958251834">
        <ele>71.269999999999996</ele>
        <time>2019-09-03T10:19:30Z</time>
      </trkpt>
      <trkpt lat="58.501439960673451" lon="-4.365933034569025">
        <ele>70.790000000000006</ele>
        <time>2019-09-03T10:19:31Z</time>
      </trkpt>
      <trkpt lat="58.501304006204009" lon="-4.366022972390056">
        <ele>69.829999999999998</ele>
        <time>2019-09-03T10:19:32Z</time>
      </trkpt>
      <trkpt lat="58.500758009031415" lon="-4.366402002051473">
        <ele>66.950000000000003</ele>
        <time>2019-09-03T10:19:36Z</time>
      </trkpt>
      <trkpt lat="58.500634962692857" lon="-4.36652597039938">
        <ele>65.989999999999995</ele>
        <time>2019-09-03T10:19:37Z</time>
      </trkpt>
      <trkpt lat="58.50051200017333" lon="-4.366648010909557">
        <ele>65.030000000000001</ele>
        <time>2019-09-03T10:19:38Z</time>
      </trkpt>
      <trkpt lat="58.500420972704887" lon="-4.366862000897527">
        <ele>64.549999999999997</ele>
        <time>2019-09-03T10:19:39Z</time>
      </trkpt>
      <trkpt lat="58.500351989641786" lon="-4.367069033905864">
        <ele>63.100000000000001</ele>
        <time>2019-09-03T10:19:40Z</time>
      </trkpt>
      <trkpt lat="58.500286024063826" lon="-4.367281012237072">
        <ele>62.140000000000001</ele>
        <time>2019-09-03T10:19:41Z</time>
      </trkpt>
      <trkpt lat="58.500262973830104" lon="-4.367524003610015">
        <ele>61.18</ele>
        <time>2019-09-03T10:19:42Z</time>
      </trkpt>
      <trkpt lat="58.500248976051807" lon="-4.367775963619351">
        <ele>60.219999999999999</ele>
        <time>2019-09-03T10:19:43Z</time>
      </trkpt>
      <trkpt lat="58.500261968001723" lon="-4.368034964427352">
        <ele>59.259999999999998</ele>
        <time>2019-09-03T10:19:44Z</time>
      </trkpt>
      <trkpt lat="58.500314019620419" lon="-4.36828600242734">
        <ele>58.299999999999997</ele>
        <time>2019-09-03T10:19:45Z</time>
      </trkpt>
      <trkpt lat="58.50038300268352" lon="-4.368531005457044">
        <ele>57.340000000000003</ele>
        <time>2019-09-03T10:19:46Z</time>
      </trkpt>
      <trkpt lat="58.500453997403383" lon="-4.368783971294761">
        <ele>56.369999999999997</ele>
        <time>2019-09-03T10:19:47Z</time>
      </trkpt>
      <trkpt lat="58.500551981851459" lon="-4.36901799403131">
        <ele>55.409999999999997</ele>
        <time>2019-09-03T10:19:48Z</time>
      </trkpt>
      <trkpt lat="58.500657007098198" lon="-4.369261991232634">
        <ele>54.450000000000003</ele>
        <time>2019-09-03T10:19:49Z</time>
      </trkpt>
      <trkpt lat="58.501796023920178" lon="-4.371903967112303">
        <ele>50.609999999999999</ele>
        <time>2019-09-03T10:20:00Z</time>
      </trkpt>
      <trkpt lat="58.502559028565884" lon="-4.374286020174623">
        <ele>57.340000000000003</ele>
        <time>2019-09-03T10:20:09Z</time>
      </trkpt>
      <trkpt lat="58.502910984680057" lon="-4.376036999747157">
        <ele>60.219999999999999</ele>
        <time>2019-09-03T10:20:16Z</time>
      </trkpt>
      <trkpt lat="58.502972004935145" lon="-4.376254007220268">
        <ele>60.219999999999999</ele>
        <time>2019-09-03T10:20:17Z</time>
      </trkpt>
      <trkpt lat="58.503035036846995" lon="-4.376442013308406">
        <ele>60.219999999999999</ele>
        <time>2019-09-03T10:20:18Z</time>
      </trkpt>
      <trkpt lat="58.503159005194902" lon="-4.376563969999552">
        <ele>59.740000000000002</ele>
        <time>2019-09-03T10:20:19Z</time>
      </trkpt>
      <trkpt lat="58.503274004906416" lon="-4.376676036044955">
        <ele>59.740000000000002</ele>
        <time>2019-09-03T10:20:20Z</time>
      </trkpt>
      <trkpt lat="58.503395039588213" lon="-4.376794975250959">
        <ele>59.259999999999998</ele>
        <time>2019-09-03T10:20:21Z</time>
      </trkpt>
      <trkpt lat="58.504587030038238" lon="-4.377815974876285">
        <ele>57.340000000000003</ele>
        <time>2019-09-03T10:20:29Z</time>
      </trkpt>
      <trkpt lat="58.504753997549415" lon="-4.377880012616515">
        <ele>57.340000000000003</ele>
        <time>2019-09-03T10:20:30Z</time>
      </trkpt>
      <trkpt lat="58.505633007735014" lon="-4.378253007307649">
        <ele>58.299999999999997</ele>
        <time>2019-09-03T10:20:36Z</time>
      </trkpt>
      <trkpt lat="58.505765022709966" lon="-4.378362977877259">
        <ele>58.780000000000001</ele>
        <time>2019-09-03T10:20:37Z</time>
      </trkpt>
      <trkpt lat="58.505867030471563" lon="-4.378523994237185">
        <ele>58.780000000000001</ele>
        <time>2019-09-03T10:20:38Z</time>
      </trkpt>
      <trkpt lat="58.505959985777736" lon="-4.37870898284018">
        <ele>59.259999999999998</ele>
        <time>2019-09-03T10:20:39Z</time>
      </trkpt>
      <trkpt lat="58.506044978275895" lon="-4.378902018070221">
        <ele>59.259999999999998</ele>
        <time>2019-09-03T10:20:40Z</time>
      </trkpt>
      <trkpt lat="58.506085965782404" lon="-4.379150038585067">
        <ele>59.740000000000002</ele>
        <time>2019-09-03T10:20:41Z</time>
      </trkpt>
      <trkpt lat="58.506108010187745" lon="-4.379400992766023">
        <ele>60.219999999999999</ele>
        <time>2019-09-03T10:20:42Z</time>
      </trkpt>
      <trkpt lat="58.506116978824139" lon="-4.379663011059165">
        <ele>60.219999999999999</ele>
        <time>2019-09-03T10:20:43Z</time>
      </trkpt>
      <trkpt lat="58.506126031279564" lon="-4.379926035180688">
        <ele>60.219999999999999</ele>
        <time>2019-09-03T10:20:44Z</time>
      </trkpt>
      <trkpt lat="58.506151009351015" lon="-4.380844021216035">
        <ele>59.740000000000002</ele>
        <time>2019-09-03T10:20:48Z</time>
      </trkpt>
      <trkpt lat="58.506154026836157" lon="-4.381022974848747">
        <ele>59.740000000000002</ele>
        <time>2019-09-03T10:20:49Z</time>
      </trkpt>
      <trkpt lat="58.506185039877892" lon="-4.382689967751503">
        <ele>58.299999999999997</ele>
        <time>2019-09-03T10:20:59Z</time>
      </trkpt>
      <trkpt lat="58.506209012120962" lon="-4.383749021217227">
        <ele>56.859999999999999</ele>
        <time>2019-09-03T10:21:05Z</time>
      </trkpt>
      <trkpt lat="58.506186967715621" lon="-4.383943984284997">
        <ele>56.369999999999997</ele>
        <time>2019-09-03T10:21:06Z</time>
      </trkpt>
      <trkpt lat="58.506147991865873" lon="-4.384147999808192">
        <ele>55.890000000000001</ele>
        <time>2019-09-03T10:21:07Z</time>
      </trkpt>
      <trkpt lat="58.506105998530984" lon="-4.384367018938065">
        <ele>55.409999999999997</ele>
        <time>2019-09-03T10:21:08Z</time>
      </trkpt>
      <trkpt lat="58.506061993539333" lon="-4.38459500670433">
        <ele>54.93</ele>
        <time>2019-09-03T10:21:09Z</time>
      </trkpt>
      <trkpt lat="58.505975995212793" lon="-4.385040001943708">
        <ele>53.969999999999999</ele>
        <time>2019-09-03T10:21:11Z</time>
      </trkpt>
      <trkpt lat="58.505973983556032" lon="-4.385275030508637">
        <ele>53.490000000000002</ele>
        <time>2019-09-03T10:21:12Z</time>
      </trkpt>
      <trkpt lat="58.505999967455864" lon="-4.385494971647859">
        <ele>52.530000000000001</ele>
        <time>2019-09-03T10:21:13Z</time>
      </trkpt>
      <trkpt lat="58.506039027124643" lon="-4.38571197912097">
        <ele>52.049999999999997</ele>
        <time>2019-09-03T10:21:14Z</time>
      </trkpt>
      <trkpt lat="58.506117984652519" lon="-4.385917000472546">
        <ele>51.57</ele>
        <time>2019-09-03T10:21:15Z</time>
      </trkpt>
      <trkpt lat="58.506199959665537" lon="-4.386136019602418">
        <ele>51.090000000000003</ele>
        <time>2019-09-03T10:21:16Z</time>
      </trkpt>
      <trkpt lat="58.506323006004095" lon="-4.386637005954981">
        <ele>51.090000000000003</ele>
        <time>2019-09-03T10:21:18Z</time>
      </trkpt>
      <trkpt lat="58.506370028480887" lon="-4.386904975399375">
        <ele>51.57</ele>
        <time>2019-09-03T10:21:19Z</time>
      </trkpt>
      <trkpt lat="58.506640009582043" lon="-4.389315024018288">
        <ele>57.82</ele>
        <time>2019-09-03T10:21:27Z</time>
      </trkpt>
      <trkpt lat="58.506640009582043" lon="-4.389632027596235">
        <ele>59.259999999999998</ele>
        <time>2019-09-03T10:21:28Z</time>
      </trkpt>
      <trkpt lat="58.506615031510592" lon="-4.389945007860661">
        <ele>60.700000000000003</ele>
        <time>2019-09-03T10:21:29Z</time>
      </trkpt>
      <trkpt lat="58.506542025133967" lon="-4.390215994790196">
        <ele>62.140000000000001</ele>
        <time>2019-09-03T10:21:30Z</time>
      </trkpt>
      <trkpt lat="58.506470024585724" lon="-4.390484970062971">
        <ele>64.069999999999993</ele>
        <time>2019-09-03T10:21:31Z</time>
      </trkpt>
      <trkpt lat="58.506391989067197" lon="-4.390753023326397">
        <ele>65.030000000000001</ele>
        <time>2019-09-03T10:21:32Z</time>
      </trkpt>
      <trkpt lat="58.506272966042161" lon="-4.390957960858941">
        <ele>66.469999999999999</ele>
        <time>2019-09-03T10:21:33Z</time>
      </trkpt>
      <trkpt lat="58.505189018324018" lon="-4.392795022577047">
        <ele>71.760000000000005</ele>
        <time>2019-09-03T10:21:41Z</time>
      </trkpt>
      <trkpt lat="58.504919037222862" lon="-4.393181009218097">
        <ele>73.200000000000003</ele>
        <time>2019-09-03T10:21:43Z</time>
      </trkpt>
      <trkpt lat="58.504769001156092" lon="-4.393324004486203">
        <ele>74.159999999999997</ele>
        <time>2019-09-03T10:21:44Z</time>
      </trkpt>
      <trkpt lat="58.504615025594831" lon="-4.393471023067832">
        <ele>74.640000000000001</ele>
        <time>2019-09-03T10:21:45Z</time>
      </trkpt>
      <trkpt lat="58.504447974264622" lon="-4.393599014729261">
        <ele>75.120000000000005</ele>
        <time>2019-09-03T10:21:46Z</time>
      </trkpt>
      <trkpt lat="58.504273965954781" lon="-4.393685013055801">
        <ele>75.599999999999994</ele>
        <time>2019-09-03T10:21:47Z</time>
      </trkpt>
      <trkpt lat="58.504096018150449" lon="-4.393772017210722">
        <ele>76.560000000000002</ele>
        <time>2019-09-03T10:21:48Z</time>
      </trkpt>
      <trkpt lat="58.502521980553865" lon="-4.394755968824029">
        <ele>79.930000000000007</ele>
        <time>2019-09-03T10:21:57Z</time>
      </trkpt>
      <trkpt lat="58.501655962318182" lon="-4.39583295956254">
        <ele>79.450000000000003</ele>
        <time>2019-09-03T10:22:03Z</time>
      </trkpt>
      <trkpt lat="58.501551020890474" lon="-4.396058013662696">
        <ele>79.450000000000003</ele>
        <time>2019-09-03T10:22:04Z</time>
      </trkpt>
      <trkpt lat="58.501447001472116" lon="-4.396280972287059">
        <ele>78.969999999999999</ele>
        <time>2019-09-03T10:22:05Z</time>
      </trkpt>
      <trkpt lat="58.50031997077167" lon="-4.399446984753013">
        <ele>73.200000000000003</ele>
        <time>2019-09-03T10:22:18Z</time>
      </trkpt>
      <trkpt lat="58.498851964250207" lon="-4.402682986110449">
        <ele>74.159999999999997</ele>
        <time>2019-09-03T10:22:31Z</time>
      </trkpt>
      <trkpt lat="58.498177975416183" lon="-4.40476999618113">
        <ele>74.159999999999997</ele>
        <time>2019-09-03T10:22:39Z</time>
      </trkpt>
      <trkpt lat="58.497827025130391" lon="-4.406346967443824">
        <ele>72.239999999999995</ele>
        <time>2019-09-03T10:22:45Z</time>
      </trkpt>
      <trkpt lat="58.497729962691665" lon="-4.406571015715599">
        <ele>72.719999999999999</ele>
        <time>2019-09-03T10:22:46Z</time>
      </trkpt>
      <trkpt lat="58.49763298407197" lon="-4.406794980168343">
        <ele>72.719999999999999</ele>
        <time>2019-09-03T10:22:47Z</time>
      </trkpt>
      <trkpt lat="58.496785992756486" lon="-4.408741006627679">
        <ele>73.200000000000003</ele>
        <time>2019-09-03T10:22:55Z</time>
      </trkpt>
      <trkpt lat="58.496556999161839" lon="-4.409155994653702">
        <ele>72.239999999999995</ele>
        <time>2019-09-03T10:22:57Z</time>
      </trkpt>
      <trkpt lat="58.496417021378875" lon="-4.409353975206614">
        <ele>72.239999999999995</ele>
        <time>2019-09-03T10:22:58Z</time>
      </trkpt>
      <trkpt lat="58.496291041374207" lon="-4.409447014331818">
        <ele>71.269999999999996</ele>
        <time>2019-09-03T10:22:59Z</time>
      </trkpt>
      <trkpt lat="58.496159026399255" lon="-4.409544998779893">
        <ele>71.269999999999996</ele>
        <time>2019-09-03T10:23:00Z</time>
      </trkpt>
      <trkpt lat="58.496018964797258" lon="-4.409649018198252">
        <ele>71.269999999999996</ele>
        <time>2019-09-03T10:23:01Z</time>
      </trkpt>
      <trkpt lat="58.495885021984577" lon="-4.409747002646327">
        <ele>71.269999999999996</ele>
        <time>2019-09-03T10:23:02Z</time>
      </trkpt>
      <trkpt lat="58.494937028735876" lon="-4.410236002877355">
        <ele>75.599999999999994</ele>
        <time>2019-09-03T10:23:10Z</time>
      </trkpt>
      <trkpt lat="58.494565961882472" lon="-4.410427026450634">
        <ele>77.519999999999996</ele>
        <time>2019-09-03T10:23:14Z</time>
      </trkpt>
      <trkpt lat="58.49445297382772" lon="-4.410460973158479">
        <ele>78</ele>
        <time>2019-09-03T10:23:15Z</time>
      </trkpt>
      <trkpt lat="58.494333028793335" lon="-4.410477988421917">
        <ele>78.480000000000004</ele>
        <time>2019-09-03T10:23:16Z</time>
      </trkpt>
      <trkpt lat="58.493161993101239" lon="-4.410637998953462">
        <ele>82.329999999999998</ele>
        <time>2019-09-03T10:23:24Z</time>
      </trkpt>
      <trkpt lat="58.492071004584432" lon="-4.411052986979485">
        <ele>84.730000000000004</ele>
        <time>2019-09-03T10:23:31Z</time>
      </trkpt>
      <trkpt lat="58.490571985021234" lon="-4.411398991942406">
        <ele>86.659999999999997</ele>
        <time>2019-09-03T10:23:41Z</time>
      </trkpt>
      <trkpt lat="58.490395965054631" lon="-4.411439979448915">
        <ele>86.659999999999997</ele>
        <time>2019-09-03T10:23:42Z</time>
      </trkpt>
      <trkpt lat="58.490266967564821" lon="-4.41140997223556">
        <ele>86.180000000000007</ele>
        <time>2019-09-03T10:23:43Z</time>
      </trkpt>
      <trkpt lat="58.48978903144598" lon="-4.41130000166595">
        <ele>85.689999999999998</ele>
        <time>2019-09-03T10:23:46Z</time>
      </trkpt>
      <trkpt lat="58.489330960437655" lon="-4.411296984180808">
        <ele>85.209999999999994</ele>
        <time>2019-09-03T10:23:49Z</time>
      </trkpt>
      <trkpt lat="58.489184025675058" lon="-4.411330008879304">
        <ele>84.730000000000004</ele>
        <time>2019-09-03T10:23:50Z</time>
      </trkpt>
      <trkpt lat="58.489034995436668" lon="-4.411462023854256">
        <ele>84.730000000000004</ele>
        <time>2019-09-03T10:23:51Z</time>
      </trkpt>
      <trkpt lat="58.488755039870739" lon="-4.411755977198482">
        <ele>84.730000000000004</ele>
        <time>2019-09-03T10:23:53Z</time>
      </trkpt>
      <trkpt lat="58.488625036552548" lon="-4.411931997165084">
        <ele>84.730000000000004</ele>
        <time>2019-09-03T10:23:54Z</time>
      </trkpt>
      <trkpt lat="58.488228991627693" lon="-4.412470031529665">
        <ele>85.209999999999994</ele>
        <time>2019-09-03T10:23:57Z</time>
      </trkpt>
      <trkpt lat="58.488080967217684" lon="-4.412566004320979">
        <ele>85.209999999999994</ele>
        <time>2019-09-03T10:23:58Z</time>
      </trkpt>
      <trkpt lat="58.487927997484803" lon="-4.412666000425816">
        <ele>85.209999999999994</ele>
        <time>2019-09-03T10:23:59Z</time>
      </trkpt>
      <trkpt lat="58.486101999878883" lon="-4.413522966206074">
        <ele>88.579999999999998</ele>
        <time>2019-09-03T10:24:10Z</time>
      </trkpt>
      <trkpt lat="58.483794964849949" lon="-4.414315978065133">
        <ele>85.689999999999998</ele>
        <time>2019-09-03T10:24:23Z</time>
      </trkpt>
      <trkpt lat="58.48143202252686" lon="-4.415105972439051">
        <ele>78.969999999999999</ele>
        <time>2019-09-03T10:24:35Z</time>
      </trkpt>
      <trkpt lat="58.47924099303782" lon="-4.415978025645018">
        <ele>65.510000000000005</ele>
        <time>2019-09-03T10:24:47Z</time>
      </trkpt>
      <trkpt lat="58.478190992027521" lon="-4.416469959542155">
        <ele>57.340000000000003</ele>
        <time>2019-09-03T10:24:56Z</time>
      </trkpt>
      <trkpt lat="58.477955041453242" lon="-4.416580013930798">
        <ele>55.409999999999997</ele>
        <time>2019-09-03T10:24:58Z</time>
      </trkpt>
      <trkpt lat="58.476780988276005" lon="-4.417141014710069">
        <ele>47.240000000000002</ele>
        <time>2019-09-03T10:25:08Z</time>
      </trkpt>
      <trkpt lat="58.476396007463336" lon="-4.417327009141445">
        <ele>44.840000000000003</ele>
        <time>2019-09-03T10:25:12Z</time>
      </trkpt>
      <trkpt lat="58.476320989429951" lon="-4.417363973334432">
        <ele>44.359999999999999</ele>
        <time>2019-09-03T10:25:13Z</time>
      </trkpt>
      <trkpt lat="58.47625401802361" lon="-4.417395992204547">
        <ele>43.399999999999999</ele>
        <time>2019-09-03T10:25:14Z</time>
      </trkpt>
      <trkpt lat="58.476162990555167" lon="-4.41751099191606">
        <ele>40.990000000000002</ele>
        <time>2019-09-03T10:25:17Z</time>
      </trkpt>
      <trkpt lat="58.476127032190561" lon="-4.417620040476322">
        <ele>40.509999999999998</ele>
        <time>2019-09-03T10:25:18Z</time>
      </trkpt>
      <trkpt lat="58.47614798694849" lon="-4.417717019096017">
        <ele>39.549999999999997</ele>
        <time>2019-09-03T10:25:19Z</time>
      </trkpt>
      <trkpt lat="58.476194003596902" lon="-4.417855991050601">
        <ele>38.590000000000003</ele>
        <time>2019-09-03T10:25:20Z</time>
      </trkpt>
      <trkpt lat="58.476263992488384" lon="-4.417980965226889">
        <ele>37.630000000000003</ele>
        <time>2019-09-03T10:25:21Z</time>
      </trkpt>
      <trkpt lat="58.476344039663672" lon="-4.418122032657266">
        <ele>36.670000000000002</ele>
        <time>2019-09-03T10:25:22Z</time>
      </trkpt>
      <trkpt lat="58.476462978869677" lon="-4.418206019327045">
        <ele>36.189999999999998</ele>
        <time>2019-09-03T10:25:23Z</time>
      </trkpt>
      <trkpt lat="58.476588036864996" lon="-4.418268967419863">
        <ele>35.710000000000001</ele>
        <time>2019-09-03T10:25:24Z</time>
      </trkpt>
      <trkpt lat="58.476720973849297" lon="-4.418335016816855">
        <ele>35.229999999999997</ele>
        <time>2019-09-03T10:25:25Z</time>
      </trkpt>
      <trkpt lat="58.476860029622912" lon="-4.418405005708337">
        <ele>34.740000000000002</ele>
        <time>2019-09-03T10:25:26Z</time>
      </trkpt>
      <trkpt lat="58.478425014764071" lon="-4.419001964852214">
        <ele>36.189999999999998</ele>
        <time>2019-09-03T10:25:36Z</time>
      </trkpt>
      <trkpt lat="58.479753965511918" lon="-4.419153006747365">
        <ele>36.189999999999998</ele>
        <time>2019-09-03T10:25:44Z</time>
      </trkpt>
      <trkpt lat="58.479925040155649" lon="-4.419063990935683">
        <ele>36.189999999999998</ele>
        <time>2019-09-03T10:25:45Z</time>
      </trkpt>
      <trkpt lat="58.481091968715191" lon="-4.418406011536717">
        <ele>36.189999999999998</ele>
        <time>2019-09-03T10:25:52Z</time>
      </trkpt>
      <trkpt lat="58.481420958414674" lon="-4.41836996935308">
        <ele>37.630000000000003</ele>
        <time>2019-09-03T10:25:54Z</time>
      </trkpt>
      <trkpt lat="58.483406966552138" lon="-4.418351026251912">
        <ele>40.509999999999998</ele>
        <time>2019-09-03T10:26:05Z</time>
      </trkpt>
      <trkpt lat="58.485008999705315" lon="-4.418381033465266">
        <ele>32.82</ele>
        <time>2019-09-03T10:26:13Z</time>
      </trkpt>
      <trkpt lat="58.487472021952271" lon="-4.418020024895668">
        <ele>26.09</ele>
        <time>2019-09-03T10:26:25Z</time>
      </trkpt>
      <trkpt lat="58.48824399523437" lon="-4.418146004900336">
        <ele>22.25</ele>
        <time>2019-09-03T10:26:29Z</time>
      </trkpt>
      <trkpt lat="58.488424960523844" lon="-4.418270979076624">
        <ele>21.289999999999999</ele>
        <time>2019-09-03T10:26:30Z</time>
      </trkpt>
      <trkpt lat="58.488598968833685" lon="-4.418437024578452">
        <ele>20.32</ele>
        <time>2019-09-03T10:26:31Z</time>
      </trkpt>
      <trkpt lat="58.488767025992274" lon="-4.418641040101647">
        <ele>18.879999999999999</ele>
        <time>2019-09-03T10:26:32Z</time>
      </trkpt>
      <trkpt lat="58.488937010988593" lon="-4.418845977634192">
        <ele>17.920000000000002</ele>
        <time>2019-09-03T10:26:33Z</time>
      </trkpt>
      <trkpt lat="58.489084029570222" lon="-4.419096009805799">
        <ele>16.960000000000001</ele>
        <time>2019-09-03T10:26:34Z</time>
      </trkpt>
      <trkpt lat="58.489206992089748" lon="-4.419391974806786">
        <ele>16</ele>
        <time>2019-09-03T10:26:35Z</time>
      </trkpt>
      <trkpt lat="58.489331966266036" lon="-4.419691963121295">
        <ele>15.039999999999999</ele>
        <time>2019-09-03T10:26:36Z</time>
      </trkpt>
      <trkpt lat="58.489458030089736" lon="-4.419998992234469">
        <ele>14.56</ele>
        <time>2019-09-03T10:26:37Z</time>
      </trkpt>
      <trkpt lat="58.490827968344092" lon="-4.424187010154128">
        <ele>9.27</ele>
        <time>2019-09-03T10:26:49Z</time>
      </trkpt>
      <trkpt lat="58.49206899292767" lon="-4.427978983148933">
        <ele>6.39</ele>
        <time>2019-09-03T10:27:00Z</time>
      </trkpt>
      <trkpt lat="58.492426984012127" lon="-4.430448040366173">
        <ele>3.5</ele>
        <time>2019-09-03T10:27:07Z</time>
      </trkpt>
      <trkpt lat="58.492315001785755" lon="-4.433354968205094">
        <ele>3.02</ele>
        <time>2019-09-03T10:27:15Z</time>
      </trkpt>
      <trkpt lat="58.492119032889605" lon="-4.437303012236953">
        <ele>4.46</ele>
        <time>2019-09-03T10:27:26Z</time>
      </trkpt>
      <trkpt lat="58.492302009835839" lon="-4.44094997830689">
        <ele>5.91</ele>
        <time>2019-09-03T10:27:36Z</time>
      </trkpt>
      <trkpt lat="58.49279897287488" lon="-4.444249011576176">
        <ele>6.87</ele>
        <time>2019-09-03T10:27:46Z</time>
      </trkpt>
      <trkpt lat="58.493040958419442" lon="-4.44524503313005">
        <ele>6.87</ele>
        <time>2019-09-03T10:27:51Z</time>
      </trkpt>
      <trkpt lat="58.493173979222775" lon="-4.445792036131024">
        <ele>6.39</ele>
        <time>2019-09-03T10:27:56Z</time>
      </trkpt>
      <trkpt lat="58.493196023628116" lon="-4.445882979780436">
        <ele>6.39</ele>
        <time>2019-09-03T10:27:57Z</time>
      </trkpt>
      <trkpt lat="58.493290990591049" lon="-4.446275001391769">
        <ele>6.39</ele>
        <time>2019-09-03T10:28:02Z</time>
      </trkpt>
      <trkpt lat="58.493305994197726" lon="-4.446337027475238">
        <ele>6.39</ele>
        <time>2019-09-03T10:28:03Z</time>
      </trkpt>
      <trkpt lat="58.493316974490881" lon="-4.446382960304618">
        <ele>5.91</ele>
        <time>2019-09-03T10:28:04Z</time>
      </trkpt>
      <trkpt lat="58.493325021117926" lon="-4.446412967517972">
        <ele>5.91</ele>
        <time>2019-09-03T10:28:05Z</time>
      </trkpt>
      <trkpt lat="58.49333600141108" lon="-4.446458984166384">
        <ele>5.42</ele>
        <time>2019-09-03T10:28:17Z</time>
      </trkpt>
      <trkpt lat="58.49337900057435" lon="-4.446575995534658">
        <ele>4.46</ele>
        <time>2019-09-03T10:28:25Z</time>
      </trkpt>
      <trkpt lat="58.49337900057435" lon="-4.446575995534658">
        <ele>3.98</ele>
        <time>2019-09-03T10:28:39Z</time>
      </trkpt>
      <trkpt lat="58.493319991976023" lon="-4.446754027158022">
        <ele>4.94</ele>
        <time>2019-09-03T10:31:11Z</time>
      </trkpt>
      <trkpt lat="58.493305994197726" lon="-4.446746986359358">
        <ele>3.5</ele>
        <time>2019-09-03T10:31:52Z</time>
      </trkpt>
      <trkpt lat="58.493297025561333" lon="-4.446746986359358">
        <ele>1.1</ele>
        <time>2019-09-03T10:32:34Z</time>
      </trkpt>
      <trkpt lat="58.493304988369346" lon="-4.44672703742981">
        <ele>1.1</ele>
        <time>2019-09-03T10:33:06Z</time>
      </trkpt>
      <trkpt lat="58.493304988369346" lon="-4.44672703742981">
        <ele>1.1</ele>
        <time>2019-09-03T10:33:50Z</time>
      </trkpt>
      <trkpt lat="58.4933159686625" lon="-4.446731982752681">
        <ele>-2.75</ele>
        <time>2019-09-03T10:34:17Z</time>
      </trkpt>
      <trkpt lat="58.493427028879523" lon="-4.44670801050961">
        <ele>-2.75</ele>
        <time>2019-09-03T10:34:51Z</time>
      </trkpt>
      <trkpt lat="58.49363699555397" lon="-4.447285020723939">
        <ele>-0.82</ele>
        <time>2019-09-03T10:35:01Z</time>
      </trkpt>
      <trkpt lat="58.494182992726564" lon="-4.44868303835392">
        <ele>-0.34</ele>
        <time>2019-09-03T10:35:09Z</time>
      </trkpt>
      <trkpt lat="58.495306000113487" lon="-4.451208002865315">
        <ele>-0.34</ele>
        <time>2019-09-03T10:35:21Z</time>
      </trkpt>
      <trkpt lat="58.49653503857553" lon="-4.453891972079873">
        <ele>1.1</ele>
        <time>2019-09-03T10:35:33Z</time>
      </trkpt>
      <trkpt lat="58.497356968000531" lon="-4.456233959645033">
        <ele>4.46</ele>
        <time>2019-09-03T10:35:41Z</time>
      </trkpt>
      <trkpt lat="58.497743038460612" lon="-4.459264017641544">
        <ele>12.630000000000001</ele>
        <time>2019-09-03T10:35:49Z</time>
      </trkpt>
      <trkpt lat="58.497690986841917" lon="-4.461255976930261">
        <ele>20.32</ele>
        <time>2019-09-03T10:35:55Z</time>
      </trkpt>
      <trkpt lat="58.497626027092338" lon="-4.46189995855093">
        <ele>25.609999999999999</ele>
        <time>2019-09-03T10:36:00Z</time>
      </trkpt>
      <trkpt lat="58.497427962720394" lon="-4.463381040841341">
        <ele>33.299999999999997</ele>
        <time>2019-09-03T10:36:08Z</time>
      </trkpt>
      <trkpt lat="58.497024038806558" lon="-4.466123012825847">
        <ele>40.509999999999998</ele>
        <time>2019-09-03T10:36:18Z</time>
      </trkpt>
      <trkpt lat="58.496688008308411" lon="-4.468409009277821">
        <ele>45.799999999999997</ele>
        <time>2019-09-03T10:36:27Z</time>
      </trkpt>
      <trkpt lat="58.496250975877047" lon="-4.471401013433933">
        <ele>58.299999999999997</ele>
        <time>2019-09-03T10:36:38Z</time>
      </trkpt>
      <trkpt lat="58.496073028072715" lon="-4.474687976762652">
        <ele>71.269999999999996</ele>
        <time>2019-09-03T10:36:47Z</time>
      </trkpt>
      <trkpt lat="58.496347032487392" lon="-4.47792598977685">
        <ele>79.930000000000007</ele>
        <time>2019-09-03T10:36:56Z</time>
      </trkpt>
      <trkpt lat="58.496909039095044" lon="-4.482319029048085">
        <ele>96.75</ele>
        <time>2019-09-03T10:37:08Z</time>
      </trkpt>
      <trkpt lat="58.496962012723088" lon="-4.482657993212342">
        <ele>98.189999999999998</ele>
        <time>2019-09-03T10:37:09Z</time>
      </trkpt>
      <trkpt lat="58.49705396220088" lon="-4.482899978756905">
        <ele>100.11</ele>
        <time>2019-09-03T10:37:10Z</time>
      </trkpt>
      <trkpt lat="58.497154964134097" lon="-4.48316702619195">
        <ele>101.08</ele>
        <time>2019-09-03T10:37:11Z</time>
      </trkpt>
      <trkpt lat="58.497263006865978" lon="-4.483452010899782">
        <ele>102.52</ele>
        <time>2019-09-03T10:37:12Z</time>
      </trkpt>
      <trkpt lat="58.497403990477324" lon="-4.483649991452694">
        <ele>103.48</ele>
        <time>2019-09-03T10:37:13Z</time>
      </trkpt>
      <trkpt lat="58.497550003230572" lon="-4.483854006975889">
        <ele>104.44</ele>
        <time>2019-09-03T10:37:14Z</time>
      </trkpt>
      <trkpt lat="58.497714959084988" lon="-4.483998008072376">
        <ele>105.40000000000001</ele>
        <time>2019-09-03T10:37:15Z</time>
      </trkpt>
      <trkpt lat="58.497889973223209" lon="-4.484127005562186">
        <ele>105.88</ele>
        <time>2019-09-03T10:37:16Z</time>
      </trkpt>
      <trkpt lat="58.498088037595153" lon="-4.484206968918443">
        <ele>106.84</ele>
        <time>2019-09-03T10:37:17Z</time>
      </trkpt>
      <trkpt lat="58.498295992612839" lon="-4.48428500443697">
        <ele>107.81</ele>
        <time>2019-09-03T10:37:18Z</time>
      </trkpt>
      <trkpt lat="58.50006096996367" lon="-4.485312961041927">
        <ele>116.45999999999999</ele>
        <time>2019-09-03T10:37:27Z</time>
      </trkpt>
      <trkpt lat="58.50121901370585" lon="-4.486994035542011">
        <ele>121.73999999999999</ele>
        <time>2019-09-03T10:37:34Z</time>
      </trkpt>
      <trkpt lat="58.502115961164236" lon="-4.489382961764932">
        <ele>125.59</ele>
        <time>2019-09-03T10:37:42Z</time>
      </trkpt>
      <trkpt lat="58.503190018236637" lon="-4.49202099815011">
        <ele>128.94999999999999</ele>
        <time>2019-09-03T10:37:51Z</time>
      </trkpt>
      <trkpt lat="58.504013959318399" lon="-4.494193000718951">
        <ele>129.91999999999999</ele>
        <time>2019-09-03T10:37:59Z</time>
      </trkpt>
      <trkpt lat="58.504306990653276" lon="-4.496531970798969">
        <ele>130.40000000000001</ele>
        <time>2019-09-03T10:38:07Z</time>
      </trkpt>
      <trkpt lat="58.50431302562356" lon="-4.499391037970781">
        <ele>131.36000000000001</ele>
        <time>2019-09-03T10:38:16Z</time>
      </trkpt>
      <trkpt lat="58.504259968176484" lon="-4.503381997346878">
        <ele>134.24000000000001</ele>
        <time>2019-09-03T10:38:28Z</time>
      </trkpt>
      <trkpt lat="58.504213029518723" lon="-4.506991999223828">
        <ele>141.93000000000001</ele>
        <time>2019-09-03T10:38:40Z</time>
      </trkpt>
      <trkpt lat="58.504171036183834" lon="-4.510138984769583">
        <ele>152.50999999999999</ele>
        <time>2019-09-03T10:38:49Z</time>
      </trkpt>
      <trkpt lat="58.503970960155129" lon="-4.514678958803415">
        <ele>163.56</ele>
        <time>2019-09-03T10:39:02Z</time>
      </trkpt>
      <trkpt lat="58.503389004617929" lon="-4.517557974904776">
        <ele>165</ele>
        <time>2019-09-03T10:39:10Z</time>
      </trkpt>
      <trkpt lat="58.502385020256042" lon="-4.520901013165712">
        <ele>170.28999999999999</ele>
        <time>2019-09-03T10:39:20Z</time>
      </trkpt>
      <trkpt lat="58.501988975331187" lon="-4.524089992046356">
        <ele>177.5</ele>
        <time>2019-09-03T10:39:29Z</time>
      </trkpt>
      <trkpt lat="58.50182200782001" lon="-4.529192978516221">
        <ele>185.66999999999999</ele>
        <time>2019-09-03T10:39:43Z</time>
      </trkpt>
      <trkpt lat="58.501946981996298" lon="-4.533719038590789">
        <ele>197.21000000000001</ele>
        <time>2019-09-03T10:39:56Z</time>
      </trkpt>
      <trkpt lat="58.502257028594613" lon="-4.536814978346229">
        <ele>207.30000000000001</ele>
        <time>2019-09-03T10:40:06Z</time>
      </trkpt>
      <trkpt lat="58.503070995211601" lon="-4.540252983570099">
        <ele>217.88</ele>
        <time>2019-09-03T10:40:18Z</time>
      </trkpt>
      <trkpt lat="58.504152009263635" lon="-4.544516019523144">
        <ele>228.44999999999999</ele>
        <time>2019-09-03T10:40:33Z</time>
      </trkpt>
      <trkpt lat="58.505336958914995" lon="-4.549189014360309">
        <ele>229.41</ele>
        <time>2019-09-03T10:40:47Z</time>
      </trkpt>
      <trkpt lat="58.505912041291595" lon="-4.552472038194537">
        <ele>225.09</ele>
        <time>2019-09-03T10:40:56Z</time>
      </trkpt>
      <trkpt lat="58.505931990221143" lon="-4.555615000426769">
        <ele>223.63999999999999</ele>
        <time>2019-09-03T10:41:04Z</time>
      </trkpt>
      <trkpt lat="58.505534017458558" lon="-4.558392008766532">
        <ele>223.63999999999999</ele>
        <time>2019-09-03T10:41:12Z</time>
      </trkpt>
      <trkpt lat="58.504817029461265" lon="-4.561660028994083">
        <ele>223.63999999999999</ele>
        <time>2019-09-03T10:41:23Z</time>
      </trkpt>
      <trkpt lat="58.504703035578132" lon="-4.564267974346876">
        <ele>222.19999999999999</ele>
        <time>2019-09-03T10:41:31Z</time>
      </trkpt>
      <trkpt lat="58.50483002141118" lon="-4.567721989005804">
        <ele>216.43000000000001</ele>
        <time>2019-09-03T10:41:41Z</time>
      </trkpt>
      <trkpt lat="58.504443028941751" lon="-4.570219963788986">
        <ele>207.30000000000001</ele>
        <time>2019-09-03T10:41:49Z</time>
      </trkpt>
      <trkpt lat="58.50354197435081" lon="-4.572386015206575">
        <ele>200.09</ele>
        <time>2019-09-03T10:41:58Z</time>
      </trkpt>
      <trkpt lat="58.502361970022321" lon="-4.574507977813482">
        <ele>192.88</ele>
        <time>2019-09-03T10:42:08Z</time>
      </trkpt>
      <trkpt lat="58.501749001443386" lon="-4.576739994809032">
        <ele>188.08000000000001</ele>
        <time>2019-09-03T10:42:16Z</time>
      </trkpt>
      <trkpt lat="58.501581028103828" lon="-4.579376019537449">
        <ele>183.27000000000001</ele>
        <time>2019-09-03T10:42:24Z</time>
      </trkpt>
      <trkpt lat="58.501728968694806" lon="-4.584059994667769">
        <ele>181.34999999999999</ele>
        <time>2019-09-03T10:42:38Z</time>
      </trkpt>
      <trkpt lat="58.501966008916497" lon="-4.58816503174603">
        <ele>176.53999999999999</ele>
        <time>2019-09-03T10:42:51Z</time>
      </trkpt>
      <trkpt lat="58.501983024179935" lon="-4.590942962095141">
        <ele>175.09999999999999</ele>
        <time>2019-09-03T10:43:01Z</time>
      </trkpt>
      <trkpt lat="58.502214029431343" lon="-4.592726966366172">
        <ele>172.21000000000001</ele>
        <time>2019-09-03T10:43:09Z</time>
      </trkpt>
      <trkpt lat="58.502545030787587" lon="-4.593703960999847">
        <ele>168.84999999999999</ele>
        <time>2019-09-03T10:43:17Z</time>
      </trkpt>
      <trkpt lat="58.503035036846995" lon="-4.594529997557402">
        <ele>166.93000000000001</ele>
        <time>2019-09-03T10:43:25Z</time>
      </trkpt>
      <trkpt lat="58.504076991230249" lon="-4.595722993835807">
        <ele>160.68000000000001</ele>
        <time>2019-09-03T10:43:34Z</time>
      </trkpt>
      <trkpt lat="58.505480038002133" lon="-4.596923030912876">
        <ele>150.58000000000001</ele>
        <time>2019-09-03T10:43:44Z</time>
      </trkpt>
      <trkpt lat="58.505725041031837" lon="-4.597241962328553">
        <ele>148.66</ele>
        <time>2019-09-03T10:43:46Z</time>
      </trkpt>
      <trkpt lat="58.505827970802784" lon="-4.597463998943567">
        <ele>147.69999999999999</ele>
        <time>2019-09-03T10:43:47Z</time>
      </trkpt>
      <trkpt lat="58.505932996049523" lon="-4.597691986709833">
        <ele>146.74000000000001</ele>
        <time>2019-09-03T10:43:48Z</time>
      </trkpt>
      <trkpt lat="58.506041038781404" lon="-4.597925003618002">
        <ele>145.78</ele>
        <time>2019-09-03T10:43:49Z</time>
      </trkpt>
      <trkpt lat="58.506117984652519" lon="-4.598189033567905">
        <ele>145.30000000000001</ele>
        <time>2019-09-03T10:43:50Z</time>
      </trkpt>
      <trkpt lat="58.506180010735989" lon="-4.598481981083751">
        <ele>144.81999999999999</ele>
        <time>2019-09-03T10:43:51Z</time>
      </trkpt>
      <trkpt lat="58.506242036819458" lon="-4.59877802990377">
        <ele>144.34</ele>
        <time>2019-09-03T10:43:52Z</time>
      </trkpt>
      <trkpt lat="58.506282018497586" lon="-4.59907902404666">
        <ele>143.37</ele>
        <time>2019-09-03T10:43:53Z</time>
      </trkpt>
      <trkpt lat="58.506300039589405" lon="-4.599398961290717">
        <ele>142.88999999999999</ele>
        <time>2019-09-03T10:43:54Z</time>
      </trkpt>
      <trkpt lat="58.506315965205431" lon="-4.599713031202555">
        <ele>141.93000000000001</ele>
        <time>2019-09-03T10:43:55Z</time>
      </trkpt>
      <trkpt lat="58.506181016564369" lon="-4.603133015334606">
        <ele>130.40000000000001</ele>
        <time>2019-09-03T10:44:06Z</time>
      </trkpt>
      <trkpt lat="58.505868958309293" lon="-4.607299994677305">
        <ele>115.98</ele>
        <time>2019-09-03T10:44:18Z</time>
      </trkpt>
      <trkpt lat="58.505713976919651" lon="-4.609205033630133">
        <ele>107.81</ele>
        <time>2019-09-03T10:44:24Z</time>
      </trkpt>
      <trkpt lat="58.505535023286939" lon="-4.610371040180326">
        <ele>103</ele>
        <time>2019-09-03T10:44:30Z</time>
      </trkpt>
      <trkpt lat="58.504969999194145" lon="-4.611999979242683">
        <ele>97.230000000000004</ele>
        <time>2019-09-03T10:44:36Z</time>
      </trkpt>
      <trkpt lat="58.503925027325749" lon="-4.613459017127752">
        <ele>87.620000000000005</ele>
        <time>2019-09-03T10:44:43Z</time>
      </trkpt>
      <trkpt lat="58.503231005743146" lon="-4.614216992631555">
        <ele>80.409999999999997</ele>
        <time>2019-09-03T10:44:48Z</time>
      </trkpt>
      <trkpt lat="58.503135032951832" lon="-4.614385971799493">
        <ele>78.969999999999999</ele>
        <time>2019-09-03T10:44:49Z</time>
      </trkpt>
      <trkpt lat="58.503074012696743" lon="-4.614584958180785">
        <ele>77.519999999999996</ele>
        <time>2019-09-03T10:44:50Z</time>
      </trkpt>
      <trkpt lat="58.503031013533473" lon="-4.61480800062418">
        <ele>76.560000000000002</ele>
        <time>2019-09-03T10:44:51Z</time>
      </trkpt>
      <trkpt lat="58.503019027411938" lon="-4.615033976733685">
        <ele>75.120000000000005</ele>
        <time>2019-09-03T10:44:52Z</time>
      </trkpt>
      <trkpt lat="58.503027996048331" lon="-4.615273028612137">
        <ele>73.680000000000007</ele>
        <time>2019-09-03T10:44:53Z</time>
      </trkpt>
      <trkpt lat="58.503035036846995" lon="-4.615437984466553">
        <ele>72.719999999999999</ele>
        <time>2019-09-03T10:44:54Z</time>
      </trkpt>
      <trkpt lat="58.503113994374871" lon="-4.615673013031483">
        <ele>71.269999999999996</ele>
        <time>2019-09-03T10:44:55Z</time>
      </trkpt>
      <trkpt lat="58.503187000751495" lon="-4.615888008847833">
        <ele>69.829999999999998</ele>
        <time>2019-09-03T10:44:56Z</time>
      </trkpt>
      <trkpt lat="58.503265036270022" lon="-4.61611901409924">
        <ele>67.909999999999997</ele>
        <time>2019-09-03T10:44:57Z</time>
      </trkpt>
      <trkpt lat="58.503436027094722" lon="-4.616624023765326">
        <ele>64.069999999999993</ele>
        <time>2019-09-03T10:44:59Z</time>
      </trkpt>
      <trkpt lat="58.503514984622598" lon="-4.6168929990381">
        <ele>62.140000000000001</ele>
        <time>2019-09-03T10:45:00Z</time>
      </trkpt>
      <trkpt lat="58.503570975735784" lon="-4.617186030372977">
        <ele>60.219999999999999</ele>
        <time>2019-09-03T10:45:01Z</time>
      </trkpt>
      <trkpt lat="58.503570975735784" lon="-4.617464980110526">
        <ele>58.299999999999997</ele>
        <time>2019-09-03T10:45:02Z</time>
      </trkpt>
      <trkpt lat="58.503570975735784" lon="-4.617725992575288">
        <ele>56.369999999999997</ele>
        <time>2019-09-03T10:45:03Z</time>
      </trkpt>
      <trkpt lat="58.503543986007571" lon="-4.617954986169934">
        <ele>54.450000000000003</ele>
        <time>2019-09-03T10:45:04Z</time>
      </trkpt>
      <trkpt lat="58.503501992672682" lon="-4.618166964501143">
        <ele>52.530000000000001</ele>
        <time>2019-09-03T10:45:05Z</time>
      </trkpt>
      <trkpt lat="58.503453964367509" lon="-4.618376009166241">
        <ele>50.609999999999999</ele>
        <time>2019-09-03T10:45:06Z</time>
      </trkpt>
      <trkpt lat="58.503366038203239" lon="-4.618551023304462">
        <ele>48.68</ele>
        <time>2019-09-03T10:45:07Z</time>
      </trkpt>
      <trkpt lat="58.503277022391558" lon="-4.618730982765555">
        <ele>46.759999999999998</ele>
        <time>2019-09-03T10:45:08Z</time>
      </trkpt>
      <trkpt lat="58.503166968002915" lon="-4.618859980255365">
        <ele>44.840000000000003</ele>
        <time>2019-09-03T10:45:09Z</time>
      </trkpt>
      <trkpt lat="58.503050040453672" lon="-4.618968022987247">
        <ele>42.920000000000002</ele>
        <time>2019-09-03T10:45:10Z</time>
      </trkpt>
      <trkpt lat="58.502930011600256" lon="-4.619029965251684">
        <ele>41.469999999999999</ele>
        <time>2019-09-03T10:45:11Z</time>
      </trkpt>
      <trkpt lat="58.502805037423968" lon="-4.619047986343503">
        <ele>40.030000000000001</ele>
        <time>2019-09-03T10:45:12Z</time>
      </trkpt>
      <trkpt lat="58.502676039934158" lon="-4.619066007435322">
        <ele>38.590000000000003</ele>
        <time>2019-09-03T10:45:13Z</time>
      </trkpt>
      <trkpt lat="58.502541007474065" lon="-4.619086040183902">
        <ele>37.630000000000003</ele>
        <time>2019-09-03T10:45:14Z</time>
      </trkpt>
      <trkpt lat="58.502430031076074" lon="-4.619074976071715">
        <ele>37.149999999999999</ele>
        <time>2019-09-03T10:45:15Z</time>
      </trkpt>
      <trkpt lat="58.502045972272754" lon="-4.619056032970548">
        <ele>35.229999999999997</ele>
        <time>2019-09-03T10:45:19Z</time>
      </trkpt>
      <trkpt lat="58.501959973946214" lon="-4.619082016870379">
        <ele>34.740000000000002</ele>
        <time>2019-09-03T10:45:20Z</time>
      </trkpt>
      <trkpt lat="58.501880010589957" lon="-4.61910598911345">
        <ele>33.780000000000001</ele>
        <time>2019-09-03T10:45:21Z</time>
      </trkpt>
      <trkpt lat="58.501813039183617" lon="-4.619201961904764">
        <ele>32.340000000000003</ele>
        <time>2019-09-03T10:45:22Z</time>
      </trkpt>
      <trkpt lat="58.501746989786625" lon="-4.619300030171871">
        <ele>31.379999999999999</ele>
        <time>2019-09-03T10:45:23Z</time>
      </trkpt>
      <trkpt lat="58.5017120372504" lon="-4.619443025439978">
        <ele>29.940000000000001</ele>
        <time>2019-09-03T10:45:24Z</time>
      </trkpt>
      <trkpt lat="58.501674989238381" lon="-4.619589038193226">
        <ele>28.5</ele>
        <time>2019-09-03T10:45:25Z</time>
      </trkpt>
      <trkpt lat="58.501667026430368" lon="-4.619756005704403">
        <ele>27.050000000000001</ele>
        <time>2019-09-03T10:45:26Z</time>
      </trkpt>
      <trkpt lat="58.501675995066762" lon="-4.619916016235948">
        <ele>26.09</ele>
        <time>2019-09-03T10:45:27Z</time>
      </trkpt>
      <trkpt lat="58.501688987016678" lon="-4.620074015110731">
        <ele>24.649999999999999</ele>
        <time>2019-09-03T10:45:28Z</time>
      </trkpt>
      <trkpt lat="58.501725029200315" lon="-4.620219022035599">
        <ele>23.690000000000001</ele>
        <time>2019-09-03T10:45:29Z</time>
      </trkpt>
      <trkpt lat="58.501789988949895" lon="-4.620317006483674">
        <ele>22.73</ele>
        <time>2019-09-03T10:45:30Z</time>
      </trkpt>
      <trkpt lat="58.501857966184616" lon="-4.620417002588511">
        <ele>21.77</ele>
        <time>2019-09-03T10:45:31Z</time>
      </trkpt>
      <trkpt lat="58.501937007531524" lon="-4.620534013956785">
        <ele>20.32</ele>
        <time>2019-09-03T10:45:32Z</time>
      </trkpt>
      <trkpt lat="58.502625999972224" lon="-4.621450994163752">
        <ele>12.15</ele>
        <time>2019-09-03T10:45:39Z</time>
      </trkpt>
      <trkpt lat="58.502690959721804" lon="-4.62151100859046">
        <ele>11.19</ele>
        <time>2019-09-03T10:45:40Z</time>
      </trkpt>
      <trkpt lat="58.502797996625304" lon="-4.62151100859046">
        <ele>10.23</ele>
        <time>2019-09-03T10:45:41Z</time>
      </trkpt>
      <trkpt lat="58.502885000780225" lon="-4.62151100859046">
        <ele>9.27</ele>
        <time>2019-09-03T10:45:42Z</time>
      </trkpt>
      <trkpt lat="58.502966975793242" lon="-4.621428027749062">
        <ele>8.310000000000001</ele>
        <time>2019-09-03T10:45:43Z</time>
      </trkpt>
      <trkpt lat="58.503052974119782" lon="-4.621342029422522">
        <ele>7.35</ele>
        <time>2019-09-03T10:45:44Z</time>
      </trkpt>
      <trkpt lat="58.503136960789561" lon="-4.621258964762092">
        <ele>6.39</ele>
        <time>2019-09-03T10:45:45Z</time>
      </trkpt>
      <trkpt lat="58.503223964944482" lon="-4.621171038597822">
        <ele>5.91</ele>
        <time>2019-09-03T10:45:46Z</time>
      </trkpt>
      <trkpt lat="58.503310969099402" lon="-4.621085040271282">
        <ele>5.42</ele>
        <time>2019-09-03T10:45:47Z</time>
      </trkpt>
      <trkpt lat="58.503407025709748" lon="-4.621027037501335">
        <ele>4.94</ele>
        <time>2019-09-03T10:45:48Z</time>
      </trkpt>
      <trkpt lat="58.503502998501062" lon="-4.621004993095994">
        <ele>4.46</ele>
        <time>2019-09-03T10:45:49Z</time>
      </trkpt>
      <trkpt lat="58.503599977120757" lon="-4.620982026681304">
        <ele>4.46</ele>
        <time>2019-09-03T10:45:50Z</time>
      </trkpt>
      <trkpt lat="58.503705002367496" lon="-4.621030976995826">
        <ele>3.98</ele>
        <time>2019-09-03T10:45:51Z</time>
      </trkpt>
      <trkpt lat="58.503794018179178" lon="-4.62110398337245">
        <ele>3.98</ele>
        <time>2019-09-03T10:45:52Z</time>
      </trkpt>
      <trkpt lat="58.503887979313731" lon="-4.621206996962428">
        <ele>3.5</ele>
        <time>2019-09-03T10:45:53Z</time>
      </trkpt>
      <trkpt lat="58.503945982083678" lon="-4.621350998058915">
        <ele>3.5</ele>
        <time>2019-09-03T10:45:54Z</time>
      </trkpt>
      <trkpt lat="58.504007002338767" lon="-4.621502039954066">
        <ele>3.5</ele>
        <time>2019-09-03T10:45:55Z</time>
      </trkpt>
      <trkpt lat="58.504245970398188" lon="-4.622120959684253">
        <ele>3.5</ele>
        <time>2019-09-03T10:45:59Z</time>
      </trkpt>
      <trkpt lat="58.504275977611542" lon="-4.622276024892926">
        <ele>3.5</ele>
        <time>2019-09-03T10:46:00Z</time>
      </trkpt>
      <trkpt lat="58.504304978996515" lon="-4.622428994625807">
        <ele>3.98</ele>
        <time>2019-09-03T10:46:01Z</time>
      </trkpt>
      <trkpt lat="58.504324005916715" lon="-4.622593028470874">
        <ele>4.94</ele>
        <time>2019-09-03T10:46:02Z</time>
      </trkpt>
      <trkpt lat="58.504329035058618" lon="-4.622752033174038">
        <ele>5.91</ele>
        <time>2019-09-03T10:46:03Z</time>
      </trkpt>
      <trkpt lat="58.504333980381489" lon="-4.622915983200073">
        <ele>6.87</ele>
        <time>2019-09-03T10:46:04Z</time>
      </trkpt>
      <trkpt lat="58.504339009523392" lon="-4.623086974024773">
        <ele>7.83</ele>
        <time>2019-09-03T10:46:05Z</time>
      </trkpt>
      <trkpt lat="58.504336997866631" lon="-4.623290989547968">
        <ele>8.789999999999999</ele>
        <time>2019-09-03T10:46:06Z</time>
      </trkpt>
      <trkpt lat="58.504305984824896" lon="-4.623474972322583">
        <ele>10.23</ele>
        <time>2019-09-03T10:46:07Z</time>
      </trkpt>
      <trkpt lat="58.5042729601264" lon="-4.623671025037766">
        <ele>11.19</ele>
        <time>2019-09-03T10:46:08Z</time>
      </trkpt>
      <trkpt lat="58.504221998155117" lon="-4.62387596257031">
        <ele>12.630000000000001</ele>
        <time>2019-09-03T10:46:09Z</time>
      </trkpt>
      <trkpt lat="58.504160977900028" lon="-4.624065980315208">
        <ele>14.08</ele>
        <time>2019-09-03T10:46:10Z</time>
      </trkpt>
      <trkpt lat="58.50409802980721" lon="-4.624262033030391">
        <ele>16.48</ele>
        <time>2019-09-03T10:46:11Z</time>
      </trkpt>
      <trkpt lat="58.503989987075329" lon="-4.624436041340232">
        <ele>17.920000000000002</ele>
        <time>2019-09-03T10:46:12Z</time>
      </trkpt>
      <trkpt lat="58.503882028162479" lon="-4.624590016901493">
        <ele>19.359999999999999</ele>
        <time>2019-09-03T10:46:13Z</time>
      </trkpt>
      <trkpt lat="58.503758981823921" lon="-4.624735023826361">
        <ele>20.809999999999999</ele>
        <time>2019-09-03T10:46:14Z</time>
      </trkpt>
      <trkpt lat="58.503630990162492" lon="-4.62486301548779">
        <ele>22.25</ele>
        <time>2019-09-03T10:46:15Z</time>
      </trkpt>
      <trkpt lat="58.502610996365547" lon="-4.626129018142819">
        <ele>25.609999999999999</ele>
        <time>2019-09-03T10:46:24Z</time>
      </trkpt>
      <trkpt lat="58.501222031190991" lon="-4.628140004351735">
        <ele>25.129999999999999</ele>
        <time>2019-09-03T10:46:36Z</time>
      </trkpt>
      <trkpt lat="58.49999500438571" lon="-4.629915039986372">
        <ele>34.259999999999998</ele>
        <time>2019-09-03T10:46:45Z</time>
      </trkpt>
      <trkpt lat="58.499409025534987" lon="-4.630811987444758">
        <ele>38.109999999999999</ele>
        <time>2019-09-03T10:46:49Z</time>
      </trkpt>
      <trkpt lat="58.499301988631487" lon="-4.631017008796334">
        <ele>39.07</ele>
        <time>2019-09-03T10:46:50Z</time>
      </trkpt>
      <trkpt lat="58.499225964769721" lon="-4.6312449965626">
        <ele>40.030000000000001</ele>
        <time>2019-09-03T10:46:51Z</time>
      </trkpt>
      <trkpt lat="58.499155975878239" lon="-4.63148295879364">
        <ele>40.990000000000002</ele>
        <time>2019-09-03T10:46:52Z</time>
      </trkpt>
      <trkpt lat="58.499105013906956" lon="-4.631744977086783">
        <ele>41.950000000000003</ele>
        <time>2019-09-03T10:46:53Z</time>
      </trkpt>
      <trkpt lat="58.49909202195704" lon="-4.632029961794615">
        <ele>43.399999999999999</ele>
        <time>2019-09-03T10:46:54Z</time>
      </trkpt>
      <trkpt lat="58.499101996421814" lon="-4.632302960380912">
        <ele>44.359999999999999</ele>
        <time>2019-09-03T10:46:55Z</time>
      </trkpt>
      <trkpt lat="58.499121023342013" lon="-4.632575958967209">
        <ele>44.840000000000003</ele>
        <time>2019-09-03T10:46:56Z</time>
      </trkpt>
      <trkpt lat="58.499166034162045" lon="-4.632845018059015">
        <ele>45.32</ele>
        <time>2019-09-03T10:46:57Z</time>
      </trkpt>
      <trkpt lat="58.499237028881907" lon="-4.633076023310423">
        <ele>45.32</ele>
        <time>2019-09-03T10:46:58Z</time>
      </trkpt>
      <trkpt lat="58.499335013329983" lon="-4.633291019126773">
        <ele>45.799999999999997</ele>
        <time>2019-09-03T10:46:59Z</time>
      </trkpt>
      <trkpt lat="58.499432997778058" lon="-4.633508026599884">
        <ele>46.280000000000001</ele>
        <time>2019-09-03T10:47:00Z</time>
      </trkpt>
      <trkpt lat="58.499570041894913" lon="-4.633658984676004">
        <ele>46.759999999999998</ele>
        <time>2019-09-03T10:47:01Z</time>
      </trkpt>
      <trkpt lat="58.49971798248589" lon="-4.633797034621239">
        <ele>47.240000000000002</ele>
        <time>2019-09-03T10:47:02Z</time>
      </trkpt>
      <trkpt lat="58.499885033816099" lon="-4.633902981877327">
        <ele>47.719999999999999</ele>
        <time>2019-09-03T10:47:03Z</time>
      </trkpt>
      <trkpt lat="58.500067004933953" lon="-4.633991997689009">
        <ele>48.200000000000003</ele>
        <time>2019-09-03T10:47:04Z</time>
      </trkpt>
      <trkpt lat="58.500656001269817" lon="-4.634281005710363">
        <ele>51.57</ele>
        <time>2019-09-03T10:47:07Z</time>
      </trkpt>
      <trkpt lat="58.500831015408039" lon="-4.634473035112023">
        <ele>53.009999999999998</ele>
        <time>2019-09-03T10:47:08Z</time>
      </trkpt>
      <trkpt lat="58.500992031767964" lon="-4.634650982916355">
        <ele>54.450000000000003</ele>
        <time>2019-09-03T10:47:09Z</time>
      </trkpt>
      <trkpt lat="58.501122035086155" lon="-4.634856004267931">
        <ele>55.409999999999997</ele>
        <time>2019-09-03T10:47:10Z</time>
      </trkpt>
      <trkpt lat="58.501218007877469" lon="-4.63511198759079">
        <ele>56.859999999999999</ele>
        <time>2019-09-03T10:47:11Z</time>
      </trkpt>
      <trkpt lat="58.501318003982306" lon="-4.635379035025835">
        <ele>58.299999999999997</ele>
        <time>2019-09-03T10:47:12Z</time>
      </trkpt>
      <trkpt lat="58.501416994258761" lon="-4.635659996420145">
        <ele>59.259999999999998</ele>
        <time>2019-09-03T10:47:13Z</time>
      </trkpt>
      <trkpt lat="58.501829970628023" lon="-4.637352973222733">
        <ele>61.18</ele>
        <time>2019-09-03T10:47:19Z</time>
      </trkpt>
      <trkpt lat="58.501873975619674" lon="-4.637657990679145">
        <ele>60.700000000000003</ele>
        <time>2019-09-03T10:47:20Z</time>
      </trkpt>
      <trkpt lat="58.501903982833028" lon="-4.637983040884137">
        <ele>60.219999999999999</ele>
        <time>2019-09-03T10:47:21Z</time>
      </trkpt>
      <trkpt lat="58.501914041116834" lon="-4.638325022533536">
        <ele>59.740000000000002</ele>
        <time>2019-09-03T10:47:22Z</time>
      </trkpt>
      <trkpt lat="58.501902977004647" lon="-4.638673961162567">
        <ele>58.780000000000001</ele>
        <time>2019-09-03T10:47:23Z</time>
      </trkpt>
      <trkpt lat="58.501880010589957" lon="-4.639027006924152">
        <ele>57.82</ele>
        <time>2019-09-03T10:47:24Z</time>
      </trkpt>
      <trkpt lat="58.501840028911829" lon="-4.639390027150512">
        <ele>56.369999999999997</ele>
        <time>2019-09-03T10:47:25Z</time>
      </trkpt>
      <trkpt lat="58.501439960673451" lon="-4.642989970743656">
        <ele>46.759999999999998</ele>
        <time>2019-09-03T10:47:36Z</time>
      </trkpt>
      <trkpt lat="58.501372989267111" lon="-4.643587013706565">
        <ele>45.32</ele>
        <time>2019-09-03T10:47:38Z</time>
      </trkpt>
      <trkpt lat="58.501367038115859" lon="-4.643897982314229">
        <ele>44.840000000000003</ele>
        <time>2019-09-03T10:47:39Z</time>
      </trkpt>
      <trkpt lat="58.501377012580633" lon="-4.644210040569305">
        <ele>44.359999999999999</ele>
        <time>2019-09-03T10:47:40Z</time>
      </trkpt>
      <trkpt lat="58.501408025622368" lon="-4.64452201500535">
        <ele>43.880000000000003</ele>
        <time>2019-09-03T10:47:41Z</time>
      </trkpt>
      <trkpt lat="58.501471979543567" lon="-4.644808005541563">
        <ele>43.399999999999999</ele>
        <time>2019-09-03T10:47:42Z</time>
      </trkpt>
      <trkpt lat="58.501551020890474" lon="-4.645077986642718">
        <ele>42.920000000000002</ele>
        <time>2019-09-03T10:47:43Z</time>
      </trkpt>
      <trkpt lat="58.501640036702156" lon="-4.645286025479436">
        <ele>42.439999999999998</ele>
        <time>2019-09-03T10:47:44Z</time>
      </trkpt>
      <trkpt lat="58.501782026141882" lon="-4.645504038780928">
        <ele>41.950000000000003</ele>
        <time>2019-09-03T10:47:45Z</time>
      </trkpt>
      <trkpt lat="58.501912029460073" lon="-4.64570302516222">
        <ele>41.469999999999999</ele>
        <time>2019-09-03T10:47:46Z</time>
      </trkpt>
      <trkpt lat="58.502063993364573" lon="-4.64585498906672">
        <ele>41.469999999999999</ele>
        <time>2019-09-03T10:47:47Z</time>
      </trkpt>
      <trkpt lat="58.502226015552878" lon="-4.646012987941504">
        <ele>41.469999999999999</ele>
        <time>2019-09-03T10:47:48Z</time>
      </trkpt>
      <trkpt lat="58.503504004329443" lon="-4.647575961425901">
        <ele>45.799999999999997</ele>
        <time>2019-09-03T10:47:56Z</time>
      </trkpt>
      <trkpt lat="58.503614980727434" lon="-4.647797998040915">
        <ele>46.759999999999998</ele>
        <time>2019-09-03T10:47:57Z</time>
      </trkpt>
      <trkpt lat="58.503697039559484" lon="-4.648061022162437">
        <ele>47.719999999999999</ele>
        <time>2019-09-03T10:47:58Z</time>
      </trkpt>
      <trkpt lat="58.50375697016716" lon="-4.648332009091973">
        <ele>48.68</ele>
        <time>2019-09-03T10:47:59Z</time>
      </trkpt>
      <trkpt lat="58.503783037886024" lon="-4.648610036820173">
        <ele>49.649999999999999</ele>
        <time>2019-09-03T10:48:00Z</time>
      </trkpt>
      <trkpt lat="58.50377700291574" lon="-4.64888303540647">
        <ele>50.609999999999999</ele>
        <time>2019-09-03T10:48:01Z</time>
      </trkpt>
      <trkpt lat="58.503770967945457" lon="-4.649179000407457">
        <ele>51.57</ele>
        <time>2019-09-03T10:48:02Z</time>
      </trkpt>
      <trkpt lat="58.503765016794205" lon="-4.649498015642166">
        <ele>53.009999999999998</ele>
        <time>2019-09-03T10:48:03Z</time>
      </trkpt>
      <trkpt lat="58.503745989874005" lon="-4.650417007505894">
        <ele>56.859999999999999</ele>
        <time>2019-09-03T10:48:06Z</time>
      </trkpt>
      <trkpt lat="58.503764010965824" lon="-4.650696963071823">
        <ele>58.299999999999997</ele>
        <time>2019-09-03T10:48:07Z</time>
      </trkpt>
      <trkpt lat="58.503816984593868" lon="-4.65096602216363">
        <ele>59.740000000000002</ele>
        <time>2019-09-03T10:48:08Z</time>
      </trkpt>
      <trkpt lat="58.503865012899041" lon="-4.651214964687824">
        <ele>60.700000000000003</ele>
        <time>2019-09-03T10:48:09Z</time>
      </trkpt>
      <trkpt lat="58.503910023719072" lon="-4.651446975767613">
        <ele>62.140000000000001</ele>
        <time>2019-09-03T10:48:10Z</time>
      </trkpt>
      <trkpt lat="58.504048995673656" lon="-4.652273012325168">
        <ele>66.469999999999999</ele>
        <time>2019-09-03T10:48:14Z</time>
      </trkpt>
      <trkpt lat="58.50405796431005" lon="-4.65247199870646">
        <ele>67.430000000000007</ele>
        <time>2019-09-03T10:48:15Z</time>
      </trkpt>
      <trkpt lat="58.504059975966811" lon="-4.652676014229655">
        <ele>68.870000000000005</ele>
        <time>2019-09-03T10:48:16Z</time>
      </trkpt>
      <trkpt lat="58.504042038694024" lon="-4.652890004217625">
        <ele>70.310000000000002</ele>
        <time>2019-09-03T10:48:17Z</time>
      </trkpt>
      <trkpt lat="58.504021000117064" lon="-4.653122015297413">
        <ele>71.760000000000005</ele>
        <time>2019-09-03T10:48:18Z</time>
      </trkpt>
      <trkpt lat="58.503970960155129" lon="-4.653351008892059">
        <ele>73.200000000000003</ele>
        <time>2019-09-03T10:48:19Z</time>
      </trkpt>
      <trkpt lat="58.503917986527085" lon="-4.653597017750144">
        <ele>74.640000000000001</ele>
        <time>2019-09-03T10:48:20Z</time>
      </trkpt>
      <trkpt lat="58.503824025392532" lon="-4.653822993859649">
        <ele>76.560000000000002</ele>
        <time>2019-09-03T10:48:21Z</time>
      </trkpt>
      <trkpt lat="58.503728974610567" lon="-4.654045030474663">
        <ele>78.480000000000004</ele>
        <time>2019-09-03T10:48:22Z</time>
      </trkpt>
      <trkpt lat="58.50360500626266" lon="-4.654221972450614">
        <ele>80.409999999999997</ele>
        <time>2019-09-03T10:48:23Z</time>
      </trkpt>
      <trkpt lat="58.503477014601231" lon="-4.654397992417216">
        <ele>81.849999999999994</ele>
        <time>2019-09-03T10:48:24Z</time>
      </trkpt>
      <trkpt lat="58.503343993797898" lon="-4.654566971585155">
        <ele>83.769999999999996</ele>
        <time>2019-09-03T10:48:25Z</time>
      </trkpt>
      <trkpt lat="58.502248981967568" lon="-4.655641028657556">
        <ele>92.900000000000006</ele>
        <time>2019-09-03T10:48:34Z</time>
      </trkpt>
      <trkpt lat="58.501095967367291" lon="-4.656766969710589">
        <ele>88.579999999999998</ele>
        <time>2019-09-03T10:48:45Z</time>
      </trkpt>
      <trkpt lat="58.499875981360674" lon="-4.657932976260781">
        <ele>73.200000000000003</ele>
        <time>2019-09-03T10:48:56Z</time>
      </trkpt>
      <trkpt lat="58.499041981995106" lon="-4.658139003440738">
        <ele>63.579999999999998</ele>
        <time>2019-09-03T10:49:03Z</time>
      </trkpt>
      <trkpt lat="58.497864995151758" lon="-4.657838009297848">
        <ele>50.609999999999999</ele>
        <time>2019-09-03T10:49:13Z</time>
      </trkpt>
      <trkpt lat="58.497731974348426" lon="-4.657851001247764">
        <ele>49.159999999999997</ele>
        <time>2019-09-03T10:49:14Z</time>
      </trkpt>
      <trkpt lat="58.497597025707364" lon="-4.657926019281149">
        <ele>47.719999999999999</ele>
        <time>2019-09-03T10:49:15Z</time>
      </trkpt>
      <trkpt lat="58.497457969933748" lon="-4.658001959323883">
        <ele>45.799999999999997</ele>
        <time>2019-09-03T10:49:16Z</time>
      </trkpt>
      <trkpt lat="58.497314974665642" lon="-4.658085023984313">
        <ele>43.880000000000003</ele>
        <time>2019-09-03T10:49:17Z</time>
      </trkpt>
      <trkpt lat="58.497179020196199" lon="-4.65820899233222">
        <ele>42.439999999999998</ele>
        <time>2019-09-03T10:49:18Z</time>
      </trkpt>
      <trkpt lat="58.495429968461394" lon="-4.659811025485396">
        <ele>27.050000000000001</ele>
        <time>2019-09-03T10:49:31Z</time>
      </trkpt>
      <trkpt lat="58.494335040450096" lon="-4.660549974068999">
        <ele>22.25</ele>
        <time>2019-09-03T10:49:39Z</time>
      </trkpt>
      <trkpt lat="58.49320700392127" lon="-4.661093959584832">
        <ele>21.289999999999999</ele>
        <time>2019-09-03T10:49:50Z</time>
      </trkpt>
      <trkpt lat="58.492451040074229" lon="-4.661519005894661">
        <ele>19.84</ele>
        <time>2019-09-03T10:49:59Z</time>
      </trkpt>
      <trkpt lat="58.492374010384083" lon="-4.661566028371453">
        <ele>19.84</ele>
        <time>2019-09-03T10:50:00Z</time>
      </trkpt>
      <trkpt lat="58.49131403490901" lon="-4.662042958661914">
        <ele>19.359999999999999</ele>
        <time>2019-09-03T10:50:12Z</time>
      </trkpt>
      <trkpt lat="58.490309966728091" lon="-4.662173967808485">
        <ele>19.84</ele>
        <time>2019-09-03T10:50:20Z</time>
      </trkpt>
      <trkpt lat="58.48910397849977" lon="-4.661728972569108">
        <ele>16.48</ele>
        <time>2019-09-03T10:50:29Z</time>
      </trkpt>
      <trkpt lat="58.48880298435688" lon="-4.661609027534723">
        <ele>15.039999999999999</ele>
        <time>2019-09-03T10:50:31Z</time>
      </trkpt>
      <trkpt lat="58.487780978903174" lon="-4.661199990659952">
        <ele>10.710000000000001</ele>
        <time>2019-09-03T10:50:39Z</time>
      </trkpt>
      <trkpt lat="58.487522983923554" lon="-4.661147017031908">
        <ele>10.23</ele>
        <time>2019-09-03T10:50:41Z</time>
      </trkpt>
      <trkpt lat="58.487393986433744" lon="-4.661134025081992">
        <ele>9.75</ele>
        <time>2019-09-03T10:50:42Z</time>
      </trkpt>
      <trkpt lat="58.487271023914218" lon="-4.661121033132076">
        <ele>9.75</ele>
        <time>2019-09-03T10:50:43Z</time>
      </trkpt>
      <trkpt lat="58.486240971833467" lon="-4.660826995968819">
        <ele>14.56</ele>
        <time>2019-09-03T10:50:52Z</time>
      </trkpt>
      <trkpt lat="58.485913993790746" lon="-4.660638989880681">
        <ele>14.08</ele>
        <time>2019-09-03T10:50:55Z</time>
      </trkpt>
      <trkpt lat="58.485782984644175" lon="-4.660563971847296">
        <ele>14.08</ele>
        <time>2019-09-03T10:50:56Z</time>
      </trkpt>
      <trkpt lat="58.485677037388086" lon="-4.660600014030933">
        <ele>13.6</ele>
        <time>2019-09-03T10:50:57Z</time>
      </trkpt>
      <trkpt lat="58.485560026019812" lon="-4.660642007365823">
        <ele>13.6</ele>
        <time>2019-09-03T10:50:58Z</time>
      </trkpt>
      <trkpt lat="58.485446032136679" lon="-4.66068098321557">
        <ele>13.6</ele>
        <time>2019-09-03T10:50:59Z</time>
      </trkpt>
      <trkpt lat="58.484615972265601" lon="-4.661149028688669">
        <ele>14.56</ele>
        <time>2019-09-03T10:51:07Z</time>
      </trkpt>
      <trkpt lat="58.483777027577162" lon="-4.661916978657246">
        <ele>15.039999999999999</ele>
        <time>2019-09-03T10:51:16Z</time>
      </trkpt>
      <trkpt lat="58.482723003253341" lon="-4.663090026006103">
        <ele>10.23</ele>
        <time>2019-09-03T10:51:26Z</time>
      </trkpt>
      <trkpt lat="58.482221011072397" lon="-4.663739036768675">
        <ele>8.310000000000001</ele>
        <time>2019-09-03T10:51:31Z</time>
      </trkpt>
      <trkpt lat="58.482151022180915" lon="-4.663910027593374">
        <ele>7.83</ele>
        <time>2019-09-03T10:51:32Z</time>
      </trkpt>
      <trkpt lat="58.482081033289433" lon="-4.664080012589693">
        <ele>7.35</ele>
        <time>2019-09-03T10:51:33Z</time>
      </trkpt>
      <trkpt lat="58.481950024142861" lon="-4.66439601033926">
        <ele>6.39</ele>
        <time>2019-09-03T10:51:35Z</time>
      </trkpt>
      <trkpt lat="58.48186201415956" lon="-4.664516039192677">
        <ele>5.91</ele>
        <time>2019-09-03T10:51:36Z</time>
      </trkpt>
      <trkpt lat="58.481778027489781" lon="-4.664585022255778">
        <ele>5.42</ele>
        <time>2019-09-03T10:51:37Z</time>
      </trkpt>
      <trkpt lat="58.481696974486113" lon="-4.664650987833738">
        <ele>5.42</ele>
        <time>2019-09-03T10:51:38Z</time>
      </trkpt>
      <trkpt lat="58.481621034443378" lon="-4.664713013917208">
        <ele>4.94</ele>
        <time>2019-09-03T10:51:39Z</time>
      </trkpt>
      <trkpt lat="58.481473010033369" lon="-4.664832958951592">
        <ele>4.94</ele>
        <time>2019-09-03T10:51:41Z</time>
      </trkpt>
      <trkpt lat="58.481397991999984" lon="-4.664894985035062">
        <ele>5.42</ele>
        <time>2019-09-03T10:51:42Z</time>
      </trkpt>
      <trkpt lat="58.481330014765263" lon="-4.664957011118531">
        <ele>5.42</ele>
        <time>2019-09-03T10:51:43Z</time>
      </trkpt>
      <trkpt lat="58.481263965368271" lon="-4.665050972253084">
        <ele>5.91</ele>
        <time>2019-09-03T10:51:44Z</time>
      </trkpt>
      <trkpt lat="58.481199005618691" lon="-4.665144011378288">
        <ele>6.39</ele>
        <time>2019-09-03T10:51:45Z</time>
      </trkpt>
      <trkpt lat="58.481167992576957" lon="-4.665264962241054">
        <ele>6.87</ele>
        <time>2019-09-03T10:51:46Z</time>
      </trkpt>
      <trkpt lat="58.481133040040731" lon="-4.665426984429359">
        <ele>7.35</ele>
        <time>2019-09-03T10:51:47Z</time>
      </trkpt>
      <trkpt lat="58.48113002255559" lon="-4.665590012446046">
        <ele>7.35</ele>
        <time>2019-09-03T10:51:48Z</time>
      </trkpt>
      <trkpt lat="58.481136979535222" lon="-4.665798973292112">
        <ele>8.310000000000001</ele>
        <time>2019-09-03T10:51:49Z</time>
      </trkpt>
      <trkpt lat="58.481143014505506" lon="-4.666020004078746">
        <ele>8.310000000000001</ele>
        <time>2019-09-03T10:51:50Z</time>
      </trkpt>
      <trkpt lat="58.48115399479866" lon="-4.666230976581574">
        <ele>8.789999999999999</ele>
        <time>2019-09-03T10:51:51Z</time>
      </trkpt>
      <trkpt lat="58.481187019497156" lon="-4.666463993489742">
        <ele>9.27</ele>
        <time>2019-09-03T10:51:52Z</time>
      </trkpt>
      <trkpt lat="58.481429005041718" lon="-4.668188989162445">
        <ele>13.6</ele>
        <time>2019-09-03T10:52:00Z</time>
      </trkpt>
      <trkpt lat="58.481503017246723" lon="-4.668586039915681">
        <ele>14.56</ele>
        <time>2019-09-03T10:52:02Z</time>
      </trkpt>
      <trkpt lat="58.481553979218006" lon="-4.668743032962084">
        <ele>15.039999999999999</ele>
        <time>2019-09-03T10:52:03Z</time>
      </trkpt>
      <trkpt lat="58.481605025008321" lon="-4.668900026008487">
        <ele>15.52</ele>
        <time>2019-09-03T10:52:04Z</time>
      </trkpt>
      <trkpt lat="58.481657998636365" lon="-4.669064981862903">
        <ele>16</ele>
        <time>2019-09-03T10:52:05Z</time>
      </trkpt>
      <trkpt lat="58.481719018891454" lon="-4.669215017929673">
        <ele>16.48</ele>
        <time>2019-09-03T10:52:06Z</time>
      </trkpt>
      <trkpt lat="58.482059994712472" lon="-4.669882971793413">
        <ele>19.84</ele>
        <time>2019-09-03T10:52:11Z</time>
      </trkpt>
      <trkpt lat="58.482200978323817" lon="-4.670160999521613">
        <ele>20.809999999999999</ele>
        <time>2019-09-03T10:52:13Z</time>
      </trkpt>
      <trkpt lat="58.482260992750525" lon="-4.670340958982706">
        <ele>21.289999999999999</ele>
        <time>2019-09-03T10:52:14Z</time>
      </trkpt>
      <trkpt lat="58.48248596303165" lon="-4.67150897718966">
        <ele>25.609999999999999</ele>
        <time>2019-09-03T10:52:22Z</time>
      </trkpt>
      <trkpt lat="58.482649996876717" lon="-4.672459987923503">
        <ele>30.420000000000002</ele>
        <time>2019-09-03T10:52:26Z</time>
      </trkpt>
      <trkpt lat="58.482649996876717" lon="-4.672642964869738">
        <ele>31.859999999999999</ele>
        <time>2019-09-03T10:52:27Z</time>
      </trkpt>
      <trkpt lat="58.482649996876717" lon="-4.672826025635004">
        <ele>33.299999999999997</ele>
        <time>2019-09-03T10:52:28Z</time>
      </trkpt>
      <trkpt lat="58.482616972178221" lon="-4.672996010631323">
        <ele>35.229999999999997</ele>
        <time>2019-09-03T10:52:29Z</time>
      </trkpt>
      <trkpt lat="58.482579002156854" lon="-4.673155015334487">
        <ele>37.149999999999999</ele>
        <time>2019-09-03T10:52:30Z</time>
      </trkpt>
      <trkpt lat="58.482538014650345" lon="-4.673323994502425">
        <ele>38.590000000000003</ele>
        <time>2019-09-03T10:52:31Z</time>
      </trkpt>
      <trkpt lat="58.482490992173553" lon="-4.673498002812266">
        <ele>40.030000000000001</ele>
        <time>2019-09-03T10:52:32Z</time>
      </trkpt>
      <trkpt lat="58.482436006888747" lon="-4.673679973930121">
        <ele>41.469999999999999</ele>
        <time>2019-09-03T10:52:33Z</time>
      </trkpt>
      <trkpt lat="58.482371969148517" lon="-4.673865968361497">
        <ele>42.920000000000002</ele>
        <time>2019-09-03T10:52:34Z</time>
      </trkpt>
      <trkpt lat="58.482286976650357" lon="-4.674036037176848">
        <ele>44.840000000000003</ele>
        <time>2019-09-03T10:52:35Z</time>
      </trkpt>
      <trkpt lat="58.482199972495437" lon="-4.674209961667657">
        <ele>46.280000000000001</ele>
        <time>2019-09-03T10:52:36Z</time>
      </trkpt>
      <trkpt lat="58.482096958905458" lon="-4.674349017441273">
        <ele>47.719999999999999</ele>
        <time>2019-09-03T10:52:37Z</time>
      </trkpt>
      <trkpt lat="58.481898978352547" lon="-4.674584968015552">
        <ele>50.609999999999999</ele>
        <time>2019-09-03T10:52:39Z</time>
      </trkpt>
      <trkpt lat="58.480667006224394" lon="-4.675550982356072">
        <ele>53.969999999999999</ele>
        <time>2019-09-03T10:52:50Z</time>
      </trkpt>
      <trkpt lat="58.479810962453485" lon="-4.676053980365396">
        <ele>52.530000000000001</ele>
        <time>2019-09-03T10:52:57Z</time>
      </trkpt>
      <trkpt lat="58.479685988277197" lon="-4.676080970093608">
        <ele>52.530000000000001</ele>
        <time>2019-09-03T10:52:58Z</time>
      </trkpt>
      <trkpt lat="58.479549027979374" lon="-4.676092034205794">
        <ele>52.530000000000001</ele>
        <time>2019-09-03T10:52:59Z</time>
      </trkpt>
      <trkpt lat="58.478713016957045" lon="-4.676009975373745">
        <ele>53.490000000000002</ele>
        <time>2019-09-03T10:53:05Z</time>
      </trkpt>
      <trkpt lat="58.478587036952376" lon="-4.67604199424386">
        <ele>53.490000000000002</ele>
        <time>2019-09-03T10:53:06Z</time>
      </trkpt>
      <trkpt lat="58.47844404168427" lon="-4.676077030599117">
        <ele>53.490000000000002</ele>
        <time>2019-09-03T10:53:07Z</time>
      </trkpt>
      <trkpt lat="58.478331975638866" lon="-4.676155988126993">
        <ele>53.490000000000002</ele>
        <time>2019-09-03T10:53:08Z</time>
      </trkpt>
      <trkpt lat="58.478200966492295" lon="-4.676261013373733">
        <ele>53.490000000000002</ele>
        <time>2019-09-03T10:53:09Z</time>
      </trkpt>
      <trkpt lat="58.478079009801149" lon="-4.676400991156697">
        <ele>53.490000000000002</ele>
        <time>2019-09-03T10:53:10Z</time>
      </trkpt>
      <trkpt lat="58.477055998519063" lon="-4.677646039053798">
        <ele>53.490000000000002</ele>
        <time>2019-09-03T10:53:19Z</time>
      </trkpt>
      <trkpt lat="58.476960025727749" lon="-4.677830021828413">
        <ele>53.009999999999998</ele>
        <time>2019-09-03T10:53:20Z</time>
      </trkpt>
      <trkpt lat="58.476863969117403" lon="-4.678026996552944">
        <ele>53.009999999999998</ele>
        <time>2019-09-03T10:53:21Z</time>
      </trkpt>
      <trkpt lat="58.47679196856916" lon="-4.678245009854436">
        <ele>53.490000000000002</ele>
        <time>2019-09-03T10:53:22Z</time>
      </trkpt>
      <trkpt lat="58.47679196856916" lon="-4.678245009854436">
        <ele>53.490000000000002</ele>
        <time>2019-09-03T10:53:23Z</time>
      </trkpt>
      <trkpt lat="58.476084033027291" lon="-4.679904039949179">
        <ele>55.409999999999997</ele>
        <time>2019-09-03T10:53:32Z</time>
      </trkpt>
      <trkpt lat="58.475354975089431" lon="-4.680755976587534">
        <ele>54.93</ele>
        <time>2019-09-03T10:53:41Z</time>
      </trkpt>
      <trkpt lat="58.475208040326834" lon="-4.680836023762822">
        <ele>54.450000000000003</ele>
        <time>2019-09-03T10:53:43Z</time>
      </trkpt>
      <trkpt lat="58.47505297511816" lon="-4.680879022926092">
        <ele>53.969999999999999</ele>
        <time>2019-09-03T10:53:45Z</time>
      </trkpt>
      <trkpt lat="58.474976029247046" lon="-4.680863013491035">
        <ele>53.969999999999999</ele>
        <time>2019-09-03T10:53:46Z</time>
      </trkpt>
      <trkpt lat="58.474337998777628" lon="-4.680771986022592">
        <ele>51.090000000000003</ele>
        <time>2019-09-03T10:53:53Z</time>
      </trkpt>
      <trkpt lat="58.474244959652424" lon="-4.680783972144127">
        <ele>51.090000000000003</ele>
        <time>2019-09-03T10:53:54Z</time>
      </trkpt>
      <trkpt lat="58.474153010174632" lon="-4.680795036256313">
        <ele>51.090000000000003</ele>
        <time>2019-09-03T10:53:55Z</time>
      </trkpt>
      <trkpt lat="58.474070029333234" lon="-4.680858990177512">
        <ele>51.090000000000003</ele>
        <time>2019-09-03T10:53:56Z</time>
      </trkpt>
      <trkpt lat="58.473985958844423" lon="-4.680942976847291">
        <ele>51.090000000000003</ele>
        <time>2019-09-03T10:53:57Z</time>
      </trkpt>
      <trkpt lat="58.473901972174644" lon="-4.68102696351707">
        <ele>51.090000000000003</ele>
        <time>2019-09-03T10:53:58Z</time>
      </trkpt>
      <trkpt lat="58.473044000566006" lon="-4.681843025609851">
        <ele>52.530000000000001</ele>
        <time>2019-09-03T10:54:08Z</time>
      </trkpt>
      <trkpt lat="58.472949033603072" lon="-4.681888036429882">
        <ele>52.530000000000001</ele>
        <time>2019-09-03T10:54:09Z</time>
      </trkpt>
      <trkpt lat="58.472855994477868" lon="-4.681931035593152">
        <ele>52.530000000000001</ele>
        <time>2019-09-03T10:54:10Z</time>
      </trkpt>
      <trkpt lat="58.472764967009425" lon="-4.681940004229546">
        <ele>52.049999999999997</ele>
        <time>2019-09-03T10:54:11Z</time>
      </trkpt>
      <trkpt lat="58.472686009481549" lon="-4.681903040036559">
        <ele>51.57</ele>
        <time>2019-09-03T10:54:12Z</time>
      </trkpt>
      <trkpt lat="58.472613003104925" lon="-4.681869009509683">
        <ele>51.57</ele>
        <time>2019-09-03T10:54:13Z</time>
      </trkpt>
      <trkpt lat="58.472551982849836" lon="-4.681840008124709">
        <ele>51.090000000000003</ele>
        <time>2019-09-03T10:54:14Z</time>
      </trkpt>
      <trkpt lat="58.47249599173665" lon="-4.681814024224877">
        <ele>50.609999999999999</ele>
        <time>2019-09-03T10:54:15Z</time>
      </trkpt>
      <trkpt lat="58.472375040873885" lon="-4.681757027283311">
        <ele>49.649999999999999</ele>
        <time>2019-09-03T10:54:23Z</time>
      </trkpt>
      <trkpt lat="58.472100030630827" lon="-4.681628029793501">
        <ele>49.159999999999997</ele>
        <time>2019-09-03T10:54:31Z</time>
      </trkpt>
      <trkpt lat="58.471670961007476" lon="-4.681457038968802">
        <ele>49.649999999999999</ele>
        <time>2019-09-03T10:54:36Z</time>
      </trkpt>
      <trkpt lat="58.471581023186445" lon="-4.681451003998518">
        <ele>49.649999999999999</ele>
        <time>2019-09-03T10:54:37Z</time>
      </trkpt>
      <trkpt lat="58.471491001546383" lon="-4.681443963199854">
        <ele>49.649999999999999</ele>
        <time>2019-09-03T10:54:38Z</time>
      </trkpt>
      <trkpt lat="58.471396034583449" lon="-4.681468019261956">
        <ele>49.649999999999999</ele>
        <time>2019-09-03T10:54:39Z</time>
      </trkpt>
      <trkpt lat="58.471299977973104" lon="-4.681502971798182">
        <ele>49.649999999999999</ele>
        <time>2019-09-03T10:54:40Z</time>
      </trkpt>
      <trkpt lat="58.471199981868267" lon="-4.681538008153439">
        <ele>49.159999999999997</ele>
        <time>2019-09-03T10:54:41Z</time>
      </trkpt>
      <trkpt lat="58.471095962449908" lon="-4.681629035621882">
        <ele>49.159999999999997</ele>
        <time>2019-09-03T10:54:42Z</time>
      </trkpt>
      <trkpt lat="58.470999989658594" lon="-4.681731965392828">
        <ele>48.68</ele>
        <time>2019-09-03T10:54:43Z</time>
      </trkpt>
      <trkpt lat="58.470891024917364" lon="-4.681849982589483">
        <ele>48.68</ele>
        <time>2019-09-03T10:54:44Z</time>
      </trkpt>
      <trkpt lat="58.470817012712359" lon="-4.681980991736054">
        <ele>48.68</ele>
        <time>2019-09-03T10:54:45Z</time>
      </trkpt>
      <trkpt lat="58.470737971365452" lon="-4.6821219753474">
        <ele>48.68</ele>
        <time>2019-09-03T10:54:46Z</time>
      </trkpt>
      <trkpt lat="58.469914030283689" lon="-4.683337016031146">
        <ele>49.649999999999999</ele>
        <time>2019-09-03T10:54:56Z</time>
      </trkpt>
      <trkpt lat="58.469623010605574" lon="-4.683672040700913">
        <ele>50.609999999999999</ele>
        <time>2019-09-03T10:55:03Z</time>
      </trkpt>
      <trkpt lat="58.469547992572188" lon="-4.683758961036801">
        <ele>51.090000000000003</ele>
        <time>2019-09-03T10:55:15Z</time>
      </trkpt>
      <trkpt lat="58.469353029504418" lon="-4.683983009308577">
        <ele>50.130000000000003</ele>
        <time>2019-09-03T10:55:33Z</time>
      </trkpt>
      <trkpt lat="58.469083970412612" lon="-4.684327002614737">
        <ele>48.68</ele>
        <time>2019-09-03T10:55:38Z</time>
      </trkpt>
      <trkpt lat="58.468983974307775" lon="-4.684479972347617">
        <ele>48.200000000000003</ele>
        <time>2019-09-03T10:55:40Z</time>
      </trkpt>
      <trkpt lat="58.468921026214957" lon="-4.684578040614724">
        <ele>48.200000000000003</ele>
        <time>2019-09-03T10:55:41Z</time>
      </trkpt>
      <trkpt lat="58.468164978548884" lon="-4.685871032997966">
        <ele>50.130000000000003</ele>
        <time>2019-09-03T10:55:50Z</time>
      </trkpt>
      <trkpt lat="58.467413960024714" lon="-4.687742041423917">
        <ele>57.82</ele>
        <time>2019-09-03T10:55:58Z</time>
      </trkpt>
      <trkpt lat="58.466751035302877" lon="-4.689658982679248">
        <ele>63.579999999999998</ele>
        <time>2019-09-03T10:56:06Z</time>
      </trkpt>
      <trkpt lat="58.466683980077505" lon="-4.689885964617133">
        <ele>64.069999999999993</ele>
        <time>2019-09-03T10:56:07Z</time>
      </trkpt>
      <trkpt lat="58.466633018106222" lon="-4.690129039809108">
        <ele>64.549999999999997</ele>
        <time>2019-09-03T10:56:08Z</time>
      </trkpt>
      <trkpt lat="58.466608040034771" lon="-4.690383011475205">
        <ele>65.030000000000001</ele>
        <time>2019-09-03T10:56:09Z</time>
      </trkpt>
      <trkpt lat="58.466581972315907" lon="-4.6906509809196">
        <ele>65.989999999999995</ele>
        <time>2019-09-03T10:56:10Z</time>
      </trkpt>
      <trkpt lat="58.466581972315907" lon="-4.690944012254477">
        <ele>66.950000000000003</ele>
        <time>2019-09-03T10:56:11Z</time>
      </trkpt>
      <trkpt lat="58.46658700145781" lon="-4.69125397503376">
        <ele>68.390000000000001</ele>
        <time>2019-09-03T10:56:12Z</time>
      </trkpt>
      <trkpt lat="58.466621031984687" lon="-4.693325981497765">
        <ele>77.519999999999996</ele>
        <time>2019-09-03T10:56:20Z</time>
      </trkpt>
      <trkpt lat="58.466561017557979" lon="-4.693925958126783">
        <ele>77.040000000000006</ele>
        <time>2019-09-03T10:56:23Z</time>
      </trkpt>
      <trkpt lat="58.466524975374341" lon="-4.694126034155488">
        <ele>76.560000000000002</ele>
        <time>2019-09-03T10:56:24Z</time>
      </trkpt>
      <trkpt lat="58.46647996455431" lon="-4.694340024143457">
        <ele>76.079999999999998</ele>
        <time>2019-09-03T10:56:25Z</time>
      </trkpt>
      <trkpt lat="58.466433025896549" lon="-4.69456298276782">
        <ele>75.599999999999994</ele>
        <time>2019-09-03T10:56:26Z</time>
      </trkpt>
      <trkpt lat="58.466384997591376" lon="-4.694788958877325">
        <ele>74.640000000000001</ele>
        <time>2019-09-03T10:56:27Z</time>
      </trkpt>
      <trkpt lat="58.466323977336287" lon="-4.694977970793843">
        <ele>73.680000000000007</ele>
        <time>2019-09-03T10:56:28Z</time>
      </trkpt>
      <trkpt lat="58.465843023732305" lon="-4.696420999243856">
        <ele>65.989999999999995</ele>
        <time>2019-09-03T10:56:36Z</time>
      </trkpt>
      <trkpt lat="58.465758031234145" lon="-4.69655997119844">
        <ele>65.030000000000001</ele>
        <time>2019-09-03T10:56:37Z</time>
      </trkpt>
      <trkpt lat="58.465670021250844" lon="-4.696702966466546">
        <ele>64.069999999999993</ele>
        <time>2019-09-03T10:56:38Z</time>
      </trkpt>
      <trkpt lat="58.465567007660866" lon="-4.696806985884905">
        <ele>63.100000000000001</ele>
        <time>2019-09-03T10:56:39Z</time>
      </trkpt>
      <trkpt lat="58.465454019606113" lon="-4.696883009746671">
        <ele>61.659999999999997</ele>
        <time>2019-09-03T10:56:40Z</time>
      </trkpt>
      <trkpt lat="58.465325022116303" lon="-4.6969039645046">
        <ele>60.219999999999999</ele>
        <time>2019-09-03T10:56:41Z</time>
      </trkpt>
      <trkpt lat="58.465188983827829" lon="-4.696918968111277">
        <ele>58.780000000000001</ele>
        <time>2019-09-03T10:56:42Z</time>
      </trkpt>
      <trkpt lat="58.465041965246201" lon="-4.696933971717954">
        <ele>56.859999999999999</ele>
        <time>2019-09-03T10:56:43Z</time>
      </trkpt>
      <trkpt lat="58.463806975632906" lon="-4.697084007784724">
        <ele>42.439999999999998</ele>
        <time>2019-09-03T10:56:52Z</time>
      </trkpt>
      <trkpt lat="58.463689964264631" lon="-4.697136981412768">
        <ele>40.990000000000002</ele>
        <time>2019-09-03T10:56:53Z</time>
      </trkpt>
      <trkpt lat="58.463585022836924" lon="-4.697209987789393">
        <ele>40.509999999999998</ele>
        <time>2019-09-03T10:56:54Z</time>
      </trkpt>
      <trkpt lat="58.463489972054958" lon="-4.697324987500906">
        <ele>39.549999999999997</ele>
        <time>2019-09-03T10:56:55Z</time>
      </trkpt>
      <trkpt lat="58.463410008698702" lon="-4.697448033839464">
        <ele>39.07</ele>
        <time>2019-09-03T10:56:56Z</time>
      </trkpt>
      <trkpt lat="58.463352005928755" lon="-4.697617013007402">
        <ele>38.109999999999999</ele>
        <time>2019-09-03T10:56:57Z</time>
      </trkpt>
      <trkpt lat="58.463288974016905" lon="-4.697798984125257">
        <ele>37.630000000000003</ele>
        <time>2019-09-03T10:56:58Z</time>
      </trkpt>
      <trkpt lat="58.463223008438945" lon="-4.697993025183678">
        <ele>37.149999999999999</ele>
        <time>2019-09-03T10:56:59Z</time>
      </trkpt>
      <trkpt lat="58.463157964870334" lon="-4.698203997686505">
        <ele>36.189999999999998</ele>
        <time>2019-09-03T10:57:00Z</time>
      </trkpt>
      <trkpt lat="58.463113037869334" lon="-4.698438020423055">
        <ele>35.710000000000001</ele>
        <time>2019-09-03T10:57:01Z</time>
      </trkpt>
      <trkpt lat="58.463037014007568" lon="-4.698907993733883">
        <ele>34.259999999999998</ele>
        <time>2019-09-03T10:57:03Z</time>
      </trkpt>
      <trkpt lat="58.463011030107737" lon="-4.699134975671768">
        <ele>33.780000000000001</ele>
        <time>2019-09-03T10:57:04Z</time>
      </trkpt>
      <trkpt lat="58.463001977652311" lon="-4.699372015893459">
        <ele>33.780000000000001</ele>
        <time>2019-09-03T10:57:05Z</time>
      </trkpt>
      <trkpt lat="58.46301899291575" lon="-4.699606960639358">
        <ele>33.780000000000001</ele>
        <time>2019-09-03T10:57:06Z</time>
      </trkpt>
      <trkpt lat="58.463035002350807" lon="-4.699840983375907">
        <ele>33.780000000000001</ele>
        <time>2019-09-03T10:57:07Z</time>
      </trkpt>
      <trkpt lat="58.463079007342458" lon="-4.700452024117112">
        <ele>35.229999999999997</ele>
        <time>2019-09-03T10:57:10Z</time>
      </trkpt>
      <trkpt lat="58.463051011785865" lon="-4.700645981356502">
        <ele>35.710000000000001</ele>
        <time>2019-09-03T10:57:11Z</time>
      </trkpt>
      <trkpt lat="58.463017987087369" lon="-4.700841028243303">
        <ele>35.710000000000001</ele>
        <time>2019-09-03T10:57:12Z</time>
      </trkpt>
      <trkpt lat="58.462983034551144" lon="-4.701039008796215">
        <ele>35.710000000000001</ele>
        <time>2019-09-03T10:57:13Z</time>
      </trkpt>
      <trkpt lat="58.462941041216254" lon="-4.701218968257308">
        <ele>35.710000000000001</ele>
        <time>2019-09-03T10:57:14Z</time>
      </trkpt>
      <trkpt lat="58.462807014584541" lon="-4.701719032600522">
        <ele>35.710000000000001</ele>
        <time>2019-09-03T10:57:17Z</time>
      </trkpt>
      <trkpt lat="58.462735014036298" lon="-4.701853981241584">
        <ele>36.189999999999998</ele>
        <time>2019-09-03T10:57:18Z</time>
      </trkpt>
      <trkpt lat="58.462657984346151" lon="-4.701982978731394">
        <ele>36.189999999999998</ele>
        <time>2019-09-03T10:57:19Z</time>
      </trkpt>
      <trkpt lat="58.462179964408278" lon="-4.702669037505984">
        <ele>36.670000000000002</ele>
        <time>2019-09-03T10:57:24Z</time>
      </trkpt>
      <trkpt lat="58.462066976353526" lon="-4.702756963670254">
        <ele>36.670000000000002</ele>
        <time>2019-09-03T10:57:25Z</time>
      </trkpt>
      <trkpt lat="58.461944013834" lon="-4.702809015288949">
        <ele>36.670000000000002</ele>
        <time>2019-09-03T10:57:26Z</time>
      </trkpt>
      <trkpt lat="58.461813004687428" lon="-4.702865006402135">
        <ele>36.670000000000002</ele>
        <time>2019-09-03T10:57:27Z</time>
      </trkpt>
      <trkpt lat="58.461679983884096" lon="-4.702920997515321">
        <ele>36.670000000000002</ele>
        <time>2019-09-03T10:57:28Z</time>
      </trkpt>
      <trkpt lat="58.461554003879428" lon="-4.702984029427171">
        <ele>36.670000000000002</ele>
        <time>2019-09-03T10:57:29Z</time>
      </trkpt>
      <trkpt lat="58.461440009996295" lon="-4.703076984733343">
        <ele>36.189999999999998</ele>
        <time>2019-09-03T10:57:30Z</time>
      </trkpt>
      <trkpt lat="58.461330961436033" lon="-4.703178992494941">
        <ele>36.189999999999998</ele>
        <time>2019-09-03T10:57:31Z</time>
      </trkpt>
      <trkpt lat="58.461244041100144" lon="-4.703354006633163">
        <ele>35.710000000000001</ele>
        <time>2019-09-03T10:57:32Z</time>
      </trkpt>
      <trkpt lat="58.461156031116843" lon="-4.703548969700933">
        <ele>35.710000000000001</ele>
        <time>2019-09-03T10:57:33Z</time>
      </trkpt>
      <trkpt lat="58.461083024740219" lon="-4.703789027407765">
        <ele>35.710000000000001</ele>
        <time>2019-09-03T10:57:34Z</time>
      </trkpt>
      <trkpt lat="58.461007000878453" lon="-4.70403696410358">
        <ele>35.710000000000001</ele>
        <time>2019-09-03T10:57:35Z</time>
      </trkpt>
      <trkpt lat="58.460931982845068" lon="-4.704283978790045">
        <ele>36.189999999999998</ele>
        <time>2019-09-03T10:57:36Z</time>
      </trkpt>
      <trkpt lat="58.460860988125205" lon="-4.704514984041452">
        <ele>36.189999999999998</ele>
        <time>2019-09-03T10:57:37Z</time>
      </trkpt>
      <trkpt lat="58.460795022547245" lon="-4.704730985686183">
        <ele>36.189999999999998</ele>
        <time>2019-09-03T10:57:38Z</time>
      </trkpt>
      <trkpt lat="58.46069703809917" lon="-4.704884039238095">
        <ele>36.189999999999998</ele>
        <time>2019-09-03T10:57:39Z</time>
      </trkpt>
      <trkpt lat="58.460587989538908" lon="-4.705030974000692">
        <ele>36.189999999999998</ele>
        <time>2019-09-03T10:57:40Z</time>
      </trkpt>
      <trkpt lat="58.460472989827394" lon="-4.705187967047095">
        <ele>36.189999999999998</ele>
        <time>2019-09-03T10:57:41Z</time>
      </trkpt>
      <trkpt lat="58.460352038964629" lon="-4.705349989235401">
        <ele>36.189999999999998</ele>
        <time>2019-09-03T10:57:42Z</time>
      </trkpt>
      <trkpt lat="58.45999295823276" lon="-4.705834966152906">
        <ele>36.189999999999998</ele>
        <time>2019-09-03T10:57:45Z</time>
      </trkpt>
      <trkpt lat="58.459888016805053" lon="-4.706017021089792">
        <ele>36.189999999999998</ele>
        <time>2019-09-03T10:57:46Z</time>
      </trkpt>
      <trkpt lat="58.45979698933661" lon="-4.706231011077762">
        <ele>36.189999999999998</ele>
        <time>2019-09-03T10:57:47Z</time>
      </trkpt>
      <trkpt lat="58.45971199683845" lon="-4.706431003287435">
        <ele>36.189999999999998</ele>
        <time>2019-09-03T10:57:48Z</time>
      </trkpt>
      <trkpt lat="58.459632033482194" lon="-4.706620015203953">
        <ele>36.670000000000002</ele>
        <time>2019-09-03T10:57:49Z</time>
      </trkpt>
      <trkpt lat="58.459556009620428" lon="-4.706799974665046">
        <ele>36.670000000000002</ele>
        <time>2019-09-03T10:57:50Z</time>
      </trkpt>
      <trkpt lat="58.459485014900565" lon="-4.706969037652016">
        <ele>36.670000000000002</ele>
        <time>2019-09-03T10:57:51Z</time>
      </trkpt>
      <trkpt lat="58.45938803628087" lon="-4.707097029313445">
        <ele>37.149999999999999</ele>
        <time>2019-09-03T10:57:52Z</time>
      </trkpt>
      <trkpt lat="58.459285022690892" lon="-4.707184033468366">
        <ele>37.149999999999999</ele>
        <time>2019-09-03T10:57:53Z</time>
      </trkpt>
      <trkpt lat="58.45917496830225" lon="-4.707276988774538">
        <ele>37.630000000000003</ele>
        <time>2019-09-03T10:57:54Z</time>
      </trkpt>
      <trkpt lat="58.459058962762356" lon="-4.70732300542295">
        <ele>37.630000000000003</ele>
        <time>2019-09-03T10:57:55Z</time>
      </trkpt>
      <trkpt lat="58.458934994414449" lon="-4.707371033728123">
        <ele>37.630000000000003</ele>
        <time>2019-09-03T10:57:56Z</time>
      </trkpt>
      <trkpt lat="58.4588080085814" lon="-4.707420989871025">
        <ele>37.630000000000003</ele>
        <time>2019-09-03T10:57:57Z</time>
      </trkpt>
      <trkpt lat="58.458543978631496" lon="-4.707525009289384">
        <ele>37.149999999999999</ele>
        <time>2019-09-03T10:57:59Z</time>
      </trkpt>
      <trkpt lat="58.458416992798448" lon="-4.70760203897953">
        <ele>37.149999999999999</ele>
        <time>2019-09-03T10:58:00Z</time>
      </trkpt>
      <trkpt lat="58.458293024450541" lon="-4.707715027034283">
        <ele>37.149999999999999</ele>
        <time>2019-09-03T10:58:01Z</time>
      </trkpt>
      <trkpt lat="58.458176013082266" lon="-4.707851987332106">
        <ele>37.149999999999999</ele>
        <time>2019-09-03T10:58:02Z</time>
      </trkpt>
      <trkpt lat="58.458075011149049" lon="-4.70803102478385">
        <ele>37.149999999999999</ele>
        <time>2019-09-03T10:58:03Z</time>
      </trkpt>
      <trkpt lat="58.457973003387451" lon="-4.708210984244943">
        <ele>37.149999999999999</ele>
        <time>2019-09-03T10:58:04Z</time>
      </trkpt>
      <trkpt lat="58.45788499340415" lon="-4.708434026688337">
        <ele>37.149999999999999</ele>
        <time>2019-09-03T10:58:05Z</time>
      </trkpt>
      <trkpt lat="58.457808969542384" lon="-4.708684980869293">
        <ele>37.149999999999999</ele>
        <time>2019-09-03T10:58:06Z</time>
      </trkpt>
      <trkpt lat="58.457730012014508" lon="-4.708941970020533">
        <ele>37.149999999999999</ele>
        <time>2019-09-03T10:58:07Z</time>
      </trkpt>
      <trkpt lat="58.457301026210189" lon="-4.710751958191395">
        <ele>38.590000000000003</ele>
        <time>2019-09-03T10:58:14Z</time>
      </trkpt>
      <trkpt lat="58.457294991239905" lon="-4.710991010069847">
        <ele>38.590000000000003</ele>
        <time>2019-09-03T10:58:15Z</time>
      </trkpt>
      <trkpt lat="58.457307983189821" lon="-4.711225032806397">
        <ele>38.590000000000003</ele>
        <time>2019-09-03T10:58:16Z</time>
      </trkpt>
      <trkpt lat="58.457344025373459" lon="-4.71144899725914">
        <ele>38.590000000000003</ele>
        <time>2019-09-03T10:58:17Z</time>
      </trkpt>
      <trkpt lat="58.457380989566445" lon="-4.711676985025406">
        <ele>38.590000000000003</ele>
        <time>2019-09-03T10:58:18Z</time>
      </trkpt>
      <trkpt lat="58.457417031750083" lon="-4.711902039125562">
        <ele>38.590000000000003</ele>
        <time>2019-09-03T10:58:19Z</time>
      </trkpt>
      <trkpt lat="58.457452990114689" lon="-4.712124997749925">
        <ele>38.590000000000003</ele>
        <time>2019-09-03T10:58:20Z</time>
      </trkpt>
      <trkpt lat="58.457489032298326" lon="-4.712350973859429">
        <ele>38.590000000000003</ele>
        <time>2019-09-03T10:58:21Z</time>
      </trkpt>
      <trkpt lat="58.457494983449578" lon="-4.712603017687798">
        <ele>37.630000000000003</ele>
        <time>2019-09-03T10:58:22Z</time>
      </trkpt>
      <trkpt lat="58.457484003156424" lon="-4.712857995182276">
        <ele>37.630000000000003</ele>
        <time>2019-09-03T10:58:23Z</time>
      </trkpt>
      <trkpt lat="58.457457013428211" lon="-4.713119007647038">
        <ele>37.630000000000003</ele>
        <time>2019-09-03T10:58:24Z</time>
      </trkpt>
      <trkpt lat="58.457417031750083" lon="-4.713387982919812">
        <ele>37.149999999999999</ele>
        <time>2019-09-03T10:58:25Z</time>
      </trkpt>
      <trkpt lat="58.457375038415194" lon="-4.713666010648012">
        <ele>37.149999999999999</ele>
        <time>2019-09-03T10:58:26Z</time>
      </trkpt>
      <trkpt lat="58.456842033192515" lon="-4.716922966763377">
        <ele>33.780000000000001</ele>
        <time>2019-09-03T10:58:38Z</time>
      </trkpt>
      <trkpt lat="58.456136025488377" lon="-4.719138974323869">
        <ele>26.09</ele>
        <time>2019-09-03T10:58:47Z</time>
      </trkpt>
      <trkpt lat="58.455646019428968" lon="-4.721072008833289">
        <ele>9.75</ele>
        <time>2019-09-03T10:58:55Z</time>
      </trkpt>
      <trkpt lat="58.455635039135814" lon="-4.721302008256316">
        <ele>8.310000000000001</ele>
        <time>2019-09-03T10:58:56Z</time>
      </trkpt>
      <trkpt lat="58.455635039135814" lon="-4.721541982144117">
        <ele>7.35</ele>
        <time>2019-09-03T10:58:57Z</time>
      </trkpt>
      <trkpt lat="58.455635039135814" lon="-4.721778016537428">
        <ele>6.87</ele>
        <time>2019-09-03T10:58:58Z</time>
      </trkpt>
      <trkpt lat="58.455653982236981" lon="-4.722000975161791">
        <ele>6.39</ele>
        <time>2019-09-03T10:58:59Z</time>
      </trkpt>
      <trkpt lat="58.455701004713774" lon="-4.722218988463283">
        <ele>5.91</ele>
        <time>2019-09-03T10:59:00Z</time>
      </trkpt>
      <trkpt lat="58.455747021362185" lon="-4.722433984279633">
        <ele>5.42</ele>
        <time>2019-09-03T10:59:01Z</time>
      </trkpt>
      <trkpt lat="58.455793960019946" lon="-4.722655015066266">
        <ele>5.42</ele>
        <time>2019-09-03T10:59:02Z</time>
      </trkpt>
      <trkpt lat="58.455857997760177" lon="-4.722872022539377">
        <ele>5.42</ele>
        <time>2019-09-03T10:59:03Z</time>
      </trkpt>
      <trkpt lat="58.455960005521774" lon="-4.723074026405811">
        <ele>5.42</ele>
        <time>2019-09-03T10:59:04Z</time>
      </trkpt>
      <trkpt lat="58.456068970263004" lon="-4.723290028050542">
        <ele>5.42</ele>
        <time>2019-09-03T10:59:05Z</time>
      </trkpt>
      <trkpt lat="58.456175001338124" lon="-4.723498988896608">
        <ele>5.42</ele>
        <time>2019-09-03T10:59:06Z</time>
      </trkpt>
      <trkpt lat="58.456270974129438" lon="-4.723690012469888">
        <ele>5.91</ele>
        <time>2019-09-03T10:59:07Z</time>
      </trkpt>
      <trkpt lat="58.456880003213882" lon="-4.724933970719576">
        <ele>4.94</ele>
        <time>2019-09-03T10:59:15Z</time>
      </trkpt>
      <trkpt lat="58.456927025690675" lon="-4.725115019828081">
        <ele>4.94</ele>
        <time>2019-09-03T10:59:16Z</time>
      </trkpt>
      <trkpt lat="58.456972036510706" lon="-4.725291039794684">
        <ele>4.94</ele>
        <time>2019-09-03T10:59:17Z</time>
      </trkpt>
      <trkpt lat="58.457002965733409" lon="-4.725482985377312">
        <ele>5.42</ele>
        <time>2019-09-03T10:59:18Z</time>
      </trkpt>
      <trkpt lat="58.456986034289002" lon="-4.725653976202011">
        <ele>5.42</ele>
        <time>2019-09-03T10:59:19Z</time>
      </trkpt>
      <trkpt lat="58.456969019025564" lon="-4.725822033360601">
        <ele>5.91</ele>
        <time>2019-09-03T10:59:20Z</time>
      </trkpt>
      <trkpt lat="58.456899030134082" lon="-4.725983971729875">
        <ele>6.39</ele>
        <time>2019-09-03T10:59:21Z</time>
      </trkpt>
      <trkpt lat="58.456828035414219" lon="-4.726115986704826">
        <ele>6.39</ele>
        <time>2019-09-03T10:59:22Z</time>
      </trkpt>
      <trkpt lat="58.456744970753789" lon="-4.726203996688128">
        <ele>7.35</ele>
        <time>2019-09-03T10:59:23Z</time>
      </trkpt>
      <trkpt lat="58.456642040982842" lon="-4.726254036650062">
        <ele>7.35</ele>
        <time>2019-09-03T10:59:24Z</time>
      </trkpt>
      <trkpt lat="58.456528969109058" lon="-4.726309021934867">
        <ele>7.35</ele>
        <time>2019-09-03T10:59:25Z</time>
      </trkpt>
      <trkpt lat="58.455640990287066" lon="-4.72689701244235">
        <ele>8.789999999999999</ele>
        <time>2019-09-03T10:59:34Z</time>
      </trkpt>
      <trkpt lat="58.454767009243369" lon="-4.727945001795888">
        <ele>8.789999999999999</ele>
        <time>2019-09-03T10:59:45Z</time>
      </trkpt>
      <trkpt lat="58.453875007107854" lon="-4.728866005316377">
        <ele>8.310000000000001</ele>
        <time>2019-09-03T10:59:55Z</time>
      </trkpt>
      <trkpt lat="58.453150978311896" lon="-4.729974009096623">
        <ele>9.27</ele>
        <time>2019-09-03T11:00:03Z</time>
      </trkpt>
      <trkpt lat="58.453049976378679" lon="-4.730112981051207">
        <ele>9.75</ele>
        <time>2019-09-03T11:00:04Z</time>
      </trkpt>
      <trkpt lat="58.452929025515914" lon="-4.730215994641185">
        <ele>9.75</ele>
        <time>2019-09-03T11:00:05Z</time>
      </trkpt>
      <trkpt lat="58.452803967520595" lon="-4.730323031544685">
        <ele>9.75</ele>
        <time>2019-09-03T11:00:06Z</time>
      </trkpt>
      <trkpt lat="58.452677987515926" lon="-4.730429984629154">
        <ele>9.75</ele>
        <time>2019-09-03T11:00:07Z</time>
      </trkpt>
      <trkpt lat="58.451631003990769" lon="-4.731329027563334">
        <ele>10.23</ele>
        <time>2019-09-03T11:00:17Z</time>
      </trkpt>
      <trkpt lat="58.451541988179088" lon="-4.731467999517918">
        <ele>10.23</ele>
        <time>2019-09-03T11:00:18Z</time>
      </trkpt>
      <trkpt lat="58.451446015387774" lon="-4.731617029756308">
        <ele>10.23</ele>
        <time>2019-09-03T11:00:19Z</time>
      </trkpt>
      <trkpt lat="58.451344007626176" lon="-4.731776034459472">
        <ele>10.710000000000001</ele>
        <time>2019-09-03T11:00:20Z</time>
      </trkpt>
      <trkpt lat="58.451239988207817" lon="-4.731938978657126">
        <ele>10.710000000000001</ele>
        <time>2019-09-03T11:00:21Z</time>
      </trkpt>
      <trkpt lat="58.450806979089975" lon="-4.73261296749115">
        <ele>11.67</ele>
        <time>2019-09-03T11:00:25Z</time>
      </trkpt>
      <trkpt lat="58.450700026005507" lon="-4.732760991901159">
        <ele>11.67</ele>
        <time>2019-09-03T11:00:26Z</time>
      </trkpt>
      <trkpt lat="58.450575973838568" lon="-4.732840033248067">
        <ele>11.67</ele>
        <time>2019-09-03T11:00:27Z</time>
      </trkpt>
      <trkpt lat="58.450449993833899" lon="-4.732921002432704">
        <ele>11.67</ele>
        <time>2019-09-03T11:00:28Z</time>
      </trkpt>
      <trkpt lat="58.450319990515709" lon="-4.733004989102483">
        <ele>11.67</ele>
        <time>2019-09-03T11:00:29Z</time>
      </trkpt>
      <trkpt lat="58.448943011462688" lon="-4.734016014263034">
        <ele>11.67</ele>
        <time>2019-09-03T11:00:39Z</time>
      </trkpt>
      <trkpt lat="58.447875995188951" lon="-4.734855964779854">
        <ele>10.23</ele>
        <time>2019-09-03T11:00:47Z</time>
      </trkpt>
      <trkpt lat="58.446762040257454" lon="-4.735916024073958">
        <ele>9.75</ele>
        <time>2019-09-03T11:00:56Z</time>
      </trkpt>
      <trkpt lat="58.445644984021783" lon="-4.737540017813444">
        <ele>4.46</ele>
        <time>2019-09-03T11:01:05Z</time>
      </trkpt>
      <trkpt lat="58.445089012384415" lon="-4.738748017698526">
        <ele>2.06</ele>
        <time>2019-09-03T11:01:11Z</time>
      </trkpt>
      <trkpt lat="58.445028997957706" lon="-4.739001989364624">
        <ele>2.06</ele>
        <time>2019-09-03T11:01:12Z</time>
      </trkpt>
      <trkpt lat="58.444980969652534" lon="-4.739269036799669">
        <ele>1.58</ele>
        <time>2019-09-03T11:01:13Z</time>
      </trkpt>
      <trkpt lat="58.444952974095941" lon="-4.739549998193979">
        <ele>1.58</ele>
        <time>2019-09-03T11:01:14Z</time>
      </trkpt>
      <trkpt lat="58.444923972710967" lon="-4.739836994558573">
        <ele>1.58</ele>
        <time>2019-09-03T11:01:15Z</time>
      </trkpt>
      <trkpt lat="58.444895977154374" lon="-4.740123990923166">
        <ele>2.06</ele>
        <time>2019-09-03T11:01:16Z</time>
      </trkpt>
      <trkpt lat="58.444878039881587" lon="-4.740412998944521">
        <ele>2.06</ele>
        <time>2019-09-03T11:01:17Z</time>
      </trkpt>
      <trkpt lat="58.444815007969737" lon="-4.743426041677594">
        <ele>9.27</ele>
        <time>2019-09-03T11:01:28Z</time>
      </trkpt>
      <trkpt lat="58.444721968844533" lon="-4.745950000360608">
        <ele>11.67</ele>
        <time>2019-09-03T11:01:39Z</time>
      </trkpt>
      <trkpt lat="58.444338999688625" lon="-4.74891996011138">
        <ele>15.039999999999999</ele>
        <time>2019-09-03T11:01:52Z</time>
      </trkpt>
      <trkpt lat="58.444047980010509" lon="-4.751169998198748">
        <ele>16.48</ele>
        <time>2019-09-03T11:02:03Z</time>
      </trkpt>
      <trkpt lat="58.443859973922372" lon="-4.752746969461441">
        <ele>18.399999999999999</ele>
        <time>2019-09-03T11:02:10Z</time>
      </trkpt>
      <trkpt lat="58.44387698918581" lon="-4.752989960834384">
        <ele>18.399999999999999</ele>
        <time>2019-09-03T11:02:11Z</time>
      </trkpt>
      <trkpt lat="58.443895010277629" lon="-4.753242004662752">
        <ele>18.399999999999999</ele>
        <time>2019-09-03T11:02:12Z</time>
      </trkpt>
      <trkpt lat="58.443947983905673" lon="-4.753486001864076">
        <ele>17.920000000000002</ele>
        <time>2019-09-03T11:02:13Z</time>
      </trkpt>
      <trkpt lat="58.444007998332381" lon="-4.753723964095116">
        <ele>17.440000000000001</ele>
        <time>2019-09-03T11:02:14Z</time>
      </trkpt>
      <trkpt lat="58.444102965295315" lon="-4.75392697378993">
        <ele>16.960000000000001</ele>
        <time>2019-09-03T11:02:15Z</time>
      </trkpt>
      <trkpt lat="58.444204973056912" lon="-4.754100982099772">
        <ele>16.48</ele>
        <time>2019-09-03T11:02:16Z</time>
      </trkpt>
      <trkpt lat="58.444330031052232" lon="-4.754240037873387">
        <ele>15.52</ele>
        <time>2019-09-03T11:02:17Z</time>
      </trkpt>
      <trkpt lat="58.444471014663577" lon="-4.754361994564533">
        <ele>15.039999999999999</ele>
        <time>2019-09-03T11:02:18Z</time>
      </trkpt>
      <trkpt lat="58.444619961082935" lon="-4.754490992054343">
        <ele>14.56</ele>
        <time>2019-09-03T11:02:19Z</time>
      </trkpt>
      <trkpt lat="58.445861991494894" lon="-4.755610981956124">
        <ele>12.15</ele>
        <time>2019-09-03T11:02:28Z</time>
      </trkpt>
      <trkpt lat="58.446009010076523" lon="-4.755779961124063">
        <ele>11.19</ele>
        <time>2019-09-03T11:02:29Z</time>
      </trkpt>
      <trkpt lat="58.446158962324262" lon="-4.755956986919045">
        <ele>10.710000000000001</ele>
        <time>2019-09-03T11:02:30Z</time>
      </trkpt>
      <trkpt lat="58.446955997496843" lon="-4.757304964587092">
        <ele>12.630000000000001</ele>
        <time>2019-09-03T11:02:37Z</time>
      </trkpt>
      <trkpt lat="58.447610037401319" lon="-4.758444987237454">
        <ele>13.6</ele>
        <time>2019-09-03T11:02:44Z</time>
      </trkpt>
      <trkpt lat="58.447673991322517" lon="-4.758618995547295">
        <ele>13.6</ele>
        <time>2019-09-03T11:02:45Z</time>
      </trkpt>
      <trkpt lat="58.447727970778942" lon="-4.758817981928587">
        <ele>13.6</ele>
        <time>2019-09-03T11:02:46Z</time>
      </trkpt>
      <trkpt lat="58.447783039882779" lon="-4.759023003280163">
        <ele>13.6</ele>
        <time>2019-09-03T11:02:47Z</time>
      </trkpt>
      <trkpt lat="58.447825033217669" lon="-4.759244034066796">
        <ele>14.08</ele>
        <time>2019-09-03T11:02:48Z</time>
      </trkpt>
      <trkpt lat="58.447861997410655" lon="-4.759480990469456">
        <ele>14.08</ele>
        <time>2019-09-03T11:02:49Z</time>
      </trkpt>
      <trkpt lat="58.448215965181589" lon="-4.761592978611589">
        <ele>13.119999999999999</ele>
        <time>2019-09-03T11:02:58Z</time>
      </trkpt>
      <trkpt lat="58.448292994871736" lon="-4.761772016063333">
        <ele>12.630000000000001</ele>
        <time>2019-09-03T11:02:59Z</time>
      </trkpt>
      <trkpt lat="58.448378993198276" lon="-4.761950969696045">
        <ele>12.630000000000001</ele>
        <time>2019-09-03T11:03:00Z</time>
      </trkpt>
      <trkpt lat="58.448498016223311" lon="-4.762090025469661">
        <ele>12.15</ele>
        <time>2019-09-03T11:03:01Z</time>
      </trkpt>
      <trkpt lat="58.448617961257696" lon="-4.762230003252626">
        <ele>11.67</ele>
        <time>2019-09-03T11:03:02Z</time>
      </trkpt>
      <trkpt lat="58.448761962354183" lon="-4.762280965223908">
        <ele>10.710000000000001</ele>
        <time>2019-09-03T11:03:03Z</time>
      </trkpt>
      <trkpt lat="58.448896994814277" lon="-4.762329999357462">
        <ele>10.23</ele>
        <time>2019-09-03T11:03:04Z</time>
      </trkpt>
      <trkpt lat="58.449029009789228" lon="-4.762293035164475">
        <ele>9.75</ele>
        <time>2019-09-03T11:03:05Z</time>
      </trkpt>
      <trkpt lat="58.449153983965516" lon="-4.762228997424245">
        <ele>9.27</ele>
        <time>2019-09-03T11:03:06Z</time>
      </trkpt>
      <trkpt lat="58.449274012818933" lon="-4.762099999934435">
        <ele>8.310000000000001</ele>
        <time>2019-09-03T11:03:07Z</time>
      </trkpt>
      <trkpt lat="58.449406027793884" lon="-4.761958010494709">
        <ele>7.83</ele>
        <time>2019-09-03T11:03:08Z</time>
      </trkpt>
      <trkpt lat="58.449528990313411" lon="-4.761759024113417">
        <ele>7.35</ele>
        <time>2019-09-03T11:03:09Z</time>
      </trkpt>
      <trkpt lat="58.449659999459982" lon="-4.761545034125447">
        <ele>6.87</ele>
        <time>2019-09-03T11:03:10Z</time>
      </trkpt>
      <trkpt lat="58.449939033016562" lon="-4.761116970330477">
        <ele>5.91</ele>
        <time>2019-09-03T11:03:12Z</time>
      </trkpt>
      <trkpt lat="58.451046030968428" lon="-4.759862031787634">
        <ele>5.42</ele>
        <time>2019-09-03T11:03:20Z</time>
      </trkpt>
      <trkpt lat="58.451320035383105" lon="-4.759584004059434">
        <ele>5.91</ele>
        <time>2019-09-03T11:03:22Z</time>
      </trkpt>
      <trkpt lat="58.451468981802464" lon="-4.759466992691159">
        <ele>6.39</ele>
        <time>2019-09-03T11:03:23Z</time>
      </trkpt>
      <trkpt lat="58.452734984457493" lon="-4.758954020217061">
        <ele>7.83</ele>
        <time>2019-09-03T11:03:32Z</time>
      </trkpt>
      <trkpt lat="58.453019969165325" lon="-4.758840026333928">
        <ele>7.83</ele>
        <time>2019-09-03T11:03:34Z</time>
      </trkpt>
      <trkpt lat="58.453163970261812" lon="-4.758870033547282">
        <ele>7.83</ele>
        <time>2019-09-03T11:03:35Z</time>
      </trkpt>
      <trkpt lat="58.453305037692189" lon="-4.758900040760636">
        <ele>7.83</ele>
        <time>2019-09-03T11:03:36Z</time>
      </trkpt>
      <trkpt lat="58.453435963019729" lon="-4.758927030488849">
        <ele>8.310000000000001</ele>
        <time>2019-09-03T11:03:37Z</time>
      </trkpt>
      <trkpt lat="58.453560015186667" lon="-4.758957037702203">
        <ele>8.310000000000001</ele>
        <time>2019-09-03T11:03:38Z</time>
      </trkpt>
      <trkpt lat="58.45504998229444" lon="-4.759366996586323">
        <ele>11.19</ele>
        <time>2019-09-03T11:03:50Z</time>
      </trkpt>
      <trkpt lat="58.45607802271843" lon="-4.75951099768281">
        <ele>14.56</ele>
        <time>2019-09-03T11:03:57Z</time>
      </trkpt>
      <trkpt lat="58.456569034606218" lon="-4.759631026536226">
        <ele>16.960000000000001</ele>
        <time>2019-09-03T11:04:01Z</time>
      </trkpt>
      <trkpt lat="58.456695014610887" lon="-4.759637983515859">
        <ele>17.920000000000002</ele>
        <time>2019-09-03T11:04:02Z</time>
      </trkpt>
      <trkpt lat="58.456822000443935" lon="-4.759564977139235">
        <ele>18.399999999999999</ele>
        <time>2019-09-03T11:04:03Z</time>
      </trkpt>
      <trkpt lat="58.456964995712042" lon="-4.759483002126217">
        <ele>18.879999999999999</ele>
        <time>2019-09-03T11:04:04Z</time>
      </trkpt>
      <trkpt lat="58.457086030393839" lon="-4.759376971051097">
        <ele>18.879999999999999</ele>
        <time>2019-09-03T11:04:05Z</time>
      </trkpt>
      <trkpt lat="58.458713963627815" lon="-4.758069980889559">
        <ele>21.77</ele>
        <time>2019-09-03T11:04:17Z</time>
      </trkpt>
      <trkpt lat="58.460225975140929" lon="-4.756809007376432">
        <ele>23.210000000000001</ele>
        <time>2019-09-03T11:04:27Z</time>
      </trkpt>
      <trkpt lat="58.461488038301468" lon="-4.755132040008903">
        <ele>21.77</ele>
        <time>2019-09-03T11:04:36Z</time>
      </trkpt>
      <trkpt lat="58.462601993232965" lon="-4.753457000479102">
        <ele>20.32</ele>
        <time>2019-09-03T11:04:45Z</time>
      </trkpt>
      <trkpt lat="58.463224014267325" lon="-4.751853961497545">
        <ele>20.809999999999999</ele>
        <time>2019-09-03T11:04:53Z</time>
      </trkpt>
      <trkpt lat="58.463316969573498" lon="-4.751671990379691">
        <ele>20.809999999999999</ele>
        <time>2019-09-03T11:04:54Z</time>
      </trkpt>
      <trkpt lat="58.463615030050278" lon="-4.751142002642155">
        <ele>20.32</ele>
        <time>2019-09-03T11:04:57Z</time>
      </trkpt>
      <trkpt lat="58.463691975921392" lon="-4.750951984897256">
        <ele>20.32</ele>
        <time>2019-09-03T11:04:58Z</time>
      </trkpt>
      <trkpt lat="58.463847963139415" lon="-4.750567004084587">
        <ele>20.32</ele>
        <time>2019-09-03T11:05:00Z</time>
      </trkpt>
      <trkpt lat="58.463938990607858" lon="-4.750342033803463">
        <ele>20.32</ele>
        <time>2019-09-03T11:05:01Z</time>
      </trkpt>
      <trkpt lat="58.464025994762778" lon="-4.75018797442317">
        <ele>20.32</ele>
        <time>2019-09-03T11:05:02Z</time>
      </trkpt>
      <trkpt lat="58.464671988040209" lon="-4.74898399785161">
        <ele>19.84</ele>
        <time>2019-09-03T11:05:10Z</time>
      </trkpt>
      <trkpt lat="58.464917996898293" lon="-4.748341022059321">
        <ele>19.359999999999999</ele>
        <time>2019-09-03T11:05:18Z</time>
      </trkpt>
      <trkpt lat="58.464971976354718" lon="-4.748200038447976">
        <ele>19.359999999999999</ele>
        <time>2019-09-03T11:05:20Z</time>
      </trkpt>
      <trkpt lat="58.465037019923329" lon="-4.748028963804245">
        <ele>19.359999999999999</ele>
        <time>2019-09-03T11:05:22Z</time>
      </trkpt>
      <trkpt lat="58.465133998543024" lon="-4.747898038476706">
        <ele>19.359999999999999</ele>
        <time>2019-09-03T11:05:24Z</time>
      </trkpt>
      <trkpt lat="58.465196024626493" lon="-4.747829977422953">
        <ele>19.359999999999999</ele>
        <time>2019-09-03T11:05:25Z</time>
      </trkpt>
      <trkpt lat="58.465268025174737" lon="-4.747754037380219">
        <ele>20.32</ele>
        <time>2019-09-03T11:05:26Z</time>
      </trkpt>
      <trkpt lat="58.465995993465185" lon="-4.74707200191915">
        <ele>21.77</ele>
        <time>2019-09-03T11:05:34Z</time>
      </trkpt>
      <trkpt lat="58.466891013085842" lon="-4.746373035013676">
        <ele>22.25</ele>
        <time>2019-09-03T11:05:44Z</time>
      </trkpt>
      <trkpt lat="58.467193013057113" lon="-4.746014960110188">
        <ele>22.25</ele>
        <time>2019-09-03T11:05:51Z</time>
      </trkpt>
      <trkpt lat="58.467894997447729" lon="-4.745053974911571">
        <ele>24.170000000000002</ele>
        <time>2019-09-03T11:05:59Z</time>
      </trkpt>
      <trkpt lat="58.468020977452397" lon="-4.744964959099889">
        <ele>24.170000000000002</ele>
        <time>2019-09-03T11:06:00Z</time>
      </trkpt>
      <trkpt lat="58.469173992052674" lon="-4.744131965562701">
        <ele>23.210000000000001</ele>
        <time>2019-09-03T11:06:08Z</time>
      </trkpt>
      <trkpt lat="58.469311036169529" lon="-4.743963992223144">
        <ele>23.210000000000001</ele>
        <time>2019-09-03T11:06:09Z</time>
      </trkpt>
      <trkpt lat="58.469439027830958" lon="-4.74378202110529">
        <ele>22.73</ele>
        <time>2019-09-03T11:06:10Z</time>
      </trkpt>
      <trkpt lat="58.469547992572188" lon="-4.743557972833514">
        <ele>22.73</ele>
        <time>2019-09-03T11:06:11Z</time>
      </trkpt>
      <trkpt lat="58.469661986455321" lon="-4.743322022259235">
        <ele>22.73</ele>
        <time>2019-09-03T11:06:12Z</time>
      </trkpt>
      <trkpt lat="58.470538984984159" lon="-4.7416159696877">
        <ele>23.690000000000001</ele>
        <time>2019-09-03T11:06:20Z</time>
      </trkpt>
      <trkpt lat="58.470665970817208" lon="-4.74146299995482">
        <ele>23.690000000000001</ele>
        <time>2019-09-03T11:06:21Z</time>
      </trkpt>
      <trkpt lat="58.471341971307993" lon="-4.740652972832322">
        <ele>24.170000000000002</ele>
        <time>2019-09-03T11:06:26Z</time>
      </trkpt>
      <trkpt lat="58.471464011818171" lon="-4.740437977015972">
        <ele>24.170000000000002</ele>
        <time>2019-09-03T11:06:27Z</time>
      </trkpt>
      <trkpt lat="58.472616020590067" lon="-4.738086014986038">
        <ele>23.690000000000001</ele>
        <time>2019-09-03T11:06:36Z</time>
      </trkpt>
      <trkpt lat="58.473209040239453" lon="-4.737026961520314">
        <ele>24.170000000000002</ele>
        <time>2019-09-03T11:06:42Z</time>
      </trkpt>
      <trkpt lat="58.474173964932561" lon="-4.736138982698321">
        <ele>25.129999999999999</ele>
        <time>2019-09-03T11:06:50Z</time>
      </trkpt>
      <trkpt lat="58.475837018340826" lon="-4.734916985034943">
        <ele>25.129999999999999</ele>
        <time>2019-09-03T11:07:02Z</time>
      </trkpt>
      <trkpt lat="58.477381970733404" lon="-4.733903026208282">
        <ele>24.649999999999999</ele>
        <time>2019-09-03T11:07:11Z</time>
      </trkpt>
      <trkpt lat="58.477691011503339" lon="-4.733650982379913">
        <ele>24.170000000000002</ele>
        <time>2019-09-03T11:07:13Z</time>
      </trkpt>
      <trkpt lat="58.477840963751078" lon="-4.733501030132175">
        <ele>24.649999999999999</ele>
        <time>2019-09-03T11:07:14Z</time>
      </trkpt>
      <trkpt lat="58.478894988074899" lon="-4.732758980244398">
        <ele>24.170000000000002</ele>
        <time>2019-09-03T11:07:21Z</time>
      </trkpt>
      <trkpt lat="58.47902599722147" lon="-4.732638029381633">
        <ele>24.170000000000002</ele>
        <time>2019-09-03T11:07:22Z</time>
      </trkpt>
      <trkpt lat="58.479149965569377" lon="-4.732512971386313">
        <ele>23.690000000000001</ele>
        <time>2019-09-03T11:07:23Z</time>
      </trkpt>
      <trkpt lat="58.479272006079555" lon="-4.732384979724884">
        <ele>23.690000000000001</ele>
        <time>2019-09-03T11:07:24Z</time>
      </trkpt>
      <trkpt lat="58.479865025728941" lon="-4.731604037806392">
        <ele>22.73</ele>
        <time>2019-09-03T11:07:30Z</time>
      </trkpt>
      <trkpt lat="58.480988033115864" lon="-4.730957038700581">
        <ele>21.77</ele>
        <time>2019-09-03T11:07:37Z</time>
      </trkpt>
      <trkpt lat="58.481489019468427" lon="-4.730771966278553">
        <ele>20.32</ele>
        <time>2019-09-03T11:07:40Z</time>
      </trkpt>
      <trkpt lat="58.482643961906433" lon="-4.729791032150388">
        <ele>19.84</ele>
        <time>2019-09-03T11:07:48Z</time>
      </trkpt>
      <trkpt lat="58.484119009226561" lon="-4.728614967316389">
        <ele>21.289999999999999</ele>
        <time>2019-09-03T11:07:59Z</time>
      </trkpt>
      <trkpt lat="58.484395025297999" lon="-4.728282960131764">
        <ele>20.809999999999999</ele>
        <time>2019-09-03T11:08:01Z</time>
      </trkpt>
      <trkpt lat="58.484827028587461" lon="-4.727763030678034">
        <ele>21.289999999999999</ele>
        <time>2019-09-03T11:08:04Z</time>
      </trkpt>
      <trkpt lat="58.484973963350058" lon="-4.727603020146489">
        <ele>21.289999999999999</ele>
        <time>2019-09-03T11:08:05Z</time>
      </trkpt>
      <trkpt lat="58.485139003023505" lon="-4.727511992678046">
        <ele>21.77</ele>
        <time>2019-09-03T11:08:06Z</time>
      </trkpt>
      <trkpt lat="58.485303036868572" lon="-4.727420965209603">
        <ele>21.77</ele>
        <time>2019-09-03T11:08:07Z</time>
      </trkpt>
      <trkpt lat="58.485465981066227" lon="-4.727372014895082">
        <ele>22.25</ele>
        <time>2019-09-03T11:08:08Z</time>
      </trkpt>
      <trkpt lat="58.48562297411263" lon="-4.727333961054683">
        <ele>22.73</ele>
        <time>2019-09-03T11:08:09Z</time>
      </trkpt>
      <trkpt lat="58.485776027664542" lon="-4.727296996861696">
        <ele>23.210000000000001</ele>
        <time>2019-09-03T11:08:10Z</time>
      </trkpt>
      <trkpt lat="58.485932014882565" lon="-4.72726003266871">
        <ele>24.170000000000002</ele>
        <time>2019-09-03T11:08:11Z</time>
      </trkpt>
      <trkpt lat="58.486085990443826" lon="-4.727162970229983">
        <ele>24.649999999999999</ele>
        <time>2019-09-03T11:08:12Z</time>
      </trkpt>
      <trkpt lat="58.487235987558961" lon="-4.726567016914487">
        <ele>26.57</ele>
        <time>2019-09-03T11:08:20Z</time>
      </trkpt>
      <trkpt lat="58.48800896666944" lon="-4.726070975884795">
        <ele>25.609999999999999</ele>
        <time>2019-09-03T11:08:26Z</time>
      </trkpt>
      <trkpt lat="58.488142993301153" lon="-4.726005010306835">
        <ele>25.609999999999999</ele>
        <time>2019-09-03T11:08:27Z</time>
      </trkpt>
      <trkpt lat="58.488279031589627" lon="-4.725991012528539">
        <ele>25.609999999999999</ele>
        <time>2019-09-03T11:08:28Z</time>
      </trkpt>
      <trkpt lat="58.489346969872713" lon="-4.72554299980402">
        <ele>23.690000000000001</ele>
        <time>2019-09-03T11:08:36Z</time>
      </trkpt>
      <trkpt lat="58.489483008161187" lon="-4.725435040891171">
        <ele>23.690000000000001</ele>
        <time>2019-09-03T11:08:37Z</time>
      </trkpt>
      <trkpt lat="58.489594990387559" lon="-4.725239994004369">
        <ele>23.690000000000001</ele>
        <time>2019-09-03T11:08:38Z</time>
      </trkpt>
      <trkpt lat="58.489710995927453" lon="-4.725036984309554">
        <ele>23.690000000000001</ele>
        <time>2019-09-03T11:08:39Z</time>
      </trkpt>
      <trkpt lat="58.489827001467347" lon="-4.724833974614739">
        <ele>24.170000000000002</ele>
        <time>2019-09-03T11:08:40Z</time>
      </trkpt>
      <trkpt lat="58.490160014480352" lon="-4.724293006584048">
        <ele>26.09</ele>
        <time>2019-09-03T11:08:43Z</time>
      </trkpt>
      <trkpt lat="58.490296974778175" lon="-4.724198039621115">
        <ele>26.57</ele>
        <time>2019-09-03T11:08:44Z</time>
      </trkpt>
      <trkpt lat="58.490438964217901" lon="-4.724099971354008">
        <ele>27.050000000000001</ele>
        <time>2019-09-03T11:08:45Z</time>
      </trkpt>
      <trkpt lat="58.490566033869982" lon="-4.72408002242446">
        <ele>27.530000000000001</ele>
        <time>2019-09-03T11:08:46Z</time>
      </trkpt>
      <trkpt lat="58.490709029138088" lon="-4.724056972190738">
        <ele>28.02</ele>
        <time>2019-09-03T11:08:47Z</time>
      </trkpt>
      <trkpt lat="58.490857975557446" lon="-4.724034005776048">
        <ele>28.02</ele>
        <time>2019-09-03T11:08:48Z</time>
      </trkpt>
      <trkpt lat="58.491492988541722" lon="-4.723935015499592">
        <ele>28.98</ele>
        <time>2019-09-03T11:08:52Z</time>
      </trkpt>
      <trkpt lat="58.491654004901648" lon="-4.723864020779729">
        <ele>29.460000000000001</ele>
        <time>2019-09-03T11:08:53Z</time>
      </trkpt>
      <trkpt lat="58.491820972412825" lon="-4.723775004968047">
        <ele>29.940000000000001</ele>
        <time>2019-09-03T11:08:54Z</time>
      </trkpt>
      <trkpt lat="58.492408040910959" lon="-4.723224984481931">
        <ele>30.899999999999999</ele>
        <time>2019-09-03T11:08:58Z</time>
      </trkpt>
      <trkpt lat="58.492525974288583" lon="-4.723031027242541">
        <ele>30.899999999999999</ele>
        <time>2019-09-03T11:08:59Z</time>
      </trkpt>
      <trkpt lat="58.49264700897038" lon="-4.722831035032868">
        <ele>30.899999999999999</ele>
        <time>2019-09-03T11:09:00Z</time>
      </trkpt>
      <trkpt lat="58.493164004758" lon="-4.722046991810203">
        <ele>31.379999999999999</ele>
        <time>2019-09-03T11:09:04Z</time>
      </trkpt>
      <trkpt lat="58.493301970884204" lon="-4.721886981278658">
        <ele>31.379999999999999</ele>
        <time>2019-09-03T11:09:05Z</time>
      </trkpt>
      <trkpt lat="58.494556993246078" lon="-4.720790963619947">
        <ele>31.859999999999999</ele>
        <time>2019-09-03T11:09:14Z</time>
      </trkpt>
      <trkpt lat="58.494758997112513" lon="-4.720615027472377">
        <ele>32.340000000000003</ele>
        <time>2019-09-03T11:09:16Z</time>
      </trkpt>
      <trkpt lat="58.494848012924194" lon="-4.720486029982567">
        <ele>32.82</ele>
        <time>2019-09-03T11:09:17Z</time>
      </trkpt>
      <trkpt lat="58.49576398730278" lon="-4.719206029549241">
        <ele>34.740000000000002</ele>
        <time>2019-09-03T11:09:26Z</time>
      </trkpt>
      <trkpt lat="58.496535960584879" lon="-4.718567999079824">
        <ele>37.149999999999999</ele>
        <time>2019-09-03T11:09:32Z</time>
      </trkpt>
      <trkpt lat="58.496673004701734" lon="-4.718425003811717">
        <ele>37.630000000000003</ele>
        <time>2019-09-03T11:09:33Z</time>
      </trkpt>
      <trkpt lat="58.496806025505066" lon="-4.718242026865482">
        <ele>38.109999999999999</ele>
        <time>2019-09-03T11:09:34Z</time>
      </trkpt>
      <trkpt lat="58.496941979974508" lon="-4.718056032434106">
        <ele>38.590000000000003</ele>
        <time>2019-09-03T11:09:35Z</time>
      </trkpt>
      <trkpt lat="58.497050022706389" lon="-4.717814968898892">
        <ele>39.07</ele>
        <time>2019-09-03T11:09:36Z</time>
      </trkpt>
      <trkpt lat="58.497156975790858" lon="-4.717557979747653">
        <ele>39.549999999999997</ele>
        <time>2019-09-03T11:09:37Z</time>
      </trkpt>
      <trkpt lat="58.497260995209217" lon="-4.717306019738317">
        <ele>40.030000000000001</ele>
        <time>2019-09-03T11:09:38Z</time>
      </trkpt>
      <trkpt lat="58.497647987678647" lon="-4.716373030096293">
        <ele>40.509999999999998</ele>
        <time>2019-09-03T11:09:42Z</time>
      </trkpt>
      <trkpt lat="58.497764999046922" lon="-4.716162979602814">
        <ele>40.509999999999998</ele>
        <time>2019-09-03T11:09:43Z</time>
      </trkpt>
      <trkpt lat="58.499196041375399" lon="-4.714399008080363">
        <ele>41.950000000000003</ele>
        <time>2019-09-03T11:09:53Z</time>
      </trkpt>
      <trkpt lat="58.499339036643505" lon="-4.714193986728787">
        <ele>41.950000000000003</ele>
        <time>2019-09-03T11:09:54Z</time>
      </trkpt>
      <trkpt lat="58.499471973627806" lon="-4.713965998962522">
        <ele>41.950000000000003</ele>
        <time>2019-09-03T11:09:55Z</time>
      </trkpt>
      <trkpt lat="58.499589990824461" lon="-4.713706998154521">
        <ele>42.439999999999998</ele>
        <time>2019-09-03T11:09:56Z</time>
      </trkpt>
      <trkpt lat="58.500676034018397" lon="-4.711527032777667">
        <ele>42.439999999999998</ele>
        <time>2019-09-03T11:10:05Z</time>
      </trkpt>
      <trkpt lat="58.501167967915535" lon="-4.710663026198745">
        <ele>41.950000000000003</ele>
        <time>2019-09-03T11:10:11Z</time>
      </trkpt>
      <trkpt lat="58.501877998933196" lon="-4.709467012435198">
        <ele>41.950000000000003</ele>
        <time>2019-09-03T11:10:18Z</time>
      </trkpt>
      <trkpt lat="58.502843007445335" lon="-4.708500998094678">
        <ele>42.920000000000002</ele>
        <time>2019-09-03T11:10:25Z</time>
      </trkpt>
      <trkpt lat="58.503703996539116" lon="-4.707602960988879">
        <ele>44.840000000000003</ele>
        <time>2019-09-03T11:10:32Z</time>
      </trkpt>
      <trkpt lat="58.504084032028913" lon="-4.706895025447011">
        <ele>44.359999999999999</ele>
        <time>2019-09-03T11:10:36Z</time>
      </trkpt>
      <trkpt lat="58.504204982891679" lon="-4.706771979108453">
        <ele>44.359999999999999</ele>
        <time>2019-09-03T11:10:37Z</time>
      </trkpt>
      <trkpt lat="58.504336997866631" lon="-4.706682963296771">
        <ele>43.880000000000003</ele>
        <time>2019-09-03T11:10:38Z</time>
      </trkpt>
      <trkpt lat="58.504477981477976" lon="-4.706601994112134">
        <ele>43.399999999999999</ele>
        <time>2019-09-03T11:10:39Z</time>
      </trkpt>
      <trkpt lat="58.504625000059605" lon="-4.706548014655709">
        <ele>42.439999999999998</ele>
        <time>2019-09-03T11:10:40Z</time>
      </trkpt>
      <trkpt lat="58.505065971985459" lon="-4.706509960815311">
        <ele>40.509999999999998</ele>
        <time>2019-09-03T11:10:43Z</time>
      </trkpt>
      <trkpt lat="58.50521600805223" lon="-4.706535022705793">
        <ele>40.509999999999998</ele>
        <time>2019-09-03T11:10:44Z</time>
      </trkpt>
      <trkpt lat="58.505653962492943" lon="-4.706608029082418">
        <ele>39.549999999999997</ele>
        <time>2019-09-03T11:10:47Z</time>
      </trkpt>
      <trkpt lat="58.505792012438178" lon="-4.706568969413638">
        <ele>39.549999999999997</ele>
        <time>2019-09-03T11:10:48Z</time>
      </trkpt>
      <trkpt lat="58.50592796690762" lon="-4.706518007442355">
        <ele>39.07</ele>
        <time>2019-09-03T11:10:49Z</time>
      </trkpt>
      <trkpt lat="58.506067022681236" lon="-4.706466961652041">
        <ele>39.07</ele>
        <time>2019-09-03T11:10:50Z</time>
      </trkpt>
      <trkpt lat="58.506198031827807" lon="-4.706352967768908">
        <ele>39.07</ele>
        <time>2019-09-03T11:10:51Z</time>
      </trkpt>
      <trkpt lat="58.506327029317617" lon="-4.706231011077762">
        <ele>39.07</ele>
        <time>2019-09-03T11:10:52Z</time>
      </trkpt>
      <trkpt lat="58.506446974352002" lon="-4.70609899610281">
        <ele>39.07</ele>
        <time>2019-09-03T11:10:53Z</time>
      </trkpt>
      <trkpt lat="58.5065489821136" lon="-4.705908978357911">
        <ele>39.07</ele>
        <time>2019-09-03T11:10:54Z</time>
      </trkpt>
      <trkpt lat="58.506659036502242" lon="-4.705705968663096">
        <ele>39.549999999999997</ele>
        <time>2019-09-03T11:10:55Z</time>
      </trkpt>
      <trkpt lat="58.506772024556994" lon="-4.705496001988649">
        <ele>39.549999999999997</ele>
        <time>2019-09-03T11:10:56Z</time>
      </trkpt>
      <trkpt lat="58.507015015929937" lon="-4.705076990649104">
        <ele>39.549999999999997</ele>
        <time>2019-09-03T11:10:58Z</time>
      </trkpt>
      <trkpt lat="58.507136972621083" lon="-4.704878004267812">
        <ele>39.07</ele>
        <time>2019-09-03T11:10:59Z</time>
      </trkpt>
      <trkpt lat="58.507261024788022" lon="-4.704692009836435">
        <ele>38.590000000000003</ele>
        <time>2019-09-03T11:11:00Z</time>
      </trkpt>
      <trkpt lat="58.507781038060784" lon="-4.70401500351727">
        <ele>35.710000000000001</ele>
        <time>2019-09-03T11:11:04Z</time>
      </trkpt>
      <trkpt lat="58.507900983095169" lon="-4.703792966902256">
        <ele>35.229999999999997</ele>
        <time>2019-09-03T11:11:05Z</time>
      </trkpt>
      <trkpt lat="58.508677985519171" lon="-4.701911984011531">
        <ele>29.940000000000001</ele>
        <time>2019-09-03T11:11:13Z</time>
      </trkpt>
      <trkpt lat="58.508799020200968" lon="-4.701726995408535">
        <ele>28.98</ele>
        <time>2019-09-03T11:11:14Z</time>
      </trkpt>
      <trkpt lat="58.508901027962565" lon="-4.701568996533752">
        <ele>28.5</ele>
        <time>2019-09-03T11:11:15Z</time>
      </trkpt>
      <trkpt lat="58.509028013795614" lon="-4.701462965458632">
        <ele>28.02</ele>
        <time>2019-09-03T11:11:16Z</time>
      </trkpt>
      <trkpt lat="58.509166985750198" lon="-4.701422983780503">
        <ele>27.530000000000001</ele>
        <time>2019-09-03T11:11:17Z</time>
      </trkpt>
      <trkpt lat="58.509309981018305" lon="-4.701383002102375">
        <ele>27.050000000000001</ele>
        <time>2019-09-03T11:11:18Z</time>
      </trkpt>
      <trkpt lat="58.509459011256695" lon="-4.70137101598084">
        <ele>26.57</ele>
        <time>2019-09-03T11:11:19Z</time>
      </trkpt>
      <trkpt lat="58.509616004303098" lon="-4.701420972123742">
        <ele>26.09</ele>
        <time>2019-09-03T11:11:20Z</time>
      </trkpt>
      <trkpt lat="58.510281024500728" lon="-4.701632028445602">
        <ele>23.690000000000001</ele>
        <time>2019-09-03T11:11:24Z</time>
      </trkpt>
      <trkpt lat="58.510435000061989" lon="-4.701634040102363">
        <ele>23.210000000000001</ele>
        <time>2019-09-03T11:11:25Z</time>
      </trkpt>
      <trkpt lat="58.510586963966489" lon="-4.701595986261964">
        <ele>22.73</ele>
        <time>2019-09-03T11:11:26Z</time>
      </trkpt>
      <trkpt lat="58.510730965062976" lon="-4.701490039005876">
        <ele>21.77</ele>
        <time>2019-09-03T11:11:27Z</time>
      </trkpt>
      <trkpt lat="58.510864991694689" lon="-4.701377972960472">
        <ele>21.77</ele>
        <time>2019-09-03T11:11:28Z</time>
      </trkpt>
      <trkpt lat="58.510970016941428" lon="-4.701187033206224">
        <ele>21.289999999999999</ele>
        <time>2019-09-03T11:11:29Z</time>
      </trkpt>
      <trkpt lat="58.511075964197516" lon="-4.700992992147803">
        <ele>21.289999999999999</ele>
        <time>2019-09-03T11:11:30Z</time>
      </trkpt>
      <trkpt lat="58.511164980009198" lon="-4.700753018260002">
        <ele>21.289999999999999</ele>
        <time>2019-09-03T11:11:31Z</time>
      </trkpt>
      <trkpt lat="58.511242009699345" lon="-4.70047197304666">
        <ele>21.289999999999999</ele>
        <time>2019-09-03T11:11:32Z</time>
      </trkpt>
      <trkpt lat="58.511320967227221" lon="-4.700179025530815">
        <ele>21.77</ele>
        <time>2019-09-03T11:11:33Z</time>
      </trkpt>
      <trkpt lat="58.511663032695651" lon="-4.699013018980622">
        <ele>23.210000000000001</ele>
        <time>2019-09-03T11:11:37Z</time>
      </trkpt>
      <trkpt lat="58.51176998578012" lon="-4.698766004294157">
        <ele>24.170000000000002</ele>
        <time>2019-09-03T11:11:38Z</time>
      </trkpt>
      <trkpt lat="58.511896971613169" lon="-4.698553020134568">
        <ele>25.129999999999999</ele>
        <time>2019-09-03T11:11:39Z</time>
      </trkpt>
      <trkpt lat="58.512041978538036" lon="-4.698351016268134">
        <ele>26.09</ele>
        <time>2019-09-03T11:11:40Z</time>
      </trkpt>
      <trkpt lat="58.512192014604807" lon="-4.698140965774655">
        <ele>27.530000000000001</ele>
        <time>2019-09-03T11:11:41Z</time>
      </trkpt>
      <trkpt lat="58.513293983414769" lon="-4.696663990616798">
        <ele>35.710000000000001</ele>
        <time>2019-09-03T11:11:49Z</time>
      </trkpt>
      <trkpt lat="58.513456005603075" lon="-4.6965810097754">
        <ele>36.670000000000002</ele>
        <time>2019-09-03T11:11:50Z</time>
      </trkpt>
      <trkpt lat="58.513628002256155" lon="-4.696492999792099">
        <ele>37.630000000000003</ele>
        <time>2019-09-03T11:11:51Z</time>
      </trkpt>
      <trkpt lat="58.514137035235763" lon="-4.696208015084267">
        <ele>40.509999999999998</ele>
        <time>2019-09-03T11:11:54Z</time>
      </trkpt>
      <trkpt lat="58.514282964169979" lon="-4.696083962917328">
        <ele>41.469999999999999</ele>
        <time>2019-09-03T11:11:55Z</time>
      </trkpt>
      <trkpt lat="58.514407016336918" lon="-4.695931999012828">
        <ele>41.950000000000003</ele>
        <time>2019-09-03T11:11:56Z</time>
      </trkpt>
      <trkpt lat="58.51452000439167" lon="-4.695753967389464">
        <ele>41.950000000000003</ele>
        <time>2019-09-03T11:11:57Z</time>
      </trkpt>
      <trkpt lat="58.51462796330452" lon="-4.695551041513681">
        <ele>41.950000000000003</ele>
        <time>2019-09-03T11:11:58Z</time>
      </trkpt>
      <trkpt lat="58.514715973287821" lon="-4.695308972150087">
        <ele>42.439999999999998</ele>
        <time>2019-09-03T11:11:59Z</time>
      </trkpt>
      <trkpt lat="58.514804989099503" lon="-4.695065980777144">
        <ele>41.950000000000003</ele>
        <time>2019-09-03T11:12:00Z</time>
      </trkpt>
      <trkpt lat="58.51516398601234" lon="-4.694161992520094">
        <ele>42.920000000000002</ele>
        <time>2019-09-03T11:12:04Z</time>
      </trkpt>
      <trkpt lat="58.515275968238711" lon="-4.693982033059001">
        <ele>42.920000000000002</ele>
        <time>2019-09-03T11:12:05Z</time>
      </trkpt>
      <trkpt lat="58.515956997871399" lon="-4.693222967907786">
        <ele>44.359999999999999</ele>
        <time>2019-09-03T11:12:10Z</time>
      </trkpt>
      <trkpt lat="58.516121031716466" lon="-4.693097993731499">
        <ele>44.359999999999999</ele>
        <time>2019-09-03T11:12:11Z</time>
      </trkpt>
      <trkpt lat="58.517563976347446" lon="-4.692266006022692">
        <ele>47.719999999999999</ele>
        <time>2019-09-03T11:12:19Z</time>
      </trkpt>
      <trkpt lat="58.517863964661956" lon="-4.692083029076457">
        <ele>48.68</ele>
        <time>2019-09-03T11:12:21Z</time>
      </trkpt>
      <trkpt lat="58.517992962151766" lon="-4.691954031586647">
        <ele>48.68</ele>
        <time>2019-09-03T11:12:22Z</time>
      </trkpt>
      <trkpt lat="58.518122965469956" lon="-4.691824028268457">
        <ele>49.159999999999997</ele>
        <time>2019-09-03T11:12:23Z</time>
      </trkpt>
      <trkpt lat="58.518239976838231" lon="-4.691666029393673">
        <ele>49.649999999999999</ele>
        <time>2019-09-03T11:12:24Z</time>
      </trkpt>
      <trkpt lat="58.518340978771448" lon="-4.691447010263801">
        <ele>49.649999999999999</ele>
        <time>2019-09-03T11:12:25Z</time>
      </trkpt>
      <trkpt lat="58.518442986533046" lon="-4.691224973648787">
        <ele>50.130000000000003</ele>
        <time>2019-09-03T11:12:26Z</time>
      </trkpt>
      <trkpt lat="58.518544994294643" lon="-4.691002015024424">
        <ele>50.130000000000003</ele>
        <time>2019-09-03T11:12:27Z</time>
      </trkpt>
      <trkpt lat="58.518647002056241" lon="-4.69077997840941">
        <ele>50.609999999999999</ele>
        <time>2019-09-03T11:12:28Z</time>
      </trkpt>
      <trkpt lat="58.51948301307857" lon="-4.689136035740376">
        <ele>51.090000000000003</ele>
        <time>2019-09-03T11:12:35Z</time>
      </trkpt>
      <trkpt lat="58.520446009933949" lon="-4.68676102347672">
        <ele>51.090000000000003</ele>
        <time>2019-09-03T11:12:44Z</time>
      </trkpt>
      <trkpt lat="58.520907014608383" lon="-4.685597028583288">
        <ele>49.159999999999997</ele>
        <time>2019-09-03T11:12:49Z</time>
      </trkpt>
      <trkpt lat="58.521017991006374" lon="-4.685402987524867">
        <ele>48.68</ele>
        <time>2019-09-03T11:12:50Z</time>
      </trkpt>
      <trkpt lat="58.521152017638087" lon="-4.685285976156592">
        <ele>48.200000000000003</ele>
        <time>2019-09-03T11:12:51Z</time>
      </trkpt>
      <trkpt lat="58.521290989592671" lon="-4.685185980051756">
        <ele>47.719999999999999</ele>
        <time>2019-09-03T11:12:52Z</time>
      </trkpt>
      <trkpt lat="58.521424010396004" lon="-4.685090007260442">
        <ele>47.719999999999999</ele>
        <time>2019-09-03T11:12:53Z</time>
      </trkpt>
      <trkpt lat="58.521541021764278" lon="-4.685081960633397">
        <ele>47.240000000000002</ele>
        <time>2019-09-03T11:12:54Z</time>
      </trkpt>
      <trkpt lat="58.521658033132553" lon="-4.685075003653765">
        <ele>46.759999999999998</ele>
        <time>2019-09-03T11:12:55Z</time>
      </trkpt>
      <trkpt lat="58.522808030247688" lon="-4.684932008385658">
        <ele>44.840000000000003</ele>
        <time>2019-09-03T11:13:06Z</time>
      </trkpt>
      <trkpt lat="58.523302981629968" lon="-4.6846569981426">
        <ele>44.359999999999999</ele>
        <time>2019-09-03T11:13:10Z</time>
      </trkpt>
      <trkpt lat="58.523441031575203" lon="-4.684575023129582">
        <ele>44.359999999999999</ele>
        <time>2019-09-03T11:13:11Z</time>
      </trkpt>
      <trkpt lat="58.523548990488052" lon="-4.684424987062812">
        <ele>44.359999999999999</ele>
        <time>2019-09-03T11:13:12Z</time>
      </trkpt>
      <trkpt lat="58.523987028747797" lon="-4.68390597961843">
        <ele>43.880000000000003</ele>
        <time>2019-09-03T11:13:16Z</time>
      </trkpt>
      <trkpt lat="58.524112002924085" lon="-4.68381998129189">
        <ele>43.880000000000003</ele>
        <time>2019-09-03T11:13:17Z</time>
      </trkpt>
      <trkpt lat="58.524237982928753" lon="-4.683801960200071">
        <ele>43.880000000000003</ele>
        <time>2019-09-03T11:13:18Z</time>
      </trkpt>
      <trkpt lat="58.524385001510382" lon="-4.683781005442143">
        <ele>44.359999999999999</ele>
        <time>2019-09-03T11:13:19Z</time>
      </trkpt>
      <trkpt lat="58.524484997615218" lon="-4.683825010433793">
        <ele>44.840000000000003</ele>
        <time>2019-09-03T11:13:20Z</time>
      </trkpt>
      <trkpt lat="58.524605026468635" lon="-4.683877984061837">
        <ele>45.32</ele>
        <time>2019-09-03T11:13:21Z</time>
      </trkpt>
      <trkpt lat="58.524852963164449" lon="-4.683988960459828">
        <ele>46.280000000000001</ele>
        <time>2019-09-03T11:13:23Z</time>
      </trkpt>
      <trkpt lat="58.524965029209852" lon="-4.684037994593382">
        <ele>46.759999999999998</ele>
        <time>2019-09-03T11:13:24Z</time>
      </trkpt>
      <trkpt lat="58.525096038356423" lon="-4.683994995430112">
        <ele>47.719999999999999</ele>
        <time>2019-09-03T11:13:25Z</time>
      </trkpt>
      <trkpt lat="58.525223024189472" lon="-4.683951996266842">
        <ele>48.200000000000003</ele>
        <time>2019-09-03T11:13:26Z</time>
      </trkpt>
      <trkpt lat="58.525358978658915" lon="-4.683901034295559">
        <ele>48.68</ele>
        <time>2019-09-03T11:13:27Z</time>
      </trkpt>
      <trkpt lat="58.525358978658915" lon="-4.683901034295559">
        <ele>48.68</ele>
        <time>2019-09-03T11:13:28Z</time>
      </trkpt>
      <trkpt lat="58.52713099680841" lon="-4.682147959247232">
        <ele>50.609999999999999</ele>
        <time>2019-09-03T11:13:39Z</time>
      </trkpt>
      <trkpt lat="58.528200024738908" lon="-4.680997962132096">
        <ele>52.049999999999997</ele>
        <time>2019-09-03T11:13:46Z</time>
      </trkpt>
      <trkpt lat="58.529919991269708" lon="-4.679266009479761">
        <ele>49.649999999999999</ele>
        <time>2019-09-03T11:13:56Z</time>
      </trkpt>
      <trkpt lat="58.531813966110349" lon="-4.677057964727283">
        <ele>47.240000000000002</ele>
        <time>2019-09-03T11:14:08Z</time>
      </trkpt>
      <trkpt lat="58.532989025115967" lon="-4.676134027540684">
        <ele>48.200000000000003</ele>
        <time>2019-09-03T11:14:15Z</time>
      </trkpt>
      <trkpt lat="58.534309007227421" lon="-4.67544000595808">
        <ele>52.049999999999997</ele>
        <time>2019-09-03T11:14:23Z</time>
      </trkpt>
      <trkpt lat="58.53445703163743" lon="-4.675446040928364">
        <ele>52.530000000000001</ele>
        <time>2019-09-03T11:14:24Z</time>
      </trkpt>
      <trkpt lat="58.53460798971355" lon="-4.675451992079616">
        <ele>53.009999999999998</ele>
        <time>2019-09-03T11:14:25Z</time>
      </trkpt>
      <trkpt lat="58.53476095944643" lon="-4.675492979586124">
        <ele>53.490000000000002</ele>
        <time>2019-09-03T11:14:26Z</time>
      </trkpt>
      <trkpt lat="58.534914012998343" lon="-4.675570009276271">
        <ele>53.490000000000002</ele>
        <time>2019-09-03T11:14:27Z</time>
      </trkpt>
      <trkpt lat="58.536281017586589" lon="-4.676130004227161">
        <ele>55.409999999999997</ele>
        <time>2019-09-03T11:14:35Z</time>
      </trkpt>
      <trkpt lat="58.537357002496719" lon="-4.675867985934019">
        <ele>56.369999999999997</ele>
        <time>2019-09-03T11:14:41Z</time>
      </trkpt>
      <trkpt lat="58.538963980972767" lon="-4.675561962649226">
        <ele>53.009999999999998</ele>
        <time>2019-09-03T11:14:52Z</time>
      </trkpt>
      <trkpt lat="58.540407009422779" lon="-4.675541007891297">
        <ele>50.130000000000003</ele>
        <time>2019-09-03T11:15:01Z</time>
      </trkpt>
      <trkpt lat="58.541509984061122" lon="-4.675014959648252">
        <ele>48.68</ele>
        <time>2019-09-03T11:15:09Z</time>
      </trkpt>
      <trkpt lat="58.54163303039968" lon="-4.674867019057274">
        <ele>48.68</ele>
        <time>2019-09-03T11:15:10Z</time>
      </trkpt>
      <trkpt lat="58.542581023648381" lon="-4.673502026125789">
        <ele>45.799999999999997</ele>
        <time>2019-09-03T11:15:19Z</time>
      </trkpt>
      <trkpt lat="58.542683031409979" lon="-4.673388032242656">
        <ele>45.32</ele>
        <time>2019-09-03T11:15:20Z</time>
      </trkpt>
      <trkpt lat="58.542786967009306" lon="-4.673295998945832">
        <ele>45.32</ele>
        <time>2019-09-03T11:15:21Z</time>
      </trkpt>
      <trkpt lat="58.542898027226329" lon="-4.673254005610943">
        <ele>45.32</ele>
        <time>2019-09-03T11:15:22Z</time>
      </trkpt>
      <trkpt lat="58.54300900362432" lon="-4.673211006447673">
        <ele>44.840000000000003</ele>
        <time>2019-09-03T11:15:23Z</time>
      </trkpt>
      <trkpt lat="58.543120985850692" lon="-4.673233972862363">
        <ele>44.840000000000003</ele>
        <time>2019-09-03T11:15:24Z</time>
      </trkpt>
      <trkpt lat="58.543228022754192" lon="-4.673273032531142">
        <ele>44.359999999999999</ele>
        <time>2019-09-03T11:15:25Z</time>
      </trkpt>
      <trkpt lat="58.543326007202268" lon="-4.673308990895748">
        <ele>43.880000000000003</ele>
        <time>2019-09-03T11:15:26Z</time>
      </trkpt>
      <trkpt lat="58.544065961614251" lon="-4.673573020845652">
        <ele>40.030000000000001</ele>
        <time>2019-09-03T11:15:34Z</time>
      </trkpt>
      <trkpt lat="58.545310003682971" lon="-4.673862028867006">
        <ele>35.229999999999997</ele>
        <time>2019-09-03T11:15:44Z</time>
      </trkpt>
      <trkpt lat="58.546702992171049" lon="-4.674310041591525">
        <ele>28.98</ele>
        <time>2019-09-03T11:15:55Z</time>
      </trkpt>
      <trkpt lat="58.547314032912254" lon="-4.674443984404206">
        <ele>25.129999999999999</ele>
        <time>2019-09-03T11:16:00Z</time>
      </trkpt>
      <trkpt lat="58.547416040673852" lon="-4.674530988559127">
        <ele>24.649999999999999</ele>
        <time>2019-09-03T11:16:01Z</time>
      </trkpt>
      <trkpt lat="58.547508995980024" lon="-4.674616986885667">
        <ele>23.690000000000001</ele>
        <time>2019-09-03T11:16:02Z</time>
      </trkpt>
      <trkpt lat="58.547580996528268" lon="-4.674683036282659">
        <ele>22.73</ele>
        <time>2019-09-03T11:16:03Z</time>
      </trkpt>
      <trkpt lat="58.547642016783357" lon="-4.674839023500681">
        <ele>22.25</ele>
        <time>2019-09-03T11:16:04Z</time>
      </trkpt>
      <trkpt lat="58.547687027603388" lon="-4.674954023212194">
        <ele>21.77</ele>
        <time>2019-09-03T11:16:05Z</time>
      </trkpt>
      <trkpt lat="58.547732960432768" lon="-4.675070028752089">
        <ele>20.809999999999999</ele>
        <time>2019-09-03T11:16:06Z</time>
      </trkpt>
      <trkpt lat="58.547780988737941" lon="-4.67520103789866">
        <ele>20.32</ele>
        <time>2019-09-03T11:16:07Z</time>
      </trkpt>
      <trkpt lat="58.548073014244437" lon="-4.676227988675237">
        <ele>17.440000000000001</ele>
        <time>2019-09-03T11:16:16Z</time>
      </trkpt>
      <trkpt lat="58.548158006742597" lon="-4.676507022231817">
        <ele>17.920000000000002</ele>
        <time>2019-09-03T11:16:18Z</time>
      </trkpt>
      <trkpt lat="58.548204023391008" lon="-4.676657980307937">
        <ele>17.920000000000002</ele>
        <time>2019-09-03T11:16:19Z</time>
      </trkpt>
      <trkpt lat="58.5482959728688" lon="-4.676765017211437">
        <ele>18.399999999999999</ele>
        <time>2019-09-03T11:16:20Z</time>
      </trkpt>
      <trkpt lat="58.548393035307527" lon="-4.676880016922951">
        <ele>18.399999999999999</ele>
        <time>2019-09-03T11:16:21Z</time>
      </trkpt>
      <trkpt lat="58.548491019755602" lon="-4.676993004977703">
        <ele>18.879999999999999</ele>
        <time>2019-09-03T11:16:22Z</time>
      </trkpt>
      <trkpt lat="58.549014972522855" lon="-4.677690966054797">
        <ele>21.289999999999999</ele>
        <time>2019-09-03T11:16:28Z</time>
      </trkpt>
      <trkpt lat="58.549078004434705" lon="-4.677852988243103">
        <ele>21.77</ele>
        <time>2019-09-03T11:16:29Z</time>
      </trkpt>
      <trkpt lat="58.549142964184284" lon="-4.678018027916551">
        <ele>22.73</ele>
        <time>2019-09-03T11:16:30Z</time>
      </trkpt>
      <trkpt lat="58.549169031903148" lon="-4.678240986540914">
        <ele>23.210000000000001</ele>
        <time>2019-09-03T11:16:31Z</time>
      </trkpt>
      <trkpt lat="58.549189986661077" lon="-4.678442990407348">
        <ele>23.690000000000001</ele>
        <time>2019-09-03T11:16:32Z</time>
      </trkpt>
      <trkpt lat="58.549207001924515" lon="-4.678687993437052">
        <ele>24.649999999999999</ele>
        <time>2019-09-03T11:16:33Z</time>
      </trkpt>
      <trkpt lat="58.54917598888278" lon="-4.678923022001982">
        <ele>25.129999999999999</ele>
        <time>2019-09-03T11:16:34Z</time>
      </trkpt>
      <trkpt lat="58.549143970012665" lon="-4.679170036688447">
        <ele>26.09</ele>
        <time>2019-09-03T11:16:35Z</time>
      </trkpt>
      <trkpt lat="58.549111029133201" lon="-4.679420990869403">
        <ele>27.050000000000001</ele>
        <time>2019-09-03T11:16:36Z</time>
      </trkpt>
      <trkpt lat="58.549039028584957" lon="-4.679669011384249">
        <ele>28.02</ele>
        <time>2019-09-03T11:16:37Z</time>
      </trkpt>
      <trkpt lat="58.548965016379952" lon="-4.679894987493753">
        <ele>28.98</ele>
        <time>2019-09-03T11:16:38Z</time>
      </trkpt>
      <trkpt lat="58.548894021660089" lon="-4.680111994966865">
        <ele>30.420000000000002</ele>
        <time>2019-09-03T11:16:39Z</time>
      </trkpt>
      <trkpt lat="58.548829983919859" lon="-4.680307041853666">
        <ele>31.379999999999999</ele>
        <time>2019-09-03T11:16:40Z</time>
      </trkpt>
      <trkpt lat="58.548776004463434" lon="-4.680473003536463">
        <ele>32.82</ele>
        <time>2019-09-03T11:16:41Z</time>
      </trkpt>
      <trkpt lat="58.548740968108177" lon="-4.680606024339795">
        <ele>33.780000000000001</ele>
        <time>2019-09-03T11:16:42Z</time>
      </trkpt>
      <trkpt lat="58.548749014735222" lon="-4.68076997436583">
        <ele>35.229999999999997</ele>
        <time>2019-09-03T11:16:43Z</time>
      </trkpt>
      <trkpt lat="58.548757983371615" lon="-4.680935014039278">
        <ele>36.189999999999998</ele>
        <time>2019-09-03T11:16:44Z</time>
      </trkpt>
      <trkpt lat="58.54880902916193" lon="-4.681054959073663">
        <ele>37.149999999999999</ele>
        <time>2019-09-03T11:16:45Z</time>
      </trkpt>
      <trkpt lat="58.548888992518187" lon="-4.681160990148783">
        <ele>38.109999999999999</ele>
        <time>2019-09-03T11:16:46Z</time>
      </trkpt>
      <trkpt lat="58.548985971137881" lon="-4.681257968768477">
        <ele>39.07</ele>
        <time>2019-09-03T11:16:47Z</time>
      </trkpt>
      <trkpt lat="58.549113962799311" lon="-4.681295016780496">
        <ele>40.030000000000001</ele>
        <time>2019-09-03T11:16:48Z</time>
      </trkpt>
      <trkpt lat="58.549254024401307" lon="-4.681336004287005">
        <ele>41.469999999999999</ele>
        <time>2019-09-03T11:16:49Z</time>
      </trkpt>
      <trkpt lat="58.550015017390251" lon="-4.681580001488328">
        <ele>47.719999999999999</ele>
        <time>2019-09-03T11:16:54Z</time>
      </trkpt>
      <trkpt lat="58.550134040415287" lon="-4.681699024513364">
        <ele>49.159999999999997</ele>
        <time>2019-09-03T11:16:55Z</time>
      </trkpt>
      <trkpt lat="58.550240993499756" lon="-4.681847970932722">
        <ele>50.130000000000003</ele>
        <time>2019-09-03T11:16:56Z</time>
      </trkpt>
      <trkpt lat="58.550754971802235" lon="-4.682734021916986">
        <ele>53.009999999999998</ele>
        <time>2019-09-03T11:17:01Z</time>
      </trkpt>
      <trkpt lat="58.550818003714085" lon="-4.682949017733336">
        <ele>53.009999999999998</ele>
        <time>2019-09-03T11:17:02Z</time>
      </trkpt>
      <trkpt lat="58.550882041454315" lon="-4.683169964700937">
        <ele>53.490000000000002</ele>
        <time>2019-09-03T11:17:03Z</time>
      </trkpt>
      <trkpt lat="58.550947001203895" lon="-4.683392001315951">
        <ele>53.969999999999999</ele>
        <time>2019-09-03T11:17:04Z</time>
      </trkpt>
      <trkpt lat="58.551010033115745" lon="-4.683609008789063">
        <ele>54.450000000000003</ele>
        <time>2019-09-03T11:17:05Z</time>
      </trkpt>
      <trkpt lat="58.551074992865324" lon="-4.68403103761375">
        <ele>55.409999999999997</ele>
        <time>2019-09-03T11:17:07Z</time>
      </trkpt>
      <trkpt lat="58.551098965108395" lon="-4.684236980974674">
        <ele>55.890000000000001</ele>
        <time>2019-09-03T11:17:08Z</time>
      </trkpt>
      <trkpt lat="58.55125998146832" lon="-4.686030959710479">
        <ele>54.93</ele>
        <time>2019-09-03T11:17:15Z</time>
      </trkpt>
      <trkpt lat="58.551512025296688" lon="-4.68766501173377">
        <ele>49.159999999999997</ele>
        <time>2019-09-03T11:17:24Z</time>
      </trkpt>
      <trkpt lat="58.551642028614879" lon="-4.689093958586454">
        <ele>46.759999999999998</ele>
        <time>2019-09-03T11:17:33Z</time>
      </trkpt>
      <trkpt lat="58.551699025556445" lon="-4.689737018197775">
        <ele>44.840000000000003</ele>
        <time>2019-09-03T11:17:36Z</time>
      </trkpt>
      <trkpt lat="58.551744036376476" lon="-4.689961988478899">
        <ele>44.359999999999999</ele>
        <time>2019-09-03T11:17:37Z</time>
      </trkpt>
      <trkpt lat="58.551788963377476" lon="-4.690188970416784">
        <ele>43.399999999999999</ele>
        <time>2019-09-03T11:17:38Z</time>
      </trkpt>
      <trkpt lat="58.551874039694667" lon="-4.69037102535367">
        <ele>42.920000000000002</ele>
        <time>2019-09-03T11:17:39Z</time>
      </trkpt>
      <trkpt lat="58.551978981122375" lon="-4.690514020621777">
        <ele>41.950000000000003</ele>
        <time>2019-09-03T11:17:40Z</time>
      </trkpt>
      <trkpt lat="58.552093980833888" lon="-4.690670007839799">
        <ele>41.469999999999999</ele>
        <time>2019-09-03T11:17:41Z</time>
      </trkpt>
      <trkpt lat="58.552216021344066" lon="-4.690834041684866">
        <ele>40.990000000000002</ele>
        <time>2019-09-03T11:17:42Z</time>
      </trkpt>
      <trkpt lat="58.553459979593754" lon="-4.692631037905812">
        <ele>37.630000000000003</ele>
        <time>2019-09-03T11:17:52Z</time>
      </trkpt>
      <trkpt lat="58.553555030375719" lon="-4.692844022065401">
        <ele>38.109999999999999</ele>
        <time>2019-09-03T11:17:53Z</time>
      </trkpt>
      <trkpt lat="58.553643962368369" lon="-4.693045020103455">
        <ele>38.590000000000003</ele>
        <time>2019-09-03T11:17:54Z</time>
      </trkpt>
      <trkpt lat="58.55368603952229" lon="-4.69327200204134">
        <ele>39.07</ele>
        <time>2019-09-03T11:17:55Z</time>
      </trkpt>
      <trkpt lat="58.553702970966697" lon="-4.693528991192579">
        <ele>39.07</ele>
        <time>2019-09-03T11:17:56Z</time>
      </trkpt>
      <trkpt lat="58.553721997886896" lon="-4.693796038627625">
        <ele>39.07</ele>
        <time>2019-09-03T11:17:57Z</time>
      </trkpt>
      <trkpt lat="58.553854012861848" lon="-4.695440987125039">
        <ele>38.590000000000003</ele>
        <time>2019-09-03T11:18:03Z</time>
      </trkpt>
      <trkpt lat="58.554349970072508" lon="-4.698082963004708">
        <ele>31.379999999999999</ele>
        <time>2019-09-03T11:18:12Z</time>
      </trkpt>
      <trkpt lat="58.554425993934274" lon="-4.698657961562276">
        <ele>28.98</ele>
        <time>2019-09-03T11:18:14Z</time>
      </trkpt>
      <trkpt lat="58.554425993934274" lon="-4.698959961533546">
        <ele>27.530000000000001</ele>
        <time>2019-09-03T11:18:15Z</time>
      </trkpt>
      <trkpt lat="58.5544160194695" lon="-4.699272019788623">
        <ele>26.57</ele>
        <time>2019-09-03T11:18:16Z</time>
      </trkpt>
      <trkpt lat="58.554380983114243" lon="-4.699582988396287">
        <ele>25.609999999999999</ele>
        <time>2019-09-03T11:18:17Z</time>
      </trkpt>
      <trkpt lat="58.554345024749637" lon="-4.699899991974235">
        <ele>24.649999999999999</ele>
        <time>2019-09-03T11:18:18Z</time>
      </trkpt>
      <trkpt lat="58.554101027548313" lon="-4.702975982800126">
        <ele>15.52</ele>
        <time>2019-09-03T11:18:28Z</time>
      </trkpt>
      <trkpt lat="58.554087029770017" lon="-4.703785004094243">
        <ele>13.119999999999999</ele>
        <time>2019-09-03T11:18:31Z</time>
      </trkpt>
      <trkpt lat="58.554083006456494" lon="-4.70405800268054">
        <ele>12.630000000000001</ele>
        <time>2019-09-03T11:18:32Z</time>
      </trkpt>
      <trkpt lat="58.554134974256158" lon="-4.704301999881864">
        <ele>11.67</ele>
        <time>2019-09-03T11:18:33Z</time>
      </trkpt>
      <trkpt lat="58.554189959540963" lon="-4.704552032053471">
        <ele>11.19</ele>
        <time>2019-09-03T11:18:34Z</time>
      </trkpt>
      <trkpt lat="58.554273024201393" lon="-4.704793011769652">
        <ele>10.710000000000001</ele>
        <time>2019-09-03T11:18:35Z</time>
      </trkpt>
      <trkpt lat="58.554354999214411" lon="-4.705028962343931">
        <ele>9.75</ele>
        <time>2019-09-03T11:18:36Z</time>
      </trkpt>
      <trkpt lat="58.554449966177344" lon="-4.705243958160281">
        <ele>9.75</ele>
        <time>2019-09-03T11:18:37Z</time>
      </trkpt>
      <trkpt lat="58.554554991424084" lon="-4.705453002825379">
        <ele>9.75</ele>
        <time>2019-09-03T11:18:38Z</time>
      </trkpt>
      <trkpt lat="58.554921029135585" lon="-4.706145012751222">
        <ele>10.23</ele>
        <time>2019-09-03T11:18:42Z</time>
      </trkpt>
      <trkpt lat="58.555009961128235" lon="-4.706265963613987">
        <ele>10.710000000000001</ele>
        <time>2019-09-03T11:18:43Z</time>
      </trkpt>
      <trkpt lat="58.555112974718213" lon="-4.706308962777257">
        <ele>10.710000000000001</ele>
        <time>2019-09-03T11:18:44Z</time>
      </trkpt>
      <trkpt lat="58.555220011621714" lon="-4.706333018839359">
        <ele>11.19</ele>
        <time>2019-09-03T11:18:45Z</time>
      </trkpt>
      <trkpt lat="58.55534297414124" lon="-4.706256994977593">
        <ele>11.19</ele>
        <time>2019-09-03T11:18:46Z</time>
      </trkpt>
      <trkpt lat="58.555466020479798" lon="-4.706179965287447">
        <ele>11.67</ele>
        <time>2019-09-03T11:18:47Z</time>
      </trkpt>
      <trkpt lat="58.555597029626369" lon="-4.706100001931191">
        <ele>12.15</ele>
        <time>2019-09-03T11:18:48Z</time>
      </trkpt>
      <trkpt lat="58.555737007409334" lon="-4.706049961969256">
        <ele>13.119999999999999</ele>
        <time>2019-09-03T11:18:49Z</time>
      </trkpt>
      <trkpt lat="58.555873967707157" lon="-4.706043004989624">
        <ele>14.08</ele>
        <time>2019-09-03T11:18:50Z</time>
      </trkpt>
      <trkpt lat="58.556014029309154" lon="-4.706034958362579">
        <ele>15.52</ele>
        <time>2019-09-03T11:18:51Z</time>
      </trkpt>
      <trkpt lat="58.556166999042034" lon="-4.706078041344881">
        <ele>16.48</ele>
        <time>2019-09-03T11:18:52Z</time>
      </trkpt>
      <trkpt lat="58.557473989203572" lon="-4.70661498606205">
        <ele>25.609999999999999</ele>
        <time>2019-09-03T11:19:00Z</time>
      </trkpt>
      <trkpt lat="58.55774799361825" lon="-4.706754041835666">
        <ele>27.530000000000001</ele>
        <time>2019-09-03T11:19:02Z</time>
      </trkpt>
      <trkpt lat="58.557869028300047" lon="-4.706870969384909">
        <ele>28.5</ele>
        <time>2019-09-03T11:19:03Z</time>
      </trkpt>
      <trkpt lat="58.557982016354799" lon="-4.707003990188241">
        <ele>29.460000000000001</ele>
        <time>2019-09-03T11:19:04Z</time>
      </trkpt>
      <trkpt lat="58.558075977489352" lon="-4.707197025418282">
        <ele>29.940000000000001</ele>
        <time>2019-09-03T11:19:05Z</time>
      </trkpt>
      <trkpt lat="58.558146972209215" lon="-4.707412021234632">
        <ele>30.420000000000002</ele>
        <time>2019-09-03T11:19:06Z</time>
      </trkpt>
      <trkpt lat="58.558211009949446" lon="-4.707640009000897">
        <ele>30.899999999999999</ele>
        <time>2019-09-03T11:19:07Z</time>
      </trkpt>
      <trkpt lat="58.558268006891012" lon="-4.707896998152137">
        <ele>30.899999999999999</ele>
        <time>2019-09-03T11:19:08Z</time>
      </trkpt>
      <trkpt lat="58.558287033811212" lon="-4.708173014223576">
        <ele>31.379999999999999</ele>
        <time>2019-09-03T11:19:09Z</time>
      </trkpt>
      <trkpt lat="58.558304971083999" lon="-4.708433020859957">
        <ele>31.859999999999999</ele>
        <time>2019-09-03T11:19:10Z</time>
      </trkpt>
      <trkpt lat="58.558409996330738" lon="-4.709950983524323">
        <ele>34.259999999999998</ele>
        <time>2019-09-03T11:19:18Z</time>
      </trkpt>
      <trkpt lat="58.558449978008866" lon="-4.710530005395412">
        <ele>35.229999999999997</ele>
        <time>2019-09-03T11:19:25Z</time>
      </trkpt>
      <trkpt lat="58.558460036292672" lon="-4.710665037855506">
        <ele>35.710000000000001</ele>
        <time>2019-09-03T11:19:27Z</time>
      </trkpt>
      <trkpt lat="58.558463975787163" lon="-4.710756987333298">
        <ele>35.710000000000001</ele>
        <time>2019-09-03T11:19:28Z</time>
      </trkpt>
      <trkpt lat="58.558469004929066" lon="-4.71086896955967">
        <ele>36.189999999999998</ele>
        <time>2019-09-03T11:19:29Z</time>
      </trkpt>
      <trkpt lat="58.558475039899349" lon="-4.711005007848144">
        <ele>36.189999999999998</ele>
        <time>2019-09-03T11:19:30Z</time>
      </trkpt>
      <trkpt lat="58.558480991050601" lon="-4.711139034479857">
        <ele>36.670000000000002</ele>
        <time>2019-09-03T11:19:31Z</time>
      </trkpt>
      <trkpt lat="58.55847998522222" lon="-4.711318993940949">
        <ele>36.670000000000002</ele>
        <time>2019-09-03T11:19:32Z</time>
      </trkpt>
      <trkpt lat="58.55847897939384" lon="-4.711501970887184">
        <ele>36.670000000000002</ele>
        <time>2019-09-03T11:19:33Z</time>
      </trkpt>
      <trkpt lat="58.558476967737079" lon="-4.711689976975322">
        <ele>36.670000000000002</ele>
        <time>2019-09-03T11:19:34Z</time>
      </trkpt>
      <trkpt lat="58.558475961908698" lon="-4.711884018033743">
        <ele>36.670000000000002</ele>
        <time>2019-09-03T11:19:35Z</time>
      </trkpt>
      <trkpt lat="58.558462969958782" lon="-4.713650001212955">
        <ele>37.149999999999999</ele>
        <time>2019-09-03T11:19:44Z</time>
      </trkpt>
      <trkpt lat="58.558460958302021" lon="-4.713870026171207">
        <ele>37.149999999999999</ele>
        <time>2019-09-03T11:19:45Z</time>
      </trkpt>
      <trkpt lat="58.5585000179708" lon="-4.714132966473699">
        <ele>36.670000000000002</ele>
        <time>2019-09-03T11:19:46Z</time>
      </trkpt>
      <trkpt lat="58.558576041832566" lon="-4.714359026402235">
        <ele>36.670000000000002</ele>
        <time>2019-09-03T11:19:47Z</time>
      </trkpt>
      <trkpt lat="58.558656005188823" lon="-4.714596988633275">
        <ele>37.149999999999999</ele>
        <time>2019-09-03T11:19:48Z</time>
      </trkpt>
      <trkpt lat="58.559354972094297" lon="-4.716549972072244">
        <ele>44.840000000000003</ele>
        <time>2019-09-03T11:19:57Z</time>
      </trkpt>
      <trkpt lat="58.560286033898592" lon="-4.718311009928584">
        <ele>50.130000000000003</ele>
        <time>2019-09-03T11:20:06Z</time>
      </trkpt>
      <trkpt lat="58.561389008536935" lon="-4.719368973746896">
        <ele>43.399999999999999</ele>
        <time>2019-09-03T11:20:14Z</time>
      </trkpt>
      <trkpt lat="58.56266800314188" lon="-4.720012033358216">
        <ele>33.299999999999997</ele>
        <time>2019-09-03T11:20:23Z</time>
      </trkpt>
      <trkpt lat="58.562879981473088" lon="-4.720109011977911">
        <ele>32.340000000000003</ele>
        <time>2019-09-03T11:20:25Z</time>
      </trkpt>
      <trkpt lat="58.562954999506474" lon="-4.72019400447607">
        <ele>31.379999999999999</ele>
        <time>2019-09-03T11:20:26Z</time>
      </trkpt>
      <trkpt lat="58.563019959256053" lon="-4.720268016681075">
        <ele>30.899999999999999</ele>
        <time>2019-09-03T11:20:27Z</time>
      </trkpt>
      <trkpt lat="58.563079973682761" lon="-4.720336999744177">
        <ele>30.420000000000002</ele>
        <time>2019-09-03T11:20:28Z</time>
      </trkpt>
      <trkpt lat="58.563134036958218" lon="-4.720399025827646">
        <ele>29.460000000000001</ele>
        <time>2019-09-03T11:20:29Z</time>
      </trkpt>
      <trkpt lat="58.563187010586262" lon="-4.720473960042">
        <ele>28.98</ele>
        <time>2019-09-03T11:20:30Z</time>
      </trkpt>
      <trkpt lat="58.563207965344191" lon="-4.720555013045669">
        <ele>28.5</ele>
        <time>2019-09-03T11:20:31Z</time>
      </trkpt>
      <trkpt lat="58.56322699226439" lon="-4.72062299028039">
        <ele>28.02</ele>
        <time>2019-09-03T11:20:32Z</time>
      </trkpt>
      <trkpt lat="58.563294969499111" lon="-4.720878973603249">
        <ele>25.609999999999999</ele>
        <time>2019-09-03T11:20:42Z</time>
      </trkpt>
      <trkpt lat="58.563310978934169" lon="-4.720934964716435">
        <ele>25.129999999999999</ele>
        <time>2019-09-03T11:20:45Z</time>
      </trkpt>
      <trkpt lat="58.563321037217975" lon="-4.720972012728453">
        <ele>25.129999999999999</ele>
        <time>2019-09-03T11:20:46Z</time>
      </trkpt>
      <trkpt lat="58.563329000025988" lon="-4.721002019941807">
        <ele>24.649999999999999</ele>
        <time>2019-09-03T11:20:47Z</time>
      </trkpt>
      <trkpt lat="58.563331011682749" lon="-4.72100998274982">
        <ele>23.690000000000001</ele>
        <time>2019-09-03T11:21:01Z</time>
      </trkpt>
      <trkpt lat="58.563338974490762" lon="-4.721127999946475">
        <ele>23.690000000000001</ele>
        <time>2019-09-03T11:21:02Z</time>
      </trkpt>
      <trkpt lat="58.563344003632665" lon="-4.72120201215148">
        <ele>23.690000000000001</ele>
        <time>2019-09-03T11:21:03Z</time>
      </trkpt>
      <trkpt lat="58.563349032774568" lon="-4.72126797772944">
        <ele>23.690000000000001</ele>
        <time>2019-09-03T11:21:04Z</time>
      </trkpt>
      <trkpt lat="58.563351966440678" lon="-4.721315000206232">
        <ele>23.690000000000001</ele>
        <time>2019-09-03T11:21:05Z</time>
      </trkpt>
      <trkpt lat="58.563353978097439" lon="-4.721337966620922">
        <ele>24.170000000000002</ele>
        <time>2019-09-03T11:21:06Z</time>
      </trkpt>
      <trkpt lat="58.563353978097439" lon="-4.721337966620922">
        <ele>24.170000000000002</ele>
        <time>2019-09-03T11:21:07Z</time>
      </trkpt>
      <trkpt lat="58.563389014452696" lon="-4.721371997147799">
        <ele>25.129999999999999</ele>
        <time>2019-09-03T11:21:22Z</time>
      </trkpt>
      <trkpt lat="58.563389014452696" lon="-4.721371997147799">
        <ele>25.129999999999999</ele>
        <time>2019-09-03T11:21:42Z</time>
      </trkpt>
      <trkpt lat="58.563395971432328" lon="-4.721359005197883">
        <ele>26.09</ele>
        <time>2019-09-03T11:22:18Z</time>
      </trkpt>
      <trkpt lat="58.563426984474063" lon="-4.721275018528104">
        <ele>33.780000000000001</ele>
        <time>2019-09-03T12:01:30Z</time>
      </trkpt>
      <trkpt lat="58.563404018059373" lon="-4.721326986327767">
        <ele>33.299999999999997</ele>
        <time>2019-09-03T12:02:12Z</time>
      </trkpt>
      <trkpt lat="58.563412986695766" lon="-4.721328997984529">
        <ele>33.780000000000001</ele>
        <time>2019-09-03T12:02:58Z</time>
      </trkpt>
      <trkpt lat="58.563459003344178" lon="-4.721379959955812">
        <ele>34.259999999999998</ele>
        <time>2019-09-03T12:03:19Z</time>
      </trkpt>
      <trkpt lat="58.563459003344178" lon="-4.721379959955812">
        <ele>34.259999999999998</ele>
        <time>2019-09-03T12:03:45Z</time>
      </trkpt>
      <trkpt lat="58.563364036381245" lon="-4.721481967717409">
        <ele>33.299999999999997</ele>
        <time>2019-09-03T12:03:51Z</time>
      </trkpt>
      <trkpt lat="58.563368981704116" lon="-4.72154701128602">
        <ele>33.299999999999997</ele>
        <time>2019-09-03T12:03:52Z</time>
      </trkpt>
      <trkpt lat="58.563374010846019" lon="-4.721624962985516">
        <ele>32.82</ele>
        <time>2019-09-03T12:03:53Z</time>
      </trkpt>
      <trkpt lat="58.563379961997271" lon="-4.721711967140436">
        <ele>32.340000000000003</ele>
        <time>2019-09-03T12:03:54Z</time>
      </trkpt>
      <trkpt lat="58.563387002795935" lon="-4.721807017922401">
        <ele>31.859999999999999</ele>
        <time>2019-09-03T12:03:55Z</time>
      </trkpt>
      <trkpt lat="58.563409969210625" lon="-4.72212502732873">
        <ele>29.460000000000001</ele>
        <time>2019-09-03T12:03:58Z</time>
      </trkpt>
      <trkpt lat="58.563465960323811" lon="-4.722919967025518">
        <ele>28.02</ele>
        <time>2019-09-03T12:04:04Z</time>
      </trkpt>
      <trkpt lat="58.563474006950855" lon="-4.723033960908651">
        <ele>28.02</ele>
        <time>2019-09-03T12:04:05Z</time>
      </trkpt>
      <trkpt lat="58.563480963930488" lon="-4.72313404083252">
        <ele>28.5</ele>
        <time>2019-09-03T12:04:06Z</time>
      </trkpt>
      <trkpt lat="58.563513988628983" lon="-4.72326303832233">
        <ele>28.5</ele>
        <time>2019-09-03T12:04:07Z</time>
      </trkpt>
      <trkpt lat="58.563551036641002" lon="-4.723404021933675">
        <ele>28.98</ele>
        <time>2019-09-03T12:04:08Z</time>
      </trkpt>
      <trkpt lat="58.563589006662369" lon="-4.723551962524653">
        <ele>29.460000000000001</ele>
        <time>2019-09-03T12:04:09Z</time>
      </trkpt>
      <trkpt lat="58.563710041344166" lon="-4.724022019654512">
        <ele>31.859999999999999</ele>
        <time>2019-09-03T12:04:13Z</time>
      </trkpt>
      <trkpt lat="58.563740970566869" lon="-4.724142970517278">
        <ele>32.82</ele>
        <time>2019-09-03T12:04:14Z</time>
      </trkpt>
      <trkpt lat="58.564046993851662" lon="-4.725588010624051">
        <ele>38.109999999999999</ele>
        <time>2019-09-03T12:04:22Z</time>
      </trkpt>
      <trkpt lat="58.564355028793216" lon="-4.728340040892363">
        <ele>45.32</ele>
        <time>2019-09-03T12:04:34Z</time>
      </trkpt>
      <trkpt lat="58.564341031014919" lon="-4.728595018386841">
        <ele>45.799999999999997</ele>
        <time>2019-09-03T12:04:35Z</time>
      </trkpt>
      <trkpt lat="58.564328039065003" lon="-4.728857036679983">
        <ele>45.799999999999997</ele>
        <time>2019-09-03T12:04:36Z</time>
      </trkpt>
      <trkpt lat="58.56428001075983" lon="-4.730007033795118">
        <ele>43.880000000000003</ele>
        <time>2019-09-03T12:04:40Z</time>
      </trkpt>
      <trkpt lat="58.564287973567843" lon="-4.73031397908926">
        <ele>42.920000000000002</ele>
        <time>2019-09-03T12:04:41Z</time>
      </trkpt>
      <trkpt lat="58.564315969124436" lon="-4.730622014030814">
        <ele>41.950000000000003</ele>
        <time>2019-09-03T12:04:42Z</time>
      </trkpt>
      <trkpt lat="58.564382018521428" lon="-4.730906998738647">
        <ele>40.990000000000002</ele>
        <time>2019-09-03T12:04:43Z</time>
      </trkpt>
      <trkpt lat="58.564448989927769" lon="-4.731183014810085">
        <ele>40.030000000000001</ele>
        <time>2019-09-03T12:04:44Z</time>
      </trkpt>
      <trkpt lat="58.564513027667999" lon="-4.731449978426099">
        <ele>39.07</ele>
        <time>2019-09-03T12:04:45Z</time>
      </trkpt>
      <trkpt lat="58.564849980175495" lon="-4.732839027419686">
        <ele>36.189999999999998</ele>
        <time>2019-09-03T12:04:52Z</time>
      </trkpt>
      <trkpt lat="58.565081991255283" lon="-4.734000004827976">
        <ele>36.670000000000002</ele>
        <time>2019-09-03T12:05:01Z</time>
      </trkpt>
      <trkpt lat="58.565118033438921" lon="-4.734124979004264">
        <ele>36.670000000000002</ele>
        <time>2019-09-03T12:05:02Z</time>
      </trkpt>
      <trkpt lat="58.565274020656943" lon="-4.734583972021937">
        <ele>37.149999999999999</ele>
        <time>2019-09-03T12:05:05Z</time>
      </trkpt>
      <trkpt lat="58.565341997891665" lon="-4.735141033306718">
        <ele>36.189999999999998</ele>
        <time>2019-09-03T12:05:10Z</time>
      </trkpt>
      <trkpt lat="58.56535498984158" lon="-4.735196018591523">
        <ele>36.189999999999998</ele>
        <time>2019-09-03T12:05:11Z</time>
      </trkpt>
      <trkpt lat="58.565398994833231" lon="-4.7352110221982">
        <ele>35.710000000000001</ele>
        <time>2019-09-03T12:05:12Z</time>
      </trkpt>
      <trkpt lat="58.565450962632895" lon="-4.735228959470987">
        <ele>35.710000000000001</ele>
        <time>2019-09-03T12:05:13Z</time>
      </trkpt>
      <trkpt lat="58.565502008423209" lon="-4.735246980562806">
        <ele>35.229999999999997</ele>
        <time>2019-09-03T12:05:14Z</time>
      </trkpt>
      <trkpt lat="58.565557999536395" lon="-4.735267013311386">
        <ele>34.740000000000002</ele>
        <time>2019-09-03T12:05:15Z</time>
      </trkpt>
      <trkpt lat="58.565614996477962" lon="-4.735286962240934">
        <ele>34.259999999999998</ele>
        <time>2019-09-03T12:05:16Z</time>
      </trkpt>
      <trkpt lat="58.565678028389812" lon="-4.735309006646276">
        <ele>33.780000000000001</ele>
        <time>2019-09-03T12:05:17Z</time>
      </trkpt>
      <trkpt lat="58.565742988139391" lon="-4.735331973060966">
        <ele>33.299999999999997</ele>
        <time>2019-09-03T12:05:18Z</time>
      </trkpt>
      <trkpt lat="58.565806020051241" lon="-4.73540598526597">
        <ele>32.82</ele>
        <time>2019-09-03T12:05:19Z</time>
      </trkpt>
      <trkpt lat="58.565855976194143" lon="-4.735513022169471">
        <ele>32.340000000000003</ele>
        <time>2019-09-03T12:05:20Z</time>
      </trkpt>
      <trkpt lat="58.565909033641219" lon="-4.735629027709365">
        <ele>31.379999999999999</ele>
        <time>2019-09-03T12:05:21Z</time>
      </trkpt>
      <trkpt lat="58.566511021926999" lon="-4.736878015100956">
        <ele>22.73</ele>
        <time>2019-09-03T12:05:30Z</time>
      </trkpt>
      <trkpt lat="58.567364970222116" lon="-4.738497985526919">
        <ele>13.119999999999999</ele>
        <time>2019-09-03T12:05:41Z</time>
      </trkpt>
      <trkpt lat="58.567704018205404" lon="-4.739532982930541">
        <ele>15.039999999999999</ele>
        <time>2019-09-03T12:05:51Z</time>
      </trkpt>
      <trkpt lat="58.567723967134953" lon="-4.73959400318563">
        <ele>15.52</ele>
        <time>2019-09-03T12:05:52Z</time>
      </trkpt>
      <trkpt lat="58.567762020975351" lon="-4.739710008725524">
        <ele>16</ele>
        <time>2019-09-03T12:05:54Z</time>
      </trkpt>
      <trkpt lat="58.567792028188705" lon="-4.739801036193967">
        <ele>16.48</ele>
        <time>2019-09-03T12:05:55Z</time>
      </trkpt>
      <trkpt lat="58.567794039845467" lon="-4.740086020901799">
        <ele>16.960000000000001</ele>
        <time>2019-09-03T12:05:56Z</time>
      </trkpt>
      <trkpt lat="58.568139038980007" lon="-4.741264013573527">
        <ele>22.25</ele>
        <time>2019-09-03T12:06:03Z</time>
      </trkpt>
      <trkpt lat="58.568495018407702" lon="-4.743997016921639">
        <ele>36.189999999999998</ele>
        <time>2019-09-03T12:06:13Z</time>
      </trkpt>
      <trkpt lat="58.568561989814043" lon="-4.745720000937581">
        <ele>42.439999999999998</ele>
        <time>2019-09-03T12:06:21Z</time>
      </trkpt>
      <trkpt lat="58.568564001470804" lon="-4.7465789783746">
        <ele>43.399999999999999</ele>
        <time>2019-09-03T12:06:26Z</time>
      </trkpt>
      <trkpt lat="58.568544974550605" lon="-4.746737983077765">
        <ele>42.920000000000002</ele>
        <time>2019-09-03T12:06:27Z</time>
      </trkpt>
      <trkpt lat="58.568487977609038" lon="-4.746799003332853">
        <ele>42.920000000000002</ele>
        <time>2019-09-03T12:06:28Z</time>
      </trkpt>
      <trkpt lat="58.568406002596021" lon="-4.746888019144535">
        <ele>43.399999999999999</ele>
        <time>2019-09-03T12:06:29Z</time>
      </trkpt>
      <trkpt lat="58.568313969299197" lon="-4.746988015249372">
        <ele>43.880000000000003</ele>
        <time>2019-09-03T12:06:30Z</time>
      </trkpt>
      <trkpt lat="58.567278971895576" lon="-4.747922010719776">
        <ele>46.759999999999998</ele>
        <time>2019-09-03T12:06:39Z</time>
      </trkpt>
      <trkpt lat="58.567166989669204" lon="-4.748036004602909">
        <ele>47.240000000000002</ele>
        <time>2019-09-03T12:06:40Z</time>
      </trkpt>
      <trkpt lat="58.567084008827806" lon="-4.748214036226273">
        <ele>47.240000000000002</ele>
        <time>2019-09-03T12:06:41Z</time>
      </trkpt>
      <trkpt lat="58.567004967480898" lon="-4.748405981808901">
        <ele>47.240000000000002</ele>
        <time>2019-09-03T12:06:42Z</time>
      </trkpt>
      <trkpt lat="58.566944031044841" lon="-4.74861896596849">
        <ele>47.240000000000002</ele>
        <time>2019-09-03T12:06:43Z</time>
      </trkpt>
      <trkpt lat="58.566880999132991" lon="-4.748839996755123">
        <ele>47.240000000000002</ele>
        <time>2019-09-03T12:06:44Z</time>
      </trkpt>
      <trkpt lat="58.56681696139276" lon="-4.749077958986163">
        <ele>47.719999999999999</ele>
        <time>2019-09-03T12:06:45Z</time>
      </trkpt>
      <trkpt lat="58.566039958968759" lon="-4.751949012279511">
        <ele>42.920000000000002</ele>
        <time>2019-09-03T12:06:56Z</time>
      </trkpt>
      <trkpt lat="58.565276032313704" lon="-4.754002997651696">
        <ele>42.439999999999998</ele>
        <time>2019-09-03T12:07:05Z</time>
      </trkpt>
      <trkpt lat="58.564598020166159" lon="-4.755667978897691">
        <ele>42.439999999999998</ele>
        <time>2019-09-03T12:07:13Z</time>
      </trkpt>
      <trkpt lat="58.563666958361864" lon="-4.75837298668921">
        <ele>45.32</ele>
        <time>2019-09-03T12:07:24Z</time>
      </trkpt>
      <trkpt lat="58.562608994543552" lon="-4.761308999732137">
        <ele>43.880000000000003</ele>
        <time>2019-09-03T12:07:36Z</time>
      </trkpt>
      <trkpt lat="58.561730990186334" lon="-4.763069031760097">
        <ele>43.399999999999999</ele>
        <time>2019-09-03T12:07:45Z</time>
      </trkpt>
      <trkpt lat="58.560837982222438" lon="-4.764279965311289">
        <ele>42.439999999999998</ele>
        <time>2019-09-03T12:07:53Z</time>
      </trkpt>
      <trkpt lat="58.560075983405113" lon="-4.765115976333618">
        <ele>41.950000000000003</ele>
        <time>2019-09-03T12:07:59Z</time>
      </trkpt>
      <trkpt lat="58.559940028935671" lon="-4.765233993530273">
        <ele>41.950000000000003</ele>
        <time>2019-09-03T12:08:00Z</time>
      </trkpt>
      <trkpt lat="58.558602025732398" lon="-4.766087019816041">
        <ele>39.549999999999997</ele>
        <time>2019-09-03T12:08:09Z</time>
      </trkpt>
      <trkpt lat="58.558475039899349" lon="-4.766248958185315">
        <ele>39.549999999999997</ele>
        <time>2019-09-03T12:08:10Z</time>
      </trkpt>
      <trkpt lat="58.558348976075649" lon="-4.76640997454524">
        <ele>40.030000000000001</ele>
        <time>2019-09-03T12:08:11Z</time>
      </trkpt>
      <trkpt lat="58.558219978585839" lon="-4.766574008390307">
        <ele>40.509999999999998</ele>
        <time>2019-09-03T12:08:12Z</time>
      </trkpt>
      <trkpt lat="58.558090981096029" lon="-4.766738964244723">
        <ele>40.990000000000002</ele>
        <time>2019-09-03T12:08:13Z</time>
      </trkpt>
      <trkpt lat="58.557622013613582" lon="-4.767337013036013">
        <ele>43.399999999999999</ele>
        <time>2019-09-03T12:08:17Z</time>
      </trkpt>
      <trkpt lat="58.557486981153488" lon="-4.767416976392269">
        <ele>44.359999999999999</ele>
        <time>2019-09-03T12:08:18Z</time>
      </trkpt>
      <trkpt lat="58.557347003370523" lon="-4.767499035224319">
        <ele>44.840000000000003</ele>
        <time>2019-09-03T12:08:19Z</time>
      </trkpt>
      <trkpt lat="58.557205013930798" lon="-4.767582016065717">
        <ele>45.32</ele>
        <time>2019-09-03T12:08:20Z</time>
      </trkpt>
      <trkpt lat="58.557065036147833" lon="-4.767663991078734">
        <ele>45.799999999999997</ele>
        <time>2019-09-03T12:08:21Z</time>
      </trkpt>
      <trkpt lat="58.556932015344501" lon="-4.767778990790248">
        <ele>46.280000000000001</ele>
        <time>2019-09-03T12:08:22Z</time>
      </trkpt>
      <trkpt lat="58.556806035339832" lon="-4.767919974401593">
        <ele>47.240000000000002</ele>
        <time>2019-09-03T12:08:23Z</time>
      </trkpt>
      <trkpt lat="58.556557008996606" lon="-4.768201019614935">
        <ele>49.159999999999997</ele>
        <time>2019-09-03T12:08:25Z</time>
      </trkpt>
      <trkpt lat="58.556430023163557" lon="-4.76832096464932">
        <ele>50.130000000000003</ele>
        <time>2019-09-03T12:08:26Z</time>
      </trkpt>
      <trkpt lat="58.555886959657073" lon="-4.76870602928102">
        <ele>51.090000000000003</ele>
        <time>2019-09-03T12:08:30Z</time>
      </trkpt>
      <trkpt lat="58.55577003210783" lon="-4.768853969871998">
        <ele>51.090000000000003</ele>
        <time>2019-09-03T12:08:31Z</time>
      </trkpt>
      <trkpt lat="58.555675987154245" lon="-4.769041975960136">
        <ele>51.090000000000003</ele>
        <time>2019-09-03T12:08:32Z</time>
      </trkpt>
      <trkpt lat="58.55559803545475" lon="-4.769248003140092">
        <ele>51.090000000000003</ele>
        <time>2019-09-03T12:08:33Z</time>
      </trkpt>
      <trkpt lat="58.555538021028042" lon="-4.769470961764455">
        <ele>51.57</ele>
        <time>2019-09-03T12:08:34Z</time>
      </trkpt>
      <trkpt lat="58.555480018258095" lon="-4.769687969237566">
        <ele>51.57</ele>
        <time>2019-09-03T12:08:35Z</time>
      </trkpt>
      <trkpt lat="58.555420003831387" lon="-4.769912017509341">
        <ele>52.049999999999997</ele>
        <time>2019-09-03T12:08:36Z</time>
      </trkpt>
      <trkpt lat="58.555357977747917" lon="-4.770138999447227">
        <ele>52.049999999999997</ele>
        <time>2019-09-03T12:08:37Z</time>
      </trkpt>
      <trkpt lat="58.555287988856435" lon="-4.770351983606815">
        <ele>52.049999999999997</ele>
        <time>2019-09-03T12:08:38Z</time>
      </trkpt>
      <trkpt lat="58.555195033550262" lon="-4.770537978038192">
        <ele>52.049999999999997</ele>
        <time>2019-09-03T12:08:39Z</time>
      </trkpt>
      <trkpt lat="58.55508397333324" lon="-4.770702011883259">
        <ele>51.57</ele>
        <time>2019-09-03T12:08:40Z</time>
      </trkpt>
      <trkpt lat="58.553790980949998" lon="-4.772490961477161">
        <ele>42.439999999999998</ele>
        <time>2019-09-03T12:08:50Z</time>
      </trkpt>
      <trkpt lat="58.552810968831182" lon="-4.773616986349225">
        <ele>35.229999999999997</ele>
        <time>2019-09-03T12:08:57Z</time>
      </trkpt>
      <trkpt lat="58.55265598744154" lon="-4.773753024637699">
        <ele>34.259999999999998</ele>
        <time>2019-09-03T12:08:58Z</time>
      </trkpt>
      <trkpt lat="58.552488014101982" lon="-4.773850003257394">
        <ele>32.82</ele>
        <time>2019-09-03T12:08:59Z</time>
      </trkpt>
      <trkpt lat="58.550656987354159" lon="-4.775081975385547">
        <ele>19.84</ele>
        <time>2019-09-03T12:09:10Z</time>
      </trkpt>
      <trkpt lat="58.550236970186234" lon="-4.775639958679676">
        <ele>17.920000000000002</ele>
        <time>2019-09-03T12:09:13Z</time>
      </trkpt>
      <trkpt lat="58.550113001838326" lon="-4.775858977809548">
        <ele>17.440000000000001</ele>
        <time>2019-09-03T12:09:14Z</time>
      </trkpt>
      <trkpt lat="58.549991967156529" lon="-4.776071039959788">
        <ele>16.960000000000001</ele>
        <time>2019-09-03T12:09:15Z</time>
      </trkpt>
      <trkpt lat="58.549214964732528" lon="-4.777362020686269">
        <ele>13.119999999999999</ele>
        <time>2019-09-03T12:09:22Z</time>
      </trkpt>
      <trkpt lat="58.548001013696194" lon="-4.777984041720629">
        <ele>9.27</ele>
        <time>2019-09-03T12:09:30Z</time>
      </trkpt>
      <trkpt lat="58.546328991651535" lon="-4.778666999191046">
        <ele>3.5</ele>
        <time>2019-09-03T12:09:39Z</time>
      </trkpt>
      <trkpt lat="58.544450020417571" lon="-4.779287008568645">
        <ele>2.54</ele>
        <time>2019-09-03T12:09:49Z</time>
      </trkpt>
      <trkpt lat="58.544275006279349" lon="-4.779377030208707">
        <ele>2.54</ele>
        <time>2019-09-03T12:09:50Z</time>
      </trkpt>
      <trkpt lat="58.544097980484366" lon="-4.779512984678149">
        <ele>2.54</ele>
        <time>2019-09-03T12:09:51Z</time>
      </trkpt>
      <trkpt lat="58.543257024139166" lon="-4.78015897795558">
        <ele>2.54</ele>
        <time>2019-09-03T12:09:56Z</time>
      </trkpt>
      <trkpt lat="58.54311503469944" lon="-4.780291998758912">
        <ele>3.02</ele>
        <time>2019-09-03T12:09:57Z</time>
      </trkpt>
      <trkpt lat="58.542986959218979" lon="-4.78045703843236">
        <ele>3.02</ele>
        <time>2019-09-03T12:09:58Z</time>
      </trkpt>
      <trkpt lat="58.542496031150222" lon="-4.781009992584586">
        <ele>3.5</ele>
        <time>2019-09-03T12:10:02Z</time>
      </trkpt>
      <trkpt lat="58.542351024225354" lon="-4.78106003254652">
        <ele>3.5</ele>
        <time>2019-09-03T12:10:03Z</time>
      </trkpt>
      <trkpt lat="58.542195037007332" lon="-4.781101020053029">
        <ele>3.5</ele>
        <time>2019-09-03T12:10:04Z</time>
      </trkpt>
      <trkpt lat="58.540964992716908" lon="-4.781308975070715">
        <ele>3.98</ele>
        <time>2019-09-03T12:10:11Z</time>
      </trkpt>
      <trkpt lat="58.539196997880936" lon="-4.782536001875997">
        <ele>4.46</ele>
        <time>2019-09-03T12:10:21Z</time>
      </trkpt>
      <trkpt lat="58.5377879999578" lon="-4.783893031999469">
        <ele>4.46</ele>
        <time>2019-09-03T12:10:30Z</time>
      </trkpt>
      <trkpt lat="58.53765900246799" lon="-4.784086989238858">
        <ele>4.46</ele>
        <time>2019-09-03T12:10:31Z</time>
      </trkpt>
      <trkpt lat="58.537528999149799" lon="-4.784289998933673">
        <ele>4.46</ele>
        <time>2019-09-03T12:10:32Z</time>
      </trkpt>
      <trkpt lat="58.537418022751808" lon="-4.784541036933661">
        <ele>3.98</ele>
        <time>2019-09-03T12:10:33Z</time>
      </trkpt>
      <trkpt lat="58.537306962534785" lon="-4.784794002771378">
        <ele>4.46</ele>
        <time>2019-09-03T12:10:34Z</time>
      </trkpt>
      <trkpt lat="58.536754008382559" lon="-4.786514975130558">
        <ele>7.35</ele>
        <time>2019-09-03T12:10:41Z</time>
      </trkpt>
      <trkpt lat="58.53662702254951" lon="-4.786973968148232">
        <ele>8.310000000000001</ele>
        <time>2019-09-03T12:10:43Z</time>
      </trkpt>
      <trkpt lat="58.536538006737828" lon="-4.787188963964582">
        <ele>8.789999999999999</ele>
        <time>2019-09-03T12:10:44Z</time>
      </trkpt>
      <trkpt lat="58.536429964005947" lon="-4.78742198087275">
        <ele>9.75</ele>
        <time>2019-09-03T12:10:45Z</time>
      </trkpt>
      <trkpt lat="58.535842979326844" lon="-4.788285987451673">
        <ele>12.630000000000001</ele>
        <time>2019-09-03T12:10:49Z</time>
      </trkpt>
      <trkpt lat="58.535675005987287" lon="-4.788462007418275">
        <ele>13.6</ele>
        <time>2019-09-03T12:10:50Z</time>
      </trkpt>
      <trkpt lat="58.534590974450111" lon="-4.789701020345092">
        <ele>19.359999999999999</ele>
        <time>2019-09-03T12:10:57Z</time>
      </trkpt>
      <trkpt lat="58.534467006102204" lon="-4.789854995906353">
        <ele>19.84</ele>
        <time>2019-09-03T12:10:58Z</time>
      </trkpt>
      <trkpt lat="58.534342031925917" lon="-4.78997795842588">
        <ele>19.84</ele>
        <time>2019-09-03T12:10:59Z</time>
      </trkpt>
      <trkpt lat="58.534210016950965" lon="-4.790049036964774">
        <ele>19.84</ele>
        <time>2019-09-03T12:11:00Z</time>
      </trkpt>
      <trkpt lat="58.534067021682858" lon="-4.790078038349748">
        <ele>19.84</ele>
        <time>2019-09-03T12:11:01Z</time>
      </trkpt>
      <trkpt lat="58.533912040293217" lon="-4.790110979229212">
        <ele>19.84</ele>
        <time>2019-09-03T12:11:02Z</time>
      </trkpt>
      <trkpt lat="58.532539000734687" lon="-4.790426976978779">
        <ele>14.08</ele>
        <time>2019-09-03T12:11:10Z</time>
      </trkpt>
      <trkpt lat="58.532387036830187" lon="-4.790532002225518">
        <ele>13.6</ele>
        <time>2019-09-03T12:11:11Z</time>
      </trkpt>
      <trkpt lat="58.532242029905319" lon="-4.790681032463908">
        <ele>13.6</ele>
        <time>2019-09-03T12:11:12Z</time>
      </trkpt>
      <trkpt lat="58.531013997271657" lon="-4.792437041178346">
        <ele>14.08</ele>
        <time>2019-09-03T12:11:21Z</time>
      </trkpt>
      <trkpt lat="58.529682029038668" lon="-4.794732006266713">
        <ele>13.6</ele>
        <time>2019-09-03T12:11:31Z</time>
      </trkpt>
      <trkpt lat="58.528174962848425" lon="-4.796661017462611">
        <ele>12.15</ele>
        <time>2019-09-03T12:11:41Z</time>
      </trkpt>
      <trkpt lat="58.526865039020777" lon="-4.797437014058232">
        <ele>12.630000000000001</ele>
        <time>2019-09-03T12:11:49Z</time>
      </trkpt>
      <trkpt lat="58.525323020294309" lon="-4.797532986849546">
        <ele>11.67</ele>
        <time>2019-09-03T12:11:58Z</time>
      </trkpt>
      <trkpt lat="58.523945035412908" lon="-4.797513037919998">
        <ele>8.310000000000001</ele>
        <time>2019-09-03T12:12:07Z</time>
      </trkpt>
      <trkpt lat="58.522934010252357" lon="-4.797691991552711">
        <ele>7.35</ele>
        <time>2019-09-03T12:12:14Z</time>
      </trkpt>
      <trkpt lat="58.522798977792263" lon="-4.797798022627831">
        <ele>7.83</ele>
        <time>2019-09-03T12:12:15Z</time>
      </trkpt>
      <trkpt lat="58.522668974474072" lon="-4.797917967662215">
        <ele>8.310000000000001</ele>
        <time>2019-09-03T12:12:16Z</time>
      </trkpt>
      <trkpt lat="58.522544000297785" lon="-4.798074038699269">
        <ele>8.310000000000001</ele>
        <time>2019-09-03T12:12:17Z</time>
      </trkpt>
      <trkpt lat="58.522416008636355" lon="-4.798259027302265">
        <ele>8.310000000000001</ele>
        <time>2019-09-03T12:12:18Z</time>
      </trkpt>
      <trkpt lat="58.522280976176262" lon="-4.798452984541655">
        <ele>8.310000000000001</ele>
        <time>2019-09-03T12:12:19Z</time>
      </trkpt>
      <trkpt lat="58.522162036970258" lon="-4.798707962036133">
        <ele>7.83</ele>
        <time>2019-09-03T12:12:20Z</time>
      </trkpt>
      <trkpt lat="58.5220389906317" lon="-4.798971991986036">
        <ele>7.83</ele>
        <time>2019-09-03T12:12:21Z</time>
      </trkpt>
      <trkpt lat="58.520828979089856" lon="-4.801296964287758">
        <ele>9.27</ele>
        <time>2019-09-03T12:12:30Z</time>
      </trkpt>
      <trkpt lat="58.51924798451364" lon="-4.803336029872298">
        <ele>11.67</ele>
        <time>2019-09-03T12:12:40Z</time>
      </trkpt>
      <trkpt lat="58.517790958285332" lon="-4.804412014782429">
        <ele>13.119999999999999</ele>
        <time>2019-09-03T12:12:49Z</time>
      </trkpt>
      <trkpt lat="58.51611097343266" lon="-4.805653961375356">
        <ele>14.08</ele>
        <time>2019-09-03T12:12:59Z</time>
      </trkpt>
      <trkpt lat="58.513881973922253" lon="-4.807301005348563">
        <ele>15.52</ele>
        <time>2019-09-03T12:13:12Z</time>
      </trkpt>
      <trkpt lat="58.512216992676258" lon="-4.808447984978557">
        <ele>16.48</ele>
        <time>2019-09-03T12:13:23Z</time>
      </trkpt>
      <trkpt lat="58.510235007852316" lon="-4.809569986537099">
        <ele>20.32</ele>
        <time>2019-09-03T12:13:35Z</time>
      </trkpt>
      <trkpt lat="58.50846198387444" lon="-4.809926971793175">
        <ele>19.359999999999999</ele>
        <time>2019-09-03T12:13:45Z</time>
      </trkpt>
      <trkpt lat="58.506930023431778" lon="-4.810747979208827">
        <ele>17.920000000000002</ele>
        <time>2019-09-03T12:13:54Z</time>
      </trkpt>
      <trkpt lat="58.504541013389826" lon="-4.812351018190384">
        <ele>16.48</ele>
        <time>2019-09-03T12:14:08Z</time>
      </trkpt>
      <trkpt lat="58.503332007676363" lon="-4.813947016373277">
        <ele>16</ele>
        <time>2019-09-03T12:14:16Z</time>
      </trkpt>
      <trkpt lat="58.502127025276423" lon="-4.815969988703728">
        <ele>16.48</ele>
        <time>2019-09-03T12:14:25Z</time>
      </trkpt>
      <trkpt lat="58.502020994201303" lon="-4.816147014498711">
        <ele>16.48</ele>
        <time>2019-09-03T12:14:26Z</time>
      </trkpt>
      <trkpt lat="58.50190700031817" lon="-4.816262014210224">
        <ele>16</ele>
        <time>2019-09-03T12:14:27Z</time>
      </trkpt>
      <trkpt lat="58.501812033355236" lon="-4.816346000880003">
        <ele>15.52</ele>
        <time>2019-09-03T12:14:28Z</time>
      </trkpt>
      <trkpt lat="58.501686975359917" lon="-4.81638397090137">
        <ele>15.039999999999999</ele>
        <time>2019-09-03T12:14:29Z</time>
      </trkpt>
      <trkpt lat="58.501578010618687" lon="-4.816406015306711">
        <ele>15.039999999999999</ele>
        <time>2019-09-03T12:14:30Z</time>
      </trkpt>
      <trkpt lat="58.501468040049076" lon="-4.816379025578499">
        <ele>14.56</ele>
        <time>2019-09-03T12:14:31Z</time>
      </trkpt>
      <trkpt lat="58.501357985660434" lon="-4.816351030021906">
        <ele>14.56</ele>
        <time>2019-09-03T12:14:32Z</time>
      </trkpt>
      <trkpt lat="58.501243991777301" lon="-4.816322028636932">
        <ele>14.56</ele>
        <time>2019-09-03T12:14:33Z</time>
      </trkpt>
      <trkpt lat="58.500999994575977" lon="-4.816261008381844">
        <ele>14.56</ele>
        <time>2019-09-03T12:14:35Z</time>
      </trkpt>
      <trkpt lat="58.500869991257787" lon="-4.816261008381844">
        <ele>14.56</ele>
        <time>2019-09-03T12:14:36Z</time>
      </trkpt>
      <trkpt lat="58.500744011253119" lon="-4.816330997273326">
        <ele>14.56</ele>
        <time>2019-09-03T12:14:37Z</time>
      </trkpt>
      <trkpt lat="58.500616019591689" lon="-4.816400986164808">
        <ele>14.08</ele>
        <time>2019-09-03T12:14:38Z</time>
      </trkpt>
      <trkpt lat="58.500480987131596" lon="-4.816474998369813">
        <ele>13.6</ele>
        <time>2019-09-03T12:14:39Z</time>
      </trkpt>
      <trkpt lat="58.500388031825423" lon="-4.816627968102694">
        <ele>13.6</ele>
        <time>2019-09-03T12:14:40Z</time>
      </trkpt>
      <trkpt lat="58.5002769716084" lon="-4.816810023039579">
        <ele>13.6</ele>
        <time>2019-09-03T12:14:41Z</time>
      </trkpt>
      <trkpt lat="58.500161971896887" lon="-4.817008003592491">
        <ele>13.6</ele>
        <time>2019-09-03T12:14:42Z</time>
      </trkpt>
      <trkpt lat="58.499257983639836" lon="-4.819085039198399">
        <ele>16</ele>
        <time>2019-09-03T12:14:50Z</time>
      </trkpt>
      <trkpt lat="58.498374028131366" lon="-4.821723997592926">
        <ele>17.920000000000002</ele>
        <time>2019-09-03T12:14:59Z</time>
      </trkpt>
      <trkpt lat="58.497353028506041" lon="-4.824466975405812">
        <ele>19.84</ele>
        <time>2019-09-03T12:15:09Z</time>
      </trkpt>
      <trkpt lat="58.496688008308411" lon="-4.82633002102375">
        <ele>20.809999999999999</ele>
        <time>2019-09-03T12:15:16Z</time>
      </trkpt>
      <trkpt lat="58.496093982830644" lon="-4.828926986083388">
        <ele>24.649999999999999</ele>
        <time>2019-09-03T12:15:25Z</time>
      </trkpt>
      <trkpt lat="58.496004967018962" lon="-4.829540038481355">
        <ele>25.129999999999999</ele>
        <time>2019-09-03T12:15:28Z</time>
      </trkpt>
      <trkpt lat="58.495772033929825" lon="-4.831475000828505">
        <ele>26.57</ele>
        <time>2019-09-03T12:15:36Z</time>
      </trkpt>
      <trkpt lat="58.495302982628345" lon="-4.834231976419687">
        <ele>28.02</ele>
        <time>2019-09-03T12:15:45Z</time>
      </trkpt>
      <trkpt lat="58.494677022099495" lon="-4.837347026914358">
        <ele>31.859999999999999</ele>
        <time>2019-09-03T12:15:55Z</time>
      </trkpt>
      <trkpt lat="58.494475018233061" lon="-4.838959034532309">
        <ele>31.379999999999999</ele>
        <time>2019-09-03T12:16:01Z</time>
      </trkpt>
      <trkpt lat="58.494311990216374" lon="-4.84025202691555">
        <ele>31.859999999999999</ele>
        <time>2019-09-03T12:16:10Z</time>
      </trkpt>
      <trkpt lat="58.494119038805366" lon="-4.841785999014974">
        <ele>32.340000000000003</ele>
        <time>2019-09-03T12:16:17Z</time>
      </trkpt>
      <trkpt lat="58.493868000805378" lon="-4.843789022415876">
        <ele>35.710000000000001</ele>
        <time>2019-09-03T12:16:27Z</time>
      </trkpt>
      <trkpt lat="58.493512021377683" lon="-4.846617998555303">
        <ele>40.990000000000002</ele>
        <time>2019-09-03T12:16:37Z</time>
      </trkpt>
      <trkpt lat="58.493050010874867" lon="-4.849721984937787">
        <ele>43.880000000000003</ele>
        <time>2019-09-03T12:16:47Z</time>
      </trkpt>
      <trkpt lat="58.492293963208795" lon="-4.852706026285887">
        <ele>49.159999999999997</ele>
        <time>2019-09-03T12:16:59Z</time>
      </trkpt>
      <trkpt lat="58.491222001612186" lon="-4.856219971552491">
        <ele>52.530000000000001</ele>
        <time>2019-09-03T12:17:13Z</time>
      </trkpt>
      <trkpt lat="58.490242995321751" lon="-4.859275007620454">
        <ele>55.409999999999997</ele>
        <time>2019-09-03T12:17:25Z</time>
      </trkpt>
      <trkpt lat="58.489207997918129" lon="-4.862157041206956">
        <ele>61.18</ele>
        <time>2019-09-03T12:17:36Z</time>
      </trkpt>
      <trkpt lat="58.488571979105473" lon="-4.864138020202518">
        <ele>63.100000000000001</ele>
        <time>2019-09-03T12:17:42Z</time>
      </trkpt>
      <trkpt lat="58.487936966121197" lon="-4.865434030070901">
        <ele>65.989999999999995</ele>
        <time>2019-09-03T12:17:48Z</time>
      </trkpt>
      <trkpt lat="58.48714797757566" lon="-4.867170006036758">
        <ele>70.310000000000002</ele>
        <time>2019-09-03T12:17:57Z</time>
      </trkpt>
      <trkpt lat="58.486278019845486" lon="-4.869087031111121">
        <ele>74.159999999999997</ele>
        <time>2019-09-03T12:18:06Z</time>
      </trkpt>
      <trkpt lat="58.484842032194138" lon="-4.871594980359078">
        <ele>78.480000000000004</ele>
        <time>2019-09-03T12:18:18Z</time>
      </trkpt>
      <trkpt lat="58.483744002878666" lon="-4.873542012646794">
        <ele>85.209999999999994</ele>
        <time>2019-09-03T12:18:27Z</time>
      </trkpt>
      <trkpt lat="58.482320001348853" lon="-4.876006040722132">
        <ele>93.870000000000005</ele>
        <time>2019-09-03T12:18:39Z</time>
      </trkpt>
      <trkpt lat="58.480502972379327" lon="-4.878916991874576">
        <ele>104.92</ele>
        <time>2019-09-03T12:18:52Z</time>
      </trkpt>
      <trkpt lat="58.478967994451523" lon="-4.881943026557565">
        <ele>115.5</ele>
        <time>2019-09-03T12:19:04Z</time>
      </trkpt>
      <trkpt lat="58.477510968223214" lon="-4.884549966081977">
        <ele>124.15000000000001</ele>
        <time>2019-09-03T12:19:15Z</time>
      </trkpt>
      <trkpt lat="58.476014966145158" lon="-4.886472020298243">
        <ele>132.80000000000001</ele>
        <time>2019-09-03T12:19:25Z</time>
      </trkpt>
      <trkpt lat="58.474155021831393" lon="-4.888530028983951">
        <ele>144.81999999999999</ele>
        <time>2019-09-03T12:19:36Z</time>
      </trkpt>
      <trkpt lat="58.472855994477868" lon="-4.88996802829206">
        <ele>152.50999999999999</ele>
        <time>2019-09-03T12:19:45Z</time>
      </trkpt>
      <trkpt lat="58.471366027370095" lon="-4.891768964007497">
        <ele>159.24000000000001</ele>
        <time>2019-09-03T12:19:56Z</time>
      </trkpt>
      <trkpt lat="58.470466984435916" lon="-4.892815025523305">
        <ele>162.59999999999999</ele>
        <time>2019-09-03T12:20:04Z</time>
      </trkpt>
      <trkpt lat="58.469853010028601" lon="-4.894280014559627">
        <ele>165</ele>
        <time>2019-09-03T12:20:13Z</time>
      </trkpt>
      <trkpt lat="58.469096040353179" lon="-4.896375993266702">
        <ele>166.44999999999999</ele>
        <time>2019-09-03T12:20:24Z</time>
      </trkpt>
      <trkpt lat="58.468608967959881" lon="-4.898644974455237">
        <ele>167.41</ele>
        <time>2019-09-03T12:20:33Z</time>
      </trkpt>
      <trkpt lat="58.468380980193615" lon="-4.899300020188093">
        <ele>166.44999999999999</ele>
        <time>2019-09-03T12:20:36Z</time>
      </trkpt>
      <trkpt lat="58.46828400157392" lon="-4.899495989084244">
        <ele>166.44999999999999</ele>
        <time>2019-09-03T12:20:37Z</time>
      </trkpt>
      <trkpt lat="58.468185011297464" lon="-4.899692963808775">
        <ele>165.96000000000001</ele>
        <time>2019-09-03T12:20:38Z</time>
      </trkpt>
      <trkpt lat="58.46806799992919" lon="-4.89985297434032">
        <ele>165.96000000000001</ele>
        <time>2019-09-03T12:20:39Z</time>
      </trkpt>
      <trkpt lat="58.467935984954238" lon="-4.899990018457174">
        <ele>165.96000000000001</ele>
        <time>2019-09-03T12:20:40Z</time>
      </trkpt>
      <trkpt lat="58.467797012999654" lon="-4.900134019553661">
        <ele>166.44999999999999</ele>
        <time>2019-09-03T12:20:41Z</time>
      </trkpt>
      <trkpt lat="58.46596498042345" lon="-4.901705039665103">
        <ele>171.72999999999999</ele>
        <time>2019-09-03T12:20:53Z</time>
      </trkpt>
      <trkpt lat="58.465015981346369" lon="-4.903000965714455">
        <ele>174.13999999999999</ele>
        <time>2019-09-03T12:21:00Z</time>
      </trkpt>
      <trkpt lat="58.464259011670947" lon="-4.905226025730372">
        <ele>180.87</ele>
        <time>2019-09-03T12:21:07Z</time>
      </trkpt>
      <trkpt lat="58.463369021192193" lon="-4.907827014103532">
        <ele>186.15000000000001</ele>
        <time>2019-09-03T12:21:15Z</time>
      </trkpt>
      <trkpt lat="58.462500991299748" lon="-4.909890973940492">
        <ele>180.87</ele>
        <time>2019-09-03T12:21:23Z</time>
      </trkpt>
      <trkpt lat="58.461893973872066" lon="-4.912493973970413">
        <ele>175.09999999999999</ele>
        <time>2019-09-03T12:21:31Z</time>
      </trkpt>
      <trkpt lat="58.461819961667061" lon="-4.912795973941684">
        <ele>174.62</ele>
        <time>2019-09-03T12:21:32Z</time>
      </trkpt>
      <trkpt lat="58.461717031896114" lon="-4.913062015548348">
        <ele>174.62</ele>
        <time>2019-09-03T12:21:33Z</time>
      </trkpt>
      <trkpt lat="58.460980011150241" lon="-4.915050035342574">
        <ele>172.21000000000001</ele>
        <time>2019-09-03T12:21:41Z</time>
      </trkpt>
      <trkpt lat="58.460008967667818" lon="-4.918141029775143">
        <ele>167.88999999999999</ele>
        <time>2019-09-03T12:21:51Z</time>
      </trkpt>
      <trkpt lat="58.459231965243816" lon="-4.920470025390387">
        <ele>164.03999999999999</ele>
        <time>2019-09-03T12:21:59Z</time>
      </trkpt>
      <trkpt lat="58.459124006330967" lon="-4.920715028420091">
        <ele>163.56</ele>
        <time>2019-09-03T12:22:00Z</time>
      </trkpt>
      <trkpt lat="58.458982016891241" lon="-4.920916026458144">
        <ele>162.59999999999999</ele>
        <time>2019-09-03T12:22:01Z</time>
      </trkpt>
      <trkpt lat="58.458832986652851" lon="-4.921126998960972">
        <ele>162.59999999999999</ele>
        <time>2019-09-03T12:22:02Z</time>
      </trkpt>
      <trkpt lat="58.458683034405112" lon="-4.92133897729218">
        <ele>162.12</ele>
        <time>2019-09-03T12:22:03Z</time>
      </trkpt>
      <trkpt lat="58.458019020035863" lon="-4.922160990536213">
        <ele>162.59999999999999</ele>
        <time>2019-09-03T12:22:09Z</time>
      </trkpt>
      <trkpt lat="58.457543011754751" lon="-4.923088029026985">
        <ele>163.56</ele>
        <time>2019-09-03T12:22:17Z</time>
      </trkpt>
      <trkpt lat="58.456753017380834" lon="-4.924967000260949">
        <ele>161.63999999999999</ele>
        <time>2019-09-03T12:22:28Z</time>
      </trkpt>
      <trkpt lat="58.455742998048663" lon="-4.927369002252817">
        <ele>161.16</ele>
        <time>2019-09-03T12:22:39Z</time>
      </trkpt>
      <trkpt lat="58.454807996749878" lon="-4.929031971842051">
        <ele>159.24000000000001</ele>
        <time>2019-09-03T12:22:46Z</time>
      </trkpt>
      <trkpt lat="58.453603014349937" lon="-4.931085035204887">
        <ele>157.78999999999999</ele>
        <time>2019-09-03T12:22:55Z</time>
      </trkpt>
      <trkpt lat="58.45307202078402" lon="-4.932713974267244">
        <ele>155.87</ele>
        <time>2019-09-03T12:23:00Z</time>
      </trkpt>
      <trkpt lat="58.452224023640156" lon="-4.934834009036422">
        <ele>152.03</ele>
        <time>2019-09-03T12:23:07Z</time>
      </trkpt>
      <trkpt lat="58.450506990775466" lon="-4.937943024560809">
        <ele>144.34</ele>
        <time>2019-09-03T12:23:19Z</time>
      </trkpt>
      <trkpt lat="58.448569010943174" lon="-4.940691031515598">
        <ele>138.09</ele>
        <time>2019-09-03T12:23:31Z</time>
      </trkpt>
      <trkpt lat="58.447739034891129" lon="-4.942603027448058">
        <ele>136.16</ele>
        <time>2019-09-03T12:23:38Z</time>
      </trkpt>
      <trkpt lat="58.446958009153605" lon="-4.944374039769173">
        <ele>130.88</ele>
        <time>2019-09-03T12:23:46Z</time>
      </trkpt>
      <trkpt lat="58.446038011461496" lon="-4.94673203676939">
        <ele>120.78</ele>
        <time>2019-09-03T12:23:55Z</time>
      </trkpt>
      <trkpt lat="58.445006031543016" lon="-4.949049968272448">
        <ele>110.20999999999999</ele>
        <time>2019-09-03T12:24:05Z</time>
      </trkpt>
      <trkpt lat="58.444162979722023" lon="-4.950456032529473">
        <ele>103.48</ele>
        <time>2019-09-03T12:24:12Z</time>
      </trkpt>
      <trkpt lat="58.444027025252581" lon="-4.950575977563858">
        <ele>102.52</ele>
        <time>2019-09-03T12:24:13Z</time>
      </trkpt>
      <trkpt lat="58.443460995331407" lon="-4.951119963079691">
        <ele>97.709999999999994</ele>
        <time>2019-09-03T12:24:17Z</time>
      </trkpt>
      <trkpt lat="58.443327974528074" lon="-4.951301012188196">
        <ele>96.75</ele>
        <time>2019-09-03T12:24:18Z</time>
      </trkpt>
      <trkpt lat="58.443224038928747" lon="-4.951551966369152">
        <ele>95.310000000000002</ele>
        <time>2019-09-03T12:24:19Z</time>
      </trkpt>
      <trkpt lat="58.443117002025247" lon="-4.951822031289339">
        <ele>94.349999999999994</ele>
        <time>2019-09-03T12:24:20Z</time>
      </trkpt>
      <trkpt lat="58.443006025627255" lon="-4.952100981026888">
        <ele>93.390000000000001</ele>
        <time>2019-09-03T12:24:21Z</time>
      </trkpt>
      <trkpt lat="58.442893959581852" lon="-4.95238495990634">
        <ele>91.939999999999998</ele>
        <time>2019-09-03T12:24:22Z</time>
      </trkpt>
      <trkpt lat="58.441956024616957" lon="-4.954895004630089">
        <ele>83.290000000000006</ele>
        <time>2019-09-03T12:24:31Z</time>
      </trkpt>
      <trkpt lat="58.440983975306153" lon="-4.957151999697089">
        <ele>77.040000000000006</ele>
        <time>2019-09-03T12:24:40Z</time>
      </trkpt>
      <trkpt lat="58.439912013709545" lon="-4.95891303755343">
        <ele>70.790000000000006</ele>
        <time>2019-09-03T12:24:48Z</time>
      </trkpt>
      <trkpt lat="58.438907023519278" lon="-4.960691006854177">
        <ele>65.030000000000001</ele>
        <time>2019-09-03T12:24:56Z</time>
      </trkpt>
      <trkpt lat="58.437971016392112" lon="-4.961846033111215">
        <ele>61.659999999999997</ele>
        <time>2019-09-03T12:25:04Z</time>
      </trkpt>
      <trkpt lat="58.437864985316992" lon="-4.962050970643759">
        <ele>61.18</ele>
        <time>2019-09-03T12:25:05Z</time>
      </trkpt>
      <trkpt lat="58.437765995040536" lon="-4.962281975895166">
        <ele>61.18</ele>
        <time>2019-09-03T12:25:06Z</time>
      </trkpt>
      <trkpt lat="58.437664993107319" lon="-4.962520021945238">
        <ele>61.18</ele>
        <time>2019-09-03T12:25:07Z</time>
      </trkpt>
      <trkpt lat="58.437558962032199" lon="-4.962766030803323">
        <ele>60.700000000000003</ele>
        <time>2019-09-03T12:25:08Z</time>
      </trkpt>
      <trkpt lat="58.436825964599848" lon="-4.96448096819222">
        <ele>59.259999999999998</ele>
        <time>2019-09-03T12:25:15Z</time>
      </trkpt>
      <trkpt lat="58.436711970716715" lon="-4.964663023129106">
        <ele>59.259999999999998</ele>
        <time>2019-09-03T12:25:16Z</time>
      </trkpt>
      <trkpt lat="58.436577022075653" lon="-4.964837031438947">
        <ele>59.740000000000002</ele>
        <time>2019-09-03T12:25:17Z</time>
      </trkpt>
      <trkpt lat="58.436130015179515" lon="-4.965433990582824">
        <ele>59.740000000000002</ele>
        <time>2019-09-03T12:25:20Z</time>
      </trkpt>
      <trkpt lat="58.435271959751844" lon="-4.967071982100606">
        <ele>60.700000000000003</ele>
        <time>2019-09-03T12:25:27Z</time>
      </trkpt>
      <trkpt lat="58.434103019535542" lon="-4.968904014676809">
        <ele>63.579999999999998</ele>
        <time>2019-09-03T12:25:36Z</time>
      </trkpt>
      <trkpt lat="58.432395039126277" lon="-4.971024971455336">
        <ele>68.870000000000005</ele>
        <time>2019-09-03T12:25:47Z</time>
      </trkpt>
      <trkpt lat="58.431107997894287" lon="-4.971469966694713">
        <ele>71.760000000000005</ele>
        <time>2019-09-03T12:25:54Z</time>
      </trkpt>
      <trkpt lat="58.430521013215184" lon="-4.971695020794869">
        <ele>72.239999999999995</ele>
        <time>2019-09-03T12:25:58Z</time>
      </trkpt>
      <trkpt lat="58.43038396909833" lon="-4.971808008849621">
        <ele>72.719999999999999</ele>
        <time>2019-09-03T12:25:59Z</time>
      </trkpt>
      <trkpt lat="58.430257989093661" lon="-4.971943963319063">
        <ele>72.719999999999999</ele>
        <time>2019-09-03T12:26:00Z</time>
      </trkpt>
      <trkpt lat="58.430137960240245" lon="-4.972116965800524">
        <ele>72.719999999999999</ele>
        <time>2019-09-03T12:26:01Z</time>
      </trkpt>
      <trkpt lat="58.430038969963789" lon="-4.972315030172467">
        <ele>72.239999999999995</ele>
        <time>2019-09-03T12:26:02Z</time>
      </trkpt>
      <trkpt lat="58.429947020485997" lon="-4.972501024603844">
        <ele>72.239999999999995</ele>
        <time>2019-09-03T12:26:03Z</time>
      </trkpt>
      <trkpt lat="58.429882982745767" lon="-4.972705040127039">
        <ele>72.239999999999995</ele>
        <time>2019-09-03T12:26:04Z</time>
      </trkpt>
      <trkpt lat="58.429833026602864" lon="-4.972888017073274">
        <ele>72.239999999999995</ele>
        <time>2019-09-03T12:26:05Z</time>
      </trkpt>
      <trkpt lat="58.429784998297691" lon="-4.973065964877605">
        <ele>72.239999999999995</ele>
        <time>2019-09-03T12:26:06Z</time>
      </trkpt>
      <trkpt lat="58.429433964192867" lon="-4.974358035251498">
        <ele>71.269999999999996</ele>
        <time>2019-09-03T12:26:14Z</time>
      </trkpt>
      <trkpt lat="58.42907102778554" lon="-4.976058974862099">
        <ele>69.349999999999994</ele>
        <time>2019-09-03T12:26:23Z</time>
      </trkpt>
      <trkpt lat="58.428711025044322" lon="-4.978609001263976">
        <ele>61.18</ele>
        <time>2019-09-03T12:26:32Z</time>
      </trkpt>
      <trkpt lat="58.428316991776228" lon="-4.981317026540637">
        <ele>51.090000000000003</ele>
        <time>2019-09-03T12:26:42Z</time>
      </trkpt>
      <trkpt lat="58.427681978791952" lon="-4.983549965545535">
        <ele>40.990000000000002</ele>
        <time>2019-09-03T12:26:50Z</time>
      </trkpt>
      <trkpt lat="58.42724503017962" lon="-4.984373990446329">
        <ele>38.590000000000003</ele>
        <time>2019-09-03T12:26:54Z</time>
      </trkpt>
      <trkpt lat="58.427131036296487" lon="-4.984499970450997">
        <ele>38.109999999999999</ele>
        <time>2019-09-03T12:26:55Z</time>
      </trkpt>
      <trkpt lat="58.42701000161469" lon="-4.98459099791944">
        <ele>37.630000000000003</ele>
        <time>2019-09-03T12:26:56Z</time>
      </trkpt>
      <trkpt lat="58.426887039095163" lon="-4.984643971547484">
        <ele>36.670000000000002</ele>
        <time>2019-09-03T12:26:57Z</time>
      </trkpt>
      <trkpt lat="58.426756029948592" lon="-4.984656041488051">
        <ele>36.189999999999998</ele>
        <time>2019-09-03T12:26:58Z</time>
      </trkpt>
      <trkpt lat="58.426620997488499" lon="-4.984612036496401">
        <ele>35.229999999999997</ele>
        <time>2019-09-03T12:26:59Z</time>
      </trkpt>
      <trkpt lat="58.426482025533915" lon="-4.984537018463016">
        <ele>34.740000000000002</ele>
        <time>2019-09-03T12:27:00Z</time>
      </trkpt>
      <trkpt lat="58.42634498141706" lon="-4.984463006258011">
        <ele>33.780000000000001</ele>
        <time>2019-09-03T12:27:01Z</time>
      </trkpt>
      <trkpt lat="58.425515005365014" lon="-4.984126975759864">
        <ele>29.940000000000001</ele>
        <time>2019-09-03T12:27:07Z</time>
      </trkpt>
      <trkpt lat="58.425372010096908" lon="-4.984120018780232">
        <ele>29.460000000000001</ele>
        <time>2019-09-03T12:27:08Z</time>
      </trkpt>
      <trkpt lat="58.425233960151672" lon="-4.984169974923134">
        <ele>28.5</ele>
        <time>2019-09-03T12:27:09Z</time>
      </trkpt>
      <trkpt lat="58.425121977925301" lon="-4.984210040420294">
        <ele>28.02</ele>
        <time>2019-09-03T12:27:10Z</time>
      </trkpt>
      <trkpt lat="58.424984011799097" lon="-4.984383964911103">
        <ele>27.530000000000001</ele>
        <time>2019-09-03T12:27:11Z</time>
      </trkpt>
      <trkpt lat="58.424863982945681" lon="-4.984536012634635">
        <ele>26.57</ele>
        <time>2019-09-03T12:27:12Z</time>
      </trkpt>
      <trkpt lat="58.424769015982747" lon="-4.984725024551153">
        <ele>26.09</ele>
        <time>2019-09-03T12:27:13Z</time>
      </trkpt>
      <trkpt lat="58.424697015434504" lon="-4.98497799038887">
        <ele>26.09</ele>
        <time>2019-09-03T12:27:14Z</time>
      </trkpt>
      <trkpt lat="58.424621997401118" lon="-4.985240008682013">
        <ele>25.129999999999999</ele>
        <time>2019-09-03T12:27:15Z</time>
      </trkpt>
      <trkpt lat="58.424575980752707" lon="-4.985508983954787">
        <ele>24.649999999999999</ele>
        <time>2019-09-03T12:27:16Z</time>
      </trkpt>
      <trkpt lat="58.424557037651539" lon="-4.985816013067961">
        <ele>23.690000000000001</ele>
        <time>2019-09-03T12:27:17Z</time>
      </trkpt>
      <trkpt lat="58.424552008509636" lon="-4.986118013039231">
        <ele>22.73</ele>
        <time>2019-09-03T12:27:18Z</time>
      </trkpt>
      <trkpt lat="58.424587966874242" lon="-4.986421018838882">
        <ele>21.289999999999999</ele>
        <time>2019-09-03T12:27:19Z</time>
      </trkpt>
      <trkpt lat="58.424623003229499" lon="-4.986721007153392">
        <ele>20.32</ele>
        <time>2019-09-03T12:27:20Z</time>
      </trkpt>
      <trkpt lat="58.424768010154366" lon="-4.988162023946643">
        <ele>15.52</ele>
        <time>2019-09-03T12:27:26Z</time>
      </trkpt>
      <trkpt lat="58.424775972962379" lon="-4.988380959257484">
        <ele>16</ele>
        <time>2019-09-03T12:27:27Z</time>
      </trkpt>
      <trkpt lat="58.424764992669225" lon="-4.988596038892865">
        <ele>16</ele>
        <time>2019-09-03T12:27:28Z</time>
      </trkpt>
      <trkpt lat="58.424744959920645" lon="-4.988794019445777">
        <ele>16</ele>
        <time>2019-09-03T12:27:29Z</time>
      </trkpt>
      <trkpt lat="58.424695003777742" lon="-4.988976996392012">
        <ele>16</ele>
        <time>2019-09-03T12:27:30Z</time>
      </trkpt>
      <trkpt lat="58.42462501488626" lon="-4.989128038287163">
        <ele>16.48</ele>
        <time>2019-09-03T12:27:31Z</time>
      </trkpt>
      <trkpt lat="58.424552008509636" lon="-4.989288970828056">
        <ele>16.48</ele>
        <time>2019-09-03T12:27:32Z</time>
      </trkpt>
      <trkpt lat="58.424471961334348" lon="-4.989462979137898">
        <ele>16.48</ele>
        <time>2019-09-03T12:27:33Z</time>
      </trkpt>
      <trkpt lat="58.424385040998459" lon="-4.989654002711177">
        <ele>16.48</ele>
        <time>2019-09-03T12:27:34Z</time>
      </trkpt>
      <trkpt lat="58.424286972731352" lon="-4.989866986870766">
        <ele>16.48</ele>
        <time>2019-09-03T12:27:35Z</time>
      </trkpt>
      <trkpt lat="58.423346020281315" lon="-4.991618972271681">
        <ele>11.19</ele>
        <time>2019-09-03T12:27:42Z</time>
      </trkpt>
      <trkpt lat="58.422793988138437" lon="-4.993835985660553">
        <ele>10.23</ele>
        <time>2019-09-03T12:27:48Z</time>
      </trkpt>
      <trkpt lat="58.421935010701418" lon="-4.99980197288096">
        <ele>26.09</ele>
        <time>2019-09-03T12:28:03Z</time>
      </trkpt>
      <trkpt lat="58.42125297524035" lon="-5.00222903676331">
        <ele>31.859999999999999</ele>
        <time>2019-09-03T12:28:10Z</time>
      </trkpt>
      <trkpt lat="58.420212026685476" lon="-5.003724033012986">
        <ele>35.229999999999997</ele>
        <time>2019-09-03T12:28:16Z</time>
      </trkpt>
      <trkpt lat="58.418868994340301" lon="-5.004326021298766">
        <ele>33.780000000000001</ele>
        <time>2019-09-03T12:28:22Z</time>
      </trkpt>
      <trkpt lat="58.416550979018211" lon="-5.003963001072407">
        <ele>28.02</ele>
        <time>2019-09-03T12:28:32Z</time>
      </trkpt>
      <trkpt lat="58.413997013121843" lon="-5.003495961427689">
        <ele>36.670000000000002</ele>
        <time>2019-09-03T12:28:43Z</time>
      </trkpt>
      <trkpt lat="58.41065900400281" lon="-5.002886010333896">
        <ele>43.399999999999999</ele>
        <time>2019-09-03T12:28:58Z</time>
      </trkpt>
      <trkpt lat="58.40795299038291" lon="-5.002619968727231">
        <ele>39.07</ele>
        <time>2019-09-03T12:29:10Z</time>
      </trkpt>
      <trkpt lat="58.406687993556261" lon="-5.003436030820012">
        <ele>39.07</ele>
        <time>2019-09-03T12:29:16Z</time>
      </trkpt>
      <trkpt lat="58.405683003365993" lon="-5.005140993744135">
        <ele>40.030000000000001</ele>
        <time>2019-09-03T12:29:22Z</time>
      </trkpt>
      <trkpt lat="58.404707014560699" lon="-5.008068038150668">
        <ele>39.07</ele>
        <time>2019-09-03T12:29:30Z</time>
      </trkpt>
      <trkpt lat="58.403728008270264" lon="-5.009790016338229">
        <ele>39.549999999999997</ele>
        <time>2019-09-03T12:29:36Z</time>
      </trkpt>
      <trkpt lat="58.401728002354503" lon="-5.011652978137136">
        <ele>45.799999999999997</ele>
        <time>2019-09-03T12:29:46Z</time>
      </trkpt>
      <trkpt lat="58.398902965709567" lon="-5.014232005923986">
        <ele>60.219999999999999</ele>
        <time>2019-09-03T12:30:00Z</time>
      </trkpt>
      <trkpt lat="58.397153997793794" lon="-5.016358997672796">
        <ele>64.549999999999997</ele>
        <time>2019-09-03T12:30:09Z</time>
      </trkpt>
      <trkpt lat="58.395343003794551" lon="-5.019734976813197">
        <ele>52.530000000000001</ele>
        <time>2019-09-03T12:30:20Z</time>
      </trkpt>
      <trkpt lat="58.393736025318503" lon="-5.022047962993383">
        <ele>40.990000000000002</ele>
        <time>2019-09-03T12:30:29Z</time>
      </trkpt>
      <trkpt lat="58.391726966947317" lon="-5.023787962272763">
        <ele>40.030000000000001</ele>
        <time>2019-09-03T12:30:39Z</time>
      </trkpt>
      <trkpt lat="58.388605965301394" lon="-5.026305969804525">
        <ele>43.399999999999999</ele>
        <time>2019-09-03T12:30:54Z</time>
      </trkpt>
      <trkpt lat="58.387129995971918" lon="-5.028182007372379">
        <ele>50.130000000000003</ele>
        <time>2019-09-03T12:31:02Z</time>
      </trkpt>
      <trkpt lat="58.385508013889194" lon="-5.030652992427349">
        <ele>45.32</ele>
        <time>2019-09-03T12:31:12Z</time>
      </trkpt>
      <trkpt lat="58.383874967694283" lon="-5.032760035246611">
        <ele>23.690000000000001</ele>
        <time>2019-09-03T12:31:23Z</time>
      </trkpt>
      <trkpt lat="58.382632015272975" lon="-5.033133029937744">
        <ele>10.710000000000001</ele>
        <time>2019-09-03T12:31:30Z</time>
      </trkpt>
      <trkpt lat="58.38135696016252" lon="-5.032516960054636">
        <ele>5.42</ele>
        <time>2019-09-03T12:31:37Z</time>
      </trkpt>
      <trkpt lat="58.380392035469413" lon="-5.031203012913466">
        <ele>4.46</ele>
        <time>2019-09-03T12:31:43Z</time>
      </trkpt>
      <trkpt lat="58.379737995564938" lon="-5.02913000062108">
        <ele>4.46</ele>
        <time>2019-09-03T12:31:49Z</time>
      </trkpt>
      <trkpt lat="58.378691012039781" lon="-5.023962976410985">
        <ele>6.87</ele>
        <time>2019-09-03T12:32:02Z</time>
      </trkpt>
      <trkpt lat="58.377562975510955" lon="-5.019583012908697">
        <ele>11.67</ele>
        <time>2019-09-03T12:32:14Z</time>
      </trkpt>
      <trkpt lat="58.37695000693202" lon="-5.017854999750853">
        <ele>12.630000000000001</ele>
        <time>2019-09-03T12:32:21Z</time>
      </trkpt>
      <trkpt lat="58.376189013943076" lon="-5.017041033133864">
        <ele>11.67</ele>
        <time>2019-09-03T12:32:27Z</time>
      </trkpt>
      <trkpt lat="58.376052975654602" lon="-5.016976995393634">
        <ele>11.19</ele>
        <time>2019-09-03T12:32:28Z</time>
      </trkpt>
      <trkpt lat="58.37570303119719" lon="-5.016812961548567">
        <ele>10.710000000000001</ele>
        <time>2019-09-03T12:32:31Z</time>
      </trkpt>
      <trkpt lat="58.375500021502376" lon="-5.016788989305496">
        <ele>10.710000000000001</ele>
        <time>2019-09-03T12:32:33Z</time>
      </trkpt>
      <trkpt lat="58.375393990427256" lon="-5.016780020669103">
        <ele>10.23</ele>
        <time>2019-09-03T12:32:34Z</time>
      </trkpt>
      <trkpt lat="58.375281002372503" lon="-5.016770968213677">
        <ele>10.23</ele>
        <time>2019-09-03T12:32:35Z</time>
      </trkpt>
      <trkpt lat="58.37447902187705" lon="-5.016872975975275">
        <ele>9.75</ele>
        <time>2019-09-03T12:32:43Z</time>
      </trkpt>
      <trkpt lat="58.373968983069062" lon="-5.017069028690457">
        <ele>10.23</ele>
        <time>2019-09-03T12:32:49Z</time>
      </trkpt>
      <trkpt lat="58.373907962813973" lon="-5.017116973176599">
        <ele>10.23</ele>
        <time>2019-09-03T12:32:50Z</time>
      </trkpt>
      <trkpt lat="58.373786006122828" lon="-5.017005996778607">
        <ele>10.23</ele>
        <time>2019-09-03T12:32:51Z</time>
      </trkpt>
      <trkpt lat="58.373766979202628" lon="-5.016894014552236">
        <ele>10.710000000000001</ele>
        <time>2019-09-03T12:32:52Z</time>
      </trkpt>
      <trkpt lat="58.373744012787938" lon="-5.016751019284129">
        <ele>10.710000000000001</ele>
        <time>2019-09-03T12:32:53Z</time>
      </trkpt>
      <trkpt lat="58.373719034716487" lon="-5.016601989045739">
        <ele>10.710000000000001</ele>
        <time>2019-09-03T12:32:54Z</time>
      </trkpt>
      <trkpt lat="58.373708976432681" lon="-5.01645396463573">
        <ele>10.710000000000001</ele>
        <time>2019-09-03T12:32:55Z</time>
      </trkpt>
      <trkpt lat="58.373708976432681" lon="-5.016266964375973">
        <ele>10.710000000000001</ele>
        <time>2019-09-03T12:32:56Z</time>
      </trkpt>
      <trkpt lat="58.37374996393919" lon="-5.016118017956615">
        <ele>10.710000000000001</ele>
        <time>2019-09-03T12:32:57Z</time>
      </trkpt>
      <trkpt lat="58.373798998072743" lon="-5.015936968848109">
        <ele>10.710000000000001</ele>
        <time>2019-09-03T12:32:58Z</time>
      </trkpt>
      <trkpt lat="58.374244999140501" lon="-5.014293026179075">
        <ele>9.27</ele>
        <time>2019-09-03T12:33:06Z</time>
      </trkpt>
      <trkpt lat="58.37467398494482" lon="-5.012346999719739">
        <ele>7.35</ele>
        <time>2019-09-03T12:33:16Z</time>
      </trkpt>
      <trkpt lat="58.375156028196216" lon="-5.009419033303857">
        <ele>7.35</ele>
        <time>2019-09-03T12:33:28Z</time>
      </trkpt>
      <trkpt lat="58.375471020117402" lon="-5.007369993254542">
        <ele>8.310000000000001</ele>
        <time>2019-09-03T12:33:36Z</time>
      </trkpt>
      <trkpt lat="58.375419974327087" lon="-5.005511976778507">
        <ele>8.310000000000001</ele>
        <time>2019-09-03T12:33:43Z</time>
      </trkpt>
      <trkpt lat="58.375013032928109" lon="-5.002968991175294">
        <ele>9.27</ele>
        <time>2019-09-03T12:33:52Z</time>
      </trkpt>
      <trkpt lat="58.374484973028302" lon="-5.000706966966391">
        <ele>15.039999999999999</ele>
        <time>2019-09-03T12:34:02Z</time>
      </trkpt>
      <trkpt lat="58.37383596226573" lon="-4.998046969994903">
        <ele>15.52</ele>
        <time>2019-09-03T12:34:13Z</time>
      </trkpt>
      <trkpt lat="58.373096007853746" lon="-4.995898017659783">
        <ele>14.56</ele>
        <time>2019-09-03T12:34:22Z</time>
      </trkpt>
      <trkpt lat="58.372365022078156" lon="-4.994192970916629">
        <ele>12.630000000000001</ele>
        <time>2019-09-03T12:34:30Z</time>
      </trkpt>
      <trkpt lat="58.372232001274824" lon="-4.993997002020478">
        <ele>12.630000000000001</ele>
        <time>2019-09-03T12:34:31Z</time>
      </trkpt>
      <trkpt lat="58.371930001303554" lon="-4.993696007877588">
        <ele>13.119999999999999</ele>
        <time>2019-09-03T12:34:33Z</time>
      </trkpt>
      <trkpt lat="58.371649039909244" lon="-4.993455028161407">
        <ele>14.56</ele>
        <time>2019-09-03T12:34:35Z</time>
      </trkpt>
      <trkpt lat="58.370273988693953" lon="-4.992597978562117">
        <ele>30.899999999999999</ele>
        <time>2019-09-03T12:34:45Z</time>
      </trkpt>
      <trkpt lat="58.369019972160459" lon="-4.991817036643624">
        <ele>40.990000000000002</ele>
        <time>2019-09-03T12:34:54Z</time>
      </trkpt>
      <trkpt lat="58.36852896027267" lon="-4.991463990882039">
        <ele>44.359999999999999</ele>
        <time>2019-09-03T12:34:58Z</time>
      </trkpt>
      <trkpt lat="58.367349039763212" lon="-4.990345006808639">
        <ele>51.57</ele>
        <time>2019-09-03T12:35:08Z</time>
      </trkpt>
      <trkpt lat="58.366123018786311" lon="-4.988912958651781">
        <ele>45.799999999999997</ele>
        <time>2019-09-03T12:35:18Z</time>
      </trkpt>
      <trkpt lat="58.365042004734278" lon="-4.987569004297257">
        <ele>35.229999999999997</ele>
        <time>2019-09-03T12:35:27Z</time>
      </trkpt>
      <trkpt lat="58.364587035030127" lon="-4.9871039763093">
        <ele>32.82</ele>
        <time>2019-09-03T12:35:31Z</time>
      </trkpt>
      <trkpt lat="58.364459965378046" lon="-4.987048991024494">
        <ele>32.340000000000003</ele>
        <time>2019-09-03T12:35:32Z</time>
      </trkpt>
      <trkpt lat="58.364328034222126" lon="-4.987004986032844">
        <ele>32.340000000000003</ele>
        <time>2019-09-03T12:35:33Z</time>
      </trkpt>
      <trkpt lat="58.364189984276891" lon="-4.986982019618154">
        <ele>31.859999999999999</ele>
        <time>2019-09-03T12:35:34Z</time>
      </trkpt>
      <trkpt lat="58.364049000665545" lon="-4.986991994082928">
        <ele>31.379999999999999</ele>
        <time>2019-09-03T12:35:35Z</time>
      </trkpt>
      <trkpt lat="58.363400995731354" lon="-4.98703901655972">
        <ele>32.340000000000003</ele>
        <time>2019-09-03T12:35:40Z</time>
      </trkpt>
      <trkpt lat="58.363289013504982" lon="-4.986987970769405">
        <ele>32.82</ele>
        <time>2019-09-03T12:35:41Z</time>
      </trkpt>
      <trkpt lat="58.36317602545023" lon="-4.98691001906991">
        <ele>33.299999999999997</ele>
        <time>2019-09-03T12:35:42Z</time>
      </trkpt>
      <trkpt lat="58.363061025738716" lon="-4.986822009086609">
        <ele>33.780000000000001</ele>
        <time>2019-09-03T12:35:43Z</time>
      </trkpt>
      <trkpt lat="58.36294200271368" lon="-4.986702986061573">
        <ele>34.259999999999998</ele>
        <time>2019-09-03T12:35:44Z</time>
      </trkpt>
      <trkpt lat="58.361708018928766" lon="-4.985829005017877">
        <ele>33.299999999999997</ele>
        <time>2019-09-03T12:35:53Z</time>
      </trkpt>
      <trkpt lat="58.360457019880414" lon="-4.985270015895367">
        <ele>33.780000000000001</ele>
        <time>2019-09-03T12:36:03Z</time>
      </trkpt>
      <trkpt lat="58.359080962836742" lon="-4.984655035659671">
        <ele>33.780000000000001</ele>
        <time>2019-09-03T12:36:12Z</time>
      </trkpt>
      <trkpt lat="58.358178986236453" lon="-4.984205011278391">
        <ele>35.229999999999997</ele>
        <time>2019-09-03T12:36:18Z</time>
      </trkpt>
      <trkpt lat="58.358029033988714" lon="-4.984077019616962">
        <ele>36.189999999999998</ele>
        <time>2019-09-03T12:36:19Z</time>
      </trkpt>
      <trkpt lat="58.357753017917275" lon="-4.9836450163275">
        <ele>37.149999999999999</ele>
        <time>2019-09-03T12:36:21Z</time>
      </trkpt>
      <trkpt lat="58.356631016358733" lon="-4.981577033177018">
        <ele>40.030000000000001</ele>
        <time>2019-09-03T12:36:30Z</time>
      </trkpt>
      <trkpt lat="58.35514297708869" lon="-4.979000017046928">
        <ele>39.549999999999997</ele>
        <time>2019-09-03T12:36:41Z</time>
      </trkpt>
      <trkpt lat="58.353662984445691" lon="-4.976531965658069">
        <ele>40.030000000000001</ele>
        <time>2019-09-03T12:36:52Z</time>
      </trkpt>
      <trkpt lat="58.352740975096822" lon="-4.974994976073504">
        <ele>41.469999999999999</ele>
        <time>2019-09-03T12:37:00Z</time>
      </trkpt>
      <trkpt lat="58.352537965402007" lon="-4.974655006080866">
        <ele>41.950000000000003</ele>
        <time>2019-09-03T12:37:05Z</time>
      </trkpt>
      <trkpt lat="58.352521033957601" lon="-4.974627010524273">
        <ele>41.950000000000003</ele>
        <time>2019-09-03T12:37:06Z</time>
      </trkpt>
      <trkpt lat="58.352505024522543" lon="-4.974601026624441">
        <ele>41.469999999999999</ele>
        <time>2019-09-03T12:37:07Z</time>
      </trkpt>
      <trkpt lat="58.352495972067118" lon="-4.974586023017764">
        <ele>41.469999999999999</ele>
        <time>2019-09-03T12:37:08Z</time>
      </trkpt>
      <trkpt lat="58.352369992062449" lon="-4.974374966695905">
        <ele>41.950000000000003</ele>
        <time>2019-09-03T12:37:14Z</time>
      </trkpt>
      <trkpt lat="58.35161997936666" lon="-4.973124973475933">
        <ele>42.920000000000002</ele>
        <time>2019-09-03T12:37:24Z</time>
      </trkpt>
      <trkpt lat="58.351438008248806" lon="-4.972820961847901">
        <ele>43.399999999999999</ele>
        <time>2019-09-03T12:37:26Z</time>
      </trkpt>
      <trkpt lat="58.351343963295221" lon="-4.972663968801498">
        <ele>43.399999999999999</ele>
        <time>2019-09-03T12:37:27Z</time>
      </trkpt>
      <trkpt lat="58.350370991975069" lon="-4.971040980890393">
        <ele>44.359999999999999</ele>
        <time>2019-09-03T12:37:36Z</time>
      </trkpt>
      <trkpt lat="58.348801983520389" lon="-4.968424988910556">
        <ele>42.439999999999998</ele>
        <time>2019-09-03T12:37:49Z</time>
      </trkpt>
      <trkpt lat="58.347788024693727" lon="-4.966483991593123">
        <ele>42.439999999999998</ele>
        <time>2019-09-03T12:37:58Z</time>
      </trkpt>
      <trkpt lat="58.34725602529943" lon="-4.964741980656982">
        <ele>41.950000000000003</ele>
        <time>2019-09-03T12:38:06Z</time>
      </trkpt>
      <trkpt lat="58.346461001783609" lon="-4.962132023647428">
        <ele>41.469999999999999</ele>
        <time>2019-09-03T12:38:16Z</time>
      </trkpt>
      <trkpt lat="58.346154978498816" lon="-4.961152011528611">
        <ele>43.399999999999999</ele>
        <time>2019-09-03T12:38:22Z</time>
      </trkpt>
      <trkpt lat="58.345901006832719" lon="-4.960337039083242">
        <ele>45.32</ele>
        <time>2019-09-03T12:38:29Z</time>
      </trkpt>
      <trkpt lat="58.345874017104506" lon="-4.960249029099941">
        <ele>45.799999999999997</ele>
        <time>2019-09-03T12:38:30Z</time>
      </trkpt>
      <trkpt lat="58.34579698741436" lon="-4.960002014413476">
        <ele>46.280000000000001</ele>
        <time>2019-09-03T12:38:33Z</time>
      </trkpt>
      <trkpt lat="58.34577402099967" lon="-4.959928002208471">
        <ele>46.280000000000001</ele>
        <time>2019-09-03T12:38:34Z</time>
      </trkpt>
      <trkpt lat="58.345585009083152" lon="-4.959296006709337">
        <ele>47.240000000000002</ele>
        <time>2019-09-03T12:38:46Z</time>
      </trkpt>
      <trkpt lat="58.345571011304855" lon="-4.959243033081293">
        <ele>47.240000000000002</ele>
        <time>2019-09-03T12:38:58Z</time>
      </trkpt>
      <trkpt lat="58.345571011304855" lon="-4.959243033081293">
        <ele>47.240000000000002</ele>
        <time>2019-09-03T12:39:32Z</time>
      </trkpt>
      <trkpt lat="58.345571011304855" lon="-4.959243033081293">
        <ele>45.799999999999997</ele>
        <time>2019-09-03T12:39:52Z</time>
      </trkpt>
      <trkpt lat="58.345571011304855" lon="-4.959243033081293">
        <ele>45.799999999999997</ele>
        <time>2019-09-03T12:40:40Z</time>
      </trkpt>
      <trkpt lat="58.345571011304855" lon="-4.959243033081293">
        <ele>45.799999999999997</ele>
        <time>2019-09-03T12:41:40Z</time>
      </trkpt>
      <trkpt lat="58.345571011304855" lon="-4.959243033081293">
        <ele>45.32</ele>
        <time>2019-09-03T12:42:23Z</time>
      </trkpt>
      <trkpt lat="58.345528012141585" lon="-4.959089979529381">
        <ele>44.359999999999999</ele>
        <time>2019-09-03T12:42:36Z</time>
      </trkpt>
      <trkpt lat="58.345528012141585" lon="-4.959089979529381">
        <ele>44.359999999999999</ele>
        <time>2019-09-03T12:42:59Z</time>
      </trkpt>
      <trkpt lat="58.345528012141585" lon="-4.959089979529381">
        <ele>43.880000000000003</ele>
        <time>2019-09-03T12:43:08Z</time>
      </trkpt>
      <trkpt lat="58.345547961071134" lon="-4.959163991734386">
        <ele>42.920000000000002</ele>
        <time>2019-09-03T12:43:11Z</time>
      </trkpt>
      <trkpt lat="58.345567993819714" lon="-4.959232974797487">
        <ele>42.920000000000002</ele>
        <time>2019-09-03T12:43:12Z</time>
      </trkpt>
      <trkpt lat="58.345586014911532" lon="-4.959296006709337">
        <ele>42.439999999999998</ele>
        <time>2019-09-03T12:43:13Z</time>
      </trkpt>
      <trkpt lat="58.345598001033068" lon="-4.959339005872607">
        <ele>41.950000000000003</ele>
        <time>2019-09-03T12:43:14Z</time>
      </trkpt>
      <trkpt lat="58.345605041831732" lon="-4.9593670014292">
        <ele>41.469999999999999</ele>
        <time>2019-09-03T12:43:15Z</time>
      </trkpt>
      <trkpt lat="58.345605041831732" lon="-4.9593670014292">
        <ele>40.509999999999998</ele>
        <time>2019-09-03T12:43:28Z</time>
      </trkpt>
      <trkpt lat="58.345613004639745" lon="-4.959392985329032">
        <ele>40.509999999999998</ele>
        <time>2019-09-03T12:43:50Z</time>
      </trkpt>
      <trkpt lat="58.345632031559944" lon="-4.959462974220514">
        <ele>38.109999999999999</ele>
        <time>2019-09-03T12:43:51Z</time>
      </trkpt>
      <trkpt lat="58.345889020711184" lon="-4.960296973586083">
        <ele>35.710000000000001</ele>
        <time>2019-09-03T12:43:56Z</time>
      </trkpt>
      <trkpt lat="58.346498971804976" lon="-4.962253980338574">
        <ele>34.740000000000002</ele>
        <time>2019-09-03T12:44:07Z</time>
      </trkpt>
      <trkpt lat="58.347186958417296" lon="-4.964505024254322">
        <ele>34.259999999999998</ele>
        <time>2019-09-03T12:44:17Z</time>
      </trkpt>
      <trkpt lat="58.347809985280037" lon="-4.966549035161734">
        <ele>36.670000000000002</ele>
        <time>2019-09-03T12:44:27Z</time>
      </trkpt>
      <trkpt lat="58.348728977143764" lon="-4.968304038047791">
        <ele>38.590000000000003</ele>
        <time>2019-09-03T12:44:35Z</time>
      </trkpt>
      <trkpt lat="58.35024300031364" lon="-4.970827996730804">
        <ele>41.469999999999999</ele>
        <time>2019-09-03T12:44:46Z</time>
      </trkpt>
      <trkpt lat="58.352134963497519" lon="-4.973984034731984">
        <ele>46.280000000000001</ele>
        <time>2019-09-03T12:45:00Z</time>
      </trkpt>
      <trkpt lat="58.352852035313845" lon="-4.97517803683877">
        <ele>46.280000000000001</ele>
        <time>2019-09-03T12:45:07Z</time>
      </trkpt>
      <trkpt lat="58.353513032197952" lon="-4.976282017305493">
        <ele>44.359999999999999</ele>
        <time>2019-09-03T12:45:15Z</time>
      </trkpt>
      <trkpt lat="58.354538977146149" lon="-4.977992009371519">
        <ele>41.469999999999999</ele>
        <time>2019-09-03T12:45:25Z</time>
      </trkpt>
      <trkpt lat="58.355821995064616" lon="-4.980130987241864">
        <ele>38.590000000000003</ele>
        <time>2019-09-03T12:45:36Z</time>
      </trkpt>
      <trkpt lat="58.357383962720633" lon="-4.983010003343225">
        <ele>38.109999999999999</ele>
        <time>2019-09-03T12:45:49Z</time>
      </trkpt>
      <trkpt lat="58.357896013185382" lon="-4.983867974951863">
        <ele>37.630000000000003</ele>
        <time>2019-09-03T12:45:53Z</time>
      </trkpt>
      <trkpt lat="58.358022999018431" lon="-4.984066961333156">
        <ele>37.149999999999999</ele>
        <time>2019-09-03T12:45:54Z</time>
      </trkpt>
      <trkpt lat="58.358175968751311" lon="-4.98420299962163">
        <ele>36.670000000000002</ele>
        <time>2019-09-03T12:45:55Z</time>
      </trkpt>
      <trkpt lat="58.358341008424759" lon="-4.984324034303427">
        <ele>36.189999999999998</ele>
        <time>2019-09-03T12:45:56Z</time>
      </trkpt>
      <trkpt lat="58.358517028391361" lon="-4.984402991831303">
        <ele>36.189999999999998</ele>
        <time>2019-09-03T12:45:57Z</time>
      </trkpt>
      <trkpt lat="58.360657012090087" lon="-4.985359031707048">
        <ele>33.299999999999997</ele>
        <time>2019-09-03T12:46:10Z</time>
      </trkpt>
      <trkpt lat="58.362731030210853" lon="-4.986492013558745">
        <ele>31.379999999999999</ele>
        <time>2019-09-03T12:46:23Z</time>
      </trkpt>
      <trkpt lat="58.36322195827961" lon="-4.986942037940025">
        <ele>31.379999999999999</ele>
        <time>2019-09-03T12:46:27Z</time>
      </trkpt>
      <trkpt lat="58.363347016274929" lon="-4.987028036266565">
        <ele>31.379999999999999</ele>
        <time>2019-09-03T12:46:28Z</time>
      </trkpt>
      <trkpt lat="58.363492023199797" lon="-4.987032981589437">
        <ele>30.899999999999999</ele>
        <time>2019-09-03T12:46:29Z</time>
      </trkpt>
      <trkpt lat="58.3636490162462" lon="-4.987022001296282">
        <ele>30.899999999999999</ele>
        <time>2019-09-03T12:46:30Z</time>
      </trkpt>
      <trkpt lat="58.363813972100616" lon="-4.987009009346366">
        <ele>30.420000000000002</ele>
        <time>2019-09-03T12:46:31Z</time>
      </trkpt>
      <trkpt lat="58.364311018958688" lon="-4.986999034881592">
        <ele>29.940000000000001</ele>
        <time>2019-09-03T12:46:34Z</time>
      </trkpt>
      <trkpt lat="58.36446600034833" lon="-4.987051002681255">
        <ele>29.460000000000001</ele>
        <time>2019-09-03T12:46:35Z</time>
      </trkpt>
      <trkpt lat="58.36461796425283" lon="-4.987134989351034">
        <ele>29.460000000000001</ele>
        <time>2019-09-03T12:46:36Z</time>
      </trkpt>
      <trkpt lat="58.365841973572969" lon="-4.988491013646126">
        <ele>32.82</ele>
        <time>2019-09-03T12:46:44Z</time>
      </trkpt>
      <trkpt lat="58.366938997060061" lon="-4.989946028217673">
        <ele>43.399999999999999</ele>
        <time>2019-09-03T12:46:52Z</time>
      </trkpt>
      <trkpt lat="58.368481015786529" lon="-4.991429038345814">
        <ele>49.159999999999997</ele>
        <time>2019-09-03T12:47:02Z</time>
      </trkpt>
      <trkpt lat="58.369923960417509" lon="-4.992379965260625">
        <ele>46.280000000000001</ele>
        <time>2019-09-03T12:47:11Z</time>
      </trkpt>
      <trkpt lat="58.371245032176375" lon="-4.993202984333038">
        <ele>37.149999999999999</ele>
        <time>2019-09-03T12:47:19Z</time>
      </trkpt>
      <trkpt lat="58.371902005746961" lon="-4.993667006492615">
        <ele>30.420000000000002</ele>
        <time>2019-09-03T12:47:24Z</time>
      </trkpt>
      <trkpt lat="58.372006025165319" lon="-4.993771025910974">
        <ele>28.98</ele>
        <time>2019-09-03T12:47:25Z</time>
      </trkpt>
      <trkpt lat="58.372314982116222" lon="-4.994079982861877">
        <ele>25.609999999999999</ele>
        <time>2019-09-03T12:47:28Z</time>
      </trkpt>
      <trkpt lat="58.372408021241426" lon="-4.994288021698594">
        <ele>24.649999999999999</ele>
        <time>2019-09-03T12:47:29Z</time>
      </trkpt>
      <trkpt lat="58.372482033446431" lon="-4.994451971724629">
        <ele>23.690000000000001</ele>
        <time>2019-09-03T12:47:30Z</time>
      </trkpt>
      <trkpt lat="58.372773975133896" lon="-4.995102994143963">
        <ele>19.84</ele>
        <time>2019-09-03T12:47:36Z</time>
      </trkpt>
      <trkpt lat="58.372865002602339" lon="-4.995306003838778">
        <ele>18.399999999999999</ele>
        <time>2019-09-03T12:47:40Z</time>
      </trkpt>
      <trkpt lat="58.372900960966945" lon="-4.995385967195034">
        <ele>17.920000000000002</ele>
        <time>2019-09-03T12:47:41Z</time>
      </trkpt>
      <trkpt lat="58.372948989272118" lon="-4.995493004098535">
        <ele>17.440000000000001</ele>
        <time>2019-09-03T12:47:42Z</time>
      </trkpt>
      <trkpt lat="58.373003974556923" lon="-4.995630970224738">
        <ele>17.440000000000001</ele>
        <time>2019-09-03T12:47:43Z</time>
      </trkpt>
      <trkpt lat="58.373058037832379" lon="-4.995787041261792">
        <ele>17.440000000000001</ele>
        <time>2019-09-03T12:47:44Z</time>
      </trkpt>
      <trkpt lat="58.373573021963239" lon="-4.997284971177578">
        <ele>15.039999999999999</ele>
        <time>2019-09-03T12:47:51Z</time>
      </trkpt>
      <trkpt lat="58.374346001073718" lon="-5.000126017257571">
        <ele>13.6</ele>
        <time>2019-09-03T12:48:03Z</time>
      </trkpt>
      <trkpt lat="58.374945977702737" lon="-5.002655005082488">
        <ele>11.67</ele>
        <time>2019-09-03T12:48:13Z</time>
      </trkpt>
      <trkpt lat="58.375474037602544" lon="-5.005992008373141">
        <ele>7.35</ele>
        <time>2019-09-03T12:48:24Z</time>
      </trkpt>
      <trkpt lat="58.375353002920747" lon="-5.008208015933633">
        <ele>7.83</ele>
        <time>2019-09-03T12:48:31Z</time>
      </trkpt>
      <trkpt lat="58.374594021588564" lon="-5.012771040201187">
        <ele>6.87</ele>
        <time>2019-09-03T12:48:45Z</time>
      </trkpt>
      <trkpt lat="58.37392296642065" lon="-5.015479987487197">
        <ele>6.87</ele>
        <time>2019-09-03T12:48:54Z</time>
      </trkpt>
      <trkpt lat="58.373708976432681" lon="-5.016428986564279">
        <ele>5.91</ele>
        <time>2019-09-03T12:49:00Z</time>
      </trkpt>
      <trkpt lat="58.373708976432681" lon="-5.016525965183973">
        <ele>5.91</ele>
        <time>2019-09-03T12:49:01Z</time>
      </trkpt>
      <trkpt lat="58.373708976432681" lon="-5.016545997932553">
        <ele>5.91</ele>
        <time>2019-09-03T12:49:02Z</time>
      </trkpt>
      <trkpt lat="58.373724985867739" lon="-5.016638031229377">
        <ele>5.91</ele>
        <time>2019-09-03T12:49:03Z</time>
      </trkpt>
      <trkpt lat="58.373734960332513" lon="-5.016699973493815">
        <ele>5.91</ele>
        <time>2019-09-03T12:49:04Z</time>
      </trkpt>
      <trkpt lat="58.373768990859389" lon="-5.016902983188629">
        <ele>7.35</ele>
        <time>2019-09-03T12:49:11Z</time>
      </trkpt>
      <trkpt lat="58.373792041093111" lon="-5.017044972628355">
        <ele>7.35</ele>
        <time>2019-09-03T12:49:13Z</time>
      </trkpt>
      <trkpt lat="58.373772008344531" lon="-5.017244964838028">
        <ele>7.83</ele>
        <time>2019-09-03T12:49:14Z</time>
      </trkpt>
      <trkpt lat="58.373714005574584" lon="-5.017315959557891">
        <ele>7.83</ele>
        <time>2019-09-03T12:49:15Z</time>
      </trkpt>
      <trkpt lat="58.37364200502634" lon="-5.017404975369573">
        <ele>7.83</ele>
        <time>2019-09-03T12:49:16Z</time>
      </trkpt>
      <trkpt lat="58.373563969507813" lon="-5.017502037808299">
        <ele>8.310000000000001</ele>
        <time>2019-09-03T12:49:17Z</time>
      </trkpt>
      <trkpt lat="58.373487023636699" lon="-5.0176349747926">
        <ele>8.310000000000001</ele>
        <time>2019-09-03T12:49:18Z</time>
      </trkpt>
      <trkpt lat="58.373403958976269" lon="-5.017801020294428">
        <ele>8.310000000000001</ele>
        <time>2019-09-03T12:49:19Z</time>
      </trkpt>
      <trkpt lat="58.373313015326858" lon="-5.017982991412282">
        <ele>8.310000000000001</ele>
        <time>2019-09-03T12:49:20Z</time>
      </trkpt>
      <trkpt lat="58.373234979808331" lon="-5.018206033855677">
        <ele>8.789999999999999</ele>
        <time>2019-09-03T12:49:21Z</time>
      </trkpt>
      <trkpt lat="58.373151998966932" lon="-5.018455982208252">
        <ele>8.789999999999999</ele>
        <time>2019-09-03T12:49:22Z</time>
      </trkpt>
      <trkpt lat="58.372427970170975" lon="-5.020356997847557">
        <ele>7.83</ele>
        <time>2019-09-03T12:49:29Z</time>
      </trkpt>
      <trkpt lat="58.371454998850822" lon="-5.021821986883879">
        <ele>7.83</ele>
        <time>2019-09-03T12:49:36Z</time>
      </trkpt>
      <trkpt lat="58.371071023866534" lon="-5.022351974621415">
        <ele>7.83</ele>
        <time>2019-09-03T12:49:39Z</time>
      </trkpt>
      <trkpt lat="58.370969016104937" lon="-5.022569987922907">
        <ele>7.35</ele>
        <time>2019-09-03T12:49:40Z</time>
      </trkpt>
      <trkpt lat="58.37086801417172" lon="-5.022804010659456">
        <ele>7.35</ele>
        <time>2019-09-03T12:49:41Z</time>
      </trkpt>
      <trkpt lat="58.370792996138334" lon="-5.023082038387656">
        <ele>6.39</ele>
        <time>2019-09-03T12:49:42Z</time>
      </trkpt>
      <trkpt lat="58.370723007246852" lon="-5.023362999781966">
        <ele>5.91</ele>
        <time>2019-09-03T12:49:43Z</time>
      </trkpt>
      <trkpt lat="58.370659975335002" lon="-5.02364999614656">
        <ele>5.42</ele>
        <time>2019-09-03T12:49:44Z</time>
      </trkpt>
      <trkpt lat="58.370645977556705" lon="-5.023958031088114">
        <ele>4.94</ele>
        <time>2019-09-03T12:49:45Z</time>
      </trkpt>
      <trkpt lat="58.370630973950028" lon="-5.024276040494442">
        <ele>4.46</ele>
        <time>2019-09-03T12:49:46Z</time>
      </trkpt>
      <trkpt lat="58.370628962293267" lon="-5.024607041850686">
        <ele>4.46</ele>
        <time>2019-09-03T12:49:47Z</time>
      </trkpt>
      <trkpt lat="58.370670033618808" lon="-5.024947011843324">
        <ele>3.98</ele>
        <time>2019-09-03T12:49:48Z</time>
      </trkpt>
      <trkpt lat="58.370713032782078" lon="-5.02530500292778">
        <ele>3.98</ele>
        <time>2019-09-03T12:49:49Z</time>
      </trkpt>
      <trkpt lat="58.37076298892498" lon="-5.02566902898252">
        <ele>3.5</ele>
        <time>2019-09-03T12:49:50Z</time>
      </trkpt>
      <trkpt lat="58.370840018615127" lon="-5.026017967611551">
        <ele>3.98</ele>
        <time>2019-09-03T12:49:51Z</time>
      </trkpt>
      <trkpt lat="58.371838973835111" lon="-5.030546961352229">
        <ele>3.02</ele>
        <time>2019-09-03T12:50:03Z</time>
      </trkpt>
      <trkpt lat="58.372454037889838" lon="-5.033628987148404">
        <ele>3.5</ele>
        <time>2019-09-03T12:50:11Z</time>
      </trkpt>
      <trkpt lat="58.372485972940922" lon="-5.033948002383113">
        <ele>3.98</ele>
        <time>2019-09-03T12:50:12Z</time>
      </trkpt>
      <trkpt lat="58.372456971555948" lon="-5.034314040094614">
        <ele>3.5</ele>
        <time>2019-09-03T12:50:13Z</time>
      </trkpt>
      <trkpt lat="58.372429981827736" lon="-5.034643029794097">
        <ele>3.02</ele>
        <time>2019-09-03T12:50:14Z</time>
      </trkpt>
      <trkpt lat="58.372378014028072" lon="-5.034951986745">
        <ele>3.02</ele>
        <time>2019-09-03T12:50:15Z</time>
      </trkpt>
      <trkpt lat="58.372314982116222" lon="-5.035248035565019">
        <ele>3.02</ele>
        <time>2019-09-03T12:50:16Z</time>
      </trkpt>
      <trkpt lat="58.37224499322474" lon="-5.035535031929612">
        <ele>3.02</ele>
        <time>2019-09-03T12:50:17Z</time>
      </trkpt>
      <trkpt lat="58.372161006554961" lon="-5.035800989717245">
        <ele>2.54</ele>
        <time>2019-09-03T12:50:18Z</time>
      </trkpt>
      <trkpt lat="58.371859006583691" lon="-5.036893989890814">
        <ele>1.58</ele>
        <time>2019-09-03T12:50:22Z</time>
      </trkpt>
      <trkpt lat="58.371820030733943" lon="-5.037216022610664">
        <ele>1.1</ele>
        <time>2019-09-03T12:50:23Z</time>
      </trkpt>
      <trkpt lat="58.371780971065164" lon="-5.037545012310147">
        <ele>1.1</ele>
        <time>2019-09-03T12:50:24Z</time>
      </trkpt>
      <trkpt lat="58.371768984943628" lon="-5.037884982302785">
        <ele>0.62</ele>
        <time>2019-09-03T12:50:25Z</time>
      </trkpt>
      <trkpt lat="58.371798992156982" lon="-5.038226963952184">
        <ele>0.14</ele>
        <time>2019-09-03T12:50:26Z</time>
      </trkpt>
      <trkpt lat="58.371830005198717" lon="-5.038583027198911">
        <ele>0.14</ele>
        <time>2019-09-03T12:50:27Z</time>
      </trkpt>
      <trkpt lat="58.371864035725594" lon="-5.038970019668341">
        <ele>0.14</ele>
        <time>2019-09-03T12:50:28Z</time>
      </trkpt>
      <trkpt lat="58.371936958283186" lon="-5.039303032681346">
        <ele>0.14</ele>
        <time>2019-09-03T12:50:29Z</time>
      </trkpt>
      <trkpt lat="58.372638020664454" lon="-5.042525036260486">
        <ele>1.1</ele>
        <time>2019-09-03T12:50:38Z</time>
      </trkpt>
      <trkpt lat="58.37344603613019" lon="-5.046536028385162">
        <ele>-1.79</ele>
        <time>2019-09-03T12:50:49Z</time>
      </trkpt>
      <trkpt lat="58.374492013826966" lon="-5.051811011508107">
        <ele>16.48</ele>
        <time>2019-09-03T12:51:03Z</time>
      </trkpt>
      <trkpt lat="58.375384015962481" lon="-5.05536200478673">
        <ele>26.57</ele>
        <time>2019-09-03T12:51:13Z</time>
      </trkpt>
      <trkpt lat="58.376571983098984" lon="-5.05819802172482">
        <ele>31.379999999999999</ele>
        <time>2019-09-03T12:51:22Z</time>
      </trkpt>
      <trkpt lat="58.377482006326318" lon="-5.060073975473642">
        <ele>33.299999999999997</ele>
        <time>2019-09-03T12:51:29Z</time>
      </trkpt>
      <trkpt lat="58.378748008981347" lon="-5.062607992440462">
        <ele>32.82</ele>
        <time>2019-09-03T12:51:39Z</time>
      </trkpt>
      <trkpt lat="58.379107005894184" lon="-5.063477028161287">
        <ele>33.299999999999997</ele>
        <time>2019-09-03T12:51:42Z</time>
      </trkpt>
      <trkpt lat="58.379204990342259" lon="-5.063777016475797">
        <ele>34.259999999999998</ele>
        <time>2019-09-03T12:51:43Z</time>
      </trkpt>
      <trkpt lat="58.379275985062122" lon="-5.064101982861757">
        <ele>35.229999999999997</ele>
        <time>2019-09-03T12:51:44Z</time>
      </trkpt>
      <trkpt lat="58.379338011145592" lon="-5.06442803889513">
        <ele>36.189999999999998</ele>
        <time>2019-09-03T12:51:45Z</time>
      </trkpt>
      <trkpt lat="58.379369024187326" lon="-5.064759962260723">
        <ele>37.630000000000003</ele>
        <time>2019-09-03T12:51:46Z</time>
      </trkpt>
      <trkpt lat="58.379392996430397" lon="-5.065084006637335">
        <ele>38.590000000000003</ele>
        <time>2019-09-03T12:51:47Z</time>
      </trkpt>
      <trkpt lat="58.379376986995339" lon="-5.065404027700424">
        <ele>39.549999999999997</ele>
        <time>2019-09-03T12:51:48Z</time>
      </trkpt>
      <trkpt lat="58.379359971731901" lon="-5.065724970772862">
        <ele>40.509999999999998</ele>
        <time>2019-09-03T12:51:49Z</time>
      </trkpt>
      <trkpt lat="58.379322001710534" lon="-5.066038034856319">
        <ele>40.990000000000002</ele>
        <time>2019-09-03T12:51:50Z</time>
      </trkpt>
      <trkpt lat="58.379267016425729" lon="-5.066356966271997">
        <ele>41.469999999999999</ele>
        <time>2019-09-03T12:51:51Z</time>
      </trkpt>
      <trkpt lat="58.379211025312543" lon="-5.066687967628241">
        <ele>41.950000000000003</ele>
        <time>2019-09-03T12:51:52Z</time>
      </trkpt>
      <trkpt lat="58.378627980127931" lon="-5.068866005167365">
        <ele>42.920000000000002</ele>
        <time>2019-09-03T12:51:59Z</time>
      </trkpt>
      <trkpt lat="58.378494959324598" lon="-5.069098016247153">
        <ele>42.920000000000002</ele>
        <time>2019-09-03T12:52:00Z</time>
      </trkpt>
      <trkpt lat="58.378347018733621" lon="-5.069321980699897">
        <ele>42.439999999999998</ele>
        <time>2019-09-03T12:52:01Z</time>
      </trkpt>
      <trkpt lat="58.37819698266685" lon="-5.069551980122924">
        <ele>42.439999999999998</ele>
        <time>2019-09-03T12:52:02Z</time>
      </trkpt>
      <trkpt lat="58.378034960478544" lon="-5.069743003696203">
        <ele>41.950000000000003</ele>
        <time>2019-09-03T12:52:03Z</time>
      </trkpt>
      <trkpt lat="58.377863969653845" lon="-5.06990603171289">
        <ele>41.950000000000003</ele>
        <time>2019-09-03T12:52:04Z</time>
      </trkpt>
      <trkpt lat="58.377689039334655" lon="-5.070063024759293">
        <ele>41.950000000000003</ele>
        <time>2019-09-03T12:52:05Z</time>
      </trkpt>
      <trkpt lat="58.377503966912627" lon="-5.070193028077483">
        <ele>41.950000000000003</ele>
        <time>2019-09-03T12:52:06Z</time>
      </trkpt>
      <trkpt lat="58.375279996544123" lon="-5.071749966591597">
        <ele>45.32</ele>
        <time>2019-09-03T12:52:17Z</time>
      </trkpt>
      <trkpt lat="58.374037966132164" lon="-5.073014041408896">
        <ele>47.240000000000002</ele>
        <time>2019-09-03T12:52:24Z</time>
      </trkpt>
      <trkpt lat="58.373637981712818" lon="-5.073575964197516">
        <ele>48.68</ele>
        <time>2019-09-03T12:52:27Z</time>
      </trkpt>
      <trkpt lat="58.373499009758234" lon="-5.073701022192836">
        <ele>48.68</ele>
        <time>2019-09-03T12:52:28Z</time>
      </trkpt>
      <trkpt lat="58.373360959812999" lon="-5.073825996369124">
        <ele>49.159999999999997</ele>
        <time>2019-09-03T12:52:29Z</time>
      </trkpt>
      <trkpt lat="58.373208995908499" lon="-5.073914006352425">
        <ele>49.649999999999999</ele>
        <time>2019-09-03T12:52:30Z</time>
      </trkpt>
      <trkpt lat="58.373047979548573" lon="-5.073992041870952">
        <ele>49.649999999999999</ele>
        <time>2019-09-03T12:52:31Z</time>
      </trkpt>
      <trkpt lat="58.371816007420421" lon="-5.074788993224502">
        <ele>47.240000000000002</ele>
        <time>2019-09-03T12:52:38Z</time>
      </trkpt>
      <trkpt lat="58.370565008372068" lon="-5.076511977240443">
        <ele>43.880000000000003</ele>
        <time>2019-09-03T12:52:46Z</time>
      </trkpt>
      <trkpt lat="58.370441040024161" lon="-5.076780030503869">
        <ele>43.399999999999999</ele>
        <time>2019-09-03T12:52:47Z</time>
      </trkpt>
      <trkpt lat="58.370318999513984" lon="-5.077065015211701">
        <ele>42.920000000000002</ele>
        <time>2019-09-03T12:52:48Z</time>
      </trkpt>
      <trkpt lat="58.37020399980247" lon="-5.077374977990985">
        <ele>42.439999999999998</ele>
        <time>2019-09-03T12:52:49Z</time>
      </trkpt>
      <trkpt lat="58.370085982605815" lon="-5.077692987397313">
        <ele>41.950000000000003</ele>
        <time>2019-09-03T12:52:50Z</time>
      </trkpt>
      <trkpt lat="58.369118040427566" lon="-5.080232033506036">
        <ele>45.32</ele>
        <time>2019-09-03T12:52:58Z</time>
      </trkpt>
      <trkpt lat="58.368947971612215" lon="-5.080453986302018">
        <ele>46.280000000000001</ele>
        <time>2019-09-03T12:52:59Z</time>
      </trkpt>
      <trkpt lat="58.368776980787516" lon="-5.080658001825213">
        <ele>47.240000000000002</ele>
        <time>2019-09-03T12:53:00Z</time>
      </trkpt>
      <trkpt lat="58.367016026750207" lon="-5.082228016108275">
        <ele>57.340000000000003</ele>
        <time>2019-09-03T12:53:09Z</time>
      </trkpt>
      <trkpt lat="58.365382980555296" lon="-5.084073040634394">
        <ele>62.140000000000001</ele>
        <time>2019-09-03T12:53:18Z</time>
      </trkpt>
      <trkpt lat="58.364554010331631" lon="-5.085876993834972">
        <ele>65.030000000000001</ele>
        <time>2019-09-03T12:53:24Z</time>
      </trkpt>
      <trkpt lat="58.364442028105259" lon="-5.086159966886044">
        <ele>65.510000000000005</ele>
        <time>2019-09-03T12:53:25Z</time>
      </trkpt>
      <trkpt lat="58.364386959001422" lon="-5.086475964635611">
        <ele>66.469999999999999</ele>
        <time>2019-09-03T12:53:26Z</time>
      </trkpt>
      <trkpt lat="58.364346977323294" lon="-5.086808977648616">
        <ele>67.430000000000007</ele>
        <time>2019-09-03T12:53:27Z</time>
      </trkpt>
      <trkpt lat="58.364305989816785" lon="-5.087158000096679">
        <ele>67.909999999999997</ele>
        <time>2019-09-03T12:53:28Z</time>
      </trkpt>
      <trkpt lat="58.364300960674882" lon="-5.087513979524374">
        <ele>68.390000000000001</ele>
        <time>2019-09-03T12:53:29Z</time>
      </trkpt>
      <trkpt lat="58.364320993423462" lon="-5.087897032499313">
        <ele>69.349999999999994</ele>
        <time>2019-09-03T12:53:30Z</time>
      </trkpt>
      <trkpt lat="58.364364998415112" lon="-5.088264998048544">
        <ele>69.829999999999998</ele>
        <time>2019-09-03T12:53:31Z</time>
      </trkpt>
      <trkpt lat="58.364452002570033" lon="-5.088631035760045">
        <ele>70.790000000000006</ele>
        <time>2019-09-03T12:53:32Z</time>
      </trkpt>
      <trkpt lat="58.364540012553334" lon="-5.088999001309276">
        <ele>71.269999999999996</ele>
        <time>2019-09-03T12:53:33Z</time>
      </trkpt>
      <trkpt lat="58.364623999223113" lon="-5.089351963251829">
        <ele>71.269999999999996</ele>
        <time>2019-09-03T12:53:34Z</time>
      </trkpt>
      <trkpt lat="58.364770011976361" lon="-5.090022012591362">
        <ele>71.760000000000005</ele>
        <time>2019-09-03T12:53:36Z</time>
      </trkpt>
      <trkpt lat="58.364800019189715" lon="-5.090333987027407">
        <ele>71.269999999999996</ele>
        <time>2019-09-03T12:53:37Z</time>
      </trkpt>
      <trkpt lat="58.364786021411419" lon="-5.090615032240748">
        <ele>71.269999999999996</ele>
        <time>2019-09-03T12:53:38Z</time>
      </trkpt>
      <trkpt lat="58.364763977006078" lon="-5.090888030827045">
        <ele>70.790000000000006</ele>
        <time>2019-09-03T12:53:39Z</time>
      </trkpt>
      <trkpt lat="58.364716032519937" lon="-5.091145019978285">
        <ele>70.790000000000006</ele>
        <time>2019-09-03T12:53:40Z</time>
      </trkpt>
      <trkpt lat="58.364643026143312" lon="-5.091373007744551">
        <ele>70.310000000000002</ele>
        <time>2019-09-03T12:53:41Z</time>
      </trkpt>
      <trkpt lat="58.364550992846489" lon="-5.091598983854055">
        <ele>70.310000000000002</ele>
        <time>2019-09-03T12:53:42Z</time>
      </trkpt>
      <trkpt lat="58.364460971206427" lon="-5.091820014640689">
        <ele>69.829999999999998</ele>
        <time>2019-09-03T12:53:43Z</time>
      </trkpt>
      <trkpt lat="58.364325016736984" lon="-5.091968961060047">
        <ele>69.829999999999998</ele>
        <time>2019-09-03T12:53:44Z</time>
      </trkpt>
      <trkpt lat="58.364179003983736" lon="-5.092094019055367">
        <ele>69.349999999999994</ele>
        <time>2019-09-03T12:53:45Z</time>
      </trkpt>
      <trkpt lat="58.364011030644178" lon="-5.092139029875398">
        <ele>69.349999999999994</ele>
        <time>2019-09-03T12:53:46Z</time>
      </trkpt>
      <trkpt lat="58.363830987364054" lon="-5.092127965763211">
        <ele>69.349999999999994</ele>
        <time>2019-09-03T12:53:47Z</time>
      </trkpt>
      <trkpt lat="58.363641975447536" lon="-5.092116985470057">
        <ele>69.349999999999994</ele>
        <time>2019-09-03T12:53:48Z</time>
      </trkpt>
      <trkpt lat="58.362192995846272" lon="-5.091753965243697">
        <ele>69.829999999999998</ele>
        <time>2019-09-03T12:53:56Z</time>
      </trkpt>
      <trkpt lat="58.362012030556798" lon="-5.091748014092445">
        <ele>69.349999999999994</ele>
        <time>2019-09-03T12:53:57Z</time>
      </trkpt>
      <trkpt lat="58.361830981448293" lon="-5.091768968850374">
        <ele>69.349999999999994</ele>
        <time>2019-09-03T12:53:58Z</time>
      </trkpt>
      <trkpt lat="58.361650016158819" lon="-5.091847004368901">
        <ele>68.870000000000005</ele>
        <time>2019-09-03T12:53:59Z</time>
      </trkpt>
      <trkpt lat="58.361473996192217" lon="-5.091960998252034">
        <ele>68.870000000000005</ele>
        <time>2019-09-03T12:54:00Z</time>
      </trkpt>
      <trkpt lat="58.361295964568853" lon="-5.092093013226986">
        <ele>68.390000000000001</ele>
        <time>2019-09-03T12:54:01Z</time>
      </trkpt>
      <trkpt lat="58.361134026199579" lon="-5.092283030971885">
        <ele>68.390000000000001</ele>
        <time>2019-09-03T12:54:02Z</time>
      </trkpt>
      <trkpt lat="58.360967980697751" lon="-5.092475982382894">
        <ele>68.390000000000001</ele>
        <time>2019-09-03T12:54:03Z</time>
      </trkpt>
      <trkpt lat="58.360023004934192" lon="-5.094298040494323">
        <ele>72.719999999999999</ele>
        <time>2019-09-03T12:54:10Z</time>
      </trkpt>
      <trkpt lat="58.359034024178982" lon="-5.09622897952795">
        <ele>78.969999999999999</ele>
        <time>2019-09-03T12:54:17Z</time>
      </trkpt>
      <trkpt lat="58.358573019504547" lon="-5.096943033859134">
        <ele>80.890000000000001</ele>
        <time>2019-09-03T12:54:20Z</time>
      </trkpt>
      <trkpt lat="58.358436981216073" lon="-5.097198011353612">
        <ele>81.370000000000005</ele>
        <time>2019-09-03T12:54:21Z</time>
      </trkpt>
      <trkpt lat="58.358329022303224" lon="-5.097504034638405">
        <ele>81.849999999999994</ele>
        <time>2019-09-03T12:54:22Z</time>
      </trkpt>
      <trkpt lat="58.358228020370007" lon="-5.097821038216353">
        <ele>82.329999999999998</ele>
        <time>2019-09-03T12:54:23Z</time>
      </trkpt>
      <trkpt lat="58.35812701843679" lon="-5.0981380417943">
        <ele>82.329999999999998</ele>
        <time>2019-09-03T12:54:24Z</time>
      </trkpt>
      <trkpt lat="58.357834992930293" lon="-5.099053010344505">
        <ele>83.769999999999996</ele>
        <time>2019-09-03T12:54:27Z</time>
      </trkpt>
      <trkpt lat="58.357714964076877" lon="-5.099318968132138">
        <ele>84.25</ele>
        <time>2019-09-03T12:54:28Z</time>
      </trkpt>
      <trkpt lat="58.357572974637151" lon="-5.099551985040307">
        <ele>84.730000000000004</ele>
        <time>2019-09-03T12:54:29Z</time>
      </trkpt>
      <trkpt lat="58.356740986928344" lon="-5.101028038188815">
        <ele>86.659999999999997</ele>
        <time>2019-09-03T12:54:35Z</time>
      </trkpt>
      <trkpt lat="58.356636967509985" lon="-5.101330960169435">
        <ele>86.659999999999997</ele>
        <time>2019-09-03T12:54:36Z</time>
      </trkpt>
      <trkpt lat="58.356563039124012" lon="-5.10166497901082">
        <ele>87.140000000000001</ele>
        <time>2019-09-03T12:54:37Z</time>
      </trkpt>
      <trkpt lat="58.356491960585117" lon="-5.102009978145361">
        <ele>87.140000000000001</ele>
        <time>2019-09-03T12:54:38Z</time>
      </trkpt>
      <trkpt lat="58.356442004442215" lon="-5.102384984493256">
        <ele>87.620000000000005</ele>
        <time>2019-09-03T12:54:39Z</time>
      </trkpt>
      <trkpt lat="58.355800034478307" lon="-5.106322970241308">
        <ele>92.900000000000006</ele>
        <time>2019-09-03T12:54:49Z</time>
      </trkpt>
      <trkpt lat="58.35481901653111" lon="-5.109787965193391">
        <ele>93.870000000000005</ele>
        <time>2019-09-03T12:54:58Z</time>
      </trkpt>
      <trkpt lat="58.353506997227669" lon="-5.113997021690011">
        <ele>87.140000000000001</ele>
        <time>2019-09-03T12:55:09Z</time>
      </trkpt>
      <trkpt lat="58.353368025273085" lon="-5.114292986690998">
        <ele>87.140000000000001</ele>
        <time>2019-09-03T12:55:10Z</time>
      </trkpt>
      <trkpt lat="58.352447021752596" lon="-5.115898959338665">
        <ele>83.769999999999996</ele>
        <time>2019-09-03T12:55:16Z</time>
      </trkpt>
      <trkpt lat="58.352273013442755" lon="-5.116130970418453">
        <ele>82.810000000000002</ele>
        <time>2019-09-03T12:55:17Z</time>
      </trkpt>
      <trkpt lat="58.35211300291121" lon="-5.11627203784883">
        <ele>81.849999999999994</ele>
        <time>2019-09-03T12:55:18Z</time>
      </trkpt>
      <trkpt lat="58.351928014308214" lon="-5.116358958184719">
        <ele>80.890000000000001</ele>
        <time>2019-09-03T12:55:19Z</time>
      </trkpt>
      <trkpt lat="58.351744031533599" lon="-5.116440011188388">
        <ele>79.930000000000007</ele>
        <time>2019-09-03T12:55:20Z</time>
      </trkpt>
      <trkpt lat="58.35155300796032" lon="-5.116433976218104">
        <ele>78.969999999999999</ele>
        <time>2019-09-03T12:55:21Z</time>
      </trkpt>
      <trkpt lat="58.351362990215421" lon="-5.116412015631795">
        <ele>78.480000000000004</ele>
        <time>2019-09-03T12:55:22Z</time>
      </trkpt>
      <trkpt lat="58.351179007440805" lon="-5.116389971226454">
        <ele>77.519999999999996</ele>
        <time>2019-09-03T12:55:23Z</time>
      </trkpt>
      <trkpt lat="58.350997036322951" lon="-5.116369016468525">
        <ele>76.079999999999998</ele>
        <time>2019-09-03T12:55:24Z</time>
      </trkpt>
      <trkpt lat="58.350812969729304" lon="-5.116346972063184">
        <ele>74.640000000000001</ele>
        <time>2019-09-03T12:55:25Z</time>
      </trkpt>
      <trkpt lat="58.35045900195837" lon="-5.116377985104919">
        <ele>71.760000000000005</ele>
        <time>2019-09-03T12:55:27Z</time>
      </trkpt>
      <trkpt lat="58.350291028618813" lon="-5.116476975381374">
        <ele>70.310000000000002</ele>
        <time>2019-09-03T12:55:28Z</time>
      </trkpt>
      <trkpt lat="58.350119031965733" lon="-5.116589041426778">
        <ele>68.390000000000001</ele>
        <time>2019-09-03T12:55:29Z</time>
      </trkpt>
      <trkpt lat="58.349956003949046" lon="-5.116752991452813">
        <ele>66.469999999999999</ele>
        <time>2019-09-03T12:55:30Z</time>
      </trkpt>
      <trkpt lat="58.34979297593236" lon="-5.116948960348964">
        <ele>64.069999999999993</ele>
        <time>2019-09-03T12:55:31Z</time>
      </trkpt>
      <trkpt lat="58.349651992321014" lon="-5.11719698086381">
        <ele>62.140000000000001</ele>
        <time>2019-09-03T12:55:32Z</time>
      </trkpt>
      <trkpt lat="58.349520983174443" lon="-5.117469979450107">
        <ele>60.219999999999999</ele>
        <time>2019-09-03T12:55:33Z</time>
      </trkpt>
      <trkpt lat="58.349390979856253" lon="-5.117741972208023">
        <ele>58.299999999999997</ele>
        <time>2019-09-03T12:55:34Z</time>
      </trkpt>
      <trkpt lat="58.349263994023204" lon="-5.118006002157927">
        <ele>55.890000000000001</ele>
        <time>2019-09-03T12:55:35Z</time>
      </trkpt>
      <trkpt lat="58.34906199015677" lon="-5.118600027635694">
        <ele>50.609999999999999</ele>
        <time>2019-09-03T12:55:37Z</time>
      </trkpt>
      <trkpt lat="58.348965011537075" lon="-5.118904039263725">
        <ele>48.200000000000003</ele>
        <time>2019-09-03T12:55:38Z</time>
      </trkpt>
      <trkpt lat="58.348906002938747" lon="-5.119225988164544">
        <ele>45.32</ele>
        <time>2019-09-03T12:55:39Z</time>
      </trkpt>
      <trkpt lat="58.34886996075511" lon="-5.119572998955846">
        <ele>42.920000000000002</ele>
        <time>2019-09-03T12:55:40Z</time>
      </trkpt>
      <trkpt lat="58.348838025704026" lon="-5.119930990040302">
        <ele>40.030000000000001</ele>
        <time>2019-09-03T12:55:41Z</time>
      </trkpt>
      <trkpt lat="58.34882696159184" lon="-5.120313037186861">
        <ele>37.149999999999999</ele>
        <time>2019-09-03T12:55:42Z</time>
      </trkpt>
      <trkpt lat="58.348725037649274" lon="-5.124442968517542">
        <ele>19.359999999999999</ele>
        <time>2019-09-03T12:55:52Z</time>
      </trkpt>
      <trkpt lat="58.348635016009212" lon="-5.12742499820888">
        <ele>23.210000000000001</ele>
        <time>2019-09-03T12:56:01Z</time>
      </trkpt>
      <trkpt lat="58.348600985482335" lon="-5.13062403537333">
        <ele>20.32</ele>
        <time>2019-09-03T12:56:10Z</time>
      </trkpt>
      <trkpt lat="58.348542982712388" lon="-5.133179007098079">
        <ele>19.359999999999999</ele>
        <time>2019-09-03T12:56:17Z</time>
      </trkpt>
      <trkpt lat="58.348563015460968" lon="-5.133523000404239">
        <ele>19.359999999999999</ele>
        <time>2019-09-03T12:56:18Z</time>
      </trkpt>
      <trkpt lat="58.348592016845942" lon="-5.133875040337443">
        <ele>19.359999999999999</ele>
        <time>2019-09-03T12:56:19Z</time>
      </trkpt>
      <trkpt lat="58.349165003746748" lon="-5.136687001213431">
        <ele>18.879999999999999</ele>
        <time>2019-09-03T12:56:27Z</time>
      </trkpt>
      <trkpt lat="58.350181980058551" lon="-5.138990012928844">
        <ele>18.879999999999999</ele>
        <time>2019-09-03T12:56:35Z</time>
      </trkpt>
      <trkpt lat="58.351182024925947" lon="-5.14173399657011">
        <ele>17.440000000000001</ele>
        <time>2019-09-03T12:56:44Z</time>
      </trkpt>
      <trkpt lat="58.351702960208058" lon="-5.144513016566634">
        <ele>16.960000000000001</ele>
        <time>2019-09-03T12:56:52Z</time>
      </trkpt>
      <trkpt lat="58.352191038429737" lon="-5.147909028455615">
        <ele>15.52</ele>
        <time>2019-09-03T12:57:04Z</time>
      </trkpt>
      <trkpt lat="58.35219900123775" lon="-5.14815897680819">
        <ele>15.039999999999999</ele>
        <time>2019-09-03T12:57:05Z</time>
      </trkpt>
      <trkpt lat="58.352206964045763" lon="-5.14839400537312">
        <ele>15.52</ele>
        <time>2019-09-03T12:57:06Z</time>
      </trkpt>
      <trkpt lat="58.352189026772976" lon="-5.148619981482625">
        <ele>15.52</ele>
        <time>2019-09-03T12:57:07Z</time>
      </trkpt>
      <trkpt lat="58.351880991831422" lon="-5.151050984859467">
        <ele>16</ele>
        <time>2019-09-03T12:57:19Z</time>
      </trkpt>
      <trkpt lat="58.35153297521174" lon="-5.153834028169513">
        <ele>13.6</ele>
        <time>2019-09-03T12:57:31Z</time>
      </trkpt>
      <trkpt lat="58.351096026599407" lon="-5.156845981255174">
        <ele>12.15</ele>
        <time>2019-09-03T12:57:42Z</time>
      </trkpt>
      <trkpt lat="58.350336961448193" lon="-5.158667033538222">
        <ele>13.119999999999999</ele>
        <time>2019-09-03T12:57:50Z</time>
      </trkpt>
      <trkpt lat="58.349348986521363" lon="-5.15975802205503">
        <ele>16.960000000000001</ele>
        <time>2019-09-03T12:57:58Z</time>
      </trkpt>
      <trkpt lat="58.348271995782852" lon="-5.160295972600579">
        <ele>22.73</ele>
        <time>2019-09-03T12:58:07Z</time>
      </trkpt>
      <trkpt lat="58.347067013382912" lon="-5.160793019458652">
        <ele>29.940000000000001</ele>
        <time>2019-09-03T12:58:15Z</time>
      </trkpt>
      <trkpt lat="58.34691203199327" lon="-5.160836018621922">
        <ele>30.899999999999999</ele>
        <time>2019-09-03T12:58:16Z</time>
      </trkpt>
      <trkpt lat="58.346753027290106" lon="-5.16081003472209">
        <ele>31.379999999999999</ele>
        <time>2019-09-03T12:58:17Z</time>
      </trkpt>
      <trkpt lat="58.346597962081432" lon="-5.160756977275014">
        <ele>32.340000000000003</ele>
        <time>2019-09-03T12:58:18Z</time>
      </trkpt>
      <trkpt lat="58.34644197486341" lon="-5.160702997818589">
        <ele>33.299999999999997</ele>
        <time>2019-09-03T12:58:19Z</time>
      </trkpt>
      <trkpt lat="58.346284981817007" lon="-5.160649018362165">
        <ele>34.259999999999998</ele>
        <time>2019-09-03T12:58:20Z</time>
      </trkpt>
      <trkpt lat="58.346136035397649" lon="-5.160517003387213">
        <ele>34.740000000000002</ele>
        <time>2019-09-03T12:58:21Z</time>
      </trkpt>
      <trkpt lat="58.345997985452414" lon="-5.160366967320442">
        <ele>35.710000000000001</ele>
        <time>2019-09-03T12:58:22Z</time>
      </trkpt>
      <trkpt lat="58.34586001932621" lon="-5.160217015072703">
        <ele>36.189999999999998</ele>
        <time>2019-09-03T12:58:23Z</time>
      </trkpt>
      <trkpt lat="58.345726998522878" lon="-5.160049041733146">
        <ele>36.670000000000002</ele>
        <time>2019-09-03T12:58:24Z</time>
      </trkpt>
      <trkpt lat="58.345608981326222" lon="-5.159859023988247">
        <ele>37.630000000000003</ele>
        <time>2019-09-03T12:58:25Z</time>
      </trkpt>
      <trkpt lat="58.345496999099851" lon="-5.159680992364883">
        <ele>38.109999999999999</ele>
        <time>2019-09-03T12:58:26Z</time>
      </trkpt>
      <trkpt lat="58.345077987760305" lon="-5.159104987978935">
        <ele>39.549999999999997</ele>
        <time>2019-09-03T12:58:30Z</time>
      </trkpt>
      <trkpt lat="58.344966005533934" lon="-5.158991999924183">
        <ele>40.030000000000001</ele>
        <time>2019-09-03T12:58:31Z</time>
      </trkpt>
      <trkpt lat="58.344853017479181" lon="-5.158879011869431">
        <ele>40.990000000000002</ele>
        <time>2019-09-03T12:58:32Z</time>
      </trkpt>
      <trkpt lat="58.344729971140623" lon="-5.158826960250735">
        <ele>41.469999999999999</ele>
        <time>2019-09-03T12:58:33Z</time>
      </trkpt>
      <trkpt lat="58.344599967822433" lon="-5.158789996057749">
        <ele>41.469999999999999</ele>
        <time>2019-09-03T12:58:34Z</time>
      </trkpt>
      <trkpt lat="58.344462001696229" lon="-5.158751020208001">
        <ele>41.950000000000003</ele>
        <time>2019-09-03T12:58:35Z</time>
      </trkpt>
      <trkpt lat="58.34429101087153" lon="-5.158702991902828">
        <ele>41.950000000000003</ele>
        <time>2019-09-03T12:58:36Z</time>
      </trkpt>
      <trkpt lat="58.344140974804759" lon="-5.158702991902828">
        <ele>41.950000000000003</ele>
        <time>2019-09-03T12:58:37Z</time>
      </trkpt>
      <trkpt lat="58.34326196461916" lon="-5.158751020208001">
        <ele>41.469999999999999</ele>
        <time>2019-09-03T12:58:43Z</time>
      </trkpt>
      <trkpt lat="58.343108994886279" lon="-5.158689999952912">
        <ele>41.469999999999999</ele>
        <time>2019-09-03T12:58:44Z</time>
      </trkpt>
      <trkpt lat="58.342954013496637" lon="-5.158609030768275">
        <ele>41.469999999999999</ele>
        <time>2019-09-03T12:58:45Z</time>
      </trkpt>
      <trkpt lat="58.342818981036544" lon="-5.158457988873124">
        <ele>41.469999999999999</ele>
        <time>2019-09-03T12:58:46Z</time>
      </trkpt>
      <trkpt lat="58.342682020738721" lon="-5.158305019140244">
        <ele>41.950000000000003</ele>
        <time>2019-09-03T12:58:47Z</time>
      </trkpt>
      <trkpt lat="58.342550005763769" lon="-5.158136961981654">
        <ele>42.439999999999998</ele>
        <time>2019-09-03T12:58:48Z</time>
      </trkpt>
      <trkpt lat="58.342430982738733" lon="-5.157946022227407">
        <ele>42.920000000000002</ele>
        <time>2019-09-03T12:58:49Z</time>
      </trkpt>
      <trkpt lat="58.342332998290658" lon="-5.157703030854464">
        <ele>43.399999999999999</ele>
        <time>2019-09-03T12:58:50Z</time>
      </trkpt>
      <trkpt lat="58.342256974428892" lon="-5.157446963712573">
        <ele>44.359999999999999</ele>
        <time>2019-09-03T12:58:51Z</time>
      </trkpt>
      <trkpt lat="58.342182962223887" lon="-5.157188968732953">
        <ele>45.32</ele>
        <time>2019-09-03T12:58:52Z</time>
      </trkpt>
      <trkpt lat="58.342120014131069" lon="-5.156911024823785">
        <ele>46.280000000000001</ele>
        <time>2019-09-03T12:58:53Z</time>
      </trkpt>
      <trkpt lat="58.342102998867631" lon="-5.156630985438824">
        <ele>47.240000000000002</ele>
        <time>2019-09-03T12:58:54Z</time>
      </trkpt>
      <trkpt lat="58.342085983604193" lon="-5.156355975195766">
        <ele>47.719999999999999</ele>
        <time>2019-09-03T12:58:55Z</time>
      </trkpt>
      <trkpt lat="58.342085983604193" lon="-5.156081970781088">
        <ele>49.159999999999997</ele>
        <time>2019-09-03T12:58:56Z</time>
      </trkpt>
      <trkpt lat="58.342093024402857" lon="-5.15580796636641">
        <ele>49.649999999999999</ele>
        <time>2019-09-03T12:58:57Z</time>
      </trkpt>
      <trkpt lat="58.34210199303925" lon="-5.155485011637211">
        <ele>50.130000000000003</ele>
        <time>2019-09-03T12:58:58Z</time>
      </trkpt>
      <trkpt lat="58.342150021344423" lon="-5.155237996950746">
        <ele>50.609999999999999</ele>
        <time>2019-09-03T12:58:59Z</time>
      </trkpt>
      <trkpt lat="58.342205006629229" lon="-5.154958041384816">
        <ele>50.609999999999999</ele>
        <time>2019-09-03T12:59:00Z</time>
      </trkpt>
      <trkpt lat="58.342262003570795" lon="-5.154668027535081">
        <ele>51.090000000000003</ele>
        <time>2019-09-03T12:59:01Z</time>
      </trkpt>
      <trkpt lat="58.342572972178459" lon="-5.152048012241721">
        <ele>53.969999999999999</ele>
        <time>2019-09-03T12:59:09Z</time>
      </trkpt>
      <trkpt lat="58.342546988278627" lon="-5.151703013107181">
        <ele>54.93</ele>
        <time>2019-09-03T12:59:10Z</time>
      </trkpt>
      <trkpt lat="58.342514969408512" lon="-5.151361031457782">
        <ele>55.890000000000001</ele>
        <time>2019-09-03T12:59:11Z</time>
      </trkpt>
      <trkpt lat="58.342472976073623" lon="-5.151023995131254">
        <ele>57.340000000000003</ele>
        <time>2019-09-03T12:59:12Z</time>
      </trkpt>
      <trkpt lat="58.342398963868618" lon="-5.150718977674842">
        <ele>58.299999999999997</ele>
        <time>2019-09-03T12:59:13Z</time>
      </trkpt>
      <trkpt lat="58.342326963320374" lon="-5.150426030158997">
        <ele>59.740000000000002</ele>
        <time>2019-09-03T12:59:14Z</time>
      </trkpt>
      <trkpt lat="58.342254040762782" lon="-5.150151019915938">
        <ele>60.700000000000003</ele>
        <time>2019-09-03T12:59:15Z</time>
      </trkpt>
      <trkpt lat="58.342167036607862" lon="-5.149904005229473">
        <ele>61.659999999999997</ele>
        <time>2019-09-03T12:59:16Z</time>
      </trkpt>
      <trkpt lat="58.342081038281322" lon="-5.14966101385653">
        <ele>62.619999999999997</ele>
        <time>2019-09-03T12:59:17Z</time>
      </trkpt>
      <trkpt lat="58.341986993327737" lon="-5.149429002776742">
        <ele>63.100000000000001</ele>
        <time>2019-09-03T12:59:18Z</time>
      </trkpt>
      <trkpt lat="58.34186696447432" lon="-5.149234961718321">
        <ele>63.579999999999998</ele>
        <time>2019-09-03T12:59:19Z</time>
      </trkpt>
      <trkpt lat="58.341744001954794" lon="-5.149035975337029">
        <ele>64.069999999999993</ele>
        <time>2019-09-03T12:59:20Z</time>
      </trkpt>
      <trkpt lat="58.341618021950126" lon="-5.148831959813833">
        <ele>64.069999999999993</ele>
        <time>2019-09-03T12:59:21Z</time>
      </trkpt>
      <trkpt lat="58.340590987354517" lon="-5.146833965554833">
        <ele>65.989999999999995</ele>
        <time>2019-09-03T12:59:30Z</time>
      </trkpt>
      <trkpt lat="58.340155966579914" lon="-5.146023016422987">
        <ele>67.430000000000007</ele>
        <time>2019-09-03T12:59:34Z</time>
      </trkpt>
      <trkpt lat="58.340034009888768" lon="-5.145846996456385">
        <ele>67.909999999999997</ele>
        <time>2019-09-03T12:59:35Z</time>
      </trkpt>
      <trkpt lat="58.339892020449042" lon="-5.145728979259729">
        <ele>67.909999999999997</ele>
        <time>2019-09-03T12:59:36Z</time>
      </trkpt>
      <trkpt lat="58.339748019352555" lon="-5.145619008690119">
        <ele>68.390000000000001</ele>
        <time>2019-09-03T12:59:37Z</time>
      </trkpt>
      <trkpt lat="58.339605024084449" lon="-5.145509038120508">
        <ele>68.390000000000001</ele>
        <time>2019-09-03T12:59:38Z</time>
      </trkpt>
      <trkpt lat="58.339460017159581" lon="-5.145398983731866">
        <ele>68.870000000000005</ele>
        <time>2019-09-03T12:59:39Z</time>
      </trkpt>
      <trkpt lat="58.339307969436049" lon="-5.145355984568596">
        <ele>69.349999999999994</ele>
        <time>2019-09-03T12:59:40Z</time>
      </trkpt>
      <trkpt lat="58.338026963174343" lon="-5.144764976575971">
        <ele>70.790000000000006</ele>
        <time>2019-09-03T12:59:49Z</time>
      </trkpt>
      <trkpt lat="58.3373539801687" lon="-5.143617996945977">
        <ele>69.829999999999998</ele>
        <time>2019-09-03T12:59:55Z</time>
      </trkpt>
      <trkpt lat="58.336964976042509" lon="-5.14192602597177">
        <ele>70.790000000000006</ele>
        <time>2019-09-03T13:00:02Z</time>
      </trkpt>
      <trkpt lat="58.337038988247514" lon="-5.139788975939155">
        <ele>74.640000000000001</ele>
        <time>2019-09-03T13:00:10Z</time>
      </trkpt>
      <trkpt lat="58.337128004059196" lon="-5.138935027644038">
        <ele>74.640000000000001</ele>
        <time>2019-09-03T13:00:13Z</time>
      </trkpt>
      <trkpt lat="58.337136972695589" lon="-5.138635039329529">
        <ele>74.640000000000001</ele>
        <time>2019-09-03T13:00:14Z</time>
      </trkpt>
      <trkpt lat="58.337143007665873" lon="-5.138327004387975">
        <ele>75.120000000000005</ele>
        <time>2019-09-03T13:00:15Z</time>
      </trkpt>
      <trkpt lat="58.337120041251183" lon="-5.13801796361804">
        <ele>75.120000000000005</ele>
        <time>2019-09-03T13:00:16Z</time>
      </trkpt>
      <trkpt lat="58.337097996845841" lon="-5.137704983353615">
        <ele>75.120000000000005</ele>
        <time>2019-09-03T13:00:17Z</time>
      </trkpt>
      <trkpt lat="58.337058015167713" lon="-5.137385968118906">
        <ele>75.120000000000005</ele>
        <time>2019-09-03T13:00:18Z</time>
      </trkpt>
      <trkpt lat="58.336989032104611" lon="-5.137100983411074">
        <ele>75.120000000000005</ele>
        <time>2019-09-03T13:00:19Z</time>
      </trkpt>
      <trkpt lat="58.336918959394097" lon="-5.1368129812181">
        <ele>75.599999999999994</ele>
        <time>2019-09-03T13:00:20Z</time>
      </trkpt>
      <trkpt lat="58.336813012138009" lon="-5.136564038693905">
        <ele>75.599999999999994</ele>
        <time>2019-09-03T13:00:21Z</time>
      </trkpt>
      <trkpt lat="58.336703041568398" lon="-5.136326998472214">
        <ele>76.079999999999998</ele>
        <time>2019-09-03T13:00:22Z</time>
      </trkpt>
      <trkpt lat="58.336593993008137" lon="-5.136089958250523">
        <ele>76.560000000000002</ele>
        <time>2019-09-03T13:00:23Z</time>
      </trkpt>
      <trkpt lat="58.336475975811481" lon="-5.135877979919314">
        <ele>77.519999999999996</ele>
        <time>2019-09-03T13:00:24Z</time>
      </trkpt>
      <trkpt lat="58.336340021342039" lon="-5.135709000751376">
        <ele>78</ele>
        <time>2019-09-03T13:00:25Z</time>
      </trkpt>
      <trkpt lat="58.336203983053565" lon="-5.135541027411819">
        <ele>78.480000000000004</ele>
        <time>2019-09-03T13:00:26Z</time>
      </trkpt>
      <trkpt lat="58.336068028584123" lon="-5.135371964424849">
        <ele>79.450000000000003</ele>
        <time>2019-09-03T13:00:27Z</time>
      </trkpt>
      <trkpt lat="58.334390977397561" lon="-5.133875962346792">
        <ele>73.680000000000007</ele>
        <time>2019-09-03T13:00:38Z</time>
      </trkpt>
      <trkpt lat="58.333154981955886" lon="-5.13376297429204">
        <ele>59.259999999999998</ele>
        <time>2019-09-03T13:00:45Z</time>
      </trkpt>
      <trkpt lat="58.331380030140281" lon="-5.133850984275341">
        <ele>43.880000000000003</ele>
        <time>2019-09-03T13:00:56Z</time>
      </trkpt>
      <trkpt lat="58.32957498729229" lon="-5.134065980091691">
        <ele>32.340000000000003</ele>
        <time>2019-09-03T13:01:07Z</time>
      </trkpt>
      <trkpt lat="58.328283000737429" lon="-5.134959993883967">
        <ele>22.73</ele>
        <time>2019-09-03T13:01:14Z</time>
      </trkpt>
      <trkpt lat="58.328111004084349" lon="-5.135056972503662">
        <ele>20.809999999999999</ele>
        <time>2019-09-03T13:01:15Z</time>
      </trkpt>
      <trkpt lat="58.327930038794875" lon="-5.135117992758751">
        <ele>19.359999999999999</ele>
        <time>2019-09-03T13:01:16Z</time>
      </trkpt>
      <trkpt lat="58.326899986714125" lon="-5.135367019101977">
        <ele>10.23</ele>
        <time>2019-09-03T13:01:22Z</time>
      </trkpt>
      <trkpt lat="58.326749028638005" lon="-5.135310022160411">
        <ele>9.27</ele>
        <time>2019-09-03T13:01:23Z</time>
      </trkpt>
      <trkpt lat="58.32658801227808" lon="-5.135250007733703">
        <ele>8.310000000000001</ele>
        <time>2019-09-03T13:01:24Z</time>
      </trkpt>
      <trkpt lat="58.326457003131509" lon="-5.135142970830202">
        <ele>8.310000000000001</ele>
        <time>2019-09-03T13:01:25Z</time>
      </trkpt>
      <trkpt lat="58.326316019520164" lon="-5.135028976947069">
        <ele>7.83</ele>
        <time>2019-09-03T13:01:26Z</time>
      </trkpt>
      <trkpt lat="58.326179981231689" lon="-5.13485798612237">
        <ele>7.35</ele>
        <time>2019-09-03T13:01:27Z</time>
      </trkpt>
      <trkpt lat="58.326067999005318" lon="-5.134661011397839">
        <ele>7.35</ele>
        <time>2019-09-03T13:01:28Z</time>
      </trkpt>
      <trkpt lat="58.325952999293804" lon="-5.134461019188166">
        <ele>7.83</ele>
        <time>2019-09-03T13:01:29Z</time>
      </trkpt>
      <trkpt lat="58.32583699375391" lon="-5.134258009493351">
        <ele>8.310000000000001</ele>
        <time>2019-09-03T13:01:30Z</time>
      </trkpt>
      <trkpt lat="58.324625976383686" lon="-5.131776966154575">
        <ele>19.359999999999999</ele>
        <time>2019-09-03T13:01:40Z</time>
      </trkpt>
      <trkpt lat="58.322925958782434" lon="-5.128770964220166">
        <ele>19.84</ele>
        <time>2019-09-03T13:01:51Z</time>
      </trkpt>
      <trkpt lat="58.321717958897352" lon="-5.126160001382232">
        <ele>16.48</ele>
        <time>2019-09-03T13:02:00Z</time>
      </trkpt>
      <trkpt lat="58.320569973438978" lon="-5.124432994052768">
        <ele>17.440000000000001</ele>
        <time>2019-09-03T13:02:07Z</time>
      </trkpt>
      <trkpt lat="58.319731028750539" lon="-5.123373018577695">
        <ele>19.359999999999999</ele>
        <time>2019-09-03T13:02:12Z</time>
      </trkpt>
      <trkpt lat="58.319549979642034" lon="-5.123252989724279">
        <ele>19.84</ele>
        <time>2019-09-03T13:02:13Z</time>
      </trkpt>
      <trkpt lat="58.31936901435256" lon="-5.123137990012765">
        <ele>19.84</ele>
        <time>2019-09-03T13:02:14Z</time>
      </trkpt>
      <trkpt lat="58.319183019921184" lon="-5.123037993907929">
        <ele>19.84</ele>
        <time>2019-09-03T13:02:15Z</time>
      </trkpt>
      <trkpt lat="58.318988978862762" lon="-5.123012010008097">
        <ele>19.84</ele>
        <time>2019-09-03T13:02:16Z</time>
      </trkpt>
      <trkpt lat="58.318792004138231" lon="-5.122987031936646">
        <ele>20.32</ele>
        <time>2019-09-03T13:02:17Z</time>
      </trkpt>
      <trkpt lat="58.3185950294137" lon="-5.123008992522955">
        <ele>20.32</ele>
        <time>2019-09-03T13:02:18Z</time>
      </trkpt>
      <trkpt lat="58.318398976698518" lon="-5.12306397780776">
        <ele>20.32</ele>
        <time>2019-09-03T13:02:19Z</time>
      </trkpt>
      <trkpt lat="58.318197978660464" lon="-5.123119968920946">
        <ele>19.84</ele>
        <time>2019-09-03T13:02:20Z</time>
      </trkpt>
      <trkpt lat="58.315964033827186" lon="-5.123742995783687">
        <ele>26.57</ele>
        <time>2019-09-03T13:02:31Z</time>
      </trkpt>
      <trkpt lat="58.313755989074707" lon="-5.124346995726228">
        <ele>34.259999999999998</ele>
        <time>2019-09-03T13:02:42Z</time>
      </trkpt>
      <trkpt lat="58.312082039192319" lon="-5.124338027089834">
        <ele>38.590000000000003</ele>
        <time>2019-09-03T13:02:50Z</time>
      </trkpt>
      <trkpt lat="58.310620989650488" lon="-5.123443007469177">
        <ele>45.799999999999997</ele>
        <time>2019-09-03T13:02:58Z</time>
      </trkpt>
      <trkpt lat="58.308833967894316" lon="-5.122457966208458">
        <ele>39.549999999999997</ele>
        <time>2019-09-03T13:03:08Z</time>
      </trkpt>
      <trkpt lat="58.307721018791199" lon="-5.122217992320657">
        <ele>34.740000000000002</ele>
        <time>2019-09-03T13:03:16Z</time>
      </trkpt>
      <trkpt lat="58.307393034920096" lon="-5.122088994830847">
        <ele>33.299999999999997</ele>
        <time>2019-09-03T13:03:22Z</time>
      </trkpt>
      <trkpt lat="58.307340983301401" lon="-5.122057981789112">
        <ele>32.340000000000003</ele>
        <time>2019-09-03T13:03:31Z</time>
      </trkpt>
      <trkpt lat="58.307340983301401" lon="-5.122057981789112">
        <ele>32.340000000000003</ele>
        <time>2019-09-03T13:04:09Z</time>
      </trkpt>
      <trkpt lat="58.307340983301401" lon="-5.122057981789112">
        <ele>32.340000000000003</ele>
        <time>2019-09-03T13:04:53Z</time>
      </trkpt>
      <trkpt lat="58.307340983301401" lon="-5.122057981789112">
        <ele>32.340000000000003</ele>
        <time>2019-09-03T13:05:41Z</time>
      </trkpt>
      <trkpt lat="58.307340983301401" lon="-5.122057981789112">
        <ele>32.340000000000003</ele>
        <time>2019-09-03T13:06:31Z</time>
      </trkpt>
      <trkpt lat="58.307340983301401" lon="-5.122057981789112">
        <ele>32.82</ele>
        <time>2019-09-03T13:07:28Z</time>
      </trkpt>
      <trkpt lat="58.307340983301401" lon="-5.122057981789112">
        <ele>32.82</ele>
        <time>2019-09-03T13:08:26Z</time>
      </trkpt>
      <trkpt lat="58.307340983301401" lon="-5.122057981789112">
        <ele>32.82</ele>
        <time>2019-09-03T13:09:01Z</time>
      </trkpt>
      <trkpt lat="58.307279963046312" lon="-5.122022023424506">
        <ele>32.82</ele>
        <time>2019-09-03T13:09:08Z</time>
      </trkpt>
      <trkpt lat="58.306765984743834" lon="-5.121550960466266">
        <ele>33.780000000000001</ele>
        <time>2019-09-03T13:09:15Z</time>
      </trkpt>
      <trkpt lat="58.306052014231682" lon="-5.120080020278692">
        <ele>37.149999999999999</ele>
        <time>2019-09-03T13:09:24Z</time>
      </trkpt>
      <trkpt lat="58.30531801097095" lon="-5.118438005447388">
        <ele>43.399999999999999</ele>
        <time>2019-09-03T13:09:32Z</time>
      </trkpt>
      <trkpt lat="58.30424596555531" lon="-5.117100002244115">
        <ele>56.859999999999999</ele>
        <time>2019-09-03T13:09:42Z</time>
      </trkpt>
      <trkpt lat="58.302923971787095" lon="-5.11620900593698">
        <ele>71.269999999999996</ele>
        <time>2019-09-03T13:09:51Z</time>
      </trkpt>
      <trkpt lat="58.300806032493711" lon="-5.115422029048204">
        <ele>88.579999999999998</ele>
        <time>2019-09-03T13:10:03Z</time>
      </trkpt>
      <trkpt lat="58.299744967371225" lon="-5.114917019382119">
        <ele>90.5</ele>
        <time>2019-09-03T13:10:09Z</time>
      </trkpt>
      <trkpt lat="58.299253033474088" lon="-5.114466995000839">
        <ele>90.5</ele>
        <time>2019-09-03T13:10:12Z</time>
      </trkpt>
      <trkpt lat="58.298279978334904" lon="-5.112525997683406">
        <ele>80.409999999999997</ele>
        <time>2019-09-03T13:10:20Z</time>
      </trkpt>
      <trkpt lat="58.298180988058448" lon="-5.112218968570232">
        <ele>78.480000000000004</ele>
        <time>2019-09-03T13:10:21Z</time>
      </trkpt>
      <trkpt lat="58.297892985865474" lon="-5.110487015917897">
        <ele>67.909999999999997</ele>
        <time>2019-09-03T13:10:26Z</time>
      </trkpt>
      <trkpt lat="58.297877982258797" lon="-5.110131958499551">
        <ele>66.469999999999999</ele>
        <time>2019-09-03T13:10:27Z</time>
      </trkpt>
      <trkpt lat="58.298014020547271" lon="-5.107586961239576">
        <ele>61.659999999999997</ele>
        <time>2019-09-03T13:10:34Z</time>
      </trkpt>
      <trkpt lat="58.298033969476819" lon="-5.105470027774572">
        <ele>64.549999999999997</ele>
        <time>2019-09-03T13:10:40Z</time>
      </trkpt>
      <trkpt lat="58.297980995848775" lon="-5.105138020589948">
        <ele>65.030000000000001</ele>
        <time>2019-09-03T13:10:41Z</time>
      </trkpt>
      <trkpt lat="58.297929028049111" lon="-5.104811964556575">
        <ele>65.510000000000005</ele>
        <time>2019-09-03T13:10:42Z</time>
      </trkpt>
      <trkpt lat="58.297838000580668" lon="-5.104517005383968">
        <ele>66.469999999999999</ele>
        <time>2019-09-03T13:10:43Z</time>
      </trkpt>
      <trkpt lat="58.297741021960974" lon="-5.104232020676136">
        <ele>66.950000000000003</ele>
        <time>2019-09-03T13:10:44Z</time>
      </trkpt>
      <trkpt lat="58.297641025856137" lon="-5.10393999516964">
        <ele>67.909999999999997</ele>
        <time>2019-09-03T13:10:45Z</time>
      </trkpt>
      <trkpt lat="58.297514962032437" lon="-5.103680994361639">
        <ele>68.870000000000005</ele>
        <time>2019-09-03T13:10:46Z</time>
      </trkpt>
      <trkpt lat="58.297376995906234" lon="-5.103422999382019">
        <ele>69.829999999999998</ele>
        <time>2019-09-03T13:10:47Z</time>
      </trkpt>
      <trkpt lat="58.297235006466508" lon="-5.103156035766006">
        <ele>70.790000000000006</ele>
        <time>2019-09-03T13:10:48Z</time>
      </trkpt>
      <trkpt lat="58.295983001589775" lon="-5.100441975519061">
        <ele>77.519999999999996</ele>
        <time>2019-09-03T13:10:57Z</time>
      </trkpt>
      <trkpt lat="58.294244008138776" lon="-5.096403993666172">
        <ele>84.25</ele>
        <time>2019-09-03T13:11:09Z</time>
      </trkpt>
      <trkpt lat="58.292507026344538" lon="-5.093234963715076">
        <ele>86.659999999999997</ele>
        <time>2019-09-03T13:11:19Z</time>
      </trkpt>
      <trkpt lat="58.291233982890844" lon="-5.090691978111863">
        <ele>84.730000000000004</ele>
        <time>2019-09-03T13:11:28Z</time>
      </trkpt>
      <trkpt lat="58.290746994316578" lon="-5.088319983333349">
        <ele>76.560000000000002</ele>
        <time>2019-09-03T13:11:35Z</time>
      </trkpt>
      <trkpt lat="58.290637023746967" lon="-5.085668032988906">
        <ele>64.069999999999993</ele>
        <time>2019-09-03T13:11:42Z</time>
      </trkpt>
      <trkpt lat="58.290283977985382" lon="-5.083393016830087">
        <ele>53.009999999999998</ele>
        <time>2019-09-03T13:11:48Z</time>
      </trkpt>
      <trkpt lat="58.289430029690266" lon="-5.08148898370564">
        <ele>40.030000000000001</ele>
        <time>2019-09-03T13:11:54Z</time>
      </trkpt>
      <trkpt lat="58.287859009578824" lon="-5.079041970893741">
        <ele>29.460000000000001</ele>
        <time>2019-09-03T13:12:03Z</time>
      </trkpt>
      <trkpt lat="58.286546990275383" lon="-5.076532009989023">
        <ele>34.259999999999998</ele>
        <time>2019-09-03T13:12:11Z</time>
      </trkpt>
      <trkpt lat="58.285111002624035" lon="-5.074622025713325">
        <ele>45.799999999999997</ele>
        <time>2019-09-03T13:12:20Z</time>
      </trkpt>
      <trkpt lat="58.283797977492213" lon="-5.073176985606551">
        <ele>56.369999999999997</ele>
        <time>2019-09-03T13:12:29Z</time>
      </trkpt>
      <trkpt lat="58.281934009864926" lon="-5.07147797383368">
        <ele>67.430000000000007</ele>
        <time>2019-09-03T13:12:39Z</time>
      </trkpt>
      <trkpt lat="58.280340023338795" lon="-5.069892033934593">
        <ele>75.599999999999994</ele>
        <time>2019-09-03T13:12:47Z</time>
      </trkpt>
      <trkpt lat="58.279063040390611" lon="-5.068034017458558">
        <ele>81.370000000000005</ele>
        <time>2019-09-03T13:12:55Z</time>
      </trkpt>
      <trkpt lat="58.277717996388674" lon="-5.065490026026964">
        <ele>84.25</ele>
        <time>2019-09-03T13:13:05Z</time>
      </trkpt>
      <trkpt lat="58.275934997946024" lon="-5.062576979398727">
        <ele>85.689999999999998</ele>
        <time>2019-09-03T13:13:16Z</time>
      </trkpt>
      <trkpt lat="58.274132972583175" lon="-5.060241026803851">
        <ele>89.060000000000002</ele>
        <time>2019-09-03T13:13:26Z</time>
      </trkpt>
      <trkpt lat="58.272419041022658" lon="-5.058217970654368">
        <ele>93.390000000000001</ele>
        <time>2019-09-03T13:13:36Z</time>
      </trkpt>
      <trkpt lat="58.2704499643296" lon="-5.056388033553958">
        <ele>97.230000000000004</ele>
        <time>2019-09-03T13:13:47Z</time>
      </trkpt>
      <trkpt lat="58.269298961386085" lon="-5.055172992870212">
        <ele>101.08</ele>
        <time>2019-09-03T13:13:54Z</time>
      </trkpt>
      <trkpt lat="58.268277961760759" lon="-5.053279018029571">
        <ele>106.36</ele>
        <time>2019-09-03T13:14:02Z</time>
      </trkpt>
      <trkpt lat="58.267521997913718" lon="-5.050769979134202">
        <ele>102.04000000000001</ele>
        <time>2019-09-03T13:14:10Z</time>
      </trkpt>
      <trkpt lat="58.267135005444288" lon="-5.048224981874228">
        <ele>89.540000000000006</ele>
        <time>2019-09-03T13:14:17Z</time>
      </trkpt>
      <trkpt lat="58.266818001866341" lon="-5.044580027461052">
        <ele>72.239999999999995</ele>
        <time>2019-09-03T13:14:26Z</time>
      </trkpt>
      <trkpt lat="58.266192963346839" lon="-5.042661996558309">
        <ele>63.579999999999998</ele>
        <time>2019-09-03T13:14:32Z</time>
      </trkpt>
      <trkpt lat="58.266039993613958" lon="-5.042410036548972">
        <ele>62.140000000000001</ele>
        <time>2019-09-03T13:14:33Z</time>
      </trkpt>
      <trkpt lat="58.265889035537839" lon="-5.042163021862507">
        <ele>60.700000000000003</ele>
        <time>2019-09-03T13:14:34Z</time>
      </trkpt>
      <trkpt lat="58.265733970329165" lon="-5.041908966377378">
        <ele>59.740000000000002</ele>
        <time>2019-09-03T13:14:35Z</time>
      </trkpt>
      <trkpt lat="58.264351040124893" lon="-5.040754023939371">
        <ele>50.130000000000003</ele>
        <time>2019-09-03T13:14:43Z</time>
      </trkpt>
      <trkpt lat="58.264172002673149" lon="-5.040695015341044">
        <ele>49.159999999999997</ele>
        <time>2019-09-03T13:14:44Z</time>
      </trkpt>
      <trkpt lat="58.263994976878166" lon="-5.040636006742716">
        <ele>48.68</ele>
        <time>2019-09-03T13:14:45Z</time>
      </trkpt>
      <trkpt lat="58.263819040730596" lon="-5.040640030056238">
        <ele>47.719999999999999</ele>
        <time>2019-09-03T13:14:46Z</time>
      </trkpt>
      <trkpt lat="58.26363698579371" lon="-5.040665008127689">
        <ele>47.240000000000002</ele>
        <time>2019-09-03T13:14:47Z</time>
      </trkpt>
      <trkpt lat="58.263459959998727" lon="-5.040689986199141">
        <ele>46.280000000000001</ele>
        <time>2019-09-03T13:14:48Z</time>
      </trkpt>
      <trkpt lat="58.262964002788067" lon="-5.040702978149056">
        <ele>42.920000000000002</ele>
        <time>2019-09-03T13:14:51Z</time>
      </trkpt>
      <trkpt lat="58.262810027226806" lon="-5.040643969550729">
        <ele>42.439999999999998</ele>
        <time>2019-09-03T13:14:52Z</time>
      </trkpt>
      <trkpt lat="58.262643981724977" lon="-5.040579009801149">
        <ele>40.990000000000002</ele>
        <time>2019-09-03T13:14:53Z</time>
      </trkpt>
      <trkpt lat="58.262516995891929" lon="-5.040468033403158">
        <ele>40.030000000000001</ele>
        <time>2019-09-03T13:14:54Z</time>
      </trkpt>
      <trkpt lat="58.262389004230499" lon="-5.040306011214852">
        <ele>38.590000000000003</ele>
        <time>2019-09-03T13:14:55Z</time>
      </trkpt>
      <trkpt lat="58.262266963720322" lon="-5.040128985419869">
        <ele>37.149999999999999</ele>
        <time>2019-09-03T13:14:56Z</time>
      </trkpt>
      <trkpt lat="58.261476969346404" lon="-5.039117960259318">
        <ele>28.5</ele>
        <time>2019-09-03T13:15:02Z</time>
      </trkpt>
      <trkpt lat="58.261314025148749" lon="-5.039045959711075">
        <ele>27.050000000000001</ele>
        <time>2019-09-03T13:15:03Z</time>
      </trkpt>
      <trkpt lat="58.261152002960443" lon="-5.038973959162831">
        <ele>25.129999999999999</ele>
        <time>2019-09-03T13:15:04Z</time>
      </trkpt>
      <trkpt lat="58.260342981666327" lon="-5.038593001663685">
        <ele>16</ele>
        <time>2019-09-03T13:15:09Z</time>
      </trkpt>
      <trkpt lat="58.260201998054981" lon="-5.038417987525463">
        <ele>14.56</ele>
        <time>2019-09-03T13:15:10Z</time>
      </trkpt>
      <trkpt lat="58.260057996958494" lon="-5.038241967558861">
        <ele>13.119999999999999</ele>
        <time>2019-09-03T13:15:11Z</time>
      </trkpt>
      <trkpt lat="58.259925981983542" lon="-5.03802496008575">
        <ele>11.67</ele>
        <time>2019-09-03T13:15:12Z</time>
      </trkpt>
      <trkpt lat="58.259801007807255" lon="-5.03778699785471">
        <ele>10.23</ele>
        <time>2019-09-03T13:15:13Z</time>
      </trkpt>
      <trkpt lat="58.259394988417625" lon="-5.037112003192306">
        <ele>6.39</ele>
        <time>2019-09-03T13:15:16Z</time>
      </trkpt>
      <trkpt lat="58.259245036169887" lon="-5.036919973790646">
        <ele>5.91</ele>
        <time>2019-09-03T13:15:17Z</time>
      </trkpt>
      <trkpt lat="58.259092988446355" lon="-5.036731967702508">
        <ele>4.94</ele>
        <time>2019-09-03T13:15:18Z</time>
      </trkpt>
      <trkpt lat="58.258915962651372" lon="-5.036633983254433">
        <ele>4.46</ele>
        <time>2019-09-03T13:15:19Z</time>
      </trkpt>
      <trkpt lat="58.258734997361898" lon="-5.036533987149596">
        <ele>3.5</ele>
        <time>2019-09-03T13:15:20Z</time>
      </trkpt>
      <trkpt lat="58.258209032937884" lon="-5.036163004115224">
        <ele>2.54</ele>
        <time>2019-09-03T13:15:23Z</time>
      </trkpt>
      <trkpt lat="58.258042987436056" lon="-5.036014979705215">
        <ele>2.54</ele>
        <time>2019-09-03T13:15:24Z</time>
      </trkpt>
      <trkpt lat="58.257908960804343" lon="-5.03579000942409">
        <ele>2.54</ele>
        <time>2019-09-03T13:15:25Z</time>
      </trkpt>
      <trkpt lat="58.257797984406352" lon="-5.035523967817426">
        <ele>3.02</ele>
        <time>2019-09-03T13:15:26Z</time>
      </trkpt>
      <trkpt lat="58.25770603492856" lon="-5.035247029736638">
        <ele>3.5</ele>
        <time>2019-09-03T13:15:27Z</time>
      </trkpt>
      <trkpt lat="58.257602015510201" lon="-5.034935977309942">
        <ele>3.98</ele>
        <time>2019-09-03T13:15:28Z</time>
      </trkpt>
      <trkpt lat="58.257546024397016" lon="-5.034667002037168">
        <ele>4.94</ele>
        <time>2019-09-03T13:15:29Z</time>
      </trkpt>
      <trkpt lat="58.256876980885863" lon="-5.031956965103746">
        <ele>16.48</ele>
        <time>2019-09-03T13:15:38Z</time>
      </trkpt>
      <trkpt lat="58.256620997563004" lon="-5.031046019867063">
        <ele>21.77</ele>
        <time>2019-09-03T13:15:41Z</time>
      </trkpt>
      <trkpt lat="58.256565006449819" lon="-5.030744019895792">
        <ele>23.210000000000001</ele>
        <time>2019-09-03T13:15:42Z</time>
      </trkpt>
      <trkpt lat="58.256551008671522" lon="-5.030410001054406">
        <ele>25.129999999999999</ele>
        <time>2019-09-03T13:15:43Z</time>
      </trkpt>
      <trkpt lat="58.256551008671522" lon="-5.030087968334556">
        <ele>26.57</ele>
        <time>2019-09-03T13:15:44Z</time>
      </trkpt>
      <trkpt lat="58.256573975086212" lon="-5.029756966978312">
        <ele>28.02</ele>
        <time>2019-09-03T13:15:45Z</time>
      </trkpt>
      <trkpt lat="58.256648993119597" lon="-5.029448010027409">
        <ele>28.98</ele>
        <time>2019-09-03T13:15:46Z</time>
      </trkpt>
      <trkpt lat="58.256743038073182" lon="-5.029164031147957">
        <ele>29.940000000000001</ele>
        <time>2019-09-03T13:15:47Z</time>
      </trkpt>
      <trkpt lat="58.256850996986032" lon="-5.028841998428106">
        <ele>30.899999999999999</ele>
        <time>2019-09-03T13:15:48Z</time>
      </trkpt>
      <trkpt lat="58.256968008354306" lon="-5.028610993176699">
        <ele>31.379999999999999</ele>
        <time>2019-09-03T13:15:49Z</time>
      </trkpt>
      <trkpt lat="58.257101029157639" lon="-5.028347969055176">
        <ele>31.859999999999999</ele>
        <time>2019-09-03T13:15:50Z</time>
      </trkpt>
      <trkpt lat="58.257602015510201" lon="-5.027360999956727">
        <ele>32.82</ele>
        <time>2019-09-03T13:15:54Z</time>
      </trkpt>
      <trkpt lat="58.257681978866458" lon="-5.027098981663585">
        <ele>32.82</ele>
        <time>2019-09-03T13:15:55Z</time>
      </trkpt>
      <trkpt lat="58.257756996899843" lon="-5.026819026097655">
        <ele>32.340000000000003</ele>
        <time>2019-09-03T13:15:56Z</time>
      </trkpt>
      <trkpt lat="58.257805025205016" lon="-5.02652901224792">
        <ele>32.340000000000003</ele>
        <time>2019-09-03T13:15:57Z</time>
      </trkpt>
      <trkpt lat="58.257827991619706" lon="-5.026218965649605">
        <ele>31.859999999999999</ele>
        <time>2019-09-03T13:15:58Z</time>
      </trkpt>
      <trkpt lat="58.257850036025047" lon="-5.025909002870321">
        <ele>31.379999999999999</ele>
        <time>2019-09-03T13:15:59Z</time>
      </trkpt>
      <trkpt lat="58.257842995226383" lon="-5.025601973757148">
        <ele>30.899999999999999</ele>
        <time>2019-09-03T13:16:00Z</time>
      </trkpt>
      <trkpt lat="58.257812988013029" lon="-5.025296034291387">
        <ele>30.899999999999999</ele>
        <time>2019-09-03T13:16:01Z</time>
      </trkpt>
      <trkpt lat="58.257767977192998" lon="-5.024995962157846">
        <ele>30.899999999999999</ele>
        <time>2019-09-03T13:16:02Z</time>
      </trkpt>
      <trkpt lat="58.257699999958277" lon="-5.024716006591916">
        <ele>30.899999999999999</ele>
        <time>2019-09-03T13:16:03Z</time>
      </trkpt>
      <trkpt lat="58.25762003660202" lon="-5.024439990520477">
        <ele>30.899999999999999</ele>
        <time>2019-09-03T13:16:04Z</time>
      </trkpt>
      <trkpt lat="58.257502019405365" lon="-5.024222983047366">
        <ele>30.899999999999999</ele>
        <time>2019-09-03T13:16:05Z</time>
      </trkpt>
      <trkpt lat="58.25738400220871" lon="-5.024003963917494">
        <ele>31.379999999999999</ele>
        <time>2019-09-03T13:16:06Z</time>
      </trkpt>
      <trkpt lat="58.256198968738317" lon="-5.022630002349615">
        <ele>31.859999999999999</ele>
        <time>2019-09-03T13:16:14Z</time>
      </trkpt>
      <trkpt lat="58.255229014903307" lon="-5.022276034578681">
        <ele>28.98</ele>
        <time>2019-09-03T13:16:21Z</time>
      </trkpt>
      <trkpt lat="58.254358973354101" lon="-5.02249002456665">
        <ele>23.690000000000001</ele>
        <time>2019-09-03T13:16:29Z</time>
      </trkpt>
      <trkpt lat="58.253959994763136" lon="-5.022475020959973">
        <ele>21.289999999999999</ele>
        <time>2019-09-03T13:16:34Z</time>
      </trkpt>
      <trkpt lat="58.253896040841937" lon="-5.022467980161309">
        <ele>21.289999999999999</ele>
        <time>2019-09-03T13:16:35Z</time>
      </trkpt>
      <trkpt lat="58.253834014758468" lon="-5.022461023181677">
        <ele>20.809999999999999</ele>
        <time>2019-09-03T13:16:36Z</time>
      </trkpt>
      <trkpt lat="58.253718009218574" lon="-5.02244702540338">
        <ele>20.809999999999999</ele>
        <time>2019-09-03T13:16:37Z</time>
      </trkpt>
      <trkpt lat="58.253735024482012" lon="-5.022343005985022">
        <ele>20.32</ele>
        <time>2019-09-03T13:16:38Z</time>
      </trkpt>
      <trkpt lat="58.253750028088689" lon="-5.022247033193708">
        <ele>20.32</ele>
        <time>2019-09-03T13:16:39Z</time>
      </trkpt>
      <trkpt lat="58.253769977018237" lon="-5.022120969370008">
        <ele>19.84</ele>
        <time>2019-09-03T13:16:40Z</time>
      </trkpt>
      <trkpt lat="58.253792021423578" lon="-5.021985014900565">
        <ele>19.84</ele>
        <time>2019-09-03T13:16:41Z</time>
      </trkpt>
      <trkpt lat="58.253812976181507" lon="-5.021851994097233">
        <ele>19.359999999999999</ele>
        <time>2019-09-03T13:16:42Z</time>
      </trkpt>
      <trkpt lat="58.253853963688016" lon="-5.021596010774374">
        <ele>18.879999999999999</ele>
        <time>2019-09-03T13:16:44Z</time>
      </trkpt>
      <trkpt lat="58.25388397090137" lon="-5.021482016891241">
        <ele>18.399999999999999</ele>
        <time>2019-09-03T13:16:45Z</time>
      </trkpt>
      <trkpt lat="58.253939962014556" lon="-5.021409010514617">
        <ele>17.440000000000001</ele>
        <time>2019-09-03T13:16:46Z</time>
      </trkpt>
      <trkpt lat="58.253996958956122" lon="-5.021333992481232">
        <ele>17.440000000000001</ele>
        <time>2019-09-03T13:16:47Z</time>
      </trkpt>
      <trkpt lat="58.25405303388834" lon="-5.021260986104608">
        <ele>16.48</ele>
        <time>2019-09-03T13:16:48Z</time>
      </trkpt>
      <trkpt lat="58.254110030829906" lon="-5.021186973899603">
        <ele>16</ele>
        <time>2019-09-03T13:16:49Z</time>
      </trkpt>
      <trkpt lat="58.254173984751105" lon="-5.021123019978404">
        <ele>15.52</ele>
        <time>2019-09-03T13:16:50Z</time>
      </trkpt>
      <trkpt lat="58.254243973642588" lon="-5.021083038300276">
        <ele>15.039999999999999</ele>
        <time>2019-09-03T13:16:51Z</time>
      </trkpt>
      <trkpt lat="58.254599031060934" lon="-5.020724963396788">
        <ele>11.67</ele>
        <time>2019-09-03T13:16:56Z</time>
      </trkpt>
      <trkpt lat="58.25521501712501" lon="-5.019602961838245">
        <ele>7.35</ele>
        <time>2019-09-03T13:17:07Z</time>
      </trkpt>
      <trkpt lat="58.255403023213148" lon="-5.019212029874325">
        <ele>6.87</ele>
        <time>2019-09-03T13:17:11Z</time>
      </trkpt>
      <trkpt lat="58.25544903986156" lon="-5.019115973263979">
        <ele>6.87</ele>
        <time>2019-09-03T13:17:12Z</time>
      </trkpt>
      <trkpt lat="58.255506036803126" lon="-5.019023017957807">
        <ele>6.87</ele>
        <time>2019-09-03T13:17:13Z</time>
      </trkpt>
      <trkpt lat="58.255569990724325" lon="-5.018947999924421">
        <ele>6.87</ele>
        <time>2019-09-03T13:17:14Z</time>
      </trkpt>
      <trkpt lat="58.255636962130666" lon="-5.018869964405894">
        <ele>6.87</ele>
        <time>2019-09-03T13:17:15Z</time>
      </trkpt>
      <trkpt lat="58.256381023675203" lon="-5.017993971705437">
        <ele>6.39</ele>
        <time>2019-09-03T13:17:27Z</time>
      </trkpt>
      <trkpt lat="58.256471967324615" lon="-5.017887018620968">
        <ele>6.39</ele>
        <time>2019-09-03T13:17:35Z</time>
      </trkpt>
      <trkpt lat="58.256570035591722" lon="-5.017772018909454">
        <ele>7.35</ele>
        <time>2019-09-03T13:17:43Z</time>
      </trkpt>
      <trkpt lat="58.256651004776359" lon="-5.017740000039339">
        <ele>7.83</ele>
        <time>2019-09-03T13:17:52Z</time>
      </trkpt>
      <trkpt lat="58.256667014211416" lon="-5.017733965069056">
        <ele>7.83</ele>
        <time>2019-09-03T13:17:53Z</time>
      </trkpt>
      <trkpt lat="58.256674977019429" lon="-5.017731031402946">
        <ele>7.83</ele>
        <time>2019-09-03T13:17:54Z</time>
      </trkpt>
      <trkpt lat="58.256674977019429" lon="-5.017731031402946">
        <ele>7.83</ele>
        <time>2019-09-03T13:18:09Z</time>
      </trkpt>
      <trkpt lat="58.256673971191049" lon="-5.01752601005137">
        <ele>14.56</ele>
        <time>2019-09-03T14:26:00Z</time>
      </trkpt>
      <trkpt lat="58.256670031696558" lon="-5.017487034201622">
        <ele>10.710000000000001</ele>
        <time>2019-09-03T14:26:46Z</time>
      </trkpt>
      <trkpt lat="58.256665002554655" lon="-5.017608990892768">
        <ele>10.710000000000001</ele>
        <time>2019-09-03T14:27:12Z</time>
      </trkpt>
      <trkpt lat="58.256628960371017" lon="-5.017666993662715">
        <ele>12.15</ele>
        <time>2019-09-03T14:27:37Z</time>
      </trkpt>
      <trkpt lat="58.256616974249482" lon="-5.017706975340843">
        <ele>12.15</ele>
        <time>2019-09-03T14:27:45Z</time>
      </trkpt>
      <trkpt lat="58.256571963429451" lon="-5.017769001424313">
        <ele>12.15</ele>
        <time>2019-09-03T14:27:47Z</time>
      </trkpt>
      <trkpt lat="58.256569029763341" lon="-5.017773024737835">
        <ele>12.15</ele>
        <time>2019-09-03T14:27:48Z</time>
      </trkpt>
      <trkpt lat="58.256514966487885" lon="-5.017835972830653">
        <ele>12.15</ele>
        <time>2019-09-03T14:27:49Z</time>
      </trkpt>
      <trkpt lat="58.256456963717937" lon="-5.017905039712787">
        <ele>11.67</ele>
        <time>2019-09-03T14:27:50Z</time>
      </trkpt>
      <trkpt lat="58.255563033744693" lon="-5.018955962732434">
        <ele>8.789999999999999</ele>
        <time>2019-09-03T14:28:03Z</time>
      </trkpt>
      <trkpt lat="58.255426995456219" lon="-5.01916098408401">
        <ele>9.27</ele>
        <time>2019-09-03T14:28:05Z</time>
      </trkpt>
      <trkpt lat="58.254742026329041" lon="-5.020497981458902">
        <ele>10.23</ele>
        <time>2019-09-03T14:28:14Z</time>
      </trkpt>
      <trkpt lat="58.254644963890314" lon="-5.020652962848544">
        <ele>11.19</ele>
        <time>2019-09-03T14:28:15Z</time>
      </trkpt>
      <trkpt lat="58.254547985270619" lon="-5.020807022228837">
        <ele>11.67</ele>
        <time>2019-09-03T14:28:16Z</time>
      </trkpt>
      <trkpt lat="58.25444296002388" lon="-5.020968960598111">
        <ele>12.15</ele>
        <time>2019-09-03T14:28:17Z</time>
      </trkpt>
      <trkpt lat="58.254068959504366" lon="-5.021241037175059">
        <ele>15.52</ele>
        <time>2019-09-03T14:28:21Z</time>
      </trkpt>
      <trkpt lat="58.253983967006207" lon="-5.021352013573051">
        <ele>16</ele>
        <time>2019-09-03T14:28:22Z</time>
      </trkpt>
      <trkpt lat="58.253899980336428" lon="-5.021461984142661">
        <ele>16.960000000000001</ele>
        <time>2019-09-03T14:28:23Z</time>
      </trkpt>
      <trkpt lat="58.253847006708384" lon="-5.021634986624122">
        <ele>18.399999999999999</ele>
        <time>2019-09-03T14:28:24Z</time>
      </trkpt>
      <trkpt lat="58.253824040293694" lon="-5.021783011034131">
        <ele>19.359999999999999</ele>
        <time>2019-09-03T14:28:25Z</time>
      </trkpt>
      <trkpt lat="58.253804007545114" lon="-5.021904967725277">
        <ele>20.32</ele>
        <time>2019-09-03T14:28:26Z</time>
      </trkpt>
      <trkpt lat="58.253789003938437" lon="-5.022001024335623">
        <ele>21.77</ele>
        <time>2019-09-03T14:28:27Z</time>
      </trkpt>
      <trkpt lat="58.253777017816901" lon="-5.022078976035118">
        <ele>22.73</ele>
        <time>2019-09-03T14:28:28Z</time>
      </trkpt>
      <trkpt lat="58.253766037523746" lon="-5.022144019603729">
        <ele>23.690000000000001</ele>
        <time>2019-09-03T14:28:29Z</time>
      </trkpt>
      <trkpt lat="58.253746004775167" lon="-5.0222750287503">
        <ele>26.09</ele>
        <time>2019-09-03T14:28:32Z</time>
      </trkpt>
      <trkpt lat="58.253735024482012" lon="-5.022337976843119">
        <ele>26.57</ele>
        <time>2019-09-03T14:28:33Z</time>
      </trkpt>
      <trkpt lat="58.253724966198206" lon="-5.02240695990622">
        <ele>27.530000000000001</ele>
        <time>2019-09-03T14:28:34Z</time>
      </trkpt>
      <trkpt lat="58.25366604141891" lon="-5.022414000704885">
        <ele>28.5</ele>
        <time>2019-09-03T14:28:35Z</time>
      </trkpt>
      <trkpt lat="58.253589011728764" lon="-5.022364966571331">
        <ele>28.98</ele>
        <time>2019-09-03T14:28:36Z</time>
      </trkpt>
      <trkpt lat="58.253489015623927" lon="-5.022301012650132">
        <ele>29.940000000000001</ele>
        <time>2019-09-03T14:28:37Z</time>
      </trkpt>
      <trkpt lat="58.252638000994921" lon="-5.021488973870874">
        <ele>32.340000000000003</ele>
        <time>2019-09-03T14:28:44Z</time>
      </trkpt>
      <trkpt lat="58.252520989626646" lon="-5.021293004974723">
        <ele>33.299999999999997</ele>
        <time>2019-09-03T14:28:45Z</time>
      </trkpt>
      <trkpt lat="58.252415964379907" lon="-5.021066023036838">
        <ele>34.259999999999998</ele>
        <time>2019-09-03T14:28:46Z</time>
      </trkpt>
      <trkpt lat="58.252306999638677" lon="-5.020834011957049">
        <ele>35.229999999999997</ele>
        <time>2019-09-03T14:28:47Z</time>
      </trkpt>
      <trkpt lat="58.251478029415011" lon="-5.018287003040314">
        <ele>48.68</ele>
        <time>2019-09-03T14:28:56Z</time>
      </trkpt>
      <trkpt lat="58.25083295814693" lon="-5.016404008492827">
        <ele>60.700000000000003</ele>
        <time>2019-09-03T14:29:04Z</time>
      </trkpt>
      <trkpt lat="58.250770010054111" lon="-5.016141990199685">
        <ele>61.18</ele>
        <time>2019-09-03T14:29:05Z</time>
      </trkpt>
      <trkpt lat="58.250718964263797" lon="-5.01585298217833">
        <ele>61.659999999999997</ele>
        <time>2019-09-03T14:29:06Z</time>
      </trkpt>
      <trkpt lat="58.250081017613411" lon="-5.011851964518428">
        <ele>57.82</ele>
        <time>2019-09-03T14:29:19Z</time>
      </trkpt>
      <trkpt lat="58.249898040667176" lon="-5.009296992793679">
        <ele>47.719999999999999</ele>
        <time>2019-09-03T14:29:28Z</time>
      </trkpt>
      <trkpt lat="58.249868033453822" lon="-5.009048972278833">
        <ele>46.759999999999998</ele>
        <time>2019-09-03T14:29:29Z</time>
      </trkpt>
      <trkpt lat="58.249808019027114" lon="-5.008798018097878">
        <ele>45.32</ele>
        <time>2019-09-03T14:29:30Z</time>
      </trkpt>
      <trkpt lat="58.249724032357335" lon="-5.008553015068173">
        <ele>43.880000000000003</ele>
        <time>2019-09-03T14:29:31Z</time>
      </trkpt>
      <trkpt lat="58.249616995453835" lon="-5.008321003988385">
        <ele>42.439999999999998</ele>
        <time>2019-09-03T14:29:32Z</time>
      </trkpt>
      <trkpt lat="58.248644024133682" lon="-5.006657028570771">
        <ele>32.340000000000003</ele>
        <time>2019-09-03T14:29:40Z</time>
      </trkpt>
      <trkpt lat="58.247323958203197" lon="-5.004984000697732">
        <ele>25.609999999999999</ele>
        <time>2019-09-03T14:29:50Z</time>
      </trkpt>
      <trkpt lat="58.247165959328413" lon="-5.004862966015935">
        <ele>25.129999999999999</ele>
        <time>2019-09-03T14:29:51Z</time>
      </trkpt>
      <trkpt lat="58.246999997645617" lon="-5.004784008488059">
        <ele>24.649999999999999</ele>
        <time>2019-09-03T14:29:52Z</time>
      </trkpt>
      <trkpt lat="58.24683403596282" lon="-5.004711002111435">
        <ele>24.649999999999999</ele>
        <time>2019-09-03T14:29:53Z</time>
      </trkpt>
      <trkpt lat="58.246667990460992" lon="-5.004703039303422">
        <ele>24.170000000000002</ele>
        <time>2019-09-03T14:29:54Z</time>
      </trkpt>
      <trkpt lat="58.246505968272686" lon="-5.004740003496409">
        <ele>24.170000000000002</ele>
        <time>2019-09-03T14:29:55Z</time>
      </trkpt>
      <trkpt lat="58.246346041560173" lon="-5.004809992387891">
        <ele>24.170000000000002</ele>
        <time>2019-09-03T14:29:56Z</time>
      </trkpt>
      <trkpt lat="58.246186031028628" lon="-5.004885010421276">
        <ele>24.649999999999999</ele>
        <time>2019-09-03T14:29:57Z</time>
      </trkpt>
      <trkpt lat="58.245872966945171" lon="-5.005031023174524">
        <ele>25.129999999999999</ele>
        <time>2019-09-03T14:29:59Z</time>
      </trkpt>
      <trkpt lat="58.245724020525813" lon="-5.005005961284041">
        <ele>26.09</ele>
        <time>2019-09-03T14:30:00Z</time>
      </trkpt>
      <trkpt lat="58.245579013600945" lon="-5.00495701096952">
        <ele>26.57</ele>
        <time>2019-09-03T14:30:01Z</time>
      </trkpt>
      <trkpt lat="58.245434006676078" lon="-5.004887022078037">
        <ele>27.530000000000001</ele>
        <time>2019-09-03T14:30:02Z</time>
      </trkpt>
      <trkpt lat="58.24530802667141" lon="-5.00472298823297">
        <ele>28.5</ele>
        <time>2019-09-03T14:30:03Z</time>
      </trkpt>
      <trkpt lat="58.245176011696458" lon="-5.004553003236651">
        <ele>29.460000000000001</ele>
        <time>2019-09-03T14:30:04Z</time>
      </trkpt>
      <trkpt lat="58.244791030883789" lon="-5.00405503436923">
        <ele>30.899999999999999</ele>
        <time>2019-09-03T14:30:07Z</time>
      </trkpt>
      <trkpt lat="58.244669996201992" lon="-5.003955960273743">
        <ele>31.379999999999999</ele>
        <time>2019-09-03T14:30:08Z</time>
      </trkpt>
      <trkpt lat="58.244546027854085" lon="-5.003920001909137">
        <ele>31.859999999999999</ele>
        <time>2019-09-03T14:30:09Z</time>
      </trkpt>
      <trkpt lat="58.244427004829049" lon="-5.00388597138226">
        <ele>32.340000000000003</ele>
        <time>2019-09-03T14:30:10Z</time>
      </trkpt>
      <trkpt lat="58.244297001510859" lon="-5.003946991637349">
        <ele>32.340000000000003</ele>
        <time>2019-09-03T14:30:11Z</time>
      </trkpt>
      <trkpt lat="58.244169009849429" lon="-5.004006000235677">
        <ele>32.82</ele>
        <time>2019-09-03T14:30:12Z</time>
      </trkpt>
      <trkpt lat="58.244044035673141" lon="-5.004113959148526">
        <ele>32.82</ele>
        <time>2019-09-03T14:30:13Z</time>
      </trkpt>
      <trkpt lat="58.243917971849442" lon="-5.004272041842341">
        <ele>33.299999999999997</ele>
        <time>2019-09-03T14:30:14Z</time>
      </trkpt>
      <trkpt lat="58.24378302320838" lon="-5.00444202683866">
        <ele>33.780000000000001</ele>
        <time>2019-09-03T14:30:15Z</time>
      </trkpt>
      <trkpt lat="58.243080032989383" lon="-5.005327994003892">
        <ele>35.229999999999997</ele>
        <time>2019-09-03T14:30:20Z</time>
      </trkpt>
      <trkpt lat="58.24296897277236" lon="-5.005548018962145">
        <ele>35.710000000000001</ele>
        <time>2019-09-03T14:30:21Z</time>
      </trkpt>
      <trkpt lat="58.242069007828832" lon="-5.007639974355698">
        <ele>44.840000000000003</ele>
        <time>2019-09-03T14:30:29Z</time>
      </trkpt>
      <trkpt lat="58.241916038095951" lon="-5.007841978222132">
        <ele>45.799999999999997</ele>
        <time>2019-09-03T14:30:30Z</time>
      </trkpt>
      <trkpt lat="58.240143014118075" lon="-5.009999983012676">
        <ele>60.219999999999999</ele>
        <time>2019-09-03T14:30:41Z</time>
      </trkpt>
      <trkpt lat="58.239977974444628" lon="-5.010145995765925">
        <ele>61.18</ele>
        <time>2019-09-03T14:30:42Z</time>
      </trkpt>
      <trkpt lat="58.239805977791548" lon="-5.010253032669425">
        <ele>62.619999999999997</ele>
        <time>2019-09-03T14:30:43Z</time>
      </trkpt>
      <trkpt lat="58.239630963653326" lon="-5.010335007682443">
        <ele>63.579999999999998</ele>
        <time>2019-09-03T14:30:44Z</time>
      </trkpt>
      <trkpt lat="58.239453015848994" lon="-5.010397033765912">
        <ele>64.549999999999997</ele>
        <time>2019-09-03T14:30:45Z</time>
      </trkpt>
      <trkpt lat="58.238460011780262" lon="-5.010704984888434">
        <ele>65.989999999999995</ele>
        <time>2019-09-03T14:30:51Z</time>
      </trkpt>
      <trkpt lat="58.23830796405673" lon="-5.010697022080421">
        <ele>65.989999999999995</ele>
        <time>2019-09-03T14:30:52Z</time>
      </trkpt>
      <trkpt lat="58.23815499432385" lon="-5.010685035958886">
        <ele>65.989999999999995</ele>
        <time>2019-09-03T14:30:53Z</time>
      </trkpt>
      <trkpt lat="58.23800696991384" lon="-5.010611023753882">
        <ele>65.510000000000005</ele>
        <time>2019-09-03T14:30:54Z</time>
      </trkpt>
      <trkpt lat="58.237857017666101" lon="-5.010536005720496">
        <ele>65.510000000000005</ele>
        <time>2019-09-03T14:30:55Z</time>
      </trkpt>
      <trkpt lat="58.237714022397995" lon="-5.010465011000633">
        <ele>65.510000000000005</ele>
        <time>2019-09-03T14:30:56Z</time>
      </trkpt>
      <trkpt lat="58.237573960795999" lon="-5.01045998185873">
        <ele>65.510000000000005</ele>
        <time>2019-09-03T14:30:57Z</time>
      </trkpt>
      <trkpt lat="58.237440017983317" lon="-5.010470040142536">
        <ele>65.510000000000005</ele>
        <time>2019-09-03T14:30:58Z</time>
      </trkpt>
      <trkpt lat="58.237324012443423" lon="-5.010553020983934">
        <ele>65.989999999999995</ele>
        <time>2019-09-03T14:30:59Z</time>
      </trkpt>
      <trkpt lat="58.237214041873813" lon="-5.010686963796616">
        <ele>66.469999999999999</ele>
        <time>2019-09-03T14:31:00Z</time>
      </trkpt>
      <trkpt lat="58.237101975828409" lon="-5.01082400791347">
        <ele>66.469999999999999</ele>
        <time>2019-09-03T14:31:01Z</time>
      </trkpt>
      <trkpt lat="58.236986976116896" lon="-5.01097496598959">
        <ele>67.430000000000007</ele>
        <time>2019-09-03T14:31:02Z</time>
      </trkpt>
      <trkpt lat="58.23626403696835" lon="-5.012459987774491">
        <ele>70.790000000000006</ele>
        <time>2019-09-03T14:31:10Z</time>
      </trkpt>
      <trkpt lat="58.235969999805093" lon="-5.013155015185475">
        <ele>72.239999999999995</ele>
        <time>2019-09-03T14:31:14Z</time>
      </trkpt>
      <trkpt lat="58.235863968729973" lon="-5.01331502571702">
        <ele>72.239999999999995</ele>
        <time>2019-09-03T14:31:15Z</time>
      </trkpt>
      <trkpt lat="58.235063999891281" lon="-5.014325967058539">
        <ele>78.480000000000004</ele>
        <time>2019-09-03T14:31:23Z</time>
      </trkpt>
      <trkpt lat="58.234556978568435" lon="-5.014871964231134">
        <ele>82.329999999999998</ele>
        <time>2019-09-03T14:31:28Z</time>
      </trkpt>
      <trkpt lat="58.234426975250244" lon="-5.014949999749661">
        <ele>82.810000000000002</ele>
        <time>2019-09-03T14:31:29Z</time>
      </trkpt>
      <trkpt lat="58.234292026609182" lon="-5.014976989477873">
        <ele>83.769999999999996</ele>
        <time>2019-09-03T14:31:30Z</time>
      </trkpt>
      <trkpt lat="58.234153976663947" lon="-5.01499199308455">
        <ele>84.25</ele>
        <time>2019-09-03T14:31:31Z</time>
      </trkpt>
      <trkpt lat="58.234021039679646" lon="-5.014910018071532">
        <ele>85.209999999999994</ele>
        <time>2019-09-03T14:31:32Z</time>
      </trkpt>
      <trkpt lat="58.233883995562792" lon="-5.014826031401753">
        <ele>86.180000000000007</ele>
        <time>2019-09-03T14:31:33Z</time>
      </trkpt>
      <trkpt lat="58.233748041093349" lon="-5.014706002548337">
        <ele>87.140000000000001</ele>
        <time>2019-09-03T14:31:34Z</time>
      </trkpt>
      <trkpt lat="58.233633963391185" lon="-5.01451900228858">
        <ele>88.099999999999994</ele>
        <time>2019-09-03T14:31:35Z</time>
      </trkpt>
      <trkpt lat="58.233518041670322" lon="-5.014327978715301">
        <ele>89.060000000000002</ele>
        <time>2019-09-03T14:31:36Z</time>
      </trkpt>
      <trkpt lat="58.233400024473667" lon="-5.014133015647531">
        <ele>90.019999999999996</ele>
        <time>2019-09-03T14:31:37Z</time>
      </trkpt>
      <trkpt lat="58.233058964833617" lon="-5.013515017926693">
        <ele>93.390000000000001</ele>
        <time>2019-09-03T14:31:40Z</time>
      </trkpt>
      <trkpt lat="58.232968021184206" lon="-5.013275966048241">
        <ele>94.829999999999998</ele>
        <time>2019-09-03T14:31:41Z</time>
      </trkpt>
      <trkpt lat="58.232893003150821" lon="-5.013011014088988">
        <ele>96.269999999999996</ele>
        <time>2019-09-03T14:31:42Z</time>
      </trkpt>
      <trkpt lat="58.232612041756511" lon="-5.0119190197438">
        <ele>102.04000000000001</ele>
        <time>2019-09-03T14:31:46Z</time>
      </trkpt>
      <trkpt lat="58.232514979317784" lon="-5.011692037805915">
        <ele>103.48</ele>
        <time>2019-09-03T14:31:47Z</time>
      </trkpt>
      <trkpt lat="58.23239604011178" lon="-5.01149196177721">
        <ele>104.92</ele>
        <time>2019-09-03T14:31:48Z</time>
      </trkpt>
      <trkpt lat="58.23175298050046" lon="-5.010511027649045">
        <ele>112.13</ele>
        <time>2019-09-03T14:31:53Z</time>
      </trkpt>
      <trkpt lat="58.231597999110818" lon="-5.01037297770381">
        <ele>113.56999999999999</ele>
        <time>2019-09-03T14:31:54Z</time>
      </trkpt>
      <trkpt lat="58.231431031599641" lon="-5.010272981598973">
        <ele>115.01000000000001</ele>
        <time>2019-09-03T14:31:55Z</time>
      </trkpt>
      <trkpt lat="58.230630978941917" lon="-5.00966303050518">
        <ele>123.67</ele>
        <time>2019-09-03T14:32:00Z</time>
      </trkpt>
      <trkpt lat="58.230494018644094" lon="-5.009478963911533">
        <ele>125.11</ele>
        <time>2019-09-03T14:32:01Z</time>
      </trkpt>
      <trkpt lat="58.229942992329597" lon="-5.008731968700886">
        <ele>131.84</ele>
        <time>2019-09-03T14:32:05Z</time>
      </trkpt>
      <trkpt lat="58.22979798540473" lon="-5.008568018674851">
        <ele>133.28</ele>
        <time>2019-09-03T14:32:06Z</time>
      </trkpt>
      <trkpt lat="58.229637974873185" lon="-5.008493000641465">
        <ele>134.72</ele>
        <time>2019-09-03T14:32:07Z</time>
      </trkpt>
      <trkpt lat="58.229473019018769" lon="-5.008415970951319">
        <ele>136.16</ele>
        <time>2019-09-03T14:32:08Z</time>
      </trkpt>
      <trkpt lat="58.22930303402245" lon="-5.008336007595062">
        <ele>137.13</ele>
        <time>2019-09-03T14:32:09Z</time>
      </trkpt>
      <trkpt lat="58.228062009438872" lon="-5.007426990196109">
        <ele>146.25999999999999</ele>
        <time>2019-09-03T14:32:16Z</time>
      </trkpt>
      <trkpt lat="58.226644964888692" lon="-5.006101978942752">
        <ele>150.58000000000001</ele>
        <time>2019-09-03T14:32:25Z</time>
      </trkpt>
      <trkpt lat="58.226526025682688" lon="-5.005884971469641">
        <ele>151.06</ele>
        <time>2019-09-03T14:32:26Z</time>
      </trkpt>
      <trkpt lat="58.22640297934413" lon="-5.005661007016897">
        <ele>151.06</ele>
        <time>2019-09-03T14:32:27Z</time>
      </trkpt>
      <trkpt lat="58.226296026259661" lon="-5.005397982895374">
        <ele>151.53999999999999</ele>
        <time>2019-09-03T14:32:28Z</time>
      </trkpt>
      <trkpt lat="58.226197035983205" lon="-5.0051099807024">
        <ele>151.53999999999999</ele>
        <time>2019-09-03T14:32:29Z</time>
      </trkpt>
      <trkpt lat="58.226097039878368" lon="-5.004819966852665">
        <ele>152.03</ele>
        <time>2019-09-03T14:32:30Z</time>
      </trkpt>
      <trkpt lat="58.225578032433987" lon="-5.003447011113167">
        <ele>152.99000000000001</ele>
        <time>2019-09-03T14:32:35Z</time>
      </trkpt>
      <trkpt lat="58.225016025826335" lon="-5.002392986789346">
        <ele>155.87</ele>
        <time>2019-09-03T14:32:40Z</time>
      </trkpt>
      <trkpt lat="58.22492198087275" lon="-5.002298019826412">
        <ele>156.34999999999999</ele>
        <time>2019-09-03T14:32:41Z</time>
      </trkpt>
      <trkpt lat="58.224777979776263" lon="-5.002277987077832">
        <ele>156.83000000000001</ele>
        <time>2019-09-03T14:32:42Z</time>
      </trkpt>
      <trkpt lat="58.224651999771595" lon="-5.002259965986013">
        <ele>157.31</ele>
        <time>2019-09-03T14:32:43Z</time>
      </trkpt>
      <trkpt lat="58.224525013938546" lon="-5.00231696292758">
        <ele>158.27000000000001</ele>
        <time>2019-09-03T14:32:44Z</time>
      </trkpt>
      <trkpt lat="58.224388975650072" lon="-5.002403967082501">
        <ele>159.72</ele>
        <time>2019-09-03T14:32:45Z</time>
      </trkpt>
      <trkpt lat="58.224245980381966" lon="-5.002494994550943">
        <ele>160.68000000000001</ele>
        <time>2019-09-03T14:32:46Z</time>
      </trkpt>
      <trkpt lat="58.223849013447762" lon="-5.002748966217041">
        <ele>165</ele>
        <time>2019-09-03T14:32:49Z</time>
      </trkpt>
      <trkpt lat="58.22369797155261" lon="-5.002710996195674">
        <ele>166.44999999999999</ele>
        <time>2019-09-03T14:32:50Z</time>
      </trkpt>
      <trkpt lat="58.223579032346606" lon="-5.0026819948107">
        <ele>167.41</ele>
        <time>2019-09-03T14:32:51Z</time>
      </trkpt>
      <trkpt lat="58.223473001271486" lon="-5.002598008140922">
        <ele>168.37</ele>
        <time>2019-09-03T14:32:52Z</time>
      </trkpt>
      <trkpt lat="58.223389014601707" lon="-5.002430034801364">
        <ele>169.33000000000001</ele>
        <time>2019-09-03T14:32:53Z</time>
      </trkpt>
      <trkpt lat="58.2233099732548" lon="-5.002238005399704">
        <ele>170.28999999999999</ele>
        <time>2019-09-03T14:32:54Z</time>
      </trkpt>
      <trkpt lat="58.223240990191698" lon="-5.002004988491535">
        <ele>170.77000000000001</ele>
        <time>2019-09-03T14:32:55Z</time>
      </trkpt>
      <trkpt lat="58.222661968320608" lon="-5.000104978680611">
        <ele>172.69</ele>
        <time>2019-09-03T14:33:02Z</time>
      </trkpt>
      <trkpt lat="58.222558032721281" lon="-4.999871961772442">
        <ele>172.69</ele>
        <time>2019-09-03T14:33:03Z</time>
      </trkpt>
      <trkpt lat="58.222426017746329" lon="-4.999703988432884">
        <ele>172.21000000000001</ele>
        <time>2019-09-03T14:33:04Z</time>
      </trkpt>
      <trkpt lat="58.222284028306603" lon="-4.999545989558101">
        <ele>172.21000000000001</ele>
        <time>2019-09-03T14:33:05Z</time>
      </trkpt>
      <trkpt lat="58.222137009724975" lon="-4.99939201399684">
        <ele>172.21000000000001</ele>
        <time>2019-09-03T14:33:06Z</time>
      </trkpt>
      <trkpt lat="58.221969958394766" lon="-4.999294029548764">
        <ele>172.21000000000001</ele>
        <time>2019-09-03T14:33:07Z</time>
      </trkpt>
      <trkpt lat="58.220513015985489" lon="-4.998307982459664">
        <ele>171.72999999999999</ele>
        <time>2019-09-03T14:33:16Z</time>
      </trkpt>
      <trkpt lat="58.219642974436283" lon="-4.997608009725809">
        <ele>173.16999999999999</ele>
        <time>2019-09-03T14:33:22Z</time>
      </trkpt>
      <trkpt lat="58.21950601413846" lon="-4.997553024441004">
        <ele>174.13999999999999</ele>
        <time>2019-09-03T14:33:23Z</time>
      </trkpt>
      <trkpt lat="58.219373999163508" lon="-4.997499966993928">
        <ele>175.09999999999999</ele>
        <time>2019-09-03T14:33:24Z</time>
      </trkpt>
      <trkpt lat="58.219243995845318" lon="-4.997494015842676">
        <ele>176.06</ele>
        <time>2019-09-03T14:33:25Z</time>
      </trkpt>
      <trkpt lat="58.219111980870366" lon="-4.997550006955862">
        <ele>177.02000000000001</ele>
        <time>2019-09-03T14:33:26Z</time>
      </trkpt>
      <trkpt lat="58.21896898560226" lon="-4.99761002138257">
        <ele>178.46000000000001</ele>
        <time>2019-09-03T14:33:27Z</time>
      </trkpt>
      <trkpt lat="58.218826996162534" lon="-4.997725021094084">
        <ele>179.41999999999999</ele>
        <time>2019-09-03T14:33:28Z</time>
      </trkpt>
      <trkpt lat="58.21868802420795" lon="-4.997901041060686">
        <ele>180.87</ele>
        <time>2019-09-03T14:33:29Z</time>
      </trkpt>
      <trkpt lat="58.21853999979794" lon="-4.998088963329792">
        <ele>182.31</ele>
        <time>2019-09-03T14:33:30Z</time>
      </trkpt>
      <trkpt lat="58.21838703006506" lon="-4.998281998559833">
        <ele>183.75</ele>
        <time>2019-09-03T14:33:31Z</time>
      </trkpt>
      <trkpt lat="58.218071032315493" lon="-4.998634960502386">
        <ele>187.59</ele>
        <time>2019-09-03T14:33:33Z</time>
      </trkpt>
      <trkpt lat="58.217920996248722" lon="-4.99874702654779">
        <ele>189.03999999999999</ele>
        <time>2019-09-03T14:33:34Z</time>
      </trkpt>
      <trkpt lat="58.21776601485908" lon="-4.998781979084015">
        <ele>190.96000000000001</ele>
        <time>2019-09-03T14:33:35Z</time>
      </trkpt>
      <trkpt lat="58.217610027641058" lon="-4.998816009610891">
        <ele>192.40000000000001</ele>
        <time>2019-09-03T14:33:36Z</time>
      </trkpt>
      <trkpt lat="58.217453034594655" lon="-4.998850962147117">
        <ele>193.84</ele>
        <time>2019-09-03T14:33:37Z</time>
      </trkpt>
      <trkpt lat="58.217158997431397" lon="-4.998936038464308">
        <ele>196.72999999999999</ele>
        <time>2019-09-03T14:33:39Z</time>
      </trkpt>
      <trkpt lat="58.217032011598349" lon="-4.9990279879421">
        <ele>197.69</ele>
        <time>2019-09-03T14:33:40Z</time>
      </trkpt>
      <trkpt lat="58.216919023543596" lon="-4.999163020402193">
        <ele>199.13</ele>
        <time>2019-09-03T14:33:41Z</time>
      </trkpt>
      <trkpt lat="58.216825984418392" lon="-4.99934901483357">
        <ele>200.09</ele>
        <time>2019-09-03T14:33:42Z</time>
      </trkpt>
      <trkpt lat="58.216765969991684" lon="-4.999589994549751">
        <ele>201.53</ele>
        <time>2019-09-03T14:33:43Z</time>
      </trkpt>
      <trkpt lat="58.216709978878498" lon="-4.999852012842894">
        <ele>202.49000000000001</ele>
        <time>2019-09-03T14:33:44Z</time>
      </trkpt>
      <trkpt lat="58.216653987765312" lon="-5.000113025307655">
        <ele>203.94</ele>
        <time>2019-09-03T14:33:45Z</time>
      </trkpt>
      <trkpt lat="58.216603025794029" lon="-5.000349981710315">
        <ele>205.38</ele>
        <time>2019-09-03T14:33:46Z</time>
      </trkpt>
      <trkpt lat="58.21656103245914" lon="-5.000547040253878">
        <ele>207.30000000000001</ele>
        <time>2019-09-03T14:33:47Z</time>
      </trkpt>
      <trkpt lat="58.216479979455471" lon="-5.000654999166727">
        <ele>208.25999999999999</ele>
        <time>2019-09-03T14:33:48Z</time>
      </trkpt>
      <trkpt lat="58.216401021927595" lon="-5.000734040513635">
        <ele>209.22</ele>
        <time>2019-09-03T14:33:49Z</time>
      </trkpt>
      <trkpt lat="58.216318963095546" lon="-5.000735968351364">
        <ele>210.66999999999999</ele>
        <time>2019-09-03T14:33:50Z</time>
      </trkpt>
      <trkpt lat="58.216230031102896" lon="-5.000708978623152">
        <ele>211.63</ele>
        <time>2019-09-03T14:33:51Z</time>
      </trkpt>
      <trkpt lat="58.216156018897891" lon="-5.000590039417148">
        <ele>212.59</ele>
        <time>2019-09-03T14:33:52Z</time>
      </trkpt>
      <trkpt lat="58.216113019734621" lon="-5.000411001965404">
        <ele>213.55000000000001</ele>
        <time>2019-09-03T14:33:53Z</time>
      </trkpt>
      <trkpt lat="58.216092986986041" lon="-5.000196006149054">
        <ele>214.50999999999999</ele>
        <time>2019-09-03T14:33:54Z</time>
      </trkpt>
      <trkpt lat="58.216097010299563" lon="-4.999957038089633">
        <ele>215.47</ele>
        <time>2019-09-03T14:33:55Z</time>
      </trkpt>
      <trkpt lat="58.21613104082644" lon="-4.99971304088831">
        <ele>216.43000000000001</ele>
        <time>2019-09-03T14:33:56Z</time>
      </trkpt>
      <trkpt lat="58.216165993362665" lon="-4.999468959867954">
        <ele>216.91</ele>
        <time>2019-09-03T14:33:57Z</time>
      </trkpt>
      <trkpt lat="58.216342013329268" lon="-4.998223995789886">
        <ele>222.68000000000001</ele>
        <time>2019-09-03T14:34:02Z</time>
      </trkpt>
      <trkpt lat="58.21637000888586" lon="-4.997987961396575">
        <ele>224.12</ele>
        <time>2019-09-03T14:34:03Z</time>
      </trkpt>
      <trkpt lat="58.216364979743958" lon="-4.997749999165535">
        <ele>225.09</ele>
        <time>2019-09-03T14:34:04Z</time>
      </trkpt>
      <trkpt lat="58.216331033036113" lon="-4.997536009177566">
        <ele>226.53</ele>
        <time>2019-09-03T14:34:05Z</time>
      </trkpt>
      <trkpt lat="58.216265989467502" lon="-4.997360995039344">
        <ele>227.49000000000001</ele>
        <time>2019-09-03T14:34:06Z</time>
      </trkpt>
      <trkpt lat="58.216189965605736" lon="-4.997230991721153">
        <ele>228.44999999999999</ele>
        <time>2019-09-03T14:34:07Z</time>
      </trkpt>
      <trkpt lat="58.216084018349648" lon="-4.997168965637684">
        <ele>228.93000000000001</ele>
        <time>2019-09-03T14:34:08Z</time>
      </trkpt>
      <trkpt lat="58.215959966182709" lon="-4.997135018929839">
        <ele>229.41</ele>
        <time>2019-09-03T14:34:09Z</time>
      </trkpt>
      <trkpt lat="58.215815965086222" lon="-4.997162008658052">
        <ele>230.37</ele>
        <time>2019-09-03T14:34:10Z</time>
      </trkpt>
      <trkpt lat="58.215654026716948" lon="-4.997210036963224">
        <ele>230.84999999999999</ele>
        <time>2019-09-03T14:34:11Z</time>
      </trkpt>
      <trkpt lat="58.215471971780062" lon="-4.99726502224803">
        <ele>230.84999999999999</ele>
        <time>2019-09-03T14:34:12Z</time>
      </trkpt>
      <trkpt lat="58.213470038026571" lon="-4.997958038002253">
        <ele>232.78</ele>
        <time>2019-09-03T14:34:22Z</time>
      </trkpt>
      <trkpt lat="58.211302980780602" lon="-4.999043997377157">
        <ele>240.47</ele>
        <time>2019-09-03T14:34:32Z</time>
      </trkpt>
      <trkpt lat="58.209801027551293" lon="-4.999982016161084">
        <ele>249.59999999999999</ele>
        <time>2019-09-03T14:34:39Z</time>
      </trkpt>
      <trkpt lat="58.209618972614408" lon="-5.000184020027518">
        <ele>250.56</ele>
        <time>2019-09-03T14:34:40Z</time>
      </trkpt>
      <trkpt lat="58.209435995668173" lon="-5.000393986701965">
        <ele>252</ele>
        <time>2019-09-03T14:34:41Z</time>
      </trkpt>
      <trkpt lat="58.208155995234847" lon="-5.001984033733606">
        <ele>258.25</ele>
        <time>2019-09-03T14:34:49Z</time>
      </trkpt>
      <trkpt lat="58.207992967218161" lon="-5.00210196711123">
        <ele>258.73000000000002</ele>
        <time>2019-09-03T14:34:50Z</time>
      </trkpt>
      <trkpt lat="58.207650985568762" lon="-5.002349987626076">
        <ele>259.69</ele>
        <time>2019-09-03T14:34:52Z</time>
      </trkpt>
      <trkpt lat="58.207479994744062" lon="-5.002473033964634">
        <ele>259.69</ele>
        <time>2019-09-03T14:34:53Z</time>
      </trkpt>
      <trkpt lat="58.207334987819195" lon="-5.002688029780984">
        <ele>260.17000000000002</ele>
        <time>2019-09-03T14:34:54Z</time>
      </trkpt>
      <trkpt lat="58.207197021692991" lon="-5.002914005890489">
        <ele>260.17000000000002</ele>
        <time>2019-09-03T14:34:55Z</time>
      </trkpt>
      <trkpt lat="58.207047991454601" lon="-5.003156997263432">
        <ele>260.64999999999998</ele>
        <time>2019-09-03T14:34:56Z</time>
      </trkpt>
      <trkpt lat="58.206927962601185" lon="-5.003405017778277">
        <ele>261.13999999999999</ele>
        <time>2019-09-03T14:34:57Z</time>
      </trkpt>
      <trkpt lat="58.206450026482344" lon="-5.004337001591921">
        <ele>263.06</ele>
        <time>2019-09-03T14:35:01Z</time>
      </trkpt>
      <trkpt lat="58.206322034820914" lon="-5.004505980759859">
        <ele>263.06</ele>
        <time>2019-09-03T14:35:02Z</time>
      </trkpt>
      <trkpt lat="58.206179039552808" lon="-5.004626009613276">
        <ele>263.06</ele>
        <time>2019-09-03T14:35:03Z</time>
      </trkpt>
      <trkpt lat="58.206018023192883" lon="-5.004694992676377">
        <ele>263.06</ele>
        <time>2019-09-03T14:35:04Z</time>
      </trkpt>
      <trkpt lat="58.205848038196564" lon="-5.004767999053001">
        <ele>262.57999999999998</ele>
        <time>2019-09-03T14:35:05Z</time>
      </trkpt>
      <trkpt lat="58.205671012401581" lon="-5.004844022914767">
        <ele>262.10000000000002</ele>
        <time>2019-09-03T14:35:06Z</time>
      </trkpt>
      <trkpt lat="58.204386988654733" lon="-5.005626976490021">
        <ele>259.69</ele>
        <time>2019-09-03T14:35:13Z</time>
      </trkpt>
      <trkpt lat="58.203375041484833" lon="-5.00678300857544">
        <ele>258.25</ele>
        <time>2019-09-03T14:35:19Z</time>
      </trkpt>
      <trkpt lat="58.203219976276159" lon="-5.006914017722011">
        <ele>258.25</ele>
        <time>2019-09-03T14:35:20Z</time>
      </trkpt>
      <trkpt lat="58.203060971572995" lon="-5.006961962208152">
        <ele>257.76999999999998</ele>
        <time>2019-09-03T14:35:21Z</time>
      </trkpt>
      <trkpt lat="58.202901966869831" lon="-5.006952993571758">
        <ele>257.76999999999998</ele>
        <time>2019-09-03T14:35:22Z</time>
      </trkpt>
      <trkpt lat="58.202734999358654" lon="-5.006917035207152">
        <ele>257.29000000000002</ele>
        <time>2019-09-03T14:35:23Z</time>
      </trkpt>
      <trkpt lat="58.202557973563671" lon="-5.006879987195134">
        <ele>257.29000000000002</ele>
        <time>2019-09-03T14:35:24Z</time>
      </trkpt>
      <trkpt lat="58.202191013842821" lon="-5.006834976375103">
        <ele>256.32999999999998</ele>
        <time>2019-09-03T14:35:26Z</time>
      </trkpt>
      <trkpt lat="58.202008036896586" lon="-5.006864983588457">
        <ele>255.84999999999999</ele>
        <time>2019-09-03T14:35:27Z</time>
      </trkpt>
      <trkpt lat="58.201827993616462" lon="-5.006945030763745">
        <ele>255.37</ele>
        <time>2019-09-03T14:35:28Z</time>
      </trkpt>
      <trkpt lat="58.200711021199822" lon="-5.007436964660883">
        <ele>253.44</ele>
        <time>2019-09-03T14:35:34Z</time>
      </trkpt>
      <trkpt lat="58.20055796764791" lon="-5.0075379665941">
        <ele>252.96000000000001</ele>
        <time>2019-09-03T14:35:35Z</time>
      </trkpt>
      <trkpt lat="58.200439028441906" lon="-5.007722033187747">
        <ele>252.96000000000001</ele>
        <time>2019-09-03T14:35:36Z</time>
      </trkpt>
      <trkpt lat="58.200310030952096" lon="-5.007920013740659">
        <ele>252.47999999999999</ele>
        <time>2019-09-03T14:35:37Z</time>
      </trkpt>
      <trkpt lat="58.200225038453937" lon="-5.008155964314938">
        <ele>252</ele>
        <time>2019-09-03T14:35:38Z</time>
      </trkpt>
      <trkpt lat="58.20012697018683" lon="-5.008426029235125">
        <ele>252</ele>
        <time>2019-09-03T14:35:39Z</time>
      </trkpt>
      <trkpt lat="58.199751963838935" lon="-5.009464966133237">
        <ele>251.03999999999999</ele>
        <time>2019-09-03T14:35:43Z</time>
      </trkpt>
      <trkpt lat="58.199622966349125" lon="-5.009670993313193">
        <ele>250.56</ele>
        <time>2019-09-03T14:35:44Z</time>
      </trkpt>
      <trkpt lat="58.199490029364824" lon="-5.009855981916189">
        <ele>250.08000000000001</ele>
        <time>2019-09-03T14:35:45Z</time>
      </trkpt>
      <trkpt lat="58.199345022439957" lon="-5.010000988841057">
        <ele>250.08000000000001</ele>
        <time>2019-09-03T14:35:46Z</time>
      </trkpt>
      <trkpt lat="58.199187023565173" lon="-5.010100984945893">
        <ele>249.59999999999999</ele>
        <time>2019-09-03T14:35:47Z</time>
      </trkpt>
      <trkpt lat="58.199019972234964" lon="-5.010165022686124">
        <ele>249.59999999999999</ele>
        <time>2019-09-03T14:35:48Z</time>
      </trkpt>
      <trkpt lat="58.198851998895407" lon="-5.010228976607323">
        <ele>249.59999999999999</ele>
        <time>2019-09-03T14:35:49Z</time>
      </trkpt>
      <trkpt lat="58.198675978928804" lon="-5.010238029062748">
        <ele>249.59999999999999</ele>
        <time>2019-09-03T14:35:50Z</time>
      </trkpt>
      <trkpt lat="58.198491996154189" lon="-5.010238029062748">
        <ele>249.59999999999999</ele>
        <time>2019-09-03T14:35:51Z</time>
      </trkpt>
      <trkpt lat="58.196459971368313" lon="-5.010429974645376">
        <ele>249.12</ele>
        <time>2019-09-03T14:36:01Z</time>
      </trkpt>
      <trkpt lat="58.19477797485888" lon="-5.011085020378232">
        <ele>244.78999999999999</ele>
        <time>2019-09-03T14:36:09Z</time>
      </trkpt>
      <trkpt lat="58.194377990439534" lon="-5.011281995102763">
        <ele>243.34999999999999</ele>
        <time>2019-09-03T14:36:11Z</time>
      </trkpt>
      <trkpt lat="58.194194007664919" lon="-5.011452985927463">
        <ele>242.87</ele>
        <time>2019-09-03T14:36:12Z</time>
      </trkpt>
      <trkpt lat="58.194011030718684" lon="-5.011654989793897">
        <ele>241.91</ele>
        <time>2019-09-03T14:36:13Z</time>
      </trkpt>
      <trkpt lat="58.192595997825265" lon="-5.013039009645581">
        <ele>238.06</ele>
        <time>2019-09-03T14:36:21Z</time>
      </trkpt>
      <trkpt lat="58.19108197465539" lon="-5.013693971559405">
        <ele>233.25999999999999</ele>
        <time>2019-09-03T14:36:29Z</time>
      </trkpt>
      <trkpt lat="58.189760986715555" lon="-5.014424035325646">
        <ele>226.05000000000001</ele>
        <time>2019-09-03T14:36:37Z</time>
      </trkpt>
      <trkpt lat="58.189631989225745" lon="-5.014410959556699">
        <ele>224.61000000000001</ele>
        <time>2019-09-03T14:36:38Z</time>
      </trkpt>
      <trkpt lat="58.189507015049458" lon="-5.014338036999106">
        <ele>222.68000000000001</ele>
        <time>2019-09-03T14:36:39Z</time>
      </trkpt>
      <trkpt lat="58.189385980367661" lon="-5.014248015359044">
        <ele>221.24000000000001</ele>
        <time>2019-09-03T14:36:40Z</time>
      </trkpt>
      <trkpt lat="58.189265029504895" lon="-5.014118012040854">
        <ele>219.80000000000001</ele>
        <time>2019-09-03T14:36:41Z</time>
      </trkpt>
      <trkpt lat="58.189152041450143" lon="-5.013934029266238">
        <ele>218.36000000000001</ele>
        <time>2019-09-03T14:36:42Z</time>
      </trkpt>
      <trkpt lat="58.189032012596726" lon="-5.013738982379437">
        <ele>216.91</ele>
        <time>2019-09-03T14:36:43Z</time>
      </trkpt>
      <trkpt lat="58.188626999035478" lon="-5.013167001307011">
        <ele>212.59</ele>
        <time>2019-09-03T14:36:46Z</time>
      </trkpt>
      <trkpt lat="58.187461998313665" lon="-5.01187602058053">
        <ele>201.53</ele>
        <time>2019-09-03T14:36:53Z</time>
      </trkpt>
      <trkpt lat="58.187120016664267" lon="-5.01146798953414">
        <ele>198.16999999999999</ele>
        <time>2019-09-03T14:36:55Z</time>
      </trkpt>
      <trkpt lat="58.185640024021268" lon="-5.009881965816021">
        <ele>182.31</ele>
        <time>2019-09-03T14:37:04Z</time>
      </trkpt>
      <trkpt lat="58.1853879801929" lon="-5.009412998333573">
        <ele>179.41999999999999</ele>
        <time>2019-09-03T14:37:06Z</time>
      </trkpt>
      <trkpt lat="58.184659006074071" lon="-5.007247030735016">
        <ele>171.25</ele>
        <time>2019-09-03T14:37:14Z</time>
      </trkpt>
      <trkpt lat="58.184438981115818" lon="-5.00622795894742">
        <ele>165.96000000000001</ele>
        <time>2019-09-03T14:37:18Z</time>
      </trkpt>
      <trkpt lat="58.184344014152884" lon="-5.006003994494677">
        <ele>164.52000000000001</ele>
        <time>2019-09-03T14:37:19Z</time>
      </trkpt>
      <trkpt lat="58.184244018048048" lon="-5.005767960101366">
        <ele>162.59999999999999</ele>
        <time>2019-09-03T14:37:20Z</time>
      </trkpt>
      <trkpt lat="58.184114014729857" lon="-5.005590012297034">
        <ele>161.16</ele>
        <time>2019-09-03T14:37:21Z</time>
      </trkpt>
      <trkpt lat="58.183986023068428" lon="-5.005422960966826">
        <ele>159.24000000000001</ele>
        <time>2019-09-03T14:37:22Z</time>
      </trkpt>
      <trkpt lat="58.183859959244728" lon="-5.005290023982525">
        <ele>157.78999999999999</ele>
        <time>2019-09-03T14:37:23Z</time>
      </trkpt>
      <trkpt lat="58.183720987290144" lon="-5.005240989848971">
        <ele>156.34999999999999</ele>
        <time>2019-09-03T14:37:24Z</time>
      </trkpt>
      <trkpt lat="58.183578997850418" lon="-5.005191033706069">
        <ele>154.91</ele>
        <time>2019-09-03T14:37:25Z</time>
      </trkpt>
      <trkpt lat="58.183424016460776" lon="-5.005184998735786">
        <ele>153.47</ele>
        <time>2019-09-03T14:37:26Z</time>
      </trkpt>
      <trkpt lat="58.181622996926308" lon="-5.0053880084306">
        <ele>138.56999999999999</ele>
        <time>2019-09-03T14:37:36Z</time>
      </trkpt>
      <trkpt lat="58.180952025577426" lon="-5.005370993167162">
        <ele>133.28</ele>
        <time>2019-09-03T14:37:40Z</time>
      </trkpt>
      <trkpt lat="58.180822022259235" lon="-5.00527803786099">
        <ele>131.84</ele>
        <time>2019-09-03T14:37:41Z</time>
      </trkpt>
      <trkpt lat="58.180696964263916" lon="-5.005189022049308">
        <ele>130.40000000000001</ele>
        <time>2019-09-03T14:37:42Z</time>
      </trkpt>
      <trkpt lat="58.180603003129363" lon="-5.005026999861002">
        <ele>129.43000000000001</ele>
        <time>2019-09-03T14:37:43Z</time>
      </trkpt>
      <trkpt lat="58.18051096983254" lon="-5.004843017086387">
        <ele>127.98999999999999</ele>
        <time>2019-09-03T14:37:44Z</time>
      </trkpt>
      <trkpt lat="58.180413991212845" lon="-5.004648976027966">
        <ele>127.03</ele>
        <time>2019-09-03T14:37:45Z</time>
      </trkpt>
      <trkpt lat="58.179889032617211" lon="-5.003620013594627">
        <ele>122.22</ele>
        <time>2019-09-03T14:37:50Z</time>
      </trkpt>
      <trkpt lat="58.179755005985498" lon="-5.003470983356237">
        <ele>121.26000000000001</ele>
        <time>2019-09-03T14:37:51Z</time>
      </trkpt>
      <trkpt lat="58.179611004889011" lon="-5.003314996138215">
        <ele>120.3</ele>
        <time>2019-09-03T14:37:52Z</time>
      </trkpt>
      <trkpt lat="58.179441019892693" lon="-5.003238972276449">
        <ele>118.86</ele>
        <time>2019-09-03T14:37:53Z</time>
      </trkpt>
      <trkpt lat="58.179261982440948" lon="-5.003164038062096">
        <ele>116.94</ele>
        <time>2019-09-03T14:37:54Z</time>
      </trkpt>
      <trkpt lat="58.179080011323094" lon="-5.00308801420033">
        <ele>115.5</ele>
        <time>2019-09-03T14:37:55Z</time>
      </trkpt>
      <trkpt lat="58.178561003878713" lon="-5.002905959263444">
        <ele>110.69</ele>
        <time>2019-09-03T14:37:58Z</time>
      </trkpt>
      <trkpt lat="58.178396970033646" lon="-5.002940995618701">
        <ele>109.73</ele>
        <time>2019-09-03T14:37:59Z</time>
      </trkpt>
      <trkpt lat="58.178246011957526" lon="-5.002997992560267">
        <ele>108.77</ele>
        <time>2019-09-03T14:38:00Z</time>
      </trkpt>
      <trkpt lat="58.178094970062375" lon="-5.003106035292149">
        <ele>107.81</ele>
        <time>2019-09-03T14:38:01Z</time>
      </trkpt>
      <trkpt lat="58.177955998107791" lon="-5.00326001085341">
        <ele>107.31999999999999</ele>
        <time>2019-09-03T14:38:02Z</time>
      </trkpt>
      <trkpt lat="58.177813002839684" lon="-5.003418009728193">
        <ele>106.84</ele>
        <time>2019-09-03T14:38:03Z</time>
      </trkpt>
      <trkpt lat="58.177298018708825" lon="-5.003937017172575">
        <ele>104.44</ele>
        <time>2019-09-03T14:38:07Z</time>
      </trkpt>
      <trkpt lat="58.177170027047396" lon="-5.003987979143858">
        <ele>103.95999999999999</ele>
        <time>2019-09-03T14:38:08Z</time>
      </trkpt>
      <trkpt lat="58.177043041214347" lon="-5.004039024934173">
        <ele>103.48</ele>
        <time>2019-09-03T14:38:09Z</time>
      </trkpt>
      <trkpt lat="58.176912032067776" lon="-5.004060985520482">
        <ele>103</ele>
        <time>2019-09-03T14:38:10Z</time>
      </trkpt>
      <trkpt lat="58.176787979900837" lon="-5.003986973315477">
        <ele>102.04000000000001</ele>
        <time>2019-09-03T14:38:11Z</time>
      </trkpt>
      <trkpt lat="58.176658982411027" lon="-5.003910027444363">
        <ele>101.56</ele>
        <time>2019-09-03T14:38:12Z</time>
      </trkpt>
      <trkpt lat="58.176512969657779" lon="-5.003822017461062">
        <ele>100.59999999999999</ele>
        <time>2019-09-03T14:38:13Z</time>
      </trkpt>
      <trkpt lat="58.176416996866465" lon="-5.003716992214322">
        <ele>99.629999999999995</ele>
        <time>2019-09-03T14:38:14Z</time>
      </trkpt>
      <trkpt lat="58.176297973841429" lon="-5.003589000552893">
        <ele>99.150000000000006</ele>
        <time>2019-09-03T14:38:15Z</time>
      </trkpt>
      <trkpt lat="58.175160968676209" lon="-5.002459036186338">
        <ele>89.540000000000006</ele>
        <time>2019-09-03T14:38:23Z</time>
      </trkpt>
      <trkpt lat="58.175001963973045" lon="-5.00235702842474">
        <ele>87.620000000000005</ele>
        <time>2019-09-03T14:38:24Z</time>
      </trkpt>
      <trkpt lat="58.174832984805107" lon="-5.002322997897863">
        <ele>86.180000000000007</ele>
        <time>2019-09-03T14:38:25Z</time>
      </trkpt>
      <trkpt lat="58.174661993980408" lon="-5.002300031483173">
        <ele>84.730000000000004</ele>
        <time>2019-09-03T14:38:26Z</time>
      </trkpt>
      <trkpt lat="58.174493014812469" lon="-5.002306988462806">
        <ele>83.290000000000006</ele>
        <time>2019-09-03T14:38:27Z</time>
      </trkpt>
      <trkpt lat="58.173684999346733" lon="-5.002523995935917">
        <ele>75.599999999999994</ele>
        <time>2019-09-03T14:38:33Z</time>
      </trkpt>
      <trkpt lat="58.173073958605528" lon="-5.002837982028723">
        <ele>68.870000000000005</ele>
        <time>2019-09-03T14:38:40Z</time>
      </trkpt>
      <trkpt lat="58.17290497943759" lon="-5.002930015325546">
        <ele>64.069999999999993</ele>
        <time>2019-09-03T14:38:49Z</time>
      </trkpt>
      <trkpt lat="58.172876983880997" lon="-5.002945018932223">
        <ele>63.579999999999998</ele>
        <time>2019-09-03T14:38:50Z</time>
      </trkpt>
      <trkpt lat="58.172798026353121" lon="-5.002882992848754">
        <ele>63.579999999999998</ele>
        <time>2019-09-03T14:38:51Z</time>
      </trkpt>
      <trkpt lat="58.172740023583174" lon="-5.002779979258776">
        <ele>64.069999999999993</ele>
        <time>2019-09-03T14:38:52Z</time>
      </trkpt>
      <trkpt lat="58.172064023092389" lon="-5.001731989905238">
        <ele>64.549999999999997</ele>
        <time>2019-09-03T14:38:59Z</time>
      </trkpt>
      <trkpt lat="58.170707998797297" lon="-4.999661995097995">
        <ele>69.349999999999994</ele>
        <time>2019-09-03T14:39:09Z</time>
      </trkpt>
      <trkpt lat="58.170012971386313" lon="-4.998431028798223">
        <ele>71.269999999999996</ele>
        <time>2019-09-03T14:39:14Z</time>
      </trkpt>
      <trkpt lat="58.169933008030057" lon="-4.998160963878036">
        <ele>71.760000000000005</ele>
        <time>2019-09-03T14:39:15Z</time>
      </trkpt>
      <trkpt lat="58.16985497251153" lon="-4.997882014140487">
        <ele>72.239999999999995</ele>
        <time>2019-09-03T14:39:16Z</time>
      </trkpt>
      <trkpt lat="58.169801998883486" lon="-4.997565010562539">
        <ele>72.239999999999995</ele>
        <time>2019-09-03T14:39:17Z</time>
      </trkpt>
      <trkpt lat="58.169749025255442" lon="-4.997216993942857">
        <ele>72.239999999999995</ele>
        <time>2019-09-03T14:39:18Z</time>
      </trkpt>
      <trkpt lat="58.169718012213707" lon="-4.996841987594962">
        <ele>71.269999999999996</ele>
        <time>2019-09-03T14:39:19Z</time>
      </trkpt>
      <trkpt lat="58.169492958113551" lon="-4.994996963068843">
        <ele>71.760000000000005</ele>
        <time>2019-09-03T14:39:24Z</time>
      </trkpt>
      <trkpt lat="58.169414000585675" lon="-4.994685994461179">
        <ele>71.760000000000005</ele>
        <time>2019-09-03T14:39:25Z</time>
      </trkpt>
      <trkpt lat="58.169306041672826" lon="-4.994408972561359">
        <ele>71.760000000000005</ele>
        <time>2019-09-03T14:39:26Z</time>
      </trkpt>
      <trkpt lat="58.169173020869493" lon="-4.994162963703275">
        <ele>71.760000000000005</ele>
        <time>2019-09-03T14:39:27Z</time>
      </trkpt>
      <trkpt lat="58.169032037258148" lon="-4.993906980380416">
        <ele>71.760000000000005</ele>
        <time>2019-09-03T14:39:28Z</time>
      </trkpt>
      <trkpt lat="58.168512023985386" lon="-4.992880029603839">
        <ele>71.760000000000005</ele>
        <time>2019-09-03T14:39:32Z</time>
      </trkpt>
      <trkpt lat="58.16841303370893" lon="-4.992599990218878">
        <ele>72.239999999999995</ele>
        <time>2019-09-03T14:39:33Z</time>
      </trkpt>
      <trkpt lat="58.168333992362022" lon="-4.992293966934085">
        <ele>73.200000000000003</ele>
        <time>2019-09-03T14:39:34Z</time>
      </trkpt>
      <trkpt lat="58.167966026812792" lon="-4.990868037566543">
        <ele>78</ele>
        <time>2019-09-03T14:39:39Z</time>
      </trkpt>
      <trkpt lat="58.167861001566052" lon="-4.990656981244683">
        <ele>78.969999999999999</ele>
        <time>2019-09-03T14:39:40Z</time>
      </trkpt>
      <trkpt lat="58.167752036824822" lon="-4.990447014570236">
        <ele>80.409999999999997</ele>
        <time>2019-09-03T14:39:41Z</time>
      </trkpt>
      <trkpt lat="58.16761801019311" lon="-4.990299995988607">
        <ele>81.370000000000005</ele>
        <time>2019-09-03T14:39:42Z</time>
      </trkpt>
      <trkpt lat="58.167478032410145" lon="-4.990161024034023">
        <ele>81.849999999999994</ele>
        <time>2019-09-03T14:39:43Z</time>
      </trkpt>
      <trkpt lat="58.166477987542748" lon="-4.989282013848424">
        <ele>80.409999999999997</ele>
        <time>2019-09-03T14:39:51Z</time>
      </trkpt>
      <trkpt lat="58.165942970663309" lon="-4.988444996997714">
        <ele>76.079999999999998</ele>
        <time>2019-09-03T14:39:59Z</time>
      </trkpt>
      <trkpt lat="58.165905000641942" lon="-4.988385988399386">
        <ele>76.079999999999998</ele>
        <time>2019-09-03T14:40:00Z</time>
      </trkpt>
      <trkpt lat="58.165875999256968" lon="-4.988339971750975">
        <ele>75.599999999999994</ele>
        <time>2019-09-03T14:40:01Z</time>
      </trkpt>
      <trkpt lat="58.165854038670659" lon="-4.988307030871511">
        <ele>75.120000000000005</ele>
        <time>2019-09-03T14:40:02Z</time>
      </trkpt>
      <trkpt lat="58.165756976231933" lon="-4.98858698643744">
        <ele>73.680000000000007</ele>
        <time>2019-09-03T14:40:09Z</time>
      </trkpt>
      <trkpt lat="58.165784971788526" lon="-4.988727970048785">
        <ele>73.200000000000003</ele>
        <time>2019-09-03T14:40:19Z</time>
      </trkpt>
      <trkpt lat="58.165784971788526" lon="-4.988727970048785">
        <ele>73.200000000000003</ele>
        <time>2019-09-03T14:40:51Z</time>
      </trkpt>
      <trkpt lat="58.165791006758809" lon="-4.988737022504211">
        <ele>73.200000000000003</ele>
        <time>2019-09-03T14:41:32Z</time>
      </trkpt>
      <trkpt lat="58.165797963738441" lon="-4.98873601667583">
        <ele>74.640000000000001</ele>
        <time>2019-09-03T14:42:17Z</time>
      </trkpt>
      <trkpt lat="58.165799975395203" lon="-4.988734005019069">
        <ele>74.640000000000001</ele>
        <time>2019-09-03T14:43:03Z</time>
      </trkpt>
      <trkpt lat="58.165802992880344" lon="-4.988734005019069">
        <ele>75.120000000000005</ele>
        <time>2019-09-03T14:43:50Z</time>
      </trkpt>
      <trkpt lat="58.165805004537106" lon="-4.988735010847449">
        <ele>75.120000000000005</ele>
        <time>2019-09-03T14:44:32Z</time>
      </trkpt>
      <trkpt lat="58.165790000930429" lon="-4.988712966442108">
        <ele>75.120000000000005</ele>
        <time>2019-09-03T14:44:54Z</time>
      </trkpt>
      <trkpt lat="58.165786983445287" lon="-4.988708021119237">
        <ele>75.120000000000005</ele>
        <time>2019-09-03T14:45:43Z</time>
      </trkpt>
      <trkpt lat="58.165783965960145" lon="-4.988699974492192">
        <ele>75.599999999999994</ele>
        <time>2019-09-03T14:46:12Z</time>
      </trkpt>
      <trkpt lat="58.16577298566699" lon="-4.988518003374338">
        <ele>74.159999999999997</ele>
        <time>2019-09-03T14:46:21Z</time>
      </trkpt>
      <trkpt lat="58.165778014808893" lon="-4.988486990332604">
        <ele>74.159999999999997</ele>
        <time>2019-09-03T14:46:22Z</time>
      </trkpt>
      <trkpt lat="58.165837023407221" lon="-4.988279035314918">
        <ele>73.200000000000003</ele>
        <time>2019-09-03T14:46:27Z</time>
      </trkpt>
      <trkpt lat="58.16581598483026" lon="-4.988247016444802">
        <ele>73.200000000000003</ele>
        <time>2019-09-03T14:46:28Z</time>
      </trkpt>
      <trkpt lat="58.165785977616906" lon="-4.98819999396801">
        <ele>73.200000000000003</ele>
        <time>2019-09-03T14:46:29Z</time>
      </trkpt>
      <trkpt lat="58.16574901342392" lon="-4.988141991198063">
        <ele>72.719999999999999</ele>
        <time>2019-09-03T14:46:30Z</time>
      </trkpt>
      <trkpt lat="58.165217014029622" lon="-4.987310003489256">
        <ele>71.269999999999996</ele>
        <time>2019-09-03T14:46:41Z</time>
      </trkpt>
      <trkpt lat="58.164669005200267" lon="-4.986598966643214">
        <ele>72.239999999999995</ele>
        <time>2019-09-03T14:46:49Z</time>
      </trkpt>
      <trkpt lat="58.164574038237333" lon="-4.986521014943719">
        <ele>72.239999999999995</ele>
        <time>2019-09-03T14:46:50Z</time>
      </trkpt>
      <trkpt lat="58.164473036304116" lon="-4.986497964709997">
        <ele>72.239999999999995</ele>
        <time>2019-09-03T14:46:51Z</time>
      </trkpt>
      <trkpt lat="58.16437697969377" lon="-4.986478015780449">
        <ele>72.239999999999995</ele>
        <time>2019-09-03T14:46:52Z</time>
      </trkpt>
      <trkpt lat="58.164287963882089" lon="-4.986457983031869">
        <ele>72.239999999999995</ele>
        <time>2019-09-03T14:46:53Z</time>
      </trkpt>
      <trkpt lat="58.164197020232677" lon="-4.986439039930701">
        <ele>72.239999999999995</ele>
        <time>2019-09-03T14:46:54Z</time>
      </trkpt>
      <trkpt lat="58.164100041612983" lon="-4.986424958333373">
        <ele>72.719999999999999</ele>
        <time>2019-09-03T14:46:55Z</time>
      </trkpt>
      <trkpt lat="58.163994010537863" lon="-4.986474998295307">
        <ele>72.719999999999999</ele>
        <time>2019-09-03T14:46:56Z</time>
      </trkpt>
      <trkpt lat="58.163874987512827" lon="-4.986531995236874">
        <ele>72.719999999999999</ele>
        <time>2019-09-03T14:46:57Z</time>
      </trkpt>
      <trkpt lat="58.163741966709495" lon="-4.986594021320343">
        <ele>72.719999999999999</ele>
        <time>2019-09-03T14:46:58Z</time>
      </trkpt>
      <trkpt lat="58.163134027272463" lon="-4.986836006864905">
        <ele>73.200000000000003</ele>
        <time>2019-09-03T14:47:02Z</time>
      </trkpt>
      <trkpt lat="58.162978962063789" lon="-4.986865008249879">
        <ele>73.200000000000003</ele>
        <time>2019-09-03T14:47:03Z</time>
      </trkpt>
      <trkpt lat="58.162832027301192" lon="-4.986870037391782">
        <ele>73.680000000000007</ele>
        <time>2019-09-03T14:47:04Z</time>
      </trkpt>
      <trkpt lat="58.162692971527576" lon="-4.986770041286945">
        <ele>74.159999999999997</ele>
        <time>2019-09-03T14:47:05Z</time>
      </trkpt>
      <trkpt lat="58.162563974037766" lon="-4.986670967191458">
        <ele>74.640000000000001</ele>
        <time>2019-09-03T14:47:06Z</time>
      </trkpt>
      <trkpt lat="58.162449980154634" lon="-4.986509028822184">
        <ele>74.640000000000001</ele>
        <time>2019-09-03T14:47:07Z</time>
      </trkpt>
      <trkpt lat="58.162333974614739" lon="-4.986325968056917">
        <ele>75.120000000000005</ele>
        <time>2019-09-03T14:47:08Z</time>
      </trkpt>
      <trkpt lat="58.162201037630439" lon="-4.986119018867612">
        <ele>75.120000000000005</ele>
        <time>2019-09-03T14:47:09Z</time>
      </trkpt>
      <trkpt lat="58.162088971585035" lon="-4.985915003344417">
        <ele>75.120000000000005</ele>
        <time>2019-09-03T14:47:10Z</time>
      </trkpt>
      <trkpt lat="58.16119403578341" lon="-4.984277011826634">
        <ele>73.200000000000003</ele>
        <time>2019-09-03T14:47:17Z</time>
      </trkpt>
      <trkpt lat="58.161041988059878" lon="-4.98413803987205">
        <ele>73.200000000000003</ele>
        <time>2019-09-03T14:47:18Z</time>
      </trkpt>
      <trkpt lat="58.160889018326998" lon="-4.983999989926815">
        <ele>73.200000000000003</ele>
        <time>2019-09-03T14:47:19Z</time>
      </trkpt>
      <trkpt lat="58.160338997840881" lon="-4.983428008854389">
        <ele>73.680000000000007</ele>
        <time>2019-09-03T14:47:23Z</time>
      </trkpt>
      <trkpt lat="58.160208994522691" lon="-4.983259029686451">
        <ele>74.159999999999997</ele>
        <time>2019-09-03T14:47:24Z</time>
      </trkpt>
      <trkpt lat="58.1600789912045" lon="-4.983067000284791">
        <ele>75.120000000000005</ele>
        <time>2019-09-03T14:47:25Z</time>
      </trkpt>
      <trkpt lat="58.159973965957761" lon="-4.982809005305171">
        <ele>76.079999999999998</ele>
        <time>2019-09-03T14:47:26Z</time>
      </trkpt>
      <trkpt lat="58.159867012873292" lon="-4.982544975355268">
        <ele>76.560000000000002</ele>
        <time>2019-09-03T14:47:27Z</time>
      </trkpt>
      <trkpt lat="58.158388026058674" lon="-4.979230016469955">
        <ele>91.939999999999998</ele>
        <time>2019-09-03T14:47:39Z</time>
      </trkpt>
      <trkpt lat="58.15803799778223" lon="-4.978523002937436">
        <ele>95.790000000000006</ele>
        <time>2019-09-03T14:47:42Z</time>
      </trkpt>
      <trkpt lat="58.157915035262704" lon="-4.978413032367826">
        <ele>96.75</ele>
        <time>2019-09-03T14:47:43Z</time>
      </trkpt>
      <trkpt lat="58.157772962003946" lon="-4.978285962715745">
        <ele>97.709999999999994</ele>
        <time>2019-09-03T14:47:44Z</time>
      </trkpt>
      <trkpt lat="58.157623009756207" lon="-4.978155037388206">
        <ele>98.670000000000002</ele>
        <time>2019-09-03T14:47:45Z</time>
      </trkpt>
      <trkpt lat="58.157462999224663" lon="-4.978067027404904">
        <ele>99.629999999999995</ele>
        <time>2019-09-03T14:47:46Z</time>
      </trkpt>
      <trkpt lat="58.156112004071474" lon="-4.977283990010619">
        <ele>95.790000000000006</ele>
        <time>2019-09-03T14:47:54Z</time>
      </trkpt>
      <trkpt lat="58.155960962176323" lon="-4.9771330319345">
        <ele>94.349999999999994</ele>
        <time>2019-09-03T14:47:55Z</time>
      </trkpt>
      <trkpt lat="58.155054962262511" lon="-4.976094011217356">
        <ele>85.689999999999998</ele>
        <time>2019-09-03T14:48:01Z</time>
      </trkpt>
      <trkpt lat="58.154891012236476" lon="-4.976002983748913">
        <ele>85.209999999999994</ele>
        <time>2019-09-03T14:48:02Z</time>
      </trkpt>
      <trkpt lat="58.153042970225215" lon="-4.975038981065154">
        <ele>82.329999999999998</ele>
        <time>2019-09-03T14:48:14Z</time>
      </trkpt>
      <trkpt lat="58.151134997606277" lon="-4.974461970850825">
        <ele>74.159999999999997</ele>
        <time>2019-09-03T14:48:25Z</time>
      </trkpt>
      <trkpt lat="58.149727005511522" lon="-4.973870040848851">
        <ele>72.719999999999999</ele>
        <time>2019-09-03T14:48:33Z</time>
      </trkpt>
      <trkpt lat="58.14955098554492" lon="-4.973766021430492">
        <ele>72.719999999999999</ele>
        <time>2019-09-03T14:48:34Z</time>
      </trkpt>
      <trkpt lat="58.149375971406698" lon="-4.973740037530661">
        <ele>72.239999999999995</ele>
        <time>2019-09-03T14:48:35Z</time>
      </trkpt>
      <trkpt lat="58.14920699223876" lon="-4.973720004782081">
        <ele>72.239999999999995</ele>
        <time>2019-09-03T14:48:36Z</time>
      </trkpt>
      <trkpt lat="58.149044970050454" lon="-4.973699972033501">
        <ele>72.239999999999995</ele>
        <time>2019-09-03T14:48:37Z</time>
      </trkpt>
      <trkpt lat="58.148890994489193" lon="-4.973753029480577">
        <ele>72.239999999999995</ele>
        <time>2019-09-03T14:48:38Z</time>
      </trkpt>
      <trkpt lat="58.148728972300887" lon="-4.973835004493594">
        <ele>71.760000000000005</ele>
        <time>2019-09-03T14:48:39Z</time>
      </trkpt>
      <trkpt lat="58.148559993132949" lon="-4.973921002820134">
        <ele>71.760000000000005</ele>
        <time>2019-09-03T14:48:40Z</time>
      </trkpt>
      <trkpt lat="58.146997019648552" lon="-4.974847035482526">
        <ele>71.269999999999996</ele>
        <time>2019-09-03T14:48:48Z</time>
      </trkpt>
      <trkpt lat="58.14585599116981" lon="-4.975810032337904">
        <ele>72.239999999999995</ele>
        <time>2019-09-03T14:48:54Z</time>
      </trkpt>
      <trkpt lat="58.145689023658633" lon="-4.975918997079134">
        <ele>72.239999999999995</ele>
        <time>2019-09-03T14:48:55Z</time>
      </trkpt>
      <trkpt lat="58.14551099203527" lon="-4.975964007899165">
        <ele>72.239999999999995</ele>
        <time>2019-09-03T14:48:56Z</time>
      </trkpt>
      <trkpt lat="58.145327009260654" lon="-4.975958978757262">
        <ele>72.719999999999999</ele>
        <time>2019-09-03T14:48:57Z</time>
      </trkpt>
      <trkpt lat="58.1451450381428" lon="-4.975945986807346">
        <ele>73.200000000000003</ele>
        <time>2019-09-03T14:48:58Z</time>
      </trkpt>
      <trkpt lat="58.144482029601932" lon="-4.975956967100501">
        <ele>74.159999999999997</ele>
        <time>2019-09-03T14:49:02Z</time>
      </trkpt>
      <trkpt lat="58.144319001585245" lon="-4.97603802010417">
        <ele>74.159999999999997</ele>
        <time>2019-09-03T14:49:03Z</time>
      </trkpt>
      <trkpt lat="58.142803972586989" lon="-4.976637996733189">
        <ele>72.239999999999995</ele>
        <time>2019-09-03T14:49:11Z</time>
      </trkpt>
      <trkpt lat="58.141883974894881" lon="-4.976694993674755">
        <ele>72.239999999999995</ele>
        <time>2019-09-03T14:49:16Z</time>
      </trkpt>
      <trkpt lat="58.141716001555324" lon="-4.976642020046711">
        <ele>72.239999999999995</ele>
        <time>2019-09-03T14:49:17Z</time>
      </trkpt>
      <trkpt lat="58.141544004902244" lon="-4.976584017276764">
        <ele>72.719999999999999</ele>
        <time>2019-09-03T14:49:18Z</time>
      </trkpt>
      <trkpt lat="58.140520993620157" lon="-4.976101974025369">
        <ele>73.200000000000003</ele>
        <time>2019-09-03T14:49:24Z</time>
      </trkpt>
      <trkpt lat="58.140341034159064" lon="-4.976084036752582">
        <ele>73.200000000000003</ele>
        <time>2019-09-03T14:49:25Z</time>
      </trkpt>
      <trkpt lat="58.140159985050559" lon="-4.976105997338891">
        <ele>73.200000000000003</ele>
        <time>2019-09-03T14:49:26Z</time>
      </trkpt>
      <trkpt lat="58.139971978962421" lon="-4.976154025644064">
        <ele>73.200000000000003</ele>
        <time>2019-09-03T14:49:27Z</time>
      </trkpt>
      <trkpt lat="58.139782967045903" lon="-4.976202975958586">
        <ele>73.680000000000007</ele>
        <time>2019-09-03T14:49:28Z</time>
      </trkpt>
      <trkpt lat="58.136751987040043" lon="-4.976986013352871">
        <ele>75.599999999999994</ele>
        <time>2019-09-03T14:49:44Z</time>
      </trkpt>
      <trkpt lat="58.136177994310856" lon="-4.977065976709127">
        <ele>76.079999999999998</ele>
        <time>2019-09-03T14:49:47Z</time>
      </trkpt>
      <trkpt lat="58.135980013757944" lon="-4.977046027779579">
        <ele>76.079999999999998</ele>
        <time>2019-09-03T14:49:48Z</time>
      </trkpt>
      <trkpt lat="58.13401403836906" lon="-4.977109981700778">
        <ele>77.519999999999996</ele>
        <time>2019-09-03T14:49:58Z</time>
      </trkpt>
      <trkpt lat="58.132715011015534" lon="-4.977699983865023">
        <ele>78.969999999999999</ele>
        <time>2019-09-03T14:50:05Z</time>
      </trkpt>
      <trkpt lat="58.132548965513706" lon="-4.977770978584886">
        <ele>78.969999999999999</ele>
        <time>2019-09-03T14:50:06Z</time>
      </trkpt>
      <trkpt lat="58.132374035194516" lon="-4.977753963321447">
        <ele>78.969999999999999</ele>
        <time>2019-09-03T14:50:07Z</time>
      </trkpt>
      <trkpt lat="58.132194997742772" lon="-4.977737031877041">
        <ele>78.969999999999999</ele>
        <time>2019-09-03T14:50:08Z</time>
      </trkpt>
      <trkpt lat="58.130172025412321" lon="-4.977077040821314">
        <ele>85.689999999999998</ele>
        <time>2019-09-03T14:50:19Z</time>
      </trkpt>
      <trkpt lat="58.128347033634782" lon="-4.976496007293463">
        <ele>93.870000000000005</ele>
        <time>2019-09-03T14:50:29Z</time>
      </trkpt>
      <trkpt lat="58.127151019871235" lon="-4.976346977055073">
        <ele>97.230000000000004</ele>
        <time>2019-09-03T14:50:35Z</time>
      </trkpt>
      <trkpt lat="58.126971982419491" lon="-4.976249998435378">
        <ele>97.230000000000004</ele>
        <time>2019-09-03T14:50:36Z</time>
      </trkpt>
      <trkpt lat="58.126247031614184" lon="-4.975926959887147">
        <ele>97.709999999999994</ele>
        <time>2019-09-03T14:50:40Z</time>
      </trkpt>
      <trkpt lat="58.125357963144779" lon="-4.975668964907527">
        <ele>101.56</ele>
        <time>2019-09-03T14:50:45Z</time>
      </trkpt>
      <trkpt lat="58.125201975926757" lon="-4.9755650293082">
        <ele>103</ele>
        <time>2019-09-03T14:50:46Z</time>
      </trkpt>
      <trkpt lat="58.125046994537115" lon="-4.975420022383332">
        <ele>104.44</ele>
        <time>2019-09-03T14:50:47Z</time>
      </trkpt>
      <trkpt lat="58.124905005097389" lon="-4.975211983546615">
        <ele>105.40000000000001</ele>
        <time>2019-09-03T14:50:48Z</time>
      </trkpt>
      <trkpt lat="58.124766033142805" lon="-4.974979972466826">
        <ele>106.36</ele>
        <time>2019-09-03T14:50:49Z</time>
      </trkpt>
      <trkpt lat="58.124633012339473" lon="-4.974720971658826">
        <ele>107.81</ele>
        <time>2019-09-03T14:50:50Z</time>
      </trkpt>
      <trkpt lat="58.124496974050999" lon="-4.974456019699574">
        <ele>109.25</ele>
        <time>2019-09-03T14:50:51Z</time>
      </trkpt>
      <trkpt lat="58.123255027458072" lon="-4.972461964935064">
        <ele>115.5</ele>
        <time>2019-09-03T14:50:59Z</time>
      </trkpt>
      <trkpt lat="58.121347976848483" lon="-4.970708973705769">
        <ele>122.70999999999999</ele>
        <time>2019-09-03T14:51:09Z</time>
      </trkpt>
      <trkpt lat="58.11942701227963" lon="-4.969431990757585">
        <ele>134.72</ele>
        <time>2019-09-03T14:51:20Z</time>
      </trkpt>
      <trkpt lat="58.117720037698746" lon="-4.968734029680491">
        <ele>142.41</ele>
        <time>2019-09-03T14:51:30Z</time>
      </trkpt>
      <trkpt lat="58.116122027859092" lon="-4.968122988939285">
        <ele>141.93000000000001</ele>
        <time>2019-09-03T14:51:39Z</time>
      </trkpt>
      <trkpt lat="58.115798989310861" lon="-4.967998014762998">
        <ele>141.44999999999999</ele>
        <time>2019-09-03T14:51:41Z</time>
      </trkpt>
      <trkpt lat="58.115650964900851" lon="-4.967849990352988">
        <ele>141.44999999999999</ele>
        <time>2019-09-03T14:51:42Z</time>
      </trkpt>
      <trkpt lat="58.115504030138254" lon="-4.967702971771359">
        <ele>141.44999999999999</ele>
        <time>2019-09-03T14:51:43Z</time>
      </trkpt>
      <trkpt lat="58.11536799184978" lon="-4.967511026188731">
        <ele>141.44999999999999</ele>
        <time>2019-09-03T14:51:44Z</time>
      </trkpt>
      <trkpt lat="58.115232037380338" lon="-4.967295024544001">
        <ele>141.44999999999999</ele>
        <time>2019-09-03T14:51:45Z</time>
      </trkpt>
      <trkpt lat="58.114353027194738" lon="-4.966045031324029">
        <ele>142.41</ele>
        <time>2019-09-03T14:51:51Z</time>
      </trkpt>
      <trkpt lat="58.114189999178052" lon="-4.9659170396626">
        <ele>142.88999999999999</ele>
        <time>2019-09-03T14:51:52Z</time>
      </trkpt>
      <trkpt lat="58.114018002524972" lon="-4.965819977223873">
        <ele>142.88999999999999</ele>
        <time>2019-09-03T14:51:53Z</time>
      </trkpt>
      <trkpt lat="58.113834019750357" lon="-4.965757029131055">
        <ele>142.88999999999999</ele>
        <time>2019-09-03T14:51:54Z</time>
      </trkpt>
      <trkpt lat="58.113642996177077" lon="-4.965721992775798">
        <ele>142.88999999999999</ele>
        <time>2019-09-03T14:51:55Z</time>
      </trkpt>
      <trkpt lat="58.111785985529423" lon="-4.965669019147754">
        <ele>146.25999999999999</ele>
        <time>2019-09-03T14:52:04Z</time>
      </trkpt>
      <trkpt lat="58.109669974073768" lon="-4.966190960258246">
        <ele>152.99000000000001</ele>
        <time>2019-09-03T14:52:14Z</time>
      </trkpt>
      <trkpt lat="58.107276018708944" lon="-4.966953964903951">
        <ele>158.75</ele>
        <time>2019-09-03T14:52:26Z</time>
      </trkpt>
      <trkpt lat="58.106518965214491" lon="-4.967131996527314">
        <ele>160.68000000000001</ele>
        <time>2019-09-03T14:52:30Z</time>
      </trkpt>
      <trkpt lat="58.104759017005563" lon="-4.968129023909569">
        <ele>164.52000000000001</ele>
        <time>2019-09-03T14:52:39Z</time>
      </trkpt>
      <trkpt lat="58.10266999527812" lon="-4.96890502050519">
        <ele>166.44999999999999</ele>
        <time>2019-09-03T14:52:50Z</time>
      </trkpt>
      <trkpt lat="58.100190963596106" lon="-4.970377972349525">
        <ele>165.96000000000001</ele>
        <time>2019-09-03T14:53:03Z</time>
      </trkpt>
      <trkpt lat="58.09906099922955" lon="-4.970697993412614">
        <ele>166.44999999999999</ele>
        <time>2019-09-03T14:53:10Z</time>
      </trkpt>
      <trkpt lat="58.097521997988224" lon="-4.971125973388553">
        <ele>168.37</ele>
        <time>2019-09-03T14:53:20Z</time>
      </trkpt>
      <trkpt lat="58.096011998131871" lon="-4.9713100399822">
        <ele>168.37</ele>
        <time>2019-09-03T14:53:28Z</time>
      </trkpt>
      <trkpt lat="58.095846958458424" lon="-4.97141900472343">
        <ele>168.37</ele>
        <time>2019-09-03T14:53:29Z</time>
      </trkpt>
      <trkpt lat="58.095682002604008" lon="-4.971546996384859">
        <ele>168.37</ele>
        <time>2019-09-03T14:53:30Z</time>
      </trkpt>
      <trkpt lat="58.094335030764341" lon="-4.972534971311688">
        <ele>168.84999999999999</ele>
        <time>2019-09-03T14:53:39Z</time>
      </trkpt>
      <trkpt lat="58.093777969479561" lon="-4.972803024575114">
        <ele>168.84999999999999</ele>
        <time>2019-09-03T14:53:43Z</time>
      </trkpt>
      <trkpt lat="58.09362499974668" lon="-4.972833031788468">
        <ele>168.84999999999999</ele>
        <time>2019-09-03T14:53:44Z</time>
      </trkpt>
      <trkpt lat="58.093462977558374" lon="-4.972821967676282">
        <ele>168.84999999999999</ele>
        <time>2019-09-03T14:53:45Z</time>
      </trkpt>
      <trkpt lat="58.092224970459938" lon="-4.972740998491645">
        <ele>171.72999999999999</ele>
        <time>2019-09-03T14:53:54Z</time>
      </trkpt>
      <trkpt lat="58.091233978047967" lon="-4.972719037905335">
        <ele>171.25</ele>
        <time>2019-09-03T14:54:00Z</time>
      </trkpt>
      <trkpt lat="58.090094039216638" lon="-4.972957000136375">
        <ele>168.84999999999999</ele>
        <time>2019-09-03T14:54:07Z</time>
      </trkpt>
      <trkpt lat="58.088910011574626" lon="-4.972865972667933">
        <ele>168.37</ele>
        <time>2019-09-03T14:54:15Z</time>
      </trkpt>
      <trkpt lat="58.087785998359323" lon="-4.972560033202171">
        <ele>166.44999999999999</ele>
        <time>2019-09-03T14:54:20Z</time>
      </trkpt>
      <trkpt lat="58.085389025509357" lon="-4.971904987469316">
        <ele>160.68000000000001</ele>
        <time>2019-09-03T14:54:29Z</time>
      </trkpt>
      <trkpt lat="58.083669980987906" lon="-4.971252037212253">
        <ele>158.75</ele>
        <time>2019-09-03T14:54:37Z</time>
      </trkpt>
      <trkpt lat="58.082885015755892" lon="-4.970963029190898">
        <ele>158.27000000000001</ele>
        <time>2019-09-03T14:54:41Z</time>
      </trkpt>
      <trkpt lat="58.082697009667754" lon="-4.970959005877376">
        <ele>157.78999999999999</ele>
        <time>2019-09-03T14:54:42Z</time>
      </trkpt>
      <trkpt lat="58.082505986094475" lon="-4.970977026969194">
        <ele>157.31</ele>
        <time>2019-09-03T14:54:43Z</time>
      </trkpt>
      <trkpt lat="58.082320997491479" lon="-4.971013991162181">
        <ele>156.83000000000001</ele>
        <time>2019-09-03T14:54:44Z</time>
      </trkpt>
      <trkpt lat="58.082141960039735" lon="-4.971120022237301">
        <ele>156.83000000000001</ele>
        <time>2019-09-03T14:54:45Z</time>
      </trkpt>
      <trkpt lat="58.081965018063784" lon="-4.97122697532177">
        <ele>156.34999999999999</ele>
        <time>2019-09-03T14:54:46Z</time>
      </trkpt>
      <trkpt lat="58.080414030700922" lon="-4.972561961039901">
        <ele>154.91</ele>
        <time>2019-09-03T14:54:55Z</time>
      </trkpt>
      <trkpt lat="58.07886597700417" lon="-4.973727967590094">
        <ele>153.47</ele>
        <time>2019-09-03T14:55:03Z</time>
      </trkpt>
      <trkpt lat="58.076642006635666" lon="-4.975513983517885">
        <ele>150.09999999999999</ele>
        <time>2019-09-03T14:55:14Z</time>
      </trkpt>
      <trkpt lat="58.075367035344243" lon="-4.976821979507804">
        <ele>150.58000000000001</ele>
        <time>2019-09-03T14:55:21Z</time>
      </trkpt>
      <trkpt lat="58.074001958593726" lon="-4.978477992117405">
        <ele>148.66</ele>
        <time>2019-09-03T14:55:29Z</time>
      </trkpt>
      <trkpt lat="58.07254996150732" lon="-4.979332024231553">
        <ele>146.74000000000001</ele>
        <time>2019-09-03T14:55:37Z</time>
      </trkpt>
      <trkpt lat="58.072362039238214" lon="-4.97928399592638">
        <ele>146.25999999999999</ele>
        <time>2019-09-03T14:55:38Z</time>
      </trkpt>
      <trkpt lat="58.072175960987806" lon="-4.979234961792827">
        <ele>145.78</ele>
        <time>2019-09-03T14:55:39Z</time>
      </trkpt>
      <trkpt lat="58.072000024840236" lon="-4.979135971516371">
        <ele>145.30000000000001</ele>
        <time>2019-09-03T14:55:40Z</time>
      </trkpt>
      <trkpt lat="58.071833979338408" lon="-4.978978978469968">
        <ele>145.30000000000001</ele>
        <time>2019-09-03T14:55:41Z</time>
      </trkpt>
      <trkpt lat="58.071674974635243" lon="-4.97880999930203">
        <ele>145.30000000000001</ele>
        <time>2019-09-03T14:55:42Z</time>
      </trkpt>
      <trkpt lat="58.071531979367137" lon="-4.978600032627583">
        <ele>145.30000000000001</ele>
        <time>2019-09-03T14:55:43Z</time>
      </trkpt>
      <trkpt lat="58.07138797827065" lon="-4.978385958820581">
        <ele>145.78</ele>
        <time>2019-09-03T14:55:44Z</time>
      </trkpt>
      <trkpt lat="58.071261998265982" lon="-4.978138022124767">
        <ele>146.25999999999999</ele>
        <time>2019-09-03T14:55:45Z</time>
      </trkpt>
      <trkpt lat="58.069650996476412" lon="-4.975119028240442">
        <ele>146.74000000000001</ele>
        <time>2019-09-03T14:55:57Z</time>
      </trkpt>
      <trkpt lat="58.06846403516829" lon="-4.973789993673563">
        <ele>146.74000000000001</ele>
        <time>2019-09-03T14:56:04Z</time>
      </trkpt>
      <trkpt lat="58.067410010844469" lon="-4.972700010985136">
        <ele>146.25999999999999</ele>
        <time>2019-09-03T14:56:12Z</time>
      </trkpt>
      <trkpt lat="58.066811040043831" lon="-4.972131969407201">
        <ele>145.78</ele>
        <time>2019-09-03T14:56:20Z</time>
      </trkpt>
      <trkpt lat="58.066754965111613" lon="-4.972077989950776">
        <ele>145.78</ele>
        <time>2019-09-03T14:56:21Z</time>
      </trkpt>
      <trkpt lat="58.066706014797091" lon="-4.972031973302364">
        <ele>145.30000000000001</ele>
        <time>2019-09-03T14:56:22Z</time>
      </trkpt>
      <trkpt lat="58.066620016470551" lon="-4.972120989114046">
        <ele>145.30000000000001</ele>
        <time>2019-09-03T14:56:23Z</time>
      </trkpt>
      <trkpt lat="58.06659696623683" lon="-4.972227020189166">
        <ele>145.30000000000001</ele>
        <time>2019-09-03T14:56:24Z</time>
      </trkpt>
      <trkpt lat="58.066566959023476" lon="-4.972363980486989">
        <ele>145.30000000000001</ele>
        <time>2019-09-03T14:56:25Z</time>
      </trkpt>
      <trkpt lat="58.066529994830489" lon="-4.972533965483308">
        <ele>145.30000000000001</ele>
        <time>2019-09-03T14:56:26Z</time>
      </trkpt>
      <trkpt lat="58.0664880014956" lon="-4.97273001819849">
        <ele>145.30000000000001</ele>
        <time>2019-09-03T14:56:27Z</time>
      </trkpt>
      <trkpt lat="58.066288009285927" lon="-4.974459959194064">
        <ele>142.41</ele>
        <time>2019-09-03T14:56:33Z</time>
      </trkpt>
      <trkpt lat="58.066141996532679" lon="-4.978007012978196">
        <ele>132.31999999999999</ele>
        <time>2019-09-03T14:56:43Z</time>
      </trkpt>
      <trkpt lat="58.066146019846201" lon="-4.979879027232528">
        <ele>127.03</ele>
        <time>2019-09-03T14:56:49Z</time>
      </trkpt>
      <trkpt lat="58.06612498126924" lon="-4.980159988626838">
        <ele>126.55</ele>
        <time>2019-09-03T14:56:50Z</time>
      </trkpt>
      <trkpt lat="58.066087011247873" lon="-4.980417983606458">
        <ele>125.59</ele>
        <time>2019-09-03T14:56:51Z</time>
      </trkpt>
      <trkpt lat="58.066031020134687" lon="-4.980656029656529">
        <ele>125.11</ele>
        <time>2019-09-03T14:56:52Z</time>
      </trkpt>
      <trkpt lat="58.065953990444541" lon="-4.980857027694583">
        <ele>125.11</ele>
        <time>2019-09-03T14:56:53Z</time>
      </trkpt>
      <trkpt lat="58.065876038745046" lon="-4.981057019904256">
        <ele>125.11</ele>
        <time>2019-09-03T14:56:54Z</time>
      </trkpt>
      <trkpt lat="58.065786017104983" lon="-4.981253994628787">
        <ele>125.11</ele>
        <time>2019-09-03T14:56:55Z</time>
      </trkpt>
      <trkpt lat="58.064799970015883" lon="-4.983102958649397">
        <ele>127.98999999999999</ele>
        <time>2019-09-03T14:57:03Z</time>
      </trkpt>
      <trkpt lat="58.063937975093722" lon="-4.985057031735778">
        <ele>132.31999999999999</ele>
        <time>2019-09-03T14:57:10Z</time>
      </trkpt>
      <trkpt lat="58.063863962888718" lon="-4.985355008393526">
        <ele>132.80000000000001</ele>
        <time>2019-09-03T14:57:11Z</time>
      </trkpt>
      <trkpt lat="58.063815012574196" lon="-4.98566497117281">
        <ele>132.80000000000001</ele>
        <time>2019-09-03T14:57:12Z</time>
      </trkpt>
      <trkpt lat="58.063776958733797" lon="-4.985994966700673">
        <ele>132.80000000000001</ele>
        <time>2019-09-03T14:57:13Z</time>
      </trkpt>
      <trkpt lat="58.063752986490726" lon="-4.986344994977117">
        <ele>132.80000000000001</ele>
        <time>2019-09-03T14:57:14Z</time>
      </trkpt>
      <trkpt lat="58.063752986490726" lon="-4.986712960526347">
        <ele>132.80000000000001</ele>
        <time>2019-09-03T14:57:15Z</time>
      </trkpt>
      <trkpt lat="58.063752986490726" lon="-4.987089978531003">
        <ele>132.80000000000001</ele>
        <time>2019-09-03T14:57:16Z</time>
      </trkpt>
      <trkpt lat="58.063876032829285" lon="-4.991397019475699">
        <ele>129.91999999999999</ele>
        <time>2019-09-03T14:57:27Z</time>
      </trkpt>
      <trkpt lat="58.063722979277372" lon="-4.993514036759734">
        <ele>127.51000000000001</ele>
        <time>2019-09-03T14:57:33Z</time>
      </trkpt>
      <trkpt lat="58.063264992088079" lon="-4.995431983843446">
        <ele>128.94999999999999</ele>
        <time>2019-09-03T14:57:39Z</time>
      </trkpt>
      <trkpt lat="58.063213024288416" lon="-4.995747981593013">
        <ele>129.43000000000001</ele>
        <time>2019-09-03T14:57:40Z</time>
      </trkpt>
      <trkpt lat="58.06281597353518" lon="-4.999722009524703">
        <ele>129.43000000000001</ele>
        <time>2019-09-03T14:57:51Z</time>
      </trkpt>
      <trkpt lat="58.062573987990618" lon="-5.001898035407066">
        <ele>128.94999999999999</ele>
        <time>2019-09-03T14:57:57Z</time>
      </trkpt>
      <trkpt lat="58.062502993270755" lon="-5.002201041206718">
        <ele>128.94999999999999</ele>
        <time>2019-09-03T14:57:58Z</time>
      </trkpt>
      <trkpt lat="58.06242898106575" lon="-5.002493988722563">
        <ele>128.94999999999999</ele>
        <time>2019-09-03T14:57:59Z</time>
      </trkpt>
      <trkpt lat="58.062337031587958" lon="-5.002776039764285">
        <ele>128.94999999999999</ele>
        <time>2019-09-03T14:58:00Z</time>
      </trkpt>
      <trkpt lat="58.062241980805993" lon="-5.003063036128879">
        <ele>128.94999999999999</ele>
        <time>2019-09-03T14:58:01Z</time>
      </trkpt>
      <trkpt lat="58.061860017478466" lon="-5.004263995215297">
        <ele>128.94999999999999</ele>
        <time>2019-09-03T14:58:05Z</time>
      </trkpt>
      <trkpt lat="58.061775024980307" lon="-5.004590973258019">
        <ele>128.94999999999999</ele>
        <time>2019-09-03T14:58:06Z</time>
      </trkpt>
      <trkpt lat="58.061746023595333" lon="-5.004999004304409">
        <ele>128.94999999999999</ele>
        <time>2019-09-03T14:58:07Z</time>
      </trkpt>
      <trkpt lat="58.061746023595333" lon="-5.0053880084306">
        <ele>129.43000000000001</ele>
        <time>2019-09-03T14:58:08Z</time>
      </trkpt>
      <trkpt lat="58.061778964474797" lon="-5.005761003121734">
        <ele>129.43000000000001</ele>
        <time>2019-09-03T14:58:09Z</time>
      </trkpt>
      <trkpt lat="58.061812995001674" lon="-5.00613802112639">
        <ele>129.43000000000001</ele>
        <time>2019-09-03T14:58:10Z</time>
      </trkpt>
      <trkpt lat="58.061851970851421" lon="-5.006523001939058">
        <ele>129.91999999999999</ele>
        <time>2019-09-03T14:58:11Z</time>
      </trkpt>
      <trkpt lat="58.061924977228045" lon="-5.006899014115334">
        <ele>129.91999999999999</ele>
        <time>2019-09-03T14:58:12Z</time>
      </trkpt>
      <trkpt lat="58.06221297942102" lon="-5.008369032293558">
        <ele>130.40000000000001</ele>
        <time>2019-09-03T14:58:16Z</time>
      </trkpt>
      <trkpt lat="58.062789989635348" lon="-5.012530982494354">
        <ele>131.36000000000001</ele>
        <time>2019-09-03T14:58:27Z</time>
      </trkpt>
      <trkpt lat="58.062866013497114" lon="-5.013636974617839">
        <ele>132.31999999999999</ele>
        <time>2019-09-03T14:58:30Z</time>
      </trkpt>
      <trkpt lat="58.062865007668734" lon="-5.013979040086269">
        <ele>132.80000000000001</ele>
        <time>2019-09-03T14:58:31Z</time>
      </trkpt>
      <trkpt lat="58.062589997425675" lon="-5.016241986304522">
        <ele>137.61000000000001</ele>
        <time>2019-09-03T14:58:38Z</time>
      </trkpt>
      <trkpt lat="58.061902010813355" lon="-5.020031025633216">
        <ele>146.25999999999999</ele>
        <time>2019-09-03T14:58:51Z</time>
      </trkpt>
      <trkpt lat="58.061593975871801" lon="-5.022822031751275">
        <ele>148.18000000000001</ele>
        <time>2019-09-03T14:59:00Z</time>
      </trkpt>
      <trkpt lat="58.060992993414402" lon="-5.02506997436285">
        <ele>146.74000000000001</ele>
        <time>2019-09-03T14:59:09Z</time>
      </trkpt>
      <trkpt lat="58.060184977948666" lon="-5.027586976066232">
        <ele>140.97</ele>
        <time>2019-09-03T14:59:21Z</time>
      </trkpt>
      <trkpt lat="58.06002102792263" lon="-5.028012022376061">
        <ele>140.49000000000001</ele>
        <time>2019-09-03T14:59:23Z</time>
      </trkpt>
      <trkpt lat="58.059924971312284" lon="-5.028208997100592">
        <ele>140.00999999999999</ele>
        <time>2019-09-03T14:59:24Z</time>
      </trkpt>
      <trkpt lat="58.0598050262779" lon="-5.028362972661853">
        <ele>140.00999999999999</ele>
        <time>2019-09-03T14:59:25Z</time>
      </trkpt>
      <trkpt lat="58.05967996828258" lon="-5.028523989021778">
        <ele>139.53</ele>
        <time>2019-09-03T14:59:26Z</time>
      </trkpt>
      <trkpt lat="58.059543007984757" lon="-5.028658015653491">
        <ele>139.53</ele>
        <time>2019-09-03T14:59:27Z</time>
      </trkpt>
      <trkpt lat="58.059401018545032" lon="-5.028775027021766">
        <ele>139.53</ele>
        <time>2019-09-03T14:59:28Z</time>
      </trkpt>
      <trkpt lat="58.058955017477274" lon="-5.029105022549629">
        <ele>139.05000000000001</ele>
        <time>2019-09-03T14:59:31Z</time>
      </trkpt>
      <trkpt lat="58.058790983632207" lon="-5.029162019491196">
        <ele>138.56999999999999</ele>
        <time>2019-09-03T14:59:32Z</time>
      </trkpt>
      <trkpt lat="58.058602977544069" lon="-5.029227985069156">
        <ele>138.56999999999999</ele>
        <time>2019-09-03T14:59:33Z</time>
      </trkpt>
      <trkpt lat="58.056635996326804" lon="-5.029463013634086">
        <ele>138.09</ele>
        <time>2019-09-03T14:59:43Z</time>
      </trkpt>
      <trkpt lat="58.055394971743226" lon="-5.029798038303852">
        <ele>139.53</ele>
        <time>2019-09-03T14:59:50Z</time>
      </trkpt>
      <trkpt lat="58.053582971915603" lon="-5.030500022694469">
        <ele>142.88999999999999</ele>
        <time>2019-09-03T15:00:03Z</time>
      </trkpt>
      <trkpt lat="58.052835976704955" lon="-5.030690962448716">
        <ele>144.34</ele>
        <time>2019-09-03T15:00:09Z</time>
      </trkpt>
      <trkpt lat="58.05271896533668" lon="-5.030756006017327">
        <ele>144.34</ele>
        <time>2019-09-03T15:00:10Z</time>
      </trkpt>
      <trkpt lat="58.052606983110309" lon="-5.030867988243699">
        <ele>143.84999999999999</ele>
        <time>2019-09-03T15:00:11Z</time>
      </trkpt>
      <trkpt lat="58.052497012540698" lon="-5.031006038188934">
        <ele>143.84999999999999</ele>
        <time>2019-09-03T15:00:12Z</time>
      </trkpt>
      <trkpt lat="58.052397016435862" lon="-5.031189015135169">
        <ele>143.37</ele>
        <time>2019-09-03T15:00:13Z</time>
      </trkpt>
      <trkpt lat="58.052292997017503" lon="-5.031378027051687">
        <ele>142.88999999999999</ele>
        <time>2019-09-03T15:00:14Z</time>
      </trkpt>
      <trkpt lat="58.051731996238232" lon="-5.032398020848632">
        <ele>144.81999999999999</ele>
        <time>2019-09-03T15:00:19Z</time>
      </trkpt>
      <trkpt lat="58.051606016233563" lon="-5.032536992803216">
        <ele>145.78</ele>
        <time>2019-09-03T15:00:20Z</time>
      </trkpt>
      <trkpt lat="58.051475007086992" lon="-5.032640006393194">
        <ele>147.22</ele>
        <time>2019-09-03T15:00:21Z</time>
      </trkpt>
      <trkpt lat="58.051347015425563" lon="-5.032706977799535">
        <ele>148.66</ele>
        <time>2019-09-03T15:00:22Z</time>
      </trkpt>
      <trkpt lat="58.051222041249275" lon="-5.03271502442658">
        <ele>149.62</ele>
        <time>2019-09-03T15:00:23Z</time>
      </trkpt>
      <trkpt lat="58.051102012395859" lon="-5.032722987234592">
        <ele>151.06</ele>
        <time>2019-09-03T15:00:24Z</time>
      </trkpt>
      <trkpt lat="58.050990030169487" lon="-5.032688034698367">
        <ele>152.50999999999999</ele>
        <time>2019-09-03T15:00:25Z</time>
      </trkpt>
      <trkpt lat="58.050879975780845" lon="-5.032636988908052">
        <ele>153.94999999999999</ele>
        <time>2019-09-03T15:00:26Z</time>
      </trkpt>
      <trkpt lat="58.050776962190866" lon="-5.032582003623247">
        <ele>155.38999999999999</ele>
        <time>2019-09-03T15:00:27Z</time>
      </trkpt>
      <trkpt lat="58.050684006884694" lon="-5.032494999468327">
        <ele>156.34999999999999</ele>
        <time>2019-09-03T15:00:28Z</time>
      </trkpt>
      <trkpt lat="58.050422994419932" lon="-5.032182019203901">
        <ele>159.72</ele>
        <time>2019-09-03T15:00:31Z</time>
      </trkpt>
      <trkpt lat="58.050358034670353" lon="-5.03202703781426">
        <ele>160.68000000000001</ele>
        <time>2019-09-03T15:00:32Z</time>
      </trkpt>
      <trkpt lat="58.050291985273361" lon="-5.031869038939476">
        <ele>162.12</ele>
        <time>2019-09-03T15:00:33Z</time>
      </trkpt>
      <trkpt lat="58.050221996381879" lon="-5.031703999266028">
        <ele>163.08000000000001</ele>
        <time>2019-09-03T15:00:34Z</time>
      </trkpt>
      <trkpt lat="58.050148990005255" lon="-5.031529990956187">
        <ele>163.56</ele>
        <time>2019-09-03T15:00:35Z</time>
      </trkpt>
      <trkpt lat="58.049818994477391" lon="-5.030744019895792">
        <ele>165.47999999999999</ele>
        <time>2019-09-03T15:00:39Z</time>
      </trkpt>
      <trkpt lat="58.049721010029316" lon="-5.030534975230694">
        <ele>165.96000000000001</ele>
        <time>2019-09-03T15:00:40Z</time>
      </trkpt>
      <trkpt lat="58.049595030024648" lon="-5.030390974134207">
        <ele>165.96000000000001</ele>
        <time>2019-09-03T15:00:41Z</time>
      </trkpt>
      <trkpt lat="58.049467960372567" lon="-5.030244961380959">
        <ele>165.96000000000001</ele>
        <time>2019-09-03T15:00:42Z</time>
      </trkpt>
      <trkpt lat="58.049328988417983" lon="-5.030158963054419">
        <ele>165.96000000000001</ele>
        <time>2019-09-03T15:00:43Z</time>
      </trkpt>
      <trkpt lat="58.049225974828005" lon="-5.030108001083136">
        <ele>165.96000000000001</ele>
        <time>2019-09-03T15:00:44Z</time>
      </trkpt>
      <trkpt lat="58.049054984003305" lon="-5.030130967497826">
        <ele>165.47999999999999</ele>
        <time>2019-09-03T15:00:45Z</time>
      </trkpt>
      <trkpt lat="58.048918023705482" lon="-5.030149994418025">
        <ele>165.47999999999999</ele>
        <time>2019-09-03T15:00:46Z</time>
      </trkpt>
      <trkpt lat="58.048780979588628" lon="-5.030168015509844">
        <ele>165</ele>
        <time>2019-09-03T15:00:47Z</time>
      </trkpt>
      <trkpt lat="58.048652987927198" lon="-5.030273040756583">
        <ele>165</ele>
        <time>2019-09-03T15:00:48Z</time>
      </trkpt>
      <trkpt lat="58.048523990437388" lon="-5.030402038246393">
        <ele>165</ele>
        <time>2019-09-03T15:00:49Z</time>
      </trkpt>
      <trkpt lat="58.048406979069114" lon="-5.030550984665752">
        <ele>165</ele>
        <time>2019-09-03T15:00:50Z</time>
      </trkpt>
      <trkpt lat="58.04831201210618" lon="-5.030759023502469">
        <ele>164.52000000000001</ele>
        <time>2019-09-03T15:00:51Z</time>
      </trkpt>
      <trkpt lat="58.048217967152596" lon="-5.030965972691774">
        <ele>164.52000000000001</ele>
        <time>2019-09-03T15:00:52Z</time>
      </trkpt>
      <trkpt lat="58.048135992139578" lon="-5.031222039833665">
        <ele>164.52000000000001</ele>
        <time>2019-09-03T15:00:53Z</time>
      </trkpt>
      <trkpt lat="58.04805301129818" lon="-5.031480034813285">
        <ele>164.03999999999999</ele>
        <time>2019-09-03T15:00:54Z</time>
      </trkpt>
      <trkpt lat="58.047166960313916" lon="-5.03426400013268">
        <ele>165</ele>
        <time>2019-09-03T15:01:05Z</time>
      </trkpt>
      <trkpt lat="58.047075010836124" lon="-5.034505985677242">
        <ele>165.47999999999999</ele>
        <time>2019-09-03T15:01:06Z</time>
      </trkpt>
      <trkpt lat="58.046950958669186" lon="-5.03471402451396">
        <ele>165.47999999999999</ele>
        <time>2019-09-03T15:01:07Z</time>
      </trkpt>
      <trkpt lat="58.045983016490936" lon="-5.036315973848105">
        <ele>169.81</ele>
        <time>2019-09-03T15:01:16Z</time>
      </trkpt>
      <trkpt lat="58.045851001515985" lon="-5.036630965769291">
        <ele>169.81</ele>
        <time>2019-09-03T15:01:18Z</time>
      </trkpt>
      <trkpt lat="58.045833986252546" lon="-5.036806985735893">
        <ele>170.28999999999999</ele>
        <time>2019-09-03T15:01:19Z</time>
      </trkpt>
      <trkpt lat="58.045815965160728" lon="-5.036985017359257">
        <ele>170.28999999999999</ele>
        <time>2019-09-03T15:01:20Z</time>
      </trkpt>
      <trkpt lat="58.04579702205956" lon="-5.037175035104156">
        <ele>170.28999999999999</ele>
        <time>2019-09-03T15:01:21Z</time>
      </trkpt>
      <trkpt lat="58.04582099430263" lon="-5.037368992343545">
        <ele>170.28999999999999</ele>
        <time>2019-09-03T15:01:22Z</time>
      </trkpt>
      <trkpt lat="58.045857958495617" lon="-5.037579964846373">
        <ele>170.77000000000001</ele>
        <time>2019-09-03T15:01:23Z</time>
      </trkpt>
      <trkpt lat="58.045897018164396" lon="-5.037798983976245">
        <ele>170.77000000000001</ele>
        <time>2019-09-03T15:01:24Z</time>
      </trkpt>
      <trkpt lat="58.04594898596406" lon="-5.038015991449356">
        <ele>170.77000000000001</ele>
        <time>2019-09-03T15:01:25Z</time>
      </trkpt>
      <trkpt lat="58.046020986512303" lon="-5.038225958123803">
        <ele>170.77000000000001</ele>
        <time>2019-09-03T15:01:26Z</time>
      </trkpt>
      <trkpt lat="58.046319968998432" lon="-5.039200019091368">
        <ele>171.25</ele>
        <time>2019-09-03T15:01:30Z</time>
      </trkpt>
      <trkpt lat="58.046365985646844" lon="-5.039480980485678">
        <ele>171.25</ele>
        <time>2019-09-03T15:01:31Z</time>
      </trkpt>
      <trkpt lat="58.046391969546676" lon="-5.039754984900355">
        <ele>171.25</ele>
        <time>2019-09-03T15:01:32Z</time>
      </trkpt>
      <trkpt lat="58.046386018395424" lon="-5.040044998750091">
        <ele>171.72999999999999</ele>
        <time>2019-09-03T15:01:33Z</time>
      </trkpt>
      <trkpt lat="58.046380989253521" lon="-5.040340041741729">
        <ele>171.72999999999999</ele>
        <time>2019-09-03T15:01:34Z</time>
      </trkpt>
      <trkpt lat="58.046375038102269" lon="-5.040637012571096">
        <ele>172.21000000000001</ele>
        <time>2019-09-03T15:01:35Z</time>
      </trkpt>
      <trkpt lat="58.04597295820713" lon="-5.043405974283814">
        <ele>177.02000000000001</ele>
        <time>2019-09-03T15:01:44Z</time>
      </trkpt>
      <trkpt lat="58.045509019866586" lon="-5.047052018344402">
        <ele>191.44</ele>
        <time>2019-09-03T15:01:55Z</time>
      </trkpt>
      <trkpt lat="58.045030999928713" lon="-5.049251010641456">
        <ele>204.90000000000001</ele>
        <time>2019-09-03T15:02:03Z</time>
      </trkpt>
      <trkpt lat="58.044132040813565" lon="-5.051867002621293">
        <ele>221.72</ele>
        <time>2019-09-03T15:02:14Z</time>
      </trkpt>
      <trkpt lat="58.042472004890442" lon="-5.056246966123581">
        <ele>239.02000000000001</ele>
        <time>2019-09-03T15:02:31Z</time>
      </trkpt>
      <trkpt lat="58.041297029703856" lon="-5.058787018060684">
        <ele>246.72</ele>
        <time>2019-09-03T15:02:41Z</time>
      </trkpt>
      <trkpt lat="58.039723997935653" lon="-5.062089990824461">
        <ele>253.93000000000001</ele>
        <time>2019-09-03T15:02:53Z</time>
      </trkpt>
      <trkpt lat="58.038971973583102" lon="-5.063979020342231">
        <ele>256.32999999999998</ele>
        <time>2019-09-03T15:03:00Z</time>
      </trkpt>
      <trkpt lat="58.037742013111711" lon="-5.066507002338767">
        <ele>248.16</ele>
        <time>2019-09-03T15:03:09Z</time>
      </trkpt>
      <trkpt lat="58.036524960771203" lon="-5.069374032318592">
        <ele>239.50999999999999</ele>
        <time>2019-09-03T15:03:19Z</time>
      </trkpt>
      <trkpt lat="58.035404970869422" lon="-5.070781018584967">
        <ele>234.22</ele>
        <time>2019-09-03T15:03:26Z</time>
      </trkpt>
      <trkpt lat="58.03385398350656" lon="-5.071965968236327">
        <ele>231.81</ele>
        <time>2019-09-03T15:03:34Z</time>
      </trkpt>
      <trkpt lat="58.031160961836576" lon="-5.073572024703026">
        <ele>232.30000000000001</ele>
        <time>2019-09-03T15:03:48Z</time>
      </trkpt>
      <trkpt lat="58.029794963076711" lon="-5.073385024443269">
        <ele>233.74000000000001</ele>
        <time>2019-09-03T15:03:55Z</time>
      </trkpt>
      <trkpt lat="58.027876010164618" lon="-5.073237000033259">
        <ele>237.58000000000001</ele>
        <time>2019-09-03T15:04:05Z</time>
      </trkpt>
      <trkpt lat="58.025321960449219" lon="-5.074564022943378">
        <ele>256.32999999999998</ele>
        <time>2019-09-03T15:04:18Z</time>
      </trkpt>
      <trkpt lat="58.022859022021294" lon="-5.075844023376703">
        <ele>255.84999999999999</ele>
        <time>2019-09-03T15:04:31Z</time>
      </trkpt>
      <trkpt lat="58.019879003986716" lon="-5.077391993254423">
        <ele>239.50999999999999</ele>
        <time>2019-09-03T15:04:45Z</time>
      </trkpt>
      <trkpt lat="58.017412964254618" lon="-5.078584989532828">
        <ele>236.62</ele>
        <time>2019-09-03T15:04:57Z</time>
      </trkpt>
      <trkpt lat="58.01582501269877" lon="-5.079283034428954">
        <ele>234.22</ele>
        <time>2019-09-03T15:05:05Z</time>
      </trkpt>
      <trkpt lat="58.015637006610632" lon="-5.079436004161835">
        <ele>233.25999999999999</ele>
        <time>2019-09-03T15:05:06Z</time>
      </trkpt>
      <trkpt lat="58.015462998300791" lon="-5.079646976664662">
        <ele>232.78</ele>
        <time>2019-09-03T15:05:07Z</time>
      </trkpt>
      <trkpt lat="58.013989962637424" lon="-5.081722000613809">
        <ele>225.09</ele>
        <time>2019-09-03T15:05:16Z</time>
      </trkpt>
      <trkpt lat="58.012244012206793" lon="-5.083752013742924">
        <ele>214.99000000000001</ele>
        <time>2019-09-03T15:05:26Z</time>
      </trkpt>
      <trkpt lat="58.010633010417223" lon="-5.085326973348856">
        <ele>203.94</ele>
        <time>2019-09-03T15:05:36Z</time>
      </trkpt>
      <trkpt lat="58.008845988661051" lon="-5.087156994268298">
        <ele>190.96000000000001</ele>
        <time>2019-09-03T15:05:47Z</time>
      </trkpt>
      <trkpt lat="58.006768031045794" lon="-5.0896090362221">
        <ele>177.02000000000001</ele>
        <time>2019-09-03T15:05:59Z</time>
      </trkpt>
      <trkpt lat="58.005694979801774" lon="-5.09070597589016">
        <ele>169.33000000000001</ele>
        <time>2019-09-03T15:06:05Z</time>
      </trkpt>
      <trkpt lat="58.005575034767389" lon="-5.09094201028347">
        <ele>167.88999999999999</ele>
        <time>2019-09-03T15:06:06Z</time>
      </trkpt>
      <trkpt lat="58.005473027005792" lon="-5.091193970292807">
        <ele>166.44999999999999</ele>
        <time>2019-09-03T15:06:07Z</time>
      </trkpt>
      <trkpt lat="58.005372025072575" lon="-5.091444002464414">
        <ele>165</ele>
        <time>2019-09-03T15:06:08Z</time>
      </trkpt>
      <trkpt lat="58.005271023139358" lon="-5.091694034636021">
        <ele>164.03999999999999</ele>
        <time>2019-09-03T15:06:09Z</time>
      </trkpt>
      <trkpt lat="58.004323029890656" lon="-5.09367099031806">
        <ele>154.91</ele>
        <time>2019-09-03T15:06:17Z</time>
      </trkpt>
      <trkpt lat="58.002872038632631" lon="-5.096589988097549">
        <ele>143.37</ele>
        <time>2019-09-03T15:06:27Z</time>
      </trkpt>
      <trkpt lat="58.002423020079732" lon="-5.097905024886131">
        <ele>138.56999999999999</ele>
        <time>2019-09-03T15:06:31Z</time>
      </trkpt>
      <trkpt lat="58.002336015924811" lon="-5.098190009593964">
        <ele>137.61000000000001</ele>
        <time>2019-09-03T15:06:32Z</time>
      </trkpt>
      <trkpt lat="58.002292010933161" lon="-5.098512964323163">
        <ele>136.16</ele>
        <time>2019-09-03T15:06:33Z</time>
      </trkpt>
      <trkpt lat="58.002245994284749" lon="-5.09884798899293">
        <ele>135.19999999999999</ele>
        <time>2019-09-03T15:06:34Z</time>
      </trkpt>
      <trkpt lat="58.002198971807957" lon="-5.099190976470709">
        <ele>134.72</ele>
        <time>2019-09-03T15:06:35Z</time>
      </trkpt>
      <trkpt lat="58.002017000690103" lon="-5.100193032994866">
        <ele>132.80000000000001</ele>
        <time>2019-09-03T15:06:38Z</time>
      </trkpt>
      <trkpt lat="58.001927984878421" lon="-5.100476006045938">
        <ele>132.31999999999999</ele>
        <time>2019-09-03T15:06:39Z</time>
      </trkpt>
      <trkpt lat="58.001831006258726" lon="-5.100734001025558">
        <ele>131.36000000000001</ele>
        <time>2019-09-03T15:06:40Z</time>
      </trkpt>
      <trkpt lat="58.001707037910819" lon="-5.10095402598381">
        <ele>130.88</ele>
        <time>2019-09-03T15:06:41Z</time>
      </trkpt>
      <trkpt lat="58.001572005450726" lon="-5.101142032071948">
        <ele>130.40000000000001</ele>
        <time>2019-09-03T15:06:42Z</time>
      </trkpt>
      <trkpt lat="58.001420041546226" lon="-5.101315034553409">
        <ele>129.91999999999999</ele>
        <time>2019-09-03T15:06:43Z</time>
      </trkpt>
      <trkpt lat="57.999660009518266" lon="-5.1034049782902">
        <ele>124.15000000000001</ele>
        <time>2019-09-03T15:06:54Z</time>
      </trkpt>
      <trkpt lat="57.998175993561745" lon="-5.105674965307117">
        <ele>123.67</ele>
        <time>2019-09-03T15:07:04Z</time>
      </trkpt>
      <trkpt lat="57.996282018721104" lon="-5.107970014214516">
        <ele>120.78</ele>
        <time>2019-09-03T15:07:15Z</time>
      </trkpt>
      <trkpt lat="57.994203977286816" lon="-5.109639018774033">
        <ele>119.34</ele>
        <time>2019-09-03T15:07:26Z</time>
      </trkpt>
      <trkpt lat="57.992222998291254" lon="-5.110917007550597">
        <ele>120.78</ele>
        <time>2019-09-03T15:07:37Z</time>
      </trkpt>
      <trkpt lat="57.990269009023905" lon="-5.112683996558189">
        <ele>121.26000000000001</ele>
        <time>2019-09-03T15:07:47Z</time>
      </trkpt>
      <trkpt lat="57.988660018891096" lon="-5.113799963146448">
        <ele>121.26000000000001</ele>
        <time>2019-09-03T15:07:54Z</time>
      </trkpt>
      <trkpt lat="57.987115988507867" lon="-5.114950966089964">
        <ele>122.22</ele>
        <time>2019-09-03T15:08:01Z</time>
      </trkpt>
      <trkpt lat="57.985774967819452" lon="-5.116050001233816">
        <ele>126.55</ele>
        <time>2019-09-03T15:08:09Z</time>
      </trkpt>
      <trkpt lat="57.983116982504725" lon="-5.118195014074445">
        <ele>128.47</ele>
        <time>2019-09-03T15:08:24Z</time>
      </trkpt>
      <trkpt lat="57.981417970731854" lon="-5.119164967909455">
        <ele>119.81999999999999</ele>
        <time>2019-09-03T15:08:33Z</time>
      </trkpt>
      <trkpt lat="57.979531958699226" lon="-5.118963969871402">
        <ele>107.31999999999999</ele>
        <time>2019-09-03T15:08:42Z</time>
      </trkpt>
      <trkpt lat="57.979117976501584" lon="-5.119081987068057">
        <ele>106.36</ele>
        <time>2019-09-03T15:08:44Z</time>
      </trkpt>
      <trkpt lat="57.978917984291911" lon="-5.119144013151527">
        <ele>106.36</ele>
        <time>2019-09-03T15:08:45Z</time>
      </trkpt>
      <trkpt lat="57.978723021224141" lon="-5.119268987327814">
        <ele>106.36</ele>
        <time>2019-09-03T15:08:46Z</time>
      </trkpt>
      <trkpt lat="57.976641962304711" lon="-5.120919970795512">
        <ele>109.73</ele>
        <time>2019-09-03T15:08:57Z</time>
      </trkpt>
      <trkpt lat="57.974700964987278" lon="-5.122687965631485">
        <ele>110.20999999999999</ele>
        <time>2019-09-03T15:09:08Z</time>
      </trkpt>
      <trkpt lat="57.972645973786712" lon="-5.124164018779993">
        <ele>101.08</ele>
        <time>2019-09-03T15:09:19Z</time>
      </trkpt>
      <trkpt lat="57.970839003100991" lon="-5.125802010297775">
        <ele>93.390000000000001</ele>
        <time>2019-09-03T15:09:29Z</time>
      </trkpt>
      <trkpt lat="57.969775004312396" lon="-5.127064995467663">
        <ele>87.620000000000005</ele>
        <time>2019-09-03T15:09:36Z</time>
      </trkpt>
      <trkpt lat="57.968042967841029" lon="-5.129219982773066">
        <ele>73.200000000000003</ele>
        <time>2019-09-03T15:09:47Z</time>
      </trkpt>
      <trkpt lat="57.966201966628432" lon="-5.131833041086793">
        <ele>50.130000000000003</ele>
        <time>2019-09-03T15:09:59Z</time>
      </trkpt>
      <trkpt lat="57.964621977880597" lon="-5.13378300704062">
        <ele>32.82</ele>
        <time>2019-09-03T15:10:09Z</time>
      </trkpt>
      <trkpt lat="57.962907962501049" lon="-5.135456034913659">
        <ele>19.359999999999999</ele>
        <time>2019-09-03T15:10:19Z</time>
      </trkpt>
      <trkpt lat="57.96271400526166" lon="-5.135568017140031">
        <ele>17.920000000000002</ele>
        <time>2019-09-03T15:10:20Z</time>
      </trkpt>
      <trkpt lat="57.962520970031619" lon="-5.135679999366403">
        <ele>16.48</ele>
        <time>2019-09-03T15:10:21Z</time>
      </trkpt>
      <trkpt lat="57.962326006963849" lon="-5.135791981592774">
        <ele>15.52</ele>
        <time>2019-09-03T15:10:22Z</time>
      </trkpt>
      <trkpt lat="57.962130960077047" lon="-5.135892983525991">
        <ele>15.039999999999999</ele>
        <time>2019-09-03T15:10:23Z</time>
      </trkpt>
      <trkpt lat="57.961924010887742" lon="-5.135882003232837">
        <ele>15.039999999999999</ele>
        <time>2019-09-03T15:10:24Z</time>
      </trkpt>
      <trkpt lat="57.961713960394263" lon="-5.135855013504624">
        <ele>15.039999999999999</ele>
        <time>2019-09-03T15:10:25Z</time>
      </trkpt>
      <trkpt lat="57.961518997326493" lon="-5.135744037106633">
        <ele>15.039999999999999</ele>
        <time>2019-09-03T15:10:26Z</time>
      </trkpt>
      <trkpt lat="57.961323028430343" lon="-5.13563197106123">
        <ele>15.52</ele>
        <time>2019-09-03T15:10:27Z</time>
      </trkpt>
      <trkpt lat="57.961124964058399" lon="-5.135518983006477">
        <ele>16</ele>
        <time>2019-09-03T15:10:28Z</time>
      </trkpt>
      <trkpt lat="57.958802003413439" lon="-5.134293967857957">
        <ele>32.82</ele>
        <time>2019-09-03T15:10:40Z</time>
      </trkpt>
      <trkpt lat="57.958629000931978" lon="-5.134242000058293">
        <ele>34.740000000000002</ele>
        <time>2019-09-03T15:10:41Z</time>
      </trkpt>
      <trkpt lat="57.95770900323987" lon="-5.134324980899692">
        <ele>41.950000000000003</ele>
        <time>2019-09-03T15:10:46Z</time>
      </trkpt>
      <trkpt lat="57.957542035728693" lon="-5.134441992267966">
        <ele>43.399999999999999</ele>
        <time>2019-09-03T15:10:47Z</time>
      </trkpt>
      <trkpt lat="57.957372972741723" lon="-5.134574007242918">
        <ele>44.840000000000003</ele>
        <time>2019-09-03T15:10:48Z</time>
      </trkpt>
      <trkpt lat="57.957202987745404" lon="-5.13470702804625">
        <ele>46.280000000000001</ele>
        <time>2019-09-03T15:10:49Z</time>
      </trkpt>
      <trkpt lat="57.957060998305678" lon="-5.1349220238626">
        <ele>47.719999999999999</ele>
        <time>2019-09-03T15:10:50Z</time>
      </trkpt>
      <trkpt lat="57.956912973895669" lon="-5.135154034942389">
        <ele>49.159999999999997</ele>
        <time>2019-09-03T15:10:51Z</time>
      </trkpt>
      <trkpt lat="57.95676201581955" lon="-5.135389985516667">
        <ele>50.609999999999999</ele>
        <time>2019-09-03T15:10:52Z</time>
      </trkpt>
      <trkpt lat="57.955043977126479" lon="-5.138478968292475">
        <ele>56.369999999999997</ele>
        <time>2019-09-03T15:11:03Z</time>
      </trkpt>
      <trkpt lat="57.9529810231179" lon="-5.142020992934704">
        <ele>53.490000000000002</ele>
        <time>2019-09-03T15:11:15Z</time>
      </trkpt>
      <trkpt lat="57.95186597853899" lon="-5.144028961658478">
        <ele>59.259999999999998</ele>
        <time>2019-09-03T15:11:24Z</time>
      </trkpt>
      <trkpt lat="57.950907004997134" lon="-5.14654403552413">
        <ele>56.369999999999997</ele>
        <time>2019-09-03T15:11:33Z</time>
      </trkpt>
      <trkpt lat="57.949460037052631" lon="-5.150376996025443">
        <ele>44.359999999999999</ele>
        <time>2019-09-03T15:11:45Z</time>
      </trkpt>
      <trkpt lat="57.948697032406926" lon="-5.153318038210273">
        <ele>36.189999999999998</ele>
        <time>2019-09-03T15:11:53Z</time>
      </trkpt>
      <trkpt lat="57.947575030848384" lon="-5.157321989536285">
        <ele>31.379999999999999</ele>
        <time>2019-09-03T15:12:04Z</time>
      </trkpt>
      <trkpt lat="57.946679005399346" lon="-5.160064967349172">
        <ele>28.98</ele>
        <time>2019-09-03T15:12:13Z</time>
      </trkpt>
      <trkpt lat="57.945442004129291" lon="-5.163713023066521">
        <ele>26.09</ele>
        <time>2019-09-03T15:12:24Z</time>
      </trkpt>
      <trkpt lat="57.944203997030854" lon="-5.166727993637323">
        <ele>22.25</ele>
        <time>2019-09-03T15:12:34Z</time>
      </trkpt>
      <trkpt lat="57.942806985229254" lon="-5.168565977364779">
        <ele>21.77</ele>
        <time>2019-09-03T15:12:43Z</time>
      </trkpt>
      <trkpt lat="57.941935015842319" lon="-5.170385017991066">
        <ele>21.77</ele>
        <time>2019-09-03T15:12:50Z</time>
      </trkpt>
      <trkpt lat="57.941225990653038" lon="-5.172614017501473">
        <ele>25.609999999999999</ele>
        <time>2019-09-03T15:12:58Z</time>
      </trkpt>
      <trkpt lat="57.940817037597299" lon="-5.174995986744762">
        <ele>29.460000000000001</ele>
        <time>2019-09-03T15:13:05Z</time>
      </trkpt>
      <trkpt lat="57.94022100046277" lon="-5.177777018398047">
        <ele>38.109999999999999</ele>
        <time>2019-09-03T15:13:13Z</time>
      </trkpt>
      <trkpt lat="57.939702998846769" lon="-5.180367026478052">
        <ele>51.090000000000003</ele>
        <time>2019-09-03T15:13:21Z</time>
      </trkpt>
      <trkpt lat="57.939610965549946" lon="-5.180626027286053">
        <ele>52.049999999999997</ele>
        <time>2019-09-03T15:13:22Z</time>
      </trkpt>
      <trkpt lat="57.938579991459846" lon="-5.183510994538665">
        <ele>43.880000000000003</ele>
        <time>2019-09-03T15:13:32Z</time>
      </trkpt>
      <trkpt lat="57.938449988141656" lon="-5.183722972869873">
        <ele>41.950000000000003</ele>
        <time>2019-09-03T15:13:33Z</time>
      </trkpt>
      <trkpt lat="57.938313027843833" lon="-5.183902010321617">
        <ele>40.030000000000001</ele>
        <time>2019-09-03T15:13:34Z</time>
      </trkpt>
      <trkpt lat="57.938183024525642" lon="-5.184005023911595">
        <ele>38.109999999999999</ele>
        <time>2019-09-03T15:13:35Z</time>
      </trkpt>
      <trkpt lat="57.938038017600775" lon="-5.184082975611091">
        <ele>36.189999999999998</ele>
        <time>2019-09-03T15:13:36Z</time>
      </trkpt>
      <trkpt lat="57.937883958220482" lon="-5.184166040271521">
        <ele>33.780000000000001</ele>
        <time>2019-09-03T15:13:37Z</time>
      </trkpt>
      <trkpt lat="57.937725037336349" lon="-5.184252038598061">
        <ele>31.859999999999999</ele>
        <time>2019-09-03T15:13:38Z</time>
      </trkpt>
      <trkpt lat="57.937420019879937" lon="-5.184420011937618">
        <ele>28.5</ele>
        <time>2019-09-03T15:13:40Z</time>
      </trkpt>
      <trkpt lat="57.937282975763083" lon="-5.184537023305893">
        <ele>27.530000000000001</ele>
        <time>2019-09-03T15:13:41Z</time>
      </trkpt>
      <trkpt lat="57.937171999365091" lon="-5.184729974716902">
        <ele>26.57</ele>
        <time>2019-09-03T15:13:42Z</time>
      </trkpt>
      <trkpt lat="57.9370610229671" lon="-5.184924015775323">
        <ele>25.609999999999999</ele>
        <time>2019-09-03T15:13:43Z</time>
      </trkpt>
      <trkpt lat="57.936972007155418" lon="-5.18513398244977">
        <ele>25.129999999999999</ele>
        <time>2019-09-03T15:13:44Z</time>
      </trkpt>
      <trkpt lat="57.936887014657259" lon="-5.1853690110147">
        <ele>24.649999999999999</ele>
        <time>2019-09-03T15:13:45Z</time>
      </trkpt>
      <trkpt lat="57.936708983033895" lon="-5.185860022902489">
        <ele>24.649999999999999</ele>
        <time>2019-09-03T15:13:47Z</time>
      </trkpt>
      <trkpt lat="57.936617033556104" lon="-5.186112988740206">
        <ele>24.170000000000002</ele>
        <time>2019-09-03T15:13:48Z</time>
      </trkpt>
      <trkpt lat="57.936361972242594" lon="-5.186952017247677">
        <ele>23.210000000000001</ele>
        <time>2019-09-03T15:13:51Z</time>
      </trkpt>
      <trkpt lat="57.93631000444293" lon="-5.187273966148496">
        <ele>22.73</ele>
        <time>2019-09-03T15:13:52Z</time>
      </trkpt>
      <trkpt lat="57.936259964480996" lon="-5.187597004696727">
        <ele>22.25</ele>
        <time>2019-09-03T15:13:53Z</time>
      </trkpt>
      <trkpt lat="57.936100037768483" lon="-5.188538040965796">
        <ele>19.359999999999999</ele>
        <time>2019-09-03T15:13:56Z</time>
      </trkpt>
      <trkpt lat="57.936006998643279" lon="-5.188825037330389">
        <ele>18.399999999999999</ele>
        <time>2019-09-03T15:13:57Z</time>
      </trkpt>
      <trkpt lat="57.935119019821286" lon="-5.192043017596006">
        <ele>11.67</ele>
        <time>2019-09-03T15:14:07Z</time>
      </trkpt>
      <trkpt lat="57.934093996882439" lon="-5.195845970883966">
        <ele>10.23</ele>
        <time>2019-09-03T15:14:19Z</time>
      </trkpt>
      <trkpt lat="57.933999029919505" lon="-5.196083011105657">
        <ele>10.23</ele>
        <time>2019-09-03T15:14:20Z</time>
      </trkpt>
      <trkpt lat="57.933855028823018" lon="-5.196215026080608">
        <ele>10.710000000000001</ele>
        <time>2019-09-03T15:14:21Z</time>
      </trkpt>
      <trkpt lat="57.933719996362925" lon="-5.196340000256896">
        <ele>10.710000000000001</ele>
        <time>2019-09-03T15:14:22Z</time>
      </trkpt>
      <trkpt lat="57.933575995266438" lon="-5.196359027177095">
        <ele>10.710000000000001</ele>
        <time>2019-09-03T15:14:23Z</time>
      </trkpt>
      <trkpt lat="57.933423025533557" lon="-5.196379981935024">
        <ele>10.710000000000001</ele>
        <time>2019-09-03T15:14:24Z</time>
      </trkpt>
      <trkpt lat="57.933277012780309" lon="-5.196356009691954">
        <ele>10.710000000000001</ele>
        <time>2019-09-03T15:14:25Z</time>
      </trkpt>
      <trkpt lat="57.933137034997344" lon="-5.196324996650219">
        <ele>10.710000000000001</ele>
        <time>2019-09-03T15:14:26Z</time>
      </trkpt>
      <trkpt lat="57.931633992120624" lon="-5.196295995265245">
        <ele>12.15</ele>
        <time>2019-09-03T15:14:36Z</time>
      </trkpt>
      <trkpt lat="57.930163973942399" lon="-5.196998985484242">
        <ele>14.08</ele>
        <time>2019-09-03T15:14:44Z</time>
      </trkpt>
      <trkpt lat="57.929170969873667" lon="-5.197641961276531">
        <ele>19.359999999999999</ele>
        <time>2019-09-03T15:14:50Z</time>
      </trkpt>
      <trkpt lat="57.929022023454309" lon="-5.197690995410085">
        <ele>20.32</ele>
        <time>2019-09-03T15:14:51Z</time>
      </trkpt>
      <trkpt lat="57.928879028186202" lon="-5.197630980983377">
        <ele>21.289999999999999</ele>
        <time>2019-09-03T15:14:52Z</time>
      </trkpt>
      <trkpt lat="57.928733015432954" lon="-5.197569038718939">
        <ele>22.73</ele>
        <time>2019-09-03T15:14:53Z</time>
      </trkpt>
      <trkpt lat="57.928604017943144" lon="-5.197420008480549">
        <ele>23.690000000000001</ele>
        <time>2019-09-03T15:14:54Z</time>
      </trkpt>
      <trkpt lat="57.928476026281714" lon="-5.197263015434146">
        <ele>24.649999999999999</ele>
        <time>2019-09-03T15:14:55Z</time>
      </trkpt>
      <trkpt lat="57.928371001034975" lon="-5.197053970769048">
        <ele>25.609999999999999</ele>
        <time>2019-09-03T15:14:56Z</time>
      </trkpt>
      <trkpt lat="57.928271004930139" lon="-5.19682003185153">
        <ele>27.050000000000001</ele>
        <time>2019-09-03T15:14:57Z</time>
      </trkpt>
      <trkpt lat="57.928171008825302" lon="-5.19658399745822">
        <ele>28.5</ele>
        <time>2019-09-03T15:14:58Z</time>
      </trkpt>
      <trkpt lat="57.928071012720466" lon="-5.196347963064909">
        <ele>29.940000000000001</ele>
        <time>2019-09-03T15:14:59Z</time>
      </trkpt>
      <trkpt lat="57.927441028878093" lon="-5.194925973191857">
        <ele>38.590000000000003</ele>
        <time>2019-09-03T15:15:05Z</time>
      </trkpt>
      <trkpt lat="57.927317982539535" lon="-5.194740984588862">
        <ele>40.030000000000001</ele>
        <time>2019-09-03T15:15:06Z</time>
      </trkpt>
      <trkpt lat="57.927197031676769" lon="-5.194559013471007">
        <ele>41.950000000000003</ele>
        <time>2019-09-03T15:15:07Z</time>
      </trkpt>
      <trkpt lat="57.927040960639715" lon="-5.19450000487268">
        <ele>43.399999999999999</ele>
        <time>2019-09-03T15:15:08Z</time>
      </trkpt>
      <trkpt lat="57.926882961764932" lon="-5.194439990445972">
        <ele>44.840000000000003</ele>
        <time>2019-09-03T15:15:09Z</time>
      </trkpt>
      <trkpt lat="57.926722029224038" lon="-5.194379976019263">
        <ele>46.280000000000001</ele>
        <time>2019-09-03T15:15:10Z</time>
      </trkpt>
      <trkpt lat="57.924955962225795" lon="-5.193673968315125">
        <ele>61.659999999999997</ele>
        <time>2019-09-03T15:15:20Z</time>
      </trkpt>
      <trkpt lat="57.924624038860202" lon="-5.19340499304235">
        <ele>62.140000000000001</ele>
        <time>2019-09-03T15:15:22Z</time>
      </trkpt>
      <trkpt lat="57.924463022500277" lon="-5.193223021924496">
        <ele>62.140000000000001</ele>
        <time>2019-09-03T15:15:23Z</time>
      </trkpt>
      <trkpt lat="57.922918992117047" lon="-5.191208012402058">
        <ele>55.890000000000001</ele>
        <time>2019-09-03T15:15:33Z</time>
      </trkpt>
      <trkpt lat="57.922305017709732" lon="-5.190775003284216">
        <ele>48.68</ele>
        <time>2019-09-03T15:15:37Z</time>
      </trkpt>
      <trkpt lat="57.922140983864665" lon="-5.190726974979043">
        <ele>47.240000000000002</ele>
        <time>2019-09-03T15:15:38Z</time>
      </trkpt>
      <trkpt lat="57.921967981383204" lon="-5.190721023827791">
        <ele>45.799999999999997</ele>
        <time>2019-09-03T15:15:39Z</time>
      </trkpt>
      <trkpt lat="57.920824019238353" lon="-5.190781960263848">
        <ele>37.630000000000003</ele>
        <time>2019-09-03T15:15:46Z</time>
      </trkpt>
      <trkpt lat="57.920685969293118" lon="-5.190873993560672">
        <ele>37.630000000000003</ele>
        <time>2019-09-03T15:15:47Z</time>
      </trkpt>
      <trkpt lat="57.920544985681772" lon="-5.190968038514257">
        <ele>37.149999999999999</ele>
        <time>2019-09-03T15:15:48Z</time>
      </trkpt>
      <trkpt lat="57.920404002070427" lon="-5.191061999648809">
        <ele>36.670000000000002</ele>
        <time>2019-09-03T15:15:49Z</time>
      </trkpt>
      <trkpt lat="57.920276010408998" lon="-5.191217986866832">
        <ele>35.710000000000001</ele>
        <time>2019-09-03T15:15:50Z</time>
      </trkpt>
      <trkpt lat="57.920147012919188" lon="-5.191398030146956">
        <ele>35.229999999999997</ele>
        <time>2019-09-03T15:15:51Z</time>
      </trkpt>
      <trkpt lat="57.919161971658468" lon="-5.192669983953238">
        <ele>30.420000000000002</ele>
        <time>2019-09-03T15:15:58Z</time>
      </trkpt>
      <trkpt lat="57.919001039117575" lon="-5.192777020856738">
        <ele>30.420000000000002</ele>
        <time>2019-09-03T15:15:59Z</time>
      </trkpt>
      <trkpt lat="57.91884102858603" lon="-5.192864025011659">
        <ele>29.940000000000001</ele>
        <time>2019-09-03T15:16:00Z</time>
      </trkpt>
      <trkpt lat="57.918678000569344" lon="-5.192864025011659">
        <ele>29.940000000000001</ele>
        <time>2019-09-03T15:16:01Z</time>
      </trkpt>
      <trkpt lat="57.918517990037799" lon="-5.192864025011659">
        <ele>30.420000000000002</ele>
        <time>2019-09-03T15:16:02Z</time>
      </trkpt>
      <trkpt lat="57.918376000598073" lon="-5.192765034735203">
        <ele>30.899999999999999</ele>
        <time>2019-09-03T15:16:03Z</time>
      </trkpt>
      <trkpt lat="57.918239962309599" lon="-5.192661015316844">
        <ele>31.859999999999999</ele>
        <time>2019-09-03T15:16:04Z</time>
      </trkpt>
      <trkpt lat="57.918121023103595" lon="-5.192539980635047">
        <ele>32.82</ele>
        <time>2019-09-03T15:16:05Z</time>
      </trkpt>
      <trkpt lat="57.918037958443165" lon="-5.192359015345573">
        <ele>33.780000000000001</ele>
        <time>2019-09-03T15:16:06Z</time>
      </trkpt>
      <trkpt lat="57.917959000915289" lon="-5.192187018692493">
        <ele>34.740000000000002</ele>
        <time>2019-09-03T15:16:07Z</time>
      </trkpt>
      <trkpt lat="57.917880965396762" lon="-5.192016027867794">
        <ele>36.189999999999998</ele>
        <time>2019-09-03T15:16:08Z</time>
      </trkpt>
      <trkpt lat="57.917797984555364" lon="-5.191833972930908">
        <ele>37.149999999999999</ele>
        <time>2019-09-03T15:16:09Z</time>
      </trkpt>
      <trkpt lat="57.917189039289951" lon="-5.189813012257218">
        <ele>50.609999999999999</ele>
        <time>2019-09-03T15:16:17Z</time>
      </trkpt>
      <trkpt lat="57.916195029392838" lon="-5.186590002849698">
        <ele>71.760000000000005</ele>
        <time>2019-09-03T15:16:27Z</time>
      </trkpt>
      <trkpt lat="57.915467983111739" lon="-5.184784037992358">
        <ele>85.209999999999994</ele>
        <time>2019-09-03T15:16:34Z</time>
      </trkpt>
      <trkpt lat="57.915349965915084" lon="-5.184623021632433">
        <ele>87.140000000000001</ele>
        <time>2019-09-03T15:16:35Z</time>
      </trkpt>
      <trkpt lat="57.915215017274022" lon="-5.184507016092539">
        <ele>89.060000000000002</ele>
        <time>2019-09-03T15:16:36Z</time>
      </trkpt>
      <trkpt lat="57.915078978985548" lon="-5.184447001665831">
        <ele>90.019999999999996</ele>
        <time>2019-09-03T15:16:37Z</time>
      </trkpt>
      <trkpt lat="57.914944030344486" lon="-5.184387993067503">
        <ele>90.980000000000004</ele>
        <time>2019-09-03T15:16:38Z</time>
      </trkpt>
      <trkpt lat="57.914796005934477" lon="-5.184425041079521">
        <ele>91.939999999999998</ele>
        <time>2019-09-03T15:16:39Z</time>
      </trkpt>
      <trkpt lat="57.914646975696087" lon="-5.184462005272508">
        <ele>92.420000000000002</ele>
        <time>2019-09-03T15:16:40Z</time>
      </trkpt>
      <trkpt lat="57.914491994306445" lon="-5.184500981122255">
        <ele>93.390000000000001</ele>
        <time>2019-09-03T15:16:41Z</time>
      </trkpt>
      <trkpt lat="57.91433097794652" lon="-5.184541968628764">
        <ele>93.870000000000005</ele>
        <time>2019-09-03T15:16:42Z</time>
      </trkpt>
      <trkpt lat="57.913861004635692" lon="-5.184607012197375">
        <ele>94.349999999999994</ele>
        <time>2019-09-03T15:16:45Z</time>
      </trkpt>
      <trkpt lat="57.913705017417669" lon="-5.184620004147291">
        <ele>94.349999999999994</ele>
        <time>2019-09-03T15:16:46Z</time>
      </trkpt>
      <trkpt lat="57.91355799883604" lon="-5.184540040791035">
        <ele>93.870000000000005</ele>
        <time>2019-09-03T15:16:47Z</time>
      </trkpt>
      <trkpt lat="57.913418021053076" lon="-5.184420011937618">
        <ele>93.390000000000001</ele>
        <time>2019-09-03T15:16:48Z</time>
      </trkpt>
      <trkpt lat="57.913277959451079" lon="-5.184298977255821">
        <ele>92.900000000000006</ele>
        <time>2019-09-03T15:16:49Z</time>
      </trkpt>
      <trkpt lat="57.913145022466779" lon="-5.184142990037799">
        <ele>92.420000000000002</ele>
        <time>2019-09-03T15:16:50Z</time>
      </trkpt>
      <trkpt lat="57.913021976128221" lon="-5.183950960636139">
        <ele>91.459999999999994</ele>
        <time>2019-09-03T15:16:51Z</time>
      </trkpt>
      <trkpt lat="57.911523962393403" lon="-5.181617019698024">
        <ele>75.120000000000005</ele>
        <time>2019-09-03T15:17:02Z</time>
      </trkpt>
      <trkpt lat="57.910055033862591" lon="-5.179059030488133">
        <ele>58.299999999999997</ele>
        <time>2019-09-03T15:17:13Z</time>
      </trkpt>
      <trkpt lat="57.908246973529458" lon="-5.175508037209511">
        <ele>46.759999999999998</ele>
        <time>2019-09-03T15:17:27Z</time>
      </trkpt>
      <trkpt lat="57.908060979098082" lon="-5.17503596842289">
        <ele>46.759999999999998</ele>
        <time>2019-09-03T15:17:29Z</time>
      </trkpt>
      <trkpt lat="57.907997025176883" lon="-5.174759030342102">
        <ele>46.759999999999998</ele>
        <time>2019-09-03T15:17:30Z</time>
      </trkpt>
      <trkpt lat="57.90762503631413" lon="-5.172345964238048">
        <ele>43.880000000000003</ele>
        <time>2019-09-03T15:17:38Z</time>
      </trkpt>
      <trkpt lat="57.907560998573899" lon="-5.170389963313937">
        <ele>38.109999999999999</ele>
        <time>2019-09-03T15:17:44Z</time>
      </trkpt>
      <trkpt lat="57.907534008845687" lon="-5.170057034119964">
        <ele>36.670000000000002</ele>
        <time>2019-09-03T15:17:45Z</time>
      </trkpt>
      <trkpt lat="57.90747701190412" lon="-5.169735001400113">
        <ele>35.710000000000001</ele>
        <time>2019-09-03T15:17:46Z</time>
      </trkpt>
      <trkpt lat="57.907383972778916" lon="-5.169419003650546">
        <ele>34.740000000000002</ele>
        <time>2019-09-03T15:17:47Z</time>
      </trkpt>
      <trkpt lat="57.907287999987602" lon="-5.169091019779444">
        <ele>33.780000000000001</ele>
        <time>2019-09-03T15:17:48Z</time>
      </trkpt>
      <trkpt lat="57.906529018655419" lon="-5.166503023356199">
        <ele>25.609999999999999</ele>
        <time>2019-09-03T15:17:57Z</time>
      </trkpt>
      <trkpt lat="57.906000958755612" lon="-5.164625979959965">
        <ele>20.809999999999999</ele>
        <time>2019-09-03T15:18:06Z</time>
      </trkpt>
      <trkpt lat="57.905486980453134" lon="-5.162712978199124">
        <ele>19.84</ele>
        <time>2019-09-03T15:18:17Z</time>
      </trkpt>
      <trkpt lat="57.904854984954" lon="-5.160397980362177">
        <ele>22.73</ele>
        <time>2019-09-03T15:18:29Z</time>
      </trkpt>
      <trkpt lat="57.904226006940007" lon="-5.158967021852732">
        <ele>24.170000000000002</ele>
        <time>2019-09-03T15:18:37Z</time>
      </trkpt>
      <trkpt lat="57.904114024713635" lon="-5.158845987170935">
        <ele>24.170000000000002</ele>
        <time>2019-09-03T15:18:38Z</time>
      </trkpt>
      <trkpt lat="57.90399600751698" lon="-5.158731993287802">
        <ele>24.170000000000002</ele>
        <time>2019-09-03T15:18:39Z</time>
      </trkpt>
      <trkpt lat="57.903742035850883" lon="-5.158585980534554">
        <ele>24.170000000000002</ele>
        <time>2019-09-03T15:18:41Z</time>
      </trkpt>
      <trkpt lat="57.903611026704311" lon="-5.158553961664438">
        <ele>24.649999999999999</ele>
        <time>2019-09-03T15:18:42Z</time>
      </trkpt>
      <trkpt lat="57.902667978778481" lon="-5.158283980563283">
        <ele>24.170000000000002</ele>
        <time>2019-09-03T15:18:49Z</time>
      </trkpt>
      <trkpt lat="57.902537975460291" lon="-5.158193958923221">
        <ele>24.170000000000002</ele>
        <time>2019-09-03T15:18:50Z</time>
      </trkpt>
      <trkpt lat="57.901413962244987" lon="-5.157446041703224">
        <ele>20.809999999999999</ele>
        <time>2019-09-03T15:18:58Z</time>
      </trkpt>
      <trkpt lat="57.9011370241642" lon="-5.157349985092878">
        <ele>19.84</ele>
        <time>2019-09-03T15:19:00Z</time>
      </trkpt>
      <trkpt lat="57.901001991704106" lon="-5.157306985929608">
        <ele>19.359999999999999</ele>
        <time>2019-09-03T15:19:01Z</time>
      </trkpt>
      <trkpt lat="57.900033965706825" lon="-5.157210007309914">
        <ele>20.809999999999999</ele>
        <time>2019-09-03T15:19:10Z</time>
      </trkpt>
      <trkpt lat="57.899264004081488" lon="-5.157043039798737">
        <ele>19.84</ele>
        <time>2019-09-03T15:19:18Z</time>
      </trkpt>
      <trkpt lat="57.898773998022079" lon="-5.156657975167036">
        <ele>17.920000000000002</ele>
        <time>2019-09-03T15:19:23Z</time>
      </trkpt>
      <trkpt lat="57.898690011352301" lon="-5.156588992103934">
        <ele>17.920000000000002</ele>
        <time>2019-09-03T15:19:24Z</time>
      </trkpt>
      <trkpt lat="57.897435994818807" lon="-5.155522981658578">
        <ele>16.48</ele>
        <time>2019-09-03T15:19:38Z</time>
      </trkpt>
      <trkpt lat="57.897069035097957" lon="-5.155230034142733">
        <ele>16</ele>
        <time>2019-09-03T15:19:42Z</time>
      </trkpt>
      <trkpt lat="57.896972978487611" lon="-5.155146969482303">
        <ele>15.52</ele>
        <time>2019-09-03T15:19:44Z</time>
      </trkpt>
      <trkpt lat="57.896938025951385" lon="-5.155116962268949">
        <ele>15.52</ele>
        <time>2019-09-03T15:19:45Z</time>
      </trkpt>
      <trkpt lat="57.896908018738031" lon="-5.155090978369117">
        <ele>15.039999999999999</ele>
        <time>2019-09-03T15:19:46Z</time>
      </trkpt>
      <trkpt lat="57.896816991269588" lon="-5.155014032498002">
        <ele>14.08</ele>
        <time>2019-09-03T15:19:55Z</time>
      </trkpt>
      <trkpt lat="57.896640971302986" lon="-5.15486198477447">
        <ele>11.67</ele>
        <time>2019-09-03T15:20:08Z</time>
      </trkpt>
      <trkpt lat="57.89662697352469" lon="-5.15490498393774">
        <ele>11.19</ele>
        <time>2019-09-03T15:20:09Z</time>
      </trkpt>
      <trkpt lat="57.896615993231535" lon="-5.154939014464617">
        <ele>11.19</ele>
        <time>2019-09-03T15:20:10Z</time>
      </trkpt>
      <trkpt lat="57.896603001281619" lon="-5.154976984485984">
        <ele>11.19</ele>
        <time>2019-09-03T15:20:11Z</time>
      </trkpt>
      <trkpt lat="57.896577017381787" lon="-5.155056025832892">
        <ele>11.19</ele>
        <time>2019-09-03T15:20:12Z</time>
      </trkpt>
      <trkpt lat="57.896579029038548" lon="-5.155047979205847">
        <ele>11.19</ele>
        <time>2019-09-03T15:20:13Z</time>
      </trkpt>
      <trkpt lat="57.896571988239884" lon="-5.155079998075962">
        <ele>11.19</ele>
        <time>2019-09-03T15:20:14Z</time>
      </trkpt>
      <trkpt lat="57.896563019603491" lon="-5.155124003067613">
        <ele>11.19</ele>
        <time>2019-09-03T15:20:15Z</time>
      </trkpt>
      <trkpt lat="57.896443996578455" lon="-5.155702019110322">
        <ele>10.23</ele>
        <time>2019-09-03T15:20:23Z</time>
      </trkpt>
      <trkpt lat="57.896423963829875" lon="-5.155797991901636">
        <ele>10.23</ele>
        <time>2019-09-03T15:20:24Z</time>
      </trkpt>
      <trkpt lat="57.896403009071946" lon="-5.155899999663234">
        <ele>9.75</ele>
        <time>2019-09-03T15:20:25Z</time>
      </trkpt>
      <trkpt lat="57.896314999088645" lon="-5.156326973810792">
        <ele>9.27</ele>
        <time>2019-09-03T15:20:29Z</time>
      </trkpt>
      <trkpt lat="57.896040994673967" lon="-5.157657014206052">
        <ele>11.19</ele>
        <time>2019-09-03T15:20:39Z</time>
      </trkpt>
      <trkpt lat="57.8957440238446" lon="-5.159004991874099">
        <ele>13.119999999999999</ele>
        <time>2019-09-03T15:20:48Z</time>
      </trkpt>
      <trkpt lat="57.895718039944768" lon="-5.159120997413993">
        <ele>13.119999999999999</ele>
        <time>2019-09-03T15:20:49Z</time>
      </trkpt>
      <trkpt lat="57.895623994991183" lon="-5.159537997096777">
        <ele>13.6</ele>
        <time>2019-09-03T15:20:53Z</time>
      </trkpt>
      <trkpt lat="57.895603962242603" lon="-5.159623995423317">
        <ele>13.6</ele>
        <time>2019-09-03T15:20:54Z</time>
      </trkpt>
      <trkpt lat="57.895588036626577" lon="-5.159698007628322">
        <ele>13.6</ele>
        <time>2019-09-03T15:20:55Z</time>
      </trkpt>
      <trkpt lat="57.895546965301037" lon="-5.159862041473389">
        <ele>14.08</ele>
        <time>2019-09-03T15:20:56Z</time>
      </trkpt>
      <trkpt lat="57.89550899527967" lon="-5.159824993461371">
        <ele>14.08</ele>
        <time>2019-09-03T15:20:57Z</time>
      </trkpt>
      <trkpt lat="57.895474964752793" lon="-5.159790962934494">
        <ele>14.08</ele>
        <time>2019-09-03T15:20:58Z</time>
      </trkpt>
      <trkpt lat="57.895441018044949" lon="-5.159757016226649">
        <ele>14.08</ele>
        <time>2019-09-03T15:20:59Z</time>
      </trkpt>
      <trkpt lat="57.895414028316736" lon="-5.159730026498437">
        <ele>14.08</ele>
        <time>2019-09-03T15:21:00Z</time>
      </trkpt>
      <trkpt lat="57.895393995568156" lon="-5.159708987921476">
        <ele>13.6</ele>
        <time>2019-09-03T15:21:01Z</time>
      </trkpt>
      <trkpt lat="57.895370023325086" lon="-5.159685015678406">
        <ele>13.6</ele>
        <time>2019-09-03T15:21:02Z</time>
      </trkpt>
      <trkpt lat="57.895370023325086" lon="-5.159685015678406">
        <ele>13.119999999999999</ele>
        <time>2019-09-03T15:21:03Z</time>
      </trkpt>
      <trkpt lat="57.895342027768493" lon="-5.159658025950193">
        <ele>13.119999999999999</ele>
        <time>2019-09-03T15:21:04Z</time>
      </trkpt>
      <trkpt lat="57.895326018333435" lon="-5.159642016515136">
        <ele>13.119999999999999</ele>
        <time>2019-09-03T15:21:05Z</time>
      </trkpt>
      <trkpt lat="57.895288970321417" lon="-5.159604968503118">
        <ele>13.119999999999999</ele>
        <time>2019-09-03T15:21:06Z</time>
      </trkpt>
      <trkpt lat="57.895288970321417" lon="-5.159604968503118">
        <ele>13.6</ele>
        <time>2019-09-03T15:21:07Z</time>
      </trkpt>
      <trkpt lat="57.895275978371501" lon="-5.159591976553202">
        <ele>13.6</ele>
        <time>2019-09-03T15:21:08Z</time>
      </trkpt>
      <trkpt lat="57.895262986421585" lon="-5.159577978774905">
        <ele>13.6</ele>
        <time>2019-09-03T15:21:09Z</time>
      </trkpt>
      <trkpt lat="57.895190985873342" lon="-5.159554006531835">
        <ele>13.6</ele>
        <time>2019-09-03T15:21:10Z</time>
      </trkpt>
      <trkpt lat="57.895257035270333" lon="-5.159689038991928">
        <ele>14.08</ele>
        <time>2019-09-03T15:21:11Z</time>
      </trkpt>
      <trkpt lat="57.895243959501386" lon="-5.159724997356534">
        <ele>14.08</ele>
        <time>2019-09-03T15:21:12Z</time>
      </trkpt>
      <trkpt lat="57.89523197337985" lon="-5.159757016226649">
        <ele>14.08</ele>
        <time>2019-09-03T15:21:13Z</time>
      </trkpt>
      <trkpt lat="57.895219987258315" lon="-5.159790040925145">
        <ele>14.08</ele>
        <time>2019-09-03T15:21:14Z</time>
      </trkpt>
      <trkpt lat="57.895200960338116" lon="-5.160263031721115">
        <ele>12.630000000000001</ele>
        <time>2019-09-03T15:21:30Z</time>
      </trkpt>
      <trkpt lat="57.895384021103382" lon="-5.160665027797222">
        <ele>11.67</ele>
        <time>2019-09-03T15:21:44Z</time>
      </trkpt>
      <trkpt lat="57.895457027480006" lon="-5.160724958404899">
        <ele>12.630000000000001</ele>
        <time>2019-09-03T15:22:00Z</time>
      </trkpt>
      <trkpt lat="57.895473036915064" lon="-5.160738034173846">
        <ele>12.630000000000001</ele>
        <time>2019-09-03T15:22:31Z</time>
      </trkpt>
      <trkpt lat="57.895503966137767" lon="-5.160763012245297">
        <ele>13.6</ele>
        <time>2019-09-03T15:22:37Z</time>
      </trkpt>
      <trkpt lat="57.895503966137767" lon="-5.160763012245297">
        <ele>12.630000000000001</ele>
        <time>2019-09-03T15:22:38Z</time>
      </trkpt>
      <trkpt lat="57.895503966137767" lon="-5.160763012245297">
        <ele>10.23</ele>
        <time>2019-09-03T15:22:42Z</time>
      </trkpt>
      <trkpt lat="57.895503966137767" lon="-5.160763012245297">
        <ele>9.27</ele>
        <time>2019-09-03T15:22:43Z</time>
      </trkpt>
      <trkpt lat="57.895503966137767" lon="-5.160763012245297">
        <ele>8.310000000000001</ele>
        <time>2019-09-03T15:22:44Z</time>
      </trkpt>
      <trkpt lat="57.895503966137767" lon="-5.160763012245297">
        <ele>7.83</ele>
        <time>2019-09-03T15:22:45Z</time>
      </trkpt>
      <trkpt lat="57.895348984748125" lon="-5.160394962877035">
        <ele>2.54</ele>
        <time>2019-09-03T15:22:54Z</time>
      </trkpt>
      <trkpt lat="57.895361976698041" lon="-5.160359004512429">
        <ele>2.06</ele>
        <time>2019-09-03T15:22:55Z</time>
      </trkpt>
      <trkpt lat="57.895383015275002" lon="-5.160305025056005">
        <ele>1.58</ele>
        <time>2019-09-03T15:22:56Z</time>
      </trkpt>
      <trkpt lat="57.895405981689692" lon="-5.160240987315774">
        <ele>1.1</ele>
        <time>2019-09-03T15:22:57Z</time>
      </trkpt>
      <trkpt lat="57.895429031923413" lon="-5.160178961232305">
        <ele>0.62</ele>
        <time>2019-09-03T15:22:58Z</time>
      </trkpt>
      <trkpt lat="57.895578984171152" lon="-5.159889031201601">
        <ele>-0.34</ele>
        <time>2019-09-03T15:23:03Z</time>
      </trkpt>
      <trkpt lat="57.89561502635479" lon="-5.159919038414955">
        <ele>-0.34</ele>
        <time>2019-09-03T15:23:04Z</time>
      </trkpt>
      <trkpt lat="57.896007969975471" lon="-5.160247022286058">
        <ele>0.62</ele>
        <time>2019-09-03T15:23:12Z</time>
      </trkpt>
      <trkpt lat="57.896062033250928" lon="-5.160291027277708">
        <ele>1.1</ele>
        <time>2019-09-03T15:23:13Z</time>
      </trkpt>
      <trkpt lat="57.896086005493999" lon="-5.160307958722115">
        <ele>1.1</ele>
        <time>2019-09-03T15:23:14Z</time>
      </trkpt>
      <trkpt lat="57.896235035732388" lon="-5.160411978140473">
        <ele>2.54</ele>
        <time>2019-09-03T15:23:19Z</time>
      </trkpt>
      <trkpt lat="57.896277029067278" lon="-5.160440979525447">
        <ele>3.02</ele>
        <time>2019-09-03T15:23:20Z</time>
      </trkpt>
      <trkpt lat="57.896729987114668" lon="-5.160755971446633">
        <ele>6.39</ele>
        <time>2019-09-03T15:23:30Z</time>
      </trkpt>
      <trkpt lat="57.896757982671261" lon="-5.160774998366833">
        <ele>6.39</ele>
        <time>2019-09-03T15:23:31Z</time>
      </trkpt>
      <trkpt lat="57.896845992654562" lon="-5.160741973668337">
        <ele>6.87</ele>
        <time>2019-09-03T15:23:32Z</time>
      </trkpt>
      <trkpt lat="57.896854961290956" lon="-5.160673996433616">
        <ele>7.35</ele>
        <time>2019-09-03T15:23:33Z</time>
      </trkpt>
      <trkpt lat="57.896865019574761" lon="-5.160599984228611">
        <ele>7.35</ele>
        <time>2019-09-03T15:23:34Z</time>
      </trkpt>
      <trkpt lat="57.896875999867916" lon="-5.160514991730452">
        <ele>7.83</ele>
        <time>2019-09-03T15:23:35Z</time>
      </trkpt>
      <trkpt lat="57.897031987085938" lon="-5.159363988786936">
        <ele>10.710000000000001</ele>
        <time>2019-09-03T15:23:44Z</time>
      </trkpt>
      <trkpt lat="57.897128965705633" lon="-5.158664016053081">
        <ele>12.15</ele>
        <time>2019-09-03T15:23:49Z</time>
      </trkpt>
      <trkpt lat="57.897215969860554" lon="-5.158034032210708">
        <ele>14.08</ele>
        <time>2019-09-03T15:23:54Z</time>
      </trkpt>
      <trkpt lat="57.89727296680212" lon="-5.157605968415737">
        <ele>14.56</ele>
        <time>2019-09-03T15:23:57Z</time>
      </trkpt>
      <trkpt lat="57.897498020902276" lon="-5.155942998826504">
        <ele>16</ele>
        <time>2019-09-03T15:24:08Z</time>
      </trkpt>
      <trkpt lat="57.897522998973727" lon="-5.155752981081605">
        <ele>16</ele>
        <time>2019-09-03T15:24:12Z</time>
      </trkpt>
      <trkpt lat="57.89753096178174" lon="-5.155695984140039">
        <ele>16</ele>
        <time>2019-09-03T15:24:16Z</time>
      </trkpt>
      <trkpt lat="57.897509001195431" lon="-5.155585007742047">
        <ele>16</ele>
        <time>2019-09-03T15:24:20Z</time>
      </trkpt>
      <trkpt lat="57.897469019517303" lon="-5.155550977215171">
        <ele>16</ele>
        <time>2019-09-03T15:24:21Z</time>
      </trkpt>
      <trkpt lat="57.897411016747355" lon="-5.155501021072269">
        <ele>15.52</ele>
        <time>2019-09-03T15:24:22Z</time>
      </trkpt>
      <trkpt lat="57.896823026239872" lon="-5.155018977820873">
        <ele>13.119999999999999</ele>
        <time>2019-09-03T15:24:29Z</time>
      </trkpt>
      <trkpt lat="57.8967559710145" lon="-5.154960975050926">
        <ele>12.15</ele>
        <time>2019-09-03T15:24:30Z</time>
      </trkpt>
      <trkpt lat="57.896695034578443" lon="-5.154909007251263">
        <ele>11.67</ele>
        <time>2019-09-03T15:24:31Z</time>
      </trkpt>
      <trkpt lat="57.896649017930031" lon="-5.154745979234576">
        <ele>11.19</ele>
        <time>2019-09-03T15:24:32Z</time>
      </trkpt>
      <trkpt lat="57.896654969081283" lon="-5.154650006443262">
        <ele>10.710000000000001</ele>
        <time>2019-09-03T15:24:33Z</time>
      </trkpt>
      <trkpt lat="57.896661004051566" lon="-5.154561996459961">
        <ele>10.23</ele>
        <time>2019-09-03T15:24:34Z</time>
      </trkpt>
      <trkpt lat="57.896666033193469" lon="-5.154479015618563">
        <ele>9.75</ele>
        <time>2019-09-03T15:24:35Z</time>
      </trkpt>
      <trkpt lat="57.896698974072933" lon="-5.15397903509438">
        <ele>6.87</ele>
        <time>2019-09-03T15:24:46Z</time>
      </trkpt>
      <trkpt lat="57.896698974072933" lon="-5.15397903509438">
        <ele>5.91</ele>
        <time>2019-09-03T15:25:03Z</time>
      </trkpt>
      <trkpt lat="57.896706014871597" lon="-5.153878033161163">
        <ele>5.91</ele>
        <time>2019-09-03T15:25:12Z</time>
      </trkpt>
      <trkpt lat="57.896709032356739" lon="-5.153833022341132">
        <ele>4.94</ele>
        <time>2019-09-03T15:25:13Z</time>
      </trkpt>
      <trkpt lat="57.896710960194468" lon="-5.153796980157495">
        <ele>4.94</ele>
        <time>2019-09-03T15:25:14Z</time>
      </trkpt>
      <trkpt lat="57.896710960194468" lon="-5.153796980157495">
        <ele>4.46</ele>
        <time>2019-09-03T15:25:30Z</time>
      </trkpt>
      <trkpt lat="57.896710960194468" lon="-5.153796980157495">
        <ele>3.02</ele>
        <time>2019-09-03T15:26:16Z</time>
      </trkpt>
      <trkpt lat="57.896710960194468" lon="-5.153796980157495">
        <ele>3.02</ele>
        <time>2019-09-03T15:26:48Z</time>
      </trkpt>
      <trkpt lat="57.896710960194468" lon="-5.153796980157495">
        <ele>2.54</ele>
        <time>2019-09-03T15:27:38Z</time>
      </trkpt>
      <trkpt lat="57.896710960194468" lon="-5.153796980157495">
        <ele>2.06</ele>
        <time>2019-09-03T15:28:28Z</time>
      </trkpt>
      <trkpt lat="57.896710960194468" lon="-5.153796980157495">
        <ele>1.58</ele>
        <time>2019-09-03T15:29:12Z</time>
      </trkpt>
      <trkpt lat="57.896710960194468" lon="-5.153796980157495">
        <ele>1.58</ele>
        <time>2019-09-03T15:30:02Z</time>
      </trkpt>
      <trkpt lat="57.896710960194468" lon="-5.153796980157495">
        <ele>1.58</ele>
        <time>2019-09-03T15:30:38Z</time>
      </trkpt>
      <trkpt lat="57.896710960194468" lon="-5.153796980157495">
        <ele>1.58</ele>
        <time>2019-09-03T15:31:30Z</time>
      </trkpt>
      <trkpt lat="57.896710960194468" lon="-5.153796980157495">
        <ele>1.58</ele>
        <time>2019-09-03T15:31:38Z</time>
      </trkpt>
      <trkpt lat="57.896710960194468" lon="-5.153796980157495">
        <ele>1.1</ele>
        <time>2019-09-03T15:31:52Z</time>
      </trkpt>
      <trkpt lat="57.896856972947717" lon="-5.153696984052658">
        <ele>11.67</ele>
        <time>2019-09-03T15:36:03Z</time>
      </trkpt>
      <trkpt lat="57.896848004311323" lon="-5.153518030419946">
        <ele>10.710000000000001</ele>
        <time>2019-09-03T15:36:05Z</time>
      </trkpt>
      <trkpt lat="57.896851021796465" lon="-5.153446029871702">
        <ele>4.46</ele>
        <time>2019-09-03T15:36:21Z</time>
      </trkpt>
      <trkpt lat="57.896854039281607" lon="-5.153487017378211">
        <ele>4.94</ele>
        <time>2019-09-03T15:37:00Z</time>
      </trkpt>
      <trkpt lat="57.896836018189788" lon="-5.153407976031303">
        <ele>8.789999999999999</ele>
        <time>2019-09-03T15:37:21Z</time>
      </trkpt>
      <trkpt lat="57.896744990721345" lon="-5.153293982148171">
        <ele>10.23</ele>
        <time>2019-09-03T15:37:30Z</time>
      </trkpt>
      <trkpt lat="57.896750019863248" lon="-5.153217036277056">
        <ele>10.23</ele>
        <time>2019-09-03T15:37:31Z</time>
      </trkpt>
      <trkpt lat="57.89675697684288" lon="-5.153113016858697">
        <ele>10.710000000000001</ele>
        <time>2019-09-03T15:37:32Z</time>
      </trkpt>
      <trkpt lat="57.896826965734363" lon="-5.151866963133216">
        <ele>11.67</ele>
        <time>2019-09-03T15:37:39Z</time>
      </trkpt>
      <trkpt lat="57.896808022633195" lon="-5.151642998680472">
        <ele>12.15</ele>
        <time>2019-09-03T15:37:40Z</time>
      </trkpt>
      <trkpt lat="57.896790001541376" lon="-5.151425991207361">
        <ele>12.15</ele>
        <time>2019-09-03T15:37:41Z</time>
      </trkpt>
      <trkpt lat="57.896769968792796" lon="-5.151192974299192">
        <ele>12.630000000000001</ele>
        <time>2019-09-03T15:37:42Z</time>
      </trkpt>
      <trkpt lat="57.896729987114668" lon="-5.151060037314892">
        <ele>13.119999999999999</ele>
        <time>2019-09-03T15:37:43Z</time>
      </trkpt>
      <trkpt lat="57.896683970466256" lon="-5.15090798959136">
        <ele>13.6</ele>
        <time>2019-09-03T15:37:44Z</time>
      </trkpt>
      <trkpt lat="57.896640971302986" lon="-5.150763988494873">
        <ele>14.08</ele>
        <time>2019-09-03T15:37:45Z</time>
      </trkpt>
      <trkpt lat="57.896151971071959" lon="-5.149745000526309">
        <ele>17.440000000000001</ele>
        <time>2019-09-03T15:37:52Z</time>
      </trkpt>
      <trkpt lat="57.896091034635901" lon="-5.149573003873229">
        <ele>17.440000000000001</ele>
        <time>2019-09-03T15:37:53Z</time>
      </trkpt>
      <trkpt lat="57.896034959703684" lon="-5.149388015270233">
        <ele>17.920000000000002</ele>
        <time>2019-09-03T15:37:54Z</time>
      </trkpt>
      <trkpt lat="57.89598198607564" lon="-5.149191040545702">
        <ele>17.920000000000002</ele>
        <time>2019-09-03T15:37:55Z</time>
      </trkpt>
      <trkpt lat="57.895936975255609" lon="-5.148977972567082">
        <ele>18.399999999999999</ele>
        <time>2019-09-03T15:37:56Z</time>
      </trkpt>
      <trkpt lat="57.895416961982846" lon="-5.146541018038988">
        <ele>21.77</ele>
        <time>2019-09-03T15:38:07Z</time>
      </trkpt>
      <trkpt lat="57.894983030855656" lon="-5.144744021818042">
        <ele>26.57</ele>
        <time>2019-09-03T15:38:15Z</time>
      </trkpt>
      <trkpt lat="57.894924022257328" lon="-5.144519973546267">
        <ele>27.530000000000001</ele>
        <time>2019-09-03T15:38:16Z</time>
      </trkpt>
      <trkpt lat="57.8944350220263" lon="-5.143608022481203">
        <ele>34.259999999999998</ele>
        <time>2019-09-03T15:38:21Z</time>
      </trkpt>
      <trkpt lat="57.894335025921464" lon="-5.143423033878207">
        <ele>35.710000000000001</ele>
        <time>2019-09-03T15:38:22Z</time>
      </trkpt>
      <trkpt lat="57.893581995740533" lon="-5.142600014805794">
        <ele>40.030000000000001</ele>
        <time>2019-09-03T15:38:28Z</time>
      </trkpt>
      <trkpt lat="57.89344503544271" lon="-5.142512004822493">
        <ele>40.030000000000001</ele>
        <time>2019-09-03T15:38:29Z</time>
      </trkpt>
      <trkpt lat="57.893304973840714" lon="-5.142440004274249">
        <ele>40.990000000000002</ele>
        <time>2019-09-03T15:38:30Z</time>
      </trkpt>
      <trkpt lat="57.891981974244118" lon="-5.141701977699995">
        <ele>46.280000000000001</ele>
        <time>2019-09-03T15:38:40Z</time>
      </trkpt>
      <trkpt lat="57.891849959269166" lon="-5.141602987423539">
        <ele>46.280000000000001</ele>
        <time>2019-09-03T15:38:41Z</time>
      </trkpt>
      <trkpt lat="57.891734959557652" lon="-5.141448006033897">
        <ele>46.280000000000001</ele>
        <time>2019-09-03T15:38:42Z</time>
      </trkpt>
      <trkpt lat="57.891634041443467" lon="-5.141250025480986">
        <ele>45.799999999999997</ele>
        <time>2019-09-03T15:38:43Z</time>
      </trkpt>
      <trkpt lat="57.891529016196728" lon="-5.141042992472649">
        <ele>45.32</ele>
        <time>2019-09-03T15:38:44Z</time>
      </trkpt>
      <trkpt lat="57.891421979293227" lon="-5.140832019969821">
        <ele>44.359999999999999</ele>
        <time>2019-09-03T15:38:45Z</time>
      </trkpt>
      <trkpt lat="57.89043802767992" lon="-5.139126973226667">
        <ele>39.07</ele>
        <time>2019-09-03T15:38:53Z</time>
      </trkpt>
      <trkpt lat="57.890290003269911" lon="-5.138970986008644">
        <ele>39.07</ele>
        <time>2019-09-03T15:38:54Z</time>
      </trkpt>
      <trkpt lat="57.890142984688282" lon="-5.138817010447383">
        <ele>38.590000000000003</ele>
        <time>2019-09-03T15:38:55Z</time>
      </trkpt>
      <trkpt lat="57.889361958950758" lon="-5.13799399137497">
        <ele>39.549999999999997</ele>
        <time>2019-09-03T15:39:01Z</time>
      </trkpt>
      <trkpt lat="57.889259029179811" lon="-5.137829035520554">
        <ele>39.549999999999997</ele>
        <time>2019-09-03T15:39:02Z</time>
      </trkpt>
      <trkpt lat="57.889164984226227" lon="-5.13764999806881">
        <ele>39.549999999999997</ele>
        <time>2019-09-03T15:39:03Z</time>
      </trkpt>
      <trkpt lat="57.889072028920054" lon="-5.137470960617065">
        <ele>39.07</ele>
        <time>2019-09-03T15:39:04Z</time>
      </trkpt>
      <trkpt lat="57.888990975916386" lon="-5.137269962579012">
        <ele>39.07</ele>
        <time>2019-09-03T15:39:05Z</time>
      </trkpt>
      <trkpt lat="57.888581017032266" lon="-5.136262038722634">
        <ele>35.710000000000001</ele>
        <time>2019-09-03T15:39:10Z</time>
      </trkpt>
      <trkpt lat="57.888479009270668" lon="-5.136079983785749">
        <ele>35.229999999999997</ele>
        <time>2019-09-03T15:39:11Z</time>
      </trkpt>
      <trkpt lat="57.888372978195548" lon="-5.135892983525991">
        <ele>34.259999999999998</ele>
        <time>2019-09-03T15:39:12Z</time>
      </trkpt>
      <trkpt lat="57.888238029554486" lon="-5.135740013793111">
        <ele>33.780000000000001</ele>
        <time>2019-09-03T15:39:13Z</time>
      </trkpt>
      <trkpt lat="57.88809796795249" lon="-5.135612022131681">
        <ele>32.82</ele>
        <time>2019-09-03T15:39:14Z</time>
      </trkpt>
      <trkpt lat="57.887953966856003" lon="-5.13548101298511">
        <ele>32.340000000000003</ele>
        <time>2019-09-03T15:39:15Z</time>
      </trkpt>
      <trkpt lat="57.886772034689784" lon="-5.134346019476652">
        <ele>28.98</ele>
        <time>2019-09-03T15:39:23Z</time>
      </trkpt>
      <trkpt lat="57.886316981166601" lon="-5.133616039529443">
        <ele>30.899999999999999</ele>
        <time>2019-09-03T15:39:27Z</time>
      </trkpt>
      <trkpt lat="57.886226959526539" lon="-5.133408000692725">
        <ele>31.859999999999999</ele>
        <time>2019-09-03T15:39:28Z</time>
      </trkpt>
      <trkpt lat="57.88614003919065" lon="-5.133179007098079">
        <ele>32.82</ele>
        <time>2019-09-03T15:39:29Z</time>
      </trkpt>
      <trkpt lat="57.886064015328884" lon="-5.132934004068375">
        <ele>33.780000000000001</ele>
        <time>2019-09-03T15:39:30Z</time>
      </trkpt>
      <trkpt lat="57.885990003123879" lon="-5.132693024352193">
        <ele>35.229999999999997</ele>
        <time>2019-09-03T15:39:31Z</time>
      </trkpt>
      <trkpt lat="57.885160027071834" lon="-5.13049503788352">
        <ele>43.880000000000003</ele>
        <time>2019-09-03T15:39:40Z</time>
      </trkpt>
      <trkpt lat="57.88502398878336" lon="-5.130279958248138">
        <ele>44.359999999999999</ele>
        <time>2019-09-03T15:39:41Z</time>
      </trkpt>
      <trkpt lat="57.883465960621834" lon="-5.128195965662599">
        <ele>44.359999999999999</ele>
        <time>2019-09-03T15:39:51Z</time>
      </trkpt>
      <trkpt lat="57.882647970691323" lon="-5.126712033525109">
        <ele>46.759999999999998</ele>
        <time>2019-09-03T15:39:58Z</time>
      </trkpt>
      <trkpt lat="57.881247019395232" lon="-5.124228978529573">
        <ele>47.240000000000002</ele>
        <time>2019-09-03T15:40:09Z</time>
      </trkpt>
      <trkpt lat="57.880272958427668" lon="-5.122286975383759">
        <ele>39.549999999999997</ele>
        <time>2019-09-03T15:40:17Z</time>
      </trkpt>
      <trkpt lat="57.879234021529555" lon="-5.119384992867708">
        <ele>31.859999999999999</ele>
        <time>2019-09-03T15:40:27Z</time>
      </trkpt>
      <trkpt lat="57.87804395891726" lon="-5.116032985970378">
        <ele>29.940000000000001</ele>
        <time>2019-09-03T15:40:38Z</time>
      </trkpt>
      <trkpt lat="57.877056989818811" lon="-5.113237034529448">
        <ele>33.780000000000001</ele>
        <time>2019-09-03T15:40:47Z</time>
      </trkpt>
      <trkpt lat="57.876091981306672" lon="-5.11036497540772">
        <ele>38.590000000000003</ele>
        <time>2019-09-03T15:40:56Z</time>
      </trkpt>
      <trkpt lat="57.875522011891007" lon="-5.10866898111999">
        <ele>39.549999999999997</ele>
        <time>2019-09-03T15:41:01Z</time>
      </trkpt>
      <trkpt lat="57.875405000522733" lon="-5.108320964500308">
        <ele>39.549999999999997</ele>
        <time>2019-09-03T15:41:02Z</time>
      </trkpt>
      <trkpt lat="57.874399004504085" lon="-5.105328038334847">
        <ele>40.030000000000001</ele>
        <time>2019-09-03T15:41:11Z</time>
      </trkpt>
      <trkpt lat="57.873328970745206" lon="-5.102197984233499">
        <ele>39.549999999999997</ele>
        <time>2019-09-03T15:41:21Z</time>
      </trkpt>
      <trkpt lat="57.872205963358283" lon="-5.099414018914104">
        <ele>38.590000000000003</ele>
        <time>2019-09-03T15:41:31Z</time>
      </trkpt>
      <trkpt lat="57.871342040598392" lon="-5.097347963601351">
        <ele>37.149999999999999</ele>
        <time>2019-09-03T15:41:38Z</time>
      </trkpt>
      <trkpt lat="57.87043402902782" lon="-5.096219005063176">
        <ele>37.149999999999999</ele>
        <time>2019-09-03T15:41:44Z</time>
      </trkpt>
      <trkpt lat="57.870105039328337" lon="-5.095951035618782">
        <ele>36.670000000000002</ele>
        <time>2019-09-03T15:41:46Z</time>
      </trkpt>
      <trkpt lat="57.868895027786493" lon="-5.095551973208785">
        <ele>31.859999999999999</ele>
        <time>2019-09-03T15:41:53Z</time>
      </trkpt>
      <trkpt lat="57.867995984852314" lon="-5.095393974334002">
        <ele>27.530000000000001</ele>
        <time>2019-09-03T15:41:58Z</time>
      </trkpt>
      <trkpt lat="57.867828011512756" lon="-5.095319040119648">
        <ele>26.57</ele>
        <time>2019-09-03T15:41:59Z</time>
      </trkpt>
      <trkpt lat="57.86766598932445" lon="-5.095191970467567">
        <ele>25.609999999999999</ele>
        <time>2019-09-03T15:42:00Z</time>
      </trkpt>
      <trkpt lat="57.867517964914441" lon="-5.095022991299629">
        <ele>24.649999999999999</ele>
        <time>2019-09-03T15:42:01Z</time>
      </trkpt>
      <trkpt lat="57.867379998788238" lon="-5.094834985211492">
        <ele>24.170000000000002</ele>
        <time>2019-09-03T15:42:02Z</time>
      </trkpt>
      <trkpt lat="57.867245972156525" lon="-5.094639016315341">
        <ele>23.210000000000001</ele>
        <time>2019-09-03T15:42:03Z</time>
      </trkpt>
      <trkpt lat="57.865992039442062" lon="-5.092663988471031">
        <ele>26.57</ele>
        <time>2019-09-03T15:42:13Z</time>
      </trkpt>
      <trkpt lat="57.8647830337286" lon="-5.090933963656426">
        <ele>29.460000000000001</ele>
        <time>2019-09-03T15:42:21Z</time>
      </trkpt>
      <trkpt lat="57.863015960901976" lon="-5.088924989104271">
        <ele>31.379999999999999</ele>
        <time>2019-09-03T15:42:31Z</time>
      </trkpt>
      <trkpt lat="57.861279984936118" lon="-5.087261013686657">
        <ele>38.590000000000003</ele>
        <time>2019-09-03T15:42:41Z</time>
      </trkpt>
      <trkpt lat="57.861116034910083" lon="-5.087128998711705">
        <ele>39.549999999999997</ele>
        <time>2019-09-03T15:42:42Z</time>
      </trkpt>
      <trkpt lat="57.860769024118781" lon="-5.086990026757121">
        <ele>40.990000000000002</ele>
        <time>2019-09-03T15:42:44Z</time>
      </trkpt>
      <trkpt lat="57.860599039122462" lon="-5.086966976523399">
        <ele>41.950000000000003</ele>
        <time>2019-09-03T15:42:45Z</time>
      </trkpt>
      <trkpt lat="57.860426958650351" lon="-5.086962031200528">
        <ele>42.920000000000002</ele>
        <time>2019-09-03T15:42:46Z</time>
      </trkpt>
      <trkpt lat="57.860256973654032" lon="-5.086955996230245">
        <ele>43.880000000000003</ele>
        <time>2019-09-03T15:42:47Z</time>
      </trkpt>
      <trkpt lat="57.860090006142855" lon="-5.086950967088342">
        <ele>45.32</ele>
        <time>2019-09-03T15:42:48Z</time>
      </trkpt>
      <trkpt lat="57.858043983578682" lon="-5.087265037000179">
        <ele>53.490000000000002</ele>
        <time>2019-09-03T15:43:00Z</time>
      </trkpt>
      <trkpt lat="57.856776975095272" lon="-5.087119024246931">
        <ele>59.740000000000002</ele>
        <time>2019-09-03T15:43:07Z</time>
      </trkpt>
      <trkpt lat="57.856622999534011" lon="-5.087019028142095">
        <ele>60.700000000000003</ele>
        <time>2019-09-03T15:43:08Z</time>
      </trkpt>
      <trkpt lat="57.856481010094285" lon="-5.086897993460298">
        <ele>61.659999999999997</ele>
        <time>2019-09-03T15:43:09Z</time>
      </trkpt>
      <trkpt lat="57.856358969584107" lon="-5.086715016514063">
        <ele>62.619999999999997</ele>
        <time>2019-09-03T15:43:10Z</time>
      </trkpt>
      <trkpt lat="57.856239024549723" lon="-5.086534973233938">
        <ele>63.100000000000001</ele>
        <time>2019-09-03T15:43:11Z</time>
      </trkpt>
      <trkpt lat="57.856121007353067" lon="-5.086351996287704">
        <ele>63.579999999999998</ele>
        <time>2019-09-03T15:43:12Z</time>
      </trkpt>
      <trkpt lat="57.856016987934709" lon="-5.086115961894393">
        <ele>64.069999999999993</ele>
        <time>2019-09-03T15:43:13Z</time>
      </trkpt>
      <trkpt lat="57.85591003485024" lon="-5.08587297052145">
        <ele>64.069999999999993</ele>
        <time>2019-09-03T15:43:14Z</time>
      </trkpt>
      <trkpt lat="57.854976961389184" lon="-5.084147974848747">
        <ele>62.140000000000001</ele>
        <time>2019-09-03T15:43:21Z</time>
      </trkpt>
      <trkpt lat="57.853432008996606" lon="-5.081929033622146">
        <ele>56.859999999999999</ele>
        <time>2019-09-03T15:43:30Z</time>
      </trkpt>
      <trkpt lat="57.852043965831399" lon="-5.080293975770474">
        <ele>50.130000000000003</ele>
        <time>2019-09-03T15:43:38Z</time>
      </trkpt>
      <trkpt lat="57.850849963724613" lon="-5.079053035005927">
        <ele>44.840000000000003</ele>
        <time>2019-09-03T15:43:45Z</time>
      </trkpt>
      <trkpt lat="57.84897300414741" lon="-5.078065982088447">
        <ele>38.590000000000003</ele>
        <time>2019-09-03T15:43:55Z</time>
      </trkpt>
      <trkpt lat="57.847488988190889" lon="-5.077483020722866">
        <ele>35.710000000000001</ele>
        <time>2019-09-03T15:44:03Z</time>
      </trkpt>
      <trkpt lat="57.844757996499538" lon="-5.077046994119883">
        <ele>32.82</ele>
        <time>2019-09-03T15:44:16Z</time>
      </trkpt>
      <trkpt lat="57.842217022553086" lon="-5.076425978913903">
        <ele>33.299999999999997</ele>
        <time>2019-09-03T15:44:29Z</time>
      </trkpt>
      <trkpt lat="57.840535026043653" lon="-5.075261984020472">
        <ele>30.899999999999999</ele>
        <time>2019-09-03T15:44:38Z</time>
      </trkpt>
      <trkpt lat="57.838269984349608" lon="-5.073760030791163">
        <ele>28.5</ele>
        <time>2019-09-03T15:44:50Z</time>
      </trkpt>
      <trkpt lat="57.835466992110014" lon="-5.072002010419965">
        <ele>26.57</ele>
        <time>2019-09-03T15:45:05Z</time>
      </trkpt>
      <trkpt lat="57.833818020299077" lon="-5.070871040225029">
        <ele>24.170000000000002</ele>
        <time>2019-09-03T15:45:14Z</time>
      </trkpt>
      <trkpt lat="57.832344984635711" lon="-5.069490037858486">
        <ele>26.57</ele>
        <time>2019-09-03T15:45:22Z</time>
      </trkpt>
      <trkpt lat="57.830097964033484" lon="-5.067079989239574">
        <ele>29.460000000000001</ele>
        <time>2019-09-03T15:45:34Z</time>
      </trkpt>
      <trkpt lat="57.828284958377481" lon="-5.065681971609592">
        <ele>26.09</ele>
        <time>2019-09-03T15:45:43Z</time>
      </trkpt>
      <trkpt lat="57.825754964724183" lon="-5.064603975042701">
        <ele>16</ele>
        <time>2019-09-03T15:45:55Z</time>
      </trkpt>
      <trkpt lat="57.82269598916173" lon="-5.063469987362623">
        <ele>19.84</ele>
        <time>2019-09-03T15:46:10Z</time>
      </trkpt>
      <trkpt lat="57.820719033479691" lon="-5.0629479624331">
        <ele>18.879999999999999</ele>
        <time>2019-09-03T15:46:20Z</time>
      </trkpt>
      <trkpt lat="57.81872296705842" lon="-5.062079010531306">
        <ele>16.960000000000001</ele>
        <time>2019-09-03T15:46:30Z</time>
      </trkpt>
      <trkpt lat="57.818545019254088" lon="-5.06191598251462">
        <ele>16.48</ele>
        <time>2019-09-03T15:46:31Z</time>
      </trkpt>
      <trkpt lat="57.818384002894163" lon="-5.061705010011792">
        <ele>16.48</ele>
        <time>2019-09-03T15:46:32Z</time>
      </trkpt>
      <trkpt lat="57.816733019426465" lon="-5.059407027438283">
        <ele>13.119999999999999</ele>
        <time>2019-09-03T15:46:42Z</time>
      </trkpt>
      <trkpt lat="57.816561022773385" lon="-5.059247016906738">
        <ele>12.630000000000001</ele>
        <time>2019-09-03T15:46:43Z</time>
      </trkpt>
      <trkpt lat="57.816369999200106" lon="-5.059177028015256">
        <ele>12.15</ele>
        <time>2019-09-03T15:46:44Z</time>
      </trkpt>
      <trkpt lat="57.816175036132336" lon="-5.059104021638632">
        <ele>12.15</ele>
        <time>2019-09-03T15:46:45Z</time>
      </trkpt>
      <trkpt lat="57.815974960103631" lon="-5.059033026918769">
        <ele>11.67</ele>
        <time>2019-09-03T15:46:46Z</time>
      </trkpt>
      <trkpt lat="57.815770022571087" lon="-5.05905800499022">
        <ele>11.67</ele>
        <time>2019-09-03T15:46:47Z</time>
      </trkpt>
      <trkpt lat="57.815571958199143" lon="-5.059081977233291">
        <ele>12.15</ele>
        <time>2019-09-03T15:46:48Z</time>
      </trkpt>
      <trkpt lat="57.814236972481012" lon="-5.059242993593216">
        <ele>13.6</ele>
        <time>2019-09-03T15:46:55Z</time>
      </trkpt>
      <trkpt lat="57.813861966133118" lon="-5.05912003107369">
        <ele>14.08</ele>
        <time>2019-09-03T15:46:57Z</time>
      </trkpt>
      <trkpt lat="57.813686029985547" lon="-5.059053981676698">
        <ele>14.56</ele>
        <time>2019-09-03T15:46:58Z</time>
      </trkpt>
      <trkpt lat="57.812137976288795" lon="-5.058097019791603">
        <ele>16</ele>
        <time>2019-09-03T15:47:06Z</time>
      </trkpt>
      <trkpt lat="57.811932032927871" lon="-5.058010015636683">
        <ele>16.48</ele>
        <time>2019-09-03T15:47:07Z</time>
      </trkpt>
      <trkpt lat="57.809773022308946" lon="-5.057367961853743">
        <ele>17.920000000000002</ele>
        <time>2019-09-03T15:47:17Z</time>
      </trkpt>
      <trkpt lat="57.807187037542462" lon="-5.056547960266471">
        <ele>17.920000000000002</ele>
        <time>2019-09-03T15:47:29Z</time>
      </trkpt>
      <trkpt lat="57.805586010217667" lon="-5.056055020540953">
        <ele>19.84</ele>
        <time>2019-09-03T15:47:37Z</time>
      </trkpt>
      <trkpt lat="57.804670035839081" lon="-5.055957958102226">
        <ele>18.879999999999999</ele>
        <time>2019-09-03T15:47:42Z</time>
      </trkpt>
      <trkpt lat="57.803267994895577" lon="-5.05632902495563">
        <ele>13.119999999999999</ele>
        <time>2019-09-03T15:47:50Z</time>
      </trkpt>
      <trkpt lat="57.802024958655238" lon="-5.055959969758987">
        <ele>10.710000000000001</ele>
        <time>2019-09-03T15:47:57Z</time>
      </trkpt>
      <trkpt lat="57.800666000694036" lon="-5.055316993966699">
        <ele>9.75</ele>
        <time>2019-09-03T15:48:04Z</time>
      </trkpt>
      <trkpt lat="57.798947962000966" lon="-5.053849993273616">
        <ele>10.23</ele>
        <time>2019-09-03T15:48:13Z</time>
      </trkpt>
      <trkpt lat="57.796885007992387" lon="-5.052013015374541">
        <ele>12.630000000000001</ele>
        <time>2019-09-03T15:48:24Z</time>
      </trkpt>
      <trkpt lat="57.79504400677979" lon="-5.050125997513533">
        <ele>15.52</ele>
        <time>2019-09-03T15:48:34Z</time>
      </trkpt>
      <trkpt lat="57.793698962777853" lon="-5.048511978238821">
        <ele>18.879999999999999</ele>
        <time>2019-09-03T15:48:42Z</time>
      </trkpt>
      <trkpt lat="57.79358203522861" lon="-5.048307962715626">
        <ele>19.84</ele>
        <time>2019-09-03T15:48:43Z</time>
      </trkpt>
      <trkpt lat="57.793464018031955" lon="-5.048102019354701">
        <ele>20.32</ele>
        <time>2019-09-03T15:48:44Z</time>
      </trkpt>
      <trkpt lat="57.793363016098738" lon="-5.047875037416816">
        <ele>20.809999999999999</ele>
        <time>2019-09-03T15:48:45Z</time>
      </trkpt>
      <trkpt lat="57.793279029428959" lon="-5.047637997195125">
        <ele>20.809999999999999</ele>
        <time>2019-09-03T15:48:46Z</time>
      </trkpt>
      <trkpt lat="57.792500015348196" lon="-5.045833960175514">
        <ele>20.32</ele>
        <time>2019-09-03T15:48:53Z</time>
      </trkpt>
      <trkpt lat="57.791419001296163" lon="-5.044375006109476">
        <ele>20.32</ele>
        <time>2019-09-03T15:49:00Z</time>
      </trkpt>
      <trkpt lat="57.789904978126287" lon="-5.043143033981323">
        <ele>21.77</ele>
        <time>2019-09-03T15:49:08Z</time>
      </trkpt>
      <trkpt lat="57.788042016327381" lon="-5.041681984439492">
        <ele>28.5</ele>
        <time>2019-09-03T15:49:18Z</time>
      </trkpt>
      <trkpt lat="57.785952994599938" lon="-5.040060002356768">
        <ele>38.109999999999999</ele>
        <time>2019-09-03T15:49:29Z</time>
      </trkpt>
      <trkpt lat="57.785756019875407" lon="-5.039910972118378">
        <ele>38.109999999999999</ele>
        <time>2019-09-03T15:49:30Z</time>
      </trkpt>
      <trkpt lat="57.784612979739904" lon="-5.038973959162831">
        <ele>38.590000000000003</ele>
        <time>2019-09-03T15:49:36Z</time>
      </trkpt>
      <trkpt lat="57.78292503207922" lon="-5.037636961787939">
        <ele>37.149999999999999</ele>
        <time>2019-09-03T15:49:45Z</time>
      </trkpt>
      <trkpt lat="57.781529026106" lon="-5.037034973502159">
        <ele>35.229999999999997</ele>
        <time>2019-09-03T15:49:52Z</time>
      </trkpt>
      <trkpt lat="57.779517034068704" lon="-5.03637095913291">
        <ele>34.740000000000002</ele>
        <time>2019-09-03T15:50:02Z</time>
      </trkpt>
      <trkpt lat="57.77789899148047" lon="-5.03591800108552">
        <ele>36.670000000000002</ele>
        <time>2019-09-03T15:50:10Z</time>
      </trkpt>
      <trkpt lat="57.776456968858838" lon="-5.035873996093869">
        <ele>38.590000000000003</ele>
        <time>2019-09-03T15:50:17Z</time>
      </trkpt>
      <trkpt lat="57.774623008444905" lon="-5.036140959709883">
        <ele>40.990000000000002</ele>
        <time>2019-09-03T15:50:26Z</time>
      </trkpt>
      <trkpt lat="57.77299901470542" lon="-5.036303987726569">
        <ele>43.399999999999999</ele>
        <time>2019-09-03T15:50:34Z</time>
      </trkpt>
      <trkpt lat="57.771378038451076" lon="-5.036426028236747">
        <ele>47.240000000000002</ele>
        <time>2019-09-03T15:50:42Z</time>
      </trkpt>
      <trkpt lat="57.769560003653169" lon="-5.036544967442751">
        <ele>50.130000000000003</ele>
        <time>2019-09-03T15:50:51Z</time>
      </trkpt>
      <trkpt lat="57.768356027081609" lon="-5.03630499355495">
        <ele>54.450000000000003</ele>
        <time>2019-09-03T15:50:58Z</time>
      </trkpt>
      <trkpt lat="57.766958009451628" lon="-5.035655982792378">
        <ele>62.619999999999997</ele>
        <time>2019-09-03T15:51:06Z</time>
      </trkpt>
      <trkpt lat="57.76528799906373" lon="-5.034788958728313">
        <ele>71.760000000000005</ele>
        <time>2019-09-03T15:51:15Z</time>
      </trkpt>
      <trkpt lat="57.76406398974359" lon="-5.033420026302338">
        <ele>80.890000000000001</ele>
        <time>2019-09-03T15:51:22Z</time>
      </trkpt>
      <trkpt lat="57.762643005698919" lon="-5.031353970989585">
        <ele>92.420000000000002</ele>
        <time>2019-09-03T15:51:31Z</time>
      </trkpt>
      <trkpt lat="57.761284969747066" lon="-5.029463013634086">
        <ele>103</ele>
        <time>2019-09-03T15:51:39Z</time>
      </trkpt>
      <trkpt lat="57.760285008698702" lon="-5.027680015191436">
        <ele>119.34</ele>
        <time>2019-09-03T15:51:46Z</time>
      </trkpt>
      <trkpt lat="57.759338021278381" lon="-5.025424025952816">
        <ele>140.49000000000001</ele>
        <time>2019-09-03T15:51:54Z</time>
      </trkpt>
      <trkpt lat="57.759031997993588" lon="-5.024990011006594">
        <ele>143.84999999999999</ele>
        <time>2019-09-03T15:51:56Z</time>
      </trkpt>
      <trkpt lat="57.75886201299727" lon="-5.024790018796921">
        <ele>145.30000000000001</ele>
        <time>2019-09-03T15:51:57Z</time>
      </trkpt>
      <trkpt lat="57.758320961147547" lon="-5.024330019950867">
        <ele>149.13999999999999</ele>
        <time>2019-09-03T15:52:00Z</time>
      </trkpt>
      <trkpt lat="57.758149970322847" lon="-5.024184007197619">
        <ele>150.58000000000001</ele>
        <time>2019-09-03T15:52:01Z</time>
      </trkpt>
      <trkpt lat="57.756862007081509" lon="-5.021893987432122">
        <ele>159.24000000000001</ele>
        <time>2019-09-03T15:52:10Z</time>
      </trkpt>
      <trkpt lat="57.755479998886585" lon="-5.018889997154474">
        <ele>169.33000000000001</ele>
        <time>2019-09-03T15:52:19Z</time>
      </trkpt>
      <trkpt lat="57.754396973177791" lon="-5.016320021823049">
        <ele>172.69</ele>
        <time>2019-09-03T15:52:27Z</time>
      </trkpt>
      <trkpt lat="57.753353007137775" lon="-5.013313014060259">
        <ele>183.27000000000001</ele>
        <time>2019-09-03T15:52:37Z</time>
      </trkpt>
      <trkpt lat="57.752899965271354" lon="-5.011552982032299">
        <ele>189.03999999999999</ele>
        <time>2019-09-03T15:52:44Z</time>
      </trkpt>
      <trkpt lat="57.752759987488389" lon="-5.010724011808634">
        <ele>191.44</ele>
        <time>2019-09-03T15:52:49Z</time>
      </trkpt>
      <trkpt lat="57.752744983881712" lon="-5.010637007653713">
        <ele>191.44</ele>
        <time>2019-09-03T15:52:50Z</time>
      </trkpt>
      <trkpt lat="57.752734003588557" lon="-5.010570958256722">
        <ele>191.44</ele>
        <time>2019-09-03T15:52:51Z</time>
      </trkpt>
      <trkpt lat="57.752692010253668" lon="-5.010551009327173">
        <ele>191.44</ele>
        <time>2019-09-03T15:52:52Z</time>
      </trkpt>
      <trkpt lat="57.752665020525455" lon="-5.010581016540527">
        <ele>191.44</ele>
        <time>2019-09-03T15:52:53Z</time>
      </trkpt>
      <trkpt lat="57.752630989998579" lon="-5.010616974905133">
        <ele>191.44</ele>
        <time>2019-09-03T15:52:54Z</time>
      </trkpt>
      <trkpt lat="57.75258899666369" lon="-5.010661985725164">
        <ele>190.96000000000001</ele>
        <time>2019-09-03T15:52:55Z</time>
      </trkpt>
      <trkpt lat="57.752534011378884" lon="-5.010722000151873">
        <ele>190.96000000000001</ele>
        <time>2019-09-03T15:52:56Z</time>
      </trkpt>
      <trkpt lat="57.752329995855689" lon="-5.011048978194594">
        <ele>190.47999999999999</ele>
        <time>2019-09-03T15:52:59Z</time>
      </trkpt>
      <trkpt lat="57.752274004742503" lon="-5.011160038411617">
        <ele>190</ele>
        <time>2019-09-03T15:53:00Z</time>
      </trkpt>
      <trkpt lat="57.752249026671052" lon="-5.011379979550839">
        <ele>189.52000000000001</ele>
        <time>2019-09-03T15:53:01Z</time>
      </trkpt>
      <trkpt lat="57.75222497060895" lon="-5.01159698702395">
        <ele>189.03999999999999</ele>
        <time>2019-09-03T15:53:02Z</time>
      </trkpt>
      <trkpt lat="57.752198986709118" lon="-5.01183302141726">
        <ele>189.03999999999999</ele>
        <time>2019-09-03T15:53:03Z</time>
      </trkpt>
      <trkpt lat="57.752170991152525" lon="-5.012083975598216">
        <ele>188.08000000000001</ele>
        <time>2019-09-03T15:53:04Z</time>
      </trkpt>
      <trkpt lat="57.752155987545848" lon="-5.012351023033261">
        <ele>187.11000000000001</ele>
        <time>2019-09-03T15:53:05Z</time>
      </trkpt>
      <trkpt lat="57.75211600586772" lon="-5.015505971387029">
        <ele>182.78999999999999</ele>
        <time>2019-09-03T15:53:16Z</time>
      </trkpt>
      <trkpt lat="57.752401996403933" lon="-5.017071962356567">
        <ele>182.31</ele>
        <time>2019-09-03T15:53:22Z</time>
      </trkpt>
      <trkpt lat="57.752475002780557" lon="-5.017335992306471">
        <ele>182.31</ele>
        <time>2019-09-03T15:53:23Z</time>
      </trkpt>
      <trkpt lat="57.75338301435113" lon="-5.019467007368803">
        <ele>182.78999999999999</ele>
        <time>2019-09-03T15:53:31Z</time>
      </trkpt>
      <trkpt lat="57.753920964896679" lon="-5.020850021392107">
        <ele>182.31</ele>
        <time>2019-09-03T15:53:36Z</time>
      </trkpt>
      <trkpt lat="57.754365038126707" lon="-5.022170003503561">
        <ele>182.78999999999999</ele>
        <time>2019-09-03T15:53:41Z</time>
      </trkpt>
      <trkpt lat="57.754462016746402" lon="-5.022422969341278">
        <ele>182.78999999999999</ele>
        <time>2019-09-03T15:53:42Z</time>
      </trkpt>
      <trkpt lat="57.754592020064592" lon="-5.022625979036093">
        <ele>182.78999999999999</ele>
        <time>2019-09-03T15:53:43Z</time>
      </trkpt>
      <trkpt lat="57.754726968705654" lon="-5.02283301204443">
        <ele>182.31</ele>
        <time>2019-09-03T15:53:44Z</time>
      </trkpt>
      <trkpt lat="57.754883039742708" lon="-5.023000985383987">
        <ele>182.31</ele>
        <time>2019-09-03T15:53:45Z</time>
      </trkpt>
      <trkpt lat="57.755041038617492" lon="-5.023164013400674">
        <ele>182.31</ele>
        <time>2019-09-03T15:53:46Z</time>
      </trkpt>
      <trkpt lat="57.755193002521992" lon="-5.023322012275457">
        <ele>181.83000000000001</ele>
        <time>2019-09-03T15:53:47Z</time>
      </trkpt>
      <trkpt lat="57.755887024104595" lon="-5.024241004139185">
        <ele>180.87</ele>
        <time>2019-09-03T15:53:52Z</time>
      </trkpt>
      <trkpt lat="57.756785983219743" lon="-5.026320973411202">
        <ele>179.41999999999999</ele>
        <time>2019-09-03T15:53:59Z</time>
      </trkpt>
      <trkpt lat="57.757925000041723" lon="-5.02983801998198">
        <ele>178.94</ele>
        <time>2019-09-03T15:54:09Z</time>
      </trkpt>
      <trkpt lat="57.758808033540845" lon="-5.033150967210531">
        <ele>181.34999999999999</ele>
        <time>2019-09-03T15:54:19Z</time>
      </trkpt>
      <trkpt lat="57.758952034637332" lon="-5.033953031525016">
        <ele>181.83000000000001</ele>
        <time>2019-09-03T15:54:22Z</time>
      </trkpt>
      <trkpt lat="57.758990004658699" lon="-5.034214965999126">
        <ele>181.83000000000001</ele>
        <time>2019-09-03T15:54:23Z</time>
      </trkpt>
      <trkpt lat="57.758990004658699" lon="-5.034482013434172">
        <ele>182.31</ele>
        <time>2019-09-03T15:54:24Z</time>
      </trkpt>
      <trkpt lat="57.758990004658699" lon="-5.034747971221805">
        <ele>182.31</ele>
        <time>2019-09-03T15:54:25Z</time>
      </trkpt>
      <trkpt lat="57.758973995223641" lon="-5.03501501865685">
        <ele>182.78999999999999</ele>
        <time>2019-09-03T15:54:26Z</time>
      </trkpt>
      <trkpt lat="57.758947005495429" lon="-5.035300003364682">
        <ele>183.27000000000001</ele>
        <time>2019-09-03T15:54:27Z</time>
      </trkpt>
      <trkpt lat="57.758693033829331" lon="-5.037952959537506">
        <ele>184.71000000000001</ele>
        <time>2019-09-03T15:54:35Z</time>
      </trkpt>
      <trkpt lat="57.758186012506485" lon="-5.040411036461592">
        <ele>183.27000000000001</ele>
        <time>2019-09-03T15:54:43Z</time>
      </trkpt>
      <trkpt lat="57.75693099014461" lon="-5.043366998434067">
        <ele>183.75</ele>
        <time>2019-09-03T15:54:54Z</time>
      </trkpt>
      <trkpt lat="57.755835978314281" lon="-5.044607017189264">
        <ele>185.66999999999999</ele>
        <time>2019-09-03T15:55:01Z</time>
      </trkpt>
      <trkpt lat="57.75422397069633" lon="-5.046008974313736">
        <ele>186.15000000000001</ele>
        <time>2019-09-03T15:55:10Z</time>
      </trkpt>
      <trkpt lat="57.752234023064375" lon="-5.048166979104281">
        <ele>189.03999999999999</ele>
        <time>2019-09-03T15:55:21Z</time>
      </trkpt>
      <trkpt lat="57.751118978485465" lon="-5.049837995320559">
        <ele>195.28</ele>
        <time>2019-09-03T15:55:29Z</time>
      </trkpt>
      <trkpt lat="57.749868985265493" lon="-5.051864990964532">
        <ele>194.31999999999999</ele>
        <time>2019-09-03T15:55:37Z</time>
      </trkpt>
      <trkpt lat="57.74852997623384" lon="-5.054234974086285">
        <ele>195.28</ele>
        <time>2019-09-03T15:55:45Z</time>
      </trkpt>
      <trkpt lat="57.747205970808864" lon="-5.056276973336935">
        <ele>197.69</ele>
        <time>2019-09-03T15:55:53Z</time>
      </trkpt>
      <trkpt lat="57.745631011202931" lon="-5.057327980175614">
        <ele>199.61000000000001</ele>
        <time>2019-09-03T15:56:01Z</time>
      </trkpt>
      <trkpt lat="57.745322976261377" lon="-5.05766099318862">
        <ele>200.56999999999999</ele>
        <time>2019-09-03T15:56:03Z</time>
      </trkpt>
      <trkpt lat="57.745188027620316" lon="-5.057842964306474">
        <ele>200.56999999999999</ele>
        <time>2019-09-03T15:56:04Z</time>
      </trkpt>
      <trkpt lat="57.745076967403293" lon="-5.05806801840663">
        <ele>201.05000000000001</ele>
        <time>2019-09-03T15:56:05Z</time>
      </trkpt>
      <trkpt lat="57.744970014318824" lon="-5.058325007557869">
        <ele>201.53</ele>
        <time>2019-09-03T15:56:06Z</time>
      </trkpt>
      <trkpt lat="57.744860965758562" lon="-5.058595994487405">
        <ele>201.53</ele>
        <time>2019-09-03T15:56:07Z</time>
      </trkpt>
      <trkpt lat="57.744775973260403" lon="-5.05890897475183">
        <ele>202.00999999999999</ele>
        <time>2019-09-03T15:56:08Z</time>
      </trkpt>
      <trkpt lat="57.744687041267753" lon="-5.059233019128442">
        <ele>202.49000000000001</ele>
        <time>2019-09-03T15:56:09Z</time>
      </trkpt>
      <trkpt lat="57.743647014722228" lon="-5.062649985775352">
        <ele>206.81999999999999</ele>
        <time>2019-09-03T15:56:19Z</time>
      </trkpt>
      <trkpt lat="57.742289984598756" lon="-5.066306004300714">
        <ele>218.84</ele>
        <time>2019-09-03T15:56:30Z</time>
      </trkpt>
      <trkpt lat="57.741371998563409" lon="-5.069174040108919">
        <ele>227.97</ele>
        <time>2019-09-03T15:56:39Z</time>
      </trkpt>
      <trkpt lat="57.739946991205215" lon="-5.073313023895025">
        <ele>241.91</ele>
        <time>2019-09-03T15:56:52Z</time>
      </trkpt>
      <trkpt lat="57.739179963245988" lon="-5.074665024876595">
        <ele>249.59999999999999</ele>
        <time>2019-09-03T15:56:58Z</time>
      </trkpt>
      <trkpt lat="57.737841960042715" lon="-5.07659001275897">
        <ele>256.32999999999998</ele>
        <time>2019-09-03T15:57:08Z</time>
      </trkpt>
      <trkpt lat="57.736661033704877" lon="-5.078747011721134">
        <ele>260.64999999999998</ele>
        <time>2019-09-03T15:57:17Z</time>
      </trkpt>
      <trkpt lat="57.736052004620433" lon="-5.081440033391118">
        <ele>268.35000000000002</ele>
        <time>2019-09-03T15:57:25Z</time>
      </trkpt>
      <trkpt lat="57.735962988808751" lon="-5.08254200220108">
        <ele>271.23000000000002</ele>
        <time>2019-09-03T15:57:28Z</time>
      </trkpt>
      <trkpt lat="57.735948991030455" lon="-5.082920026034117">
        <ele>272.19</ele>
        <time>2019-09-03T15:57:29Z</time>
      </trkpt>
      <trkpt lat="57.736245961859822" lon="-5.085963997989893">
        <ele>277.48000000000002</ele>
        <time>2019-09-03T15:57:37Z</time>
      </trkpt>
      <trkpt lat="57.736846022307873" lon="-5.088679986074567">
        <ele>281.80000000000001</ele>
        <time>2019-09-03T15:57:45Z</time>
      </trkpt>
      <trkpt lat="57.737100999802351" lon="-5.089580034837127">
        <ele>283.73000000000002</ele>
        <time>2019-09-03T15:57:48Z</time>
      </trkpt>
      <trkpt lat="57.737229997292161" lon="-5.089799975976348">
        <ele>284.20999999999998</ele>
        <time>2019-09-03T15:57:49Z</time>
      </trkpt>
      <trkpt lat="57.737361006438732" lon="-5.09001798927784">
        <ele>284.69</ele>
        <time>2019-09-03T15:57:50Z</time>
      </trkpt>
      <trkpt lat="57.73750701919198" lon="-5.090209012851119">
        <ele>285.17000000000002</ele>
        <time>2019-09-03T15:57:51Z</time>
      </trkpt>
      <trkpt lat="57.737673986703157" lon="-5.090378997847438">
        <ele>286.13</ele>
        <time>2019-09-03T15:57:52Z</time>
      </trkpt>
      <trkpt lat="57.737843971699476" lon="-5.09055401198566">
        <ele>286.61000000000001</ele>
        <time>2019-09-03T15:57:53Z</time>
      </trkpt>
      <trkpt lat="57.73978496901691" lon="-5.092443963512778">
        <ele>290.45999999999998</ele>
        <time>2019-09-03T15:58:03Z</time>
      </trkpt>
      <trkpt lat="57.742525013163686" lon="-5.095144025981426">
        <ele>302.47000000000003</ele>
        <time>2019-09-03T15:58:17Z</time>
      </trkpt>
      <trkpt lat="57.742668008431792" lon="-5.095377964898944">
        <ele>302.94999999999999</ele>
        <time>2019-09-03T15:58:18Z</time>
      </trkpt>
      <trkpt lat="57.743853963911533" lon="-5.097547033801675">
        <ele>307.75999999999999</ele>
        <time>2019-09-03T15:58:26Z</time>
      </trkpt>
      <trkpt lat="57.745126001536846" lon="-5.099917016923428">
        <ele>307.27999999999997</ele>
        <time>2019-09-03T15:58:34Z</time>
      </trkpt>
      <trkpt lat="57.746997009962797" lon="-5.103406989946961">
        <ele>317.37</ele>
        <time>2019-09-03T15:58:46Z</time>
      </trkpt>
      <trkpt lat="57.748394021764398" lon="-5.105596007779241">
        <ele>323.62</ele>
        <time>2019-09-03T15:58:55Z</time>
      </trkpt>
      <trkpt lat="57.750606006011367" lon="-5.107791982591152">
        <ele>331.31</ele>
        <time>2019-09-03T15:59:07Z</time>
      </trkpt>
      <trkpt lat="57.752110976725817" lon="-5.109540028497577">
        <ele>335.63999999999999</ele>
        <time>2019-09-03T15:59:15Z</time>
      </trkpt>
      <trkpt lat="57.754034036770463" lon="-5.112089971080422">
        <ele>338.51999999999998</ele>
        <time>2019-09-03T15:59:26Z</time>
      </trkpt>
      <trkpt lat="57.755795996636152" lon="-5.114546958357096">
        <ele>342.37</ele>
        <time>2019-09-03T15:59:37Z</time>
      </trkpt>
      <trkpt lat="57.756548020988703" lon="-5.11640002951026">
        <ele>335.16000000000003</ele>
        <time>2019-09-03T15:59:43Z</time>
      </trkpt>
      <trkpt lat="57.757671028375626" lon="-5.119406031444669">
        <ele>330.35000000000002</ele>
        <time>2019-09-03T15:59:52Z</time>
      </trkpt>
      <trkpt lat="57.75778996758163" lon="-5.119658997282386">
        <ele>330.35000000000002</ele>
        <time>2019-09-03T15:59:53Z</time>
      </trkpt>
      <trkpt lat="57.757944026961923" lon="-5.119859995320439">
        <ele>330.82999999999998</ele>
        <time>2019-09-03T15:59:54Z</time>
      </trkpt>
      <trkpt lat="57.75957296602428" lon="-5.121983969584107">
        <ele>330.35000000000002</ele>
        <time>2019-09-03T16:00:04Z</time>
      </trkpt>
      <trkpt lat="57.760705025866628" lon="-5.123624978587031">
        <ele>327.94999999999999</ele>
        <time>2019-09-03T16:00:11Z</time>
      </trkpt>
      <trkpt lat="57.760835029184818" lon="-5.12392002157867">
        <ele>327.47000000000003</ele>
        <time>2019-09-03T16:00:12Z</time>
      </trkpt>
      <trkpt lat="57.760935025289655" lon="-5.12424498796463">
        <ele>327.47000000000003</ele>
        <time>2019-09-03T16:00:13Z</time>
      </trkpt>
      <trkpt lat="57.762059960514307" lon="-5.127357020974159">
        <ele>327.94999999999999</ele>
        <time>2019-09-03T16:00:23Z</time>
      </trkpt>
      <trkpt lat="57.763859974220395" lon="-5.130553962662816">
        <ele>327.94999999999999</ele>
        <time>2019-09-03T16:00:35Z</time>
      </trkpt>
      <trkpt lat="57.765496959909797" lon="-5.133949974551797">
        <ele>320.25999999999999</ele>
        <time>2019-09-03T16:00:47Z</time>
      </trkpt>
      <trkpt lat="57.766767991706729" lon="-5.13788502663374">
        <ele>309.68000000000001</ele>
        <time>2019-09-03T16:00:59Z</time>
      </trkpt>
      <trkpt lat="57.768011027947068" lon="-5.141816977411509">
        <ele>300.06999999999999</ele>
        <time>2019-09-03T16:01:11Z</time>
      </trkpt>
      <trkpt lat="57.769911959767342" lon="-5.145828975364566">
        <ele>289.49000000000001</ele>
        <time>2019-09-03T16:01:25Z</time>
      </trkpt>
      <trkpt lat="57.770080016925931" lon="-5.146036008372903">
        <ele>289.00999999999999</ele>
        <time>2019-09-03T16:01:26Z</time>
      </trkpt>
      <trkpt lat="57.772480007261038" lon="-5.148998005315661">
        <ele>282.76999999999998</ele>
        <time>2019-09-03T16:01:40Z</time>
      </trkpt>
      <trkpt lat="57.774788970127702" lon="-5.151848020032048">
        <ele>281.80000000000001</ele>
        <time>2019-09-03T16:01:53Z</time>
      </trkpt>
      <trkpt lat="57.776687974110246" lon="-5.154192019253969">
        <ele>281.31999999999999</ele>
        <time>2019-09-03T16:02:03Z</time>
      </trkpt>
      <trkpt lat="57.779456013813615" lon="-5.157606974244118">
        <ele>277.48000000000002</ele>
        <time>2019-09-03T16:02:18Z</time>
      </trkpt>
      <trkpt lat="57.781548975035548" lon="-5.159985003992915">
        <ele>276.04000000000002</ele>
        <time>2019-09-03T16:02:30Z</time>
      </trkpt>
      <trkpt lat="57.782923020422459" lon="-5.161591982468963">
        <ele>277</ele>
        <time>2019-09-03T16:02:38Z</time>
      </trkpt>
      <trkpt lat="57.784374011680484" lon="-5.164003036916256">
        <ele>274.58999999999997</ele>
        <time>2019-09-03T16:02:48Z</time>
      </trkpt>
      <trkpt lat="57.784810038283467" lon="-5.164605025202036">
        <ele>271.23000000000002</ele>
        <time>2019-09-03T16:02:51Z</time>
      </trkpt>
      <trkpt lat="57.78496996499598" lon="-5.164726981893182">
        <ele>269.79000000000002</ele>
        <time>2019-09-03T16:02:52Z</time>
      </trkpt>
      <trkpt lat="57.785135004669428" lon="-5.164842987433076">
        <ele>268.82999999999998</ele>
        <time>2019-09-03T16:02:53Z</time>
      </trkpt>
      <trkpt lat="57.785303983837366" lon="-5.164948012679815">
        <ele>267.38</ele>
        <time>2019-09-03T16:02:54Z</time>
      </trkpt>
      <trkpt lat="57.785481009632349" lon="-5.165026970207691">
        <ele>266.42000000000002</ele>
        <time>2019-09-03T16:02:55Z</time>
      </trkpt>
      <trkpt lat="57.786221969872713" lon="-5.165285971015692">
        <ele>261.62</ele>
        <time>2019-09-03T16:02:59Z</time>
      </trkpt>
      <trkpt lat="57.786388015374541" lon="-5.165269961580634">
        <ele>260.64999999999998</ele>
        <time>2019-09-03T16:03:00Z</time>
      </trkpt>
      <trkpt lat="57.786541990935802" lon="-5.165248000994325">
        <ele>259.20999999999998</ele>
        <time>2019-09-03T16:03:01Z</time>
      </trkpt>
      <trkpt lat="57.786691021174192" lon="-5.16513098962605">
        <ele>258.25</ele>
        <time>2019-09-03T16:03:02Z</time>
      </trkpt>
      <trkpt lat="57.786843990907073" lon="-5.165010960772634">
        <ele>257.29000000000002</ele>
        <time>2019-09-03T16:03:03Z</time>
      </trkpt>
      <trkpt lat="57.787001989781857" lon="-5.164885986596346">
        <ele>256.32999999999998</ele>
        <time>2019-09-03T16:03:04Z</time>
      </trkpt>
      <trkpt lat="57.787815034389496" lon="-5.164353987202048">
        <ele>252</ele>
        <time>2019-09-03T16:03:09Z</time>
      </trkpt>
      <trkpt lat="57.787991976365447" lon="-5.164347030222416">
        <ele>251.03999999999999</ele>
        <time>2019-09-03T16:03:10Z</time>
      </trkpt>
      <trkpt lat="57.78816900216043" lon="-5.164347030222416">
        <ele>250.08000000000001</ele>
        <time>2019-09-03T16:03:11Z</time>
      </trkpt>
      <trkpt lat="57.790174037218094" lon="-5.164418024942279">
        <ele>236.13999999999999</ele>
        <time>2019-09-03T16:03:21Z</time>
      </trkpt>
      <trkpt lat="57.790798991918564" lon="-5.164374019950628">
        <ele>231.81</ele>
        <time>2019-09-03T16:03:24Z</time>
      </trkpt>
      <trkpt lat="57.790993032976985" lon="-5.164264971390367">
        <ele>230.37</ele>
        <time>2019-09-03T16:03:25Z</time>
      </trkpt>
      <trkpt lat="57.791186990216374" lon="-5.164138991385698">
        <ele>228.44999999999999</ele>
        <time>2019-09-03T16:03:26Z</time>
      </trkpt>
      <trkpt lat="57.79274401254952" lon="-5.163339022547007">
        <ele>217.40000000000001</ele>
        <time>2019-09-03T16:03:34Z</time>
      </trkpt>
      <trkpt lat="57.793557979166508" lon="-5.163058983162046">
        <ele>214.99000000000001</ele>
        <time>2019-09-03T16:03:38Z</time>
      </trkpt>
      <trkpt lat="57.793735004961491" lon="-5.162951024249196">
        <ele>214.03</ele>
        <time>2019-09-03T16:03:39Z</time>
      </trkpt>
      <trkpt lat="57.793919993564487" lon="-5.16280903480947">
        <ele>213.55000000000001</ele>
        <time>2019-09-03T16:03:40Z</time>
      </trkpt>
      <trkpt lat="57.796428026631474" lon="-5.160178039222956">
        <ele>204.90000000000001</ele>
        <time>2019-09-03T16:03:54Z</time>
      </trkpt>
      <trkpt lat="57.798542026430368" lon="-5.157212018966675">
        <ele>194.80000000000001</ele>
        <time>2019-09-03T16:04:07Z</time>
      </trkpt>
      <trkpt lat="57.800145987421274" lon="-5.154716977849603">
        <ele>189.03999999999999</ele>
        <time>2019-09-03T16:04:18Z</time>
      </trkpt>
      <trkpt lat="57.801566971465945" lon="-5.152759971097112">
        <ele>177.5</ele>
        <time>2019-09-03T16:04:28Z</time>
      </trkpt>
      <trkpt lat="57.803342007100582" lon="-5.151112005114555">
        <ele>165</ele>
        <time>2019-09-03T16:04:38Z</time>
      </trkpt>
      <trkpt lat="57.803515009582043" lon="-5.151043022051454">
        <ele>163.56</ele>
        <time>2019-09-03T16:04:39Z</time>
      </trkpt>
      <trkpt lat="57.803693963214755" lon="-5.15097102150321">
        <ele>162.12</ele>
        <time>2019-09-03T16:04:40Z</time>
      </trkpt>
      <trkpt lat="57.805438991636038" lon="-5.150833977386355">
        <ele>150.09999999999999</ele>
        <time>2019-09-03T16:04:49Z</time>
      </trkpt>
      <trkpt lat="57.806525034829974" lon="-5.151028018444777">
        <ele>145.30000000000001</ele>
        <time>2019-09-03T16:04:55Z</time>
      </trkpt>
      <trkpt lat="57.806692002341151" lon="-5.151118040084839">
        <ele>144.81999999999999</ele>
        <time>2019-09-03T16:04:56Z</time>
      </trkpt>
      <trkpt lat="57.806855030357838" lon="-5.151258017867804">
        <ele>144.34</ele>
        <time>2019-09-03T16:04:57Z</time>
      </trkpt>
      <trkpt lat="57.807802017778158" lon="-5.152250016108155">
        <ele>140.49000000000001</ele>
        <time>2019-09-03T16:05:03Z</time>
      </trkpt>
      <trkpt lat="57.807935960590839" lon="-5.152450008317828">
        <ele>140.00999999999999</ele>
        <time>2019-09-03T16:05:04Z</time>
      </trkpt>
      <trkpt lat="57.808041991665959" lon="-5.152683025225997">
        <ele>139.05000000000001</ele>
        <time>2019-09-03T16:05:05Z</time>
      </trkpt>
      <trkpt lat="57.808134024962783" lon="-5.152975972741842">
        <ele>138.56999999999999</ele>
        <time>2019-09-03T16:05:06Z</time>
      </trkpt>
      <trkpt lat="57.808228991925716" lon="-5.153280990198255">
        <ele>137.61000000000001</ele>
        <time>2019-09-03T16:05:07Z</time>
      </trkpt>
      <trkpt lat="57.808327982202172" lon="-5.153595982119441">
        <ele>136.63999999999999</ele>
        <time>2019-09-03T16:05:08Z</time>
      </trkpt>
      <trkpt lat="57.808937011286616" lon="-5.155529016628861">
        <ele>131.36000000000001</ele>
        <time>2019-09-03T16:05:14Z</time>
      </trkpt>
      <trkpt lat="57.809063997119665" lon="-5.155816012993455">
        <ele>130.88</ele>
        <time>2019-09-03T16:05:15Z</time>
      </trkpt>
      <trkpt lat="57.809202969074249" lon="-5.156079959124327">
        <ele>130.40000000000001</ele>
        <time>2019-09-03T16:05:16Z</time>
      </trkpt>
      <trkpt lat="57.809359962120652" lon="-5.15632001683116">
        <ele>129.91999999999999</ele>
        <time>2019-09-03T16:05:17Z</time>
      </trkpt>
      <trkpt lat="57.809519972652197" lon="-5.156564014032483">
        <ele>129.91999999999999</ele>
        <time>2019-09-03T16:05:18Z</time>
      </trkpt>
      <trkpt lat="57.810681033879519" lon="-5.158337960019708">
        <ele>127.98999999999999</ele>
        <time>2019-09-03T16:05:25Z</time>
      </trkpt>
      <trkpt lat="57.81133096665144" lon="-5.159559035673738">
        <ele>127.98999999999999</ele>
        <time>2019-09-03T16:05:30Z</time>
      </trkpt>
      <trkpt lat="57.811433980241418" lon="-5.159813007339835">
        <ele>127.98999999999999</ele>
        <time>2019-09-03T16:05:31Z</time>
      </trkpt>
      <trkpt lat="57.811495000496507" lon="-5.160127999261022">
        <ele>128.47</ele>
        <time>2019-09-03T16:05:32Z</time>
      </trkpt>
      <trkpt lat="57.81154302880168" lon="-5.160439973697066">
        <ele>128.47</ele>
        <time>2019-09-03T16:05:33Z</time>
      </trkpt>
      <trkpt lat="57.811590973287821" lon="-5.160751026123762">
        <ele>128.47</ele>
        <time>2019-09-03T16:05:34Z</time>
      </trkpt>
      <trkpt lat="57.811626009643078" lon="-5.161083033308387">
        <ele>127.98999999999999</ele>
        <time>2019-09-03T16:05:35Z</time>
      </trkpt>
      <trkpt lat="57.811644030734897" lon="-5.162770980969071">
        <ele>123.67</ele>
        <time>2019-09-03T16:05:40Z</time>
      </trkpt>
      <trkpt lat="57.81191099435091" lon="-5.165180023759604">
        <ele>114.05</ele>
        <time>2019-09-03T16:05:47Z</time>
      </trkpt>
      <trkpt lat="57.811975032091141" lon="-5.166306970641017">
        <ele>107.81</ele>
        <time>2019-09-03T16:05:51Z</time>
      </trkpt>
      <trkpt lat="57.811962962150574" lon="-5.166621040552855">
        <ele>105.88</ele>
        <time>2019-09-03T16:05:52Z</time>
      </trkpt>
      <trkpt lat="57.811879981309175" lon="-5.170467998832464">
        <ele>87.620000000000005</ele>
        <time>2019-09-03T16:06:04Z</time>
      </trkpt>
      <trkpt lat="57.812126995995641" lon="-5.172724993899465">
        <ele>75.120000000000005</ele>
        <time>2019-09-03T16:06:11Z</time>
      </trkpt>
      <trkpt lat="57.812197990715504" lon="-5.172987012192607">
        <ele>73.200000000000003</ele>
        <time>2019-09-03T16:06:12Z</time>
      </trkpt>
      <trkpt lat="57.812291029840708" lon="-5.173220029100776">
        <ele>71.760000000000005</ele>
        <time>2019-09-03T16:06:13Z</time>
      </trkpt>
      <trkpt lat="57.812395971268415" lon="-5.173438964411616">
        <ele>69.829999999999998</ele>
        <time>2019-09-03T16:06:14Z</time>
      </trkpt>
      <trkpt lat="57.812525974586606" lon="-5.173630993813276">
        <ele>68.390000000000001</ele>
        <time>2019-09-03T16:06:15Z</time>
      </trkpt>
      <trkpt lat="57.812658995389938" lon="-5.173825034871697">
        <ele>67.430000000000007</ele>
        <time>2019-09-03T16:06:16Z</time>
      </trkpt>
      <trkpt lat="57.813573963940144" lon="-5.175109980627894">
        <ele>61.18</ele>
        <time>2019-09-03T16:06:22Z</time>
      </trkpt>
      <trkpt lat="57.814271003007889" lon="-5.175709035247564">
        <ele>57.82</ele>
        <time>2019-09-03T16:06:26Z</time>
      </trkpt>
      <trkpt lat="57.815870018675923" lon="-5.176380006596446">
        <ele>51.57</ele>
        <time>2019-09-03T16:06:34Z</time>
      </trkpt>
      <trkpt lat="57.817828031256795" lon="-5.177151979878545">
        <ele>46.759999999999998</ele>
        <time>2019-09-03T16:06:44Z</time>
      </trkpt>
      <trkpt lat="57.819485971704125" lon="-5.177885983139277">
        <ele>42.439999999999998</ele>
        <time>2019-09-03T16:06:53Z</time>
      </trkpt>
      <trkpt lat="57.820518035441637" lon="-5.178625015541911">
        <ele>37.149999999999999</ele>
        <time>2019-09-03T16:07:00Z</time>
      </trkpt>
      <trkpt lat="57.820774018764496" lon="-5.178848979994655">
        <ele>36.189999999999998</ele>
        <time>2019-09-03T16:07:02Z</time>
      </trkpt>
      <trkpt lat="57.820889018476009" lon="-5.178979989141226">
        <ele>35.229999999999997</ele>
        <time>2019-09-03T16:07:03Z</time>
      </trkpt>
      <trkpt lat="57.820997983217239" lon="-5.179105969145894">
        <ele>34.740000000000002</ele>
        <time>2019-09-03T16:07:04Z</time>
      </trkpt>
      <trkpt lat="57.821193030104041" lon="-5.179400006309152">
        <ele>33.780000000000001</ele>
        <time>2019-09-03T16:07:06Z</time>
      </trkpt>
      <trkpt lat="57.821278022602201" lon="-5.179592035710812">
        <ele>32.82</ele>
        <time>2019-09-03T16:07:07Z</time>
      </trkpt>
      <trkpt lat="57.821529982611537" lon="-5.180232999846339">
        <ele>30.420000000000002</ele>
        <time>2019-09-03T16:07:10Z</time>
      </trkpt>
      <trkpt lat="57.821795018389821" lon="-5.180943030864">
        <ele>27.050000000000001</ele>
        <time>2019-09-03T16:07:13Z</time>
      </trkpt>
      <trkpt lat="57.821894008666277" lon="-5.181169006973505">
        <ele>26.09</ele>
        <time>2019-09-03T16:07:14Z</time>
      </trkpt>
      <trkpt lat="57.822012025862932" lon="-5.181398000568152">
        <ele>25.129999999999999</ele>
        <time>2019-09-03T16:07:15Z</time>
      </trkpt>
      <trkpt lat="57.822135994210839" lon="-5.181637974455953">
        <ele>24.170000000000002</ele>
        <time>2019-09-03T16:07:16Z</time>
      </trkpt>
      <trkpt lat="57.82226700335741" lon="-5.181869985535741">
        <ele>23.690000000000001</ele>
        <time>2019-09-03T16:07:17Z</time>
      </trkpt>
      <trkpt lat="57.82381103374064" lon="-5.183851970359683">
        <ele>16</ele>
        <time>2019-09-03T16:07:27Z</time>
      </trkpt>
      <trkpt lat="57.824477981775999" lon="-5.184388998895884">
        <ele>14.56</ele>
        <time>2019-09-03T16:07:31Z</time>
      </trkpt>
      <trkpt lat="57.824665987864137" lon="-5.184483965858817">
        <ele>14.08</ele>
        <time>2019-09-03T16:07:32Z</time>
      </trkpt>
      <trkpt lat="57.82602502964437" lon="-5.185171030461788">
        <ele>12.630000000000001</ele>
        <time>2019-09-03T16:07:39Z</time>
      </trkpt>
      <trkpt lat="57.826403975486755" lon="-5.185340009629726">
        <ele>12.15</ele>
        <time>2019-09-03T16:07:41Z</time>
      </trkpt>
      <trkpt lat="57.826602039858699" lon="-5.185364987701178">
        <ele>12.15</ele>
        <time>2019-09-03T16:07:42Z</time>
      </trkpt>
      <trkpt lat="57.828043978661299" lon="-5.185547964647412">
        <ele>13.119999999999999</ele>
        <time>2019-09-03T16:07:50Z</time>
      </trkpt>
      <trkpt lat="57.829125998541713" lon="-5.18569003790617">
        <ele>15.52</ele>
        <time>2019-09-03T16:07:57Z</time>
      </trkpt>
      <trkpt lat="57.82991599291563" lon="-5.185837978497148">
        <ele>22.25</ele>
        <time>2019-09-03T16:08:02Z</time>
      </trkpt>
      <trkpt lat="57.830079020932317" lon="-5.185868991538882">
        <ele>23.690000000000001</ele>
        <time>2019-09-03T16:08:03Z</time>
      </trkpt>
      <trkpt lat="57.830224027857184" lon="-5.185964964330196">
        <ele>24.170000000000002</ele>
        <time>2019-09-03T16:08:04Z</time>
      </trkpt>
      <trkpt lat="57.830374985933304" lon="-5.186085999011993">
        <ele>25.129999999999999</ele>
        <time>2019-09-03T16:08:05Z</time>
      </trkpt>
      <trkpt lat="57.830511024221778" lon="-5.186247015371919">
        <ele>25.129999999999999</ele>
        <time>2019-09-03T16:08:06Z</time>
      </trkpt>
      <trkpt lat="57.830617977306247" lon="-5.186439966782928">
        <ele>25.609999999999999</ele>
        <time>2019-09-03T16:08:07Z</time>
      </trkpt>
      <trkpt lat="57.830707998946309" lon="-5.186681030318141">
        <ele>25.609999999999999</ele>
        <time>2019-09-03T16:08:08Z</time>
      </trkpt>
      <trkpt lat="57.830801960080862" lon="-5.186929972842336">
        <ele>25.609999999999999</ele>
        <time>2019-09-03T16:08:09Z</time>
      </trkpt>
      <trkpt lat="57.830898016691208" lon="-5.187192996963859">
        <ele>25.609999999999999</ele>
        <time>2019-09-03T16:08:10Z</time>
      </trkpt>
      <trkpt lat="57.830959958955646" lon="-5.187513018026948">
        <ele>25.609999999999999</ele>
        <time>2019-09-03T16:08:11Z</time>
      </trkpt>
      <trkpt lat="57.831025002524257" lon="-5.187848964706063">
        <ele>25.609999999999999</ele>
        <time>2019-09-03T16:08:12Z</time>
      </trkpt>
      <trkpt lat="57.831603018566966" lon="-5.190395973622799">
        <ele>23.690000000000001</ele>
        <time>2019-09-03T16:08:19Z</time>
      </trkpt>
      <trkpt lat="57.832848988473415" lon="-5.193523010239005">
        <ele>21.289999999999999</ele>
        <time>2019-09-03T16:08:29Z</time>
      </trkpt>
      <trkpt lat="57.834181040525436" lon="-5.195693001151085">
        <ele>20.809999999999999</ele>
        <time>2019-09-03T16:08:37Z</time>
      </trkpt>
      <trkpt lat="57.835863037034869" lon="-5.198270017281175">
        <ele>21.289999999999999</ele>
        <time>2019-09-03T16:08:47Z</time>
      </trkpt>
      <trkpt lat="57.836665017530322" lon="-5.20025996491313">
        <ele>20.809999999999999</ele>
        <time>2019-09-03T16:08:54Z</time>
      </trkpt>
      <trkpt lat="57.837599013000727" lon="-5.20382302813232">
        <ele>19.359999999999999</ele>
        <time>2019-09-03T16:09:05Z</time>
      </trkpt>
      <trkpt lat="57.838169988244772" lon="-5.207401011139154">
        <ele>17.440000000000001</ele>
        <time>2019-09-03T16:09:15Z</time>
      </trkpt>
      <trkpt lat="57.838947996497154" lon="-5.212379023432732">
        <ele>14.56</ele>
        <time>2019-09-03T16:09:29Z</time>
      </trkpt>
      <trkpt lat="57.839295007288456" lon="-5.213713003322482">
        <ele>13.119999999999999</ele>
        <time>2019-09-03T16:09:33Z</time>
      </trkpt>
      <trkpt lat="57.839428028091788" lon="-5.214027995243669">
        <ele>12.630000000000001</ele>
        <time>2019-09-03T16:09:34Z</time>
      </trkpt>
      <trkpt lat="57.840426983311772" lon="-5.216258000582457">
        <ele>5.91</ele>
        <time>2019-09-03T16:09:42Z</time>
      </trkpt>
      <trkpt lat="57.840853035449982" lon="-5.217709997668862">
        <ele>2.06</ele>
        <time>2019-09-03T16:09:50Z</time>
      </trkpt>
      <trkpt lat="57.841308005154133" lon="-5.219264002516866">
        <ele>1.1</ele>
        <time>2019-09-03T16:10:02Z</time>
      </trkpt>
      <trkpt lat="57.841559965163469" lon="-5.220145024359226">
        <ele>1.1</ele>
        <time>2019-09-03T16:10:13Z</time>
      </trkpt>
      <trkpt lat="57.841659961268306" lon="-5.220520030707121">
        <ele>0.62</ele>
        <time>2019-09-03T16:10:17Z</time>
      </trkpt>
      <trkpt lat="57.841802034527063" lon="-5.221052030101419">
        <ele>1.1</ele>
        <time>2019-09-03T16:10:26Z</time>
      </trkpt>
      <trkpt lat="57.841807985678315" lon="-5.221076002344489">
        <ele>1.1</ele>
        <time>2019-09-03T16:10:27Z</time>
      </trkpt>
      <trkpt lat="57.841813014820218" lon="-5.221096035093069">
        <ele>1.58</ele>
        <time>2019-09-03T16:10:28Z</time>
      </trkpt>
      <trkpt lat="57.84181896597147" lon="-5.221115984022617">
        <ele>2.06</ele>
        <time>2019-09-03T16:10:29Z</time>
      </trkpt>
      <trkpt lat="57.841845033690333" lon="-5.221213968470693">
        <ele>3.5</ele>
        <time>2019-09-03T16:10:33Z</time>
      </trkpt>
      <trkpt lat="57.841845033690333" lon="-5.221213968470693">
        <ele>3.98</ele>
        <time>2019-09-03T16:10:34Z</time>
      </trkpt>
      <trkpt lat="57.841845033690333" lon="-5.221213968470693">
        <ele>4.46</ele>
        <time>2019-09-03T16:10:49Z</time>
      </trkpt>
    </trkseg>
  </trk>

</gpx>